GFSMW_sfc_wetblb_000.txt.gz
Wetbulb
48.12 49.61 51.44 51.81 52.57 53.86 54.15 54.27 54.49 54.59 52.86 50.32 50.63 51.17 49.98 51.54 48.50 47.00 46.71 46.19 45.98 45.22 44.60 44.36 44.04 43.72 42.59 41.66 42.59 41.78 41.25 41.48 42.65 41.04 41.17 41.43 42.29 43.22 44.98 45.00 44.41 44.67 45.41
46.69 47.87 48.09 48.84 49.98 50.96 51.96 50.97 50.57 50.13 50.37 50.27 49.55 51.37 50.96 48.16 46.57 45.56 43.65 44.08 44.02 43.95 45.01 43.92 43.34 42.73 42.02 41.65 41.39 41.06 40.73 40.83 41.85 40.10 39.42 36.94 39.32 40.96 41.67 41.84 42.92 41.24 42.88
46.05 46.58 46.00 45.16 46.39 46.66 46.42 47.08 47.11 47.45 48.15 49.85 48.74 45.97 45.61 45.52 43.44 43.00 41.10 42.17 43.08 43.23 43.10 43.60 42.93 41.80 41.60 41.21 40.57 40.41 39.79 39.01 39.67 39.63 38.64 34.81 33.27 35.93 38.93 39.31 39.24 39.10 39.59
45.49 45.01 44.31 44.05 43.78 43.17 44.14 45.35 46.27 46.07 46.32 45.82 45.54 44.62 43.16 41.94 41.86 40.52 39.62 40.65 42.27 42.50 42.93 42.73 41.82 41.02 40.95 41.41 40.93 40.09 38.66 38.67 34.97 37.75 38.72 37.52 36.32 32.77 32.47 36.33 37.81 38.01 38.70
44.67 45.95 45.19 45.36 44.58 45.12 44.44 43.82 45.27 45.37 44.79 44.36 44.36 43.01 40.32 40.72 40.60 39.38 39.97 40.07 41.45 41.84 41.66 41.81 41.31 41.25 40.00 39.27 38.59 36.96 35.91 36.36 34.86 34.74 34.92 35.06 35.01 35.20 32.95 29.72 32.22 36.29 36.70
43.85 45.18 46.32 46.77 45.63 44.03 43.14 43.36 43.95 42.78 43.03 42.17 41.96 40.95 40.38 39.50 39.36 40.07 40.00 40.43 40.16 40.58 41.00 41.11 39.51 39.21 38.37 37.60 36.59 35.65 35.31 34.57 34.31 34.43 34.28 33.98 32.54 31.57 31.81 29.67 29.83 30.18 34.22
43.38 44.43 45.31 44.83 42.50 41.68 41.83 42.81 41.31 40.41 41.17 41.16 40.95 40.52 40.14 39.42 40.07 39.86 39.16 39.55 40.75 40.05 39.60 39.00 38.40 37.80 37.58 37.20 36.11 34.49 33.94 32.75 31.48 31.58 31.84 32.64 32.07 33.58 32.55 31.32 29.08 28.89 29.76
43.74 43.71 42.05 41.92 41.64 41.67 40.05 39.97 39.94 39.54 40.28 40.41 40.18 40.30 40.17 39.92 40.51 40.39 39.96 40.28 38.80 38.09 38.65 38.31 37.20 36.71 38.90 37.14 38.18 36.15 33.18 32.62 31.50 30.49 30.19 30.79 31.46 31.97 31.73 31.05 29.21 24.65 26.43
41.05 41.40 41.73 41.32 41.22 41.40 40.50 39.12 39.27 38.95 38.92 38.78 38.96 38.48 38.58 38.01 37.94 38.28 38.30 38.11 38.15 39.48 38.13 36.63 38.33 38.44 37.55 36.53 35.81 33.58 34.18 32.98 31.98 31.36 31.28 30.43 30.93 29.87 28.56 30.35 29.08 26.92 21.84
40.82 40.76 40.30 40.24 40.16 40.01 40.64 40.21 37.98 35.73 35.52 35.46 36.16 36.09 35.57 35.93 36.04 35.97 35.88 36.73 37.21 38.16 38.65 39.47 37.56 37.67 36.16 36.57 35.46 32.78 32.37 32.34 31.44 31.98 30.06 28.11 28.81 28.32 28.05 27.09 27.75 27.27 24.61
39.25 39.24 38.77 38.58 37.83 39.10 38.69 37.41 35.10 34.82 34.47 34.26 34.86 34.56 34.79 35.00 35.07 34.96 35.41 35.47 36.27 37.31 36.97 37.22 37.06 34.85 34.76 34.41 31.39 30.55 30.47 31.15 29.97 27.99 27.90 27.62 27.23 26.50 26.51 26.37 25.97 25.17 25.55
38.67 38.43 38.06 37.94 36.75 35.75 35.78 34.29 33.87 34.18 33.76 33.58 33.98 33.83 34.28 34.39 33.95 33.72 33.99 34.62 34.49 34.87 35.59 35.65 35.33 35.06 33.14 31.40 29.90 29.70 29.76 28.27 27.49 27.09 26.55 26.48 28.09 25.22 24.63 24.35 24.05 24.45 25.47
37.92 37.61 36.76 36.32 35.87 35.01 34.22 34.94 35.36 33.47 32.42 32.09 31.90 33.20 33.90 33.61 33.21 32.36 32.81 33.42 33.14 33.74 34.44 35.18 33.63 32.12 31.08 30.24 29.64 29.35 28.48 26.66 26.52 26.52 25.89 25.67 25.36 23.69 23.56 23.62 23.99 24.85 27.11
37.92 36.39 35.67 34.93 33.91 34.45 35.97 34.89 33.47 33.09 32.72 31.76 31.92 32.80 33.32 33.69 33.26 33.12 32.83 33.24 34.34 34.71 33.42 32.86 32.57 30.91 30.24 29.75 29.08 27.69 26.36 26.01 26.60 26.80 26.07 25.38 25.02 24.21 23.81 24.77 24.36 25.56 24.55
36.75 36.11 34.39 32.34 34.24 35.05 33.41 33.08 32.56 33.08 32.91 32.22 32.00 32.96 34.00 34.07 33.90 33.81 33.90 34.06 34.32 35.96 33.26 32.70 29.58 28.75 29.24 29.03 27.13 26.99 26.41 25.80 25.50 25.60 25.85 26.45 27.63 30.06 28.72 26.31 24.61 23.95 24.36
37.18 37.07 34.98 34.81 34.19 33.34 32.29 32.14 32.19 32.30 32.74 31.90 31.90 33.98 34.26 34.19 33.65 33.75 33.61 34.04 36.31 32.71 29.30 26.79 27.78 27.93 28.71 31.86 32.28 31.40 28.28 27.00 25.44 26.40 26.59 26.23 26.77 26.58 27.23 26.48 26.80 26.07 23.65
37.67 36.42 35.80 33.50 32.92 32.18 32.14 31.31 31.50 32.06 31.66 31.72 32.64 33.64 33.81 33.48 32.99 33.29 32.99 32.83 32.05 30.57 29.19 27.58 27.56 26.26 28.40 32.21 32.05 30.20 25.83 24.93 24.24 23.64 22.47 22.77 24.35 24.08 23.88 24.81 25.88 26.37 27.61
36.95 35.97 34.43 31.78 31.14 31.25 31.19 31.09 30.72 30.75 30.70 31.25 31.66 33.10 32.85 32.36 32.22 32.04 32.13 31.80 31.65 30.52 25.41 25.96 26.22 27.00 27.79 29.70 29.31 27.78 23.70 23.05 22.26 21.83 21.89 21.52 21.58 22.97 23.84 24.29 25.33 24.78 25.88
35.90 35.97 34.44 31.02 30.19 30.45 30.70 30.02 29.91 29.87 30.28 30.74 30.92 31.82 32.34 31.57 31.47 31.50 30.78 30.74 30.65 28.06 27.07 27.04 25.75 23.78 23.95 28.01 27.34 25.70 22.36 21.72 21.19 22.42 22.23 22.18 21.85 24.09 26.65 24.19 23.12 23.28 24.29
35.25 33.75 31.44 31.07 29.73 30.02 30.01 29.76 29.99 29.95 29.59 30.81 31.04 31.83 31.92 31.09 30.81 30.42 29.42 29.04 26.00 27.01 26.61 25.18 23.32 24.81 22.20 25.34 25.68 24.66 20.20 16.33 19.90 21.68 22.16 22.70 23.04 24.87 25.74 24.46 22.41 20.76 23.08
32.76 32.52 31.70 30.82 30.54 30.72 31.27 30.16 29.61 29.34 30.70 31.17 30.95 31.11 31.03 30.27 29.67 28.31 27.42 25.34 25.06 24.60 23.50 23.77 22.19 22.39 23.09 21.77 24.66 24.77 18.56 19.01 20.88 20.27 20.05 21.59 23.62 24.51 24.69 25.18 23.02 23.84 24.03
31.99 31.72 30.89 30.97 31.31 31.08 30.17 29.21 28.48 30.33 30.41 30.35 30.10 30.00 29.76 29.97 29.45 26.53 24.65 25.10 23.56 22.28 20.66 14.37 17.51 19.54 20.28 22.59 22.94 24.49 23.97 23.31 13.81 18.70 20.05 19.70 23.40 22.95 22.86 22.36 24.21 23.99 22.32
31.66 31.15 31.09 31.25 31.13 30.33 29.69 28.65 29.72 30.35 30.03 29.68 29.59 29.58 29.47 28.96 28.23 25.31 23.62 22.91 21.68 18.54 18.82 20.64 15.25 17.22 20.57 18.33 22.34 23.36 23.51 22.67 15.35 17.74 19.39 21.54 21.46 20.96 20.54 20.75 21.68 21.12 19.91
31.15 30.69 30.00 28.82 28.85 30.06 30.07 29.99 30.17 29.77 29.18 29.48 29.12 28.73 28.06 28.29 28.08 26.26 25.74 23.65 18.92 17.67 20.99 19.55 18.35 15.00 15.97 14.78 15.83 17.46 13.85 17.45 18.75 15.35 14.19 15.47 19.19 15.56 17.11 17.62 17.19 17.72 18.64
30.91 30.47 29.44 28.61 28.98 29.64 29.98 30.11 29.38 28.99 29.10 29.80 29.74 28.66 26.90 27.34 27.46 25.63 25.28 24.65 23.74 22.59 19.91 19.18 17.97 7.74 4.34 13.22 18.69 20.04 14.71 10.28 14.95 7.86 5.89 9.89 13.23 13.60 15.17 15.62 15.09 14.82 15.09
30.05 29.58 29.27 28.69 29.13 29.16 28.67 28.54 28.97 28.97 28.12 29.82 30.24 28.70 29.79 31.22 28.48 26.19 26.41 29.06 28.81 28.10 28.54 27.66 18.83 12.28 19.79 23.47 25.10 25.70 24.30 22.84 21.40 9.69 3.97 -0.14 1.26 9.27 13.28 13.77 13.25 12.37 11.57

GFSMW_sfc_wetblb_003.txt.gz
Wetbulb
52.78 55.59 57.66 60.29 60.69 60.87 59.54 58.83 57.57 56.78 56.81 55.46 55.88 56.27 55.78 54.35 51.15 51.04 51.12 51.16 51.50 51.98 52.49 51.64 51.53 51.49 50.44 50.23 49.66 49.06 46.82 46.92 48.00 46.38 45.69 46.28 49.99 50.81 50.58 49.68 49.06 48.51 48.30
52.49 53.79 56.92 59.87 61.22 60.75 60.83 59.08 57.85 55.84 56.05 56.48 56.96 56.68 55.51 52.87 50.58 49.95 50.15 50.17 50.62 50.82 50.62 51.26 51.20 51.30 50.64 50.09 49.30 47.50 45.94 46.64 47.08 43.04 42.77 40.53 43.15 46.41 47.67 46.94 46.61 46.62 46.91
51.53 53.02 55.49 57.90 57.71 56.91 56.44 56.93 55.94 55.39 54.79 54.45 53.99 52.59 52.33 52.29 50.93 49.69 49.45 49.70 50.37 50.68 51.13 51.48 51.39 51.00 50.49 49.58 48.68 47.31 45.43 43.54 45.44 45.16 41.75 37.94 36.88 39.90 43.93 43.72 44.76 44.54 43.79
50.80 50.97 51.16 51.94 53.07 51.67 52.53 53.21 52.41 52.06 51.06 51.48 51.69 51.08 49.90 49.19 48.98 48.68 49.47 50.16 50.47 50.65 50.32 50.41 50.26 50.24 50.16 48.27 47.21 46.39 45.15 43.91 40.61 42.26 42.99 42.03 40.63 35.27 34.07 40.12 40.77 41.67 40.59
49.53 48.45 48.97 49.77 50.24 50.84 51.00 50.71 50.34 49.30 49.38 50.05 49.89 49.22 48.55 48.77 49.24 49.26 48.92 49.12 49.52 49.37 48.85 48.98 48.71 48.97 47.94 47.25 46.24 44.97 43.24 42.08 39.92 39.09 38.56 38.17 37.70 37.76 34.55 30.98 34.55 37.72 38.98
49.45 50.10 50.80 50.73 49.56 49.56 49.87 49.36 48.28 47.35 48.00 48.13 47.93 48.12 47.36 46.92 47.07 47.32 47.26 47.94 48.34 48.83 49.00 48.18 47.66 47.69 46.89 45.95 44.58 43.18 41.52 40.56 39.93 39.49 38.31 36.04 34.27 33.57 33.78 32.31 33.08 32.97 35.52
49.22 49.39 50.18 50.13 48.89 48.65 47.79 47.04 46.88 45.85 46.94 46.95 46.68 46.51 46.24 46.27 45.55 45.26 45.21 45.14 45.32 45.79 47.36 47.36 46.84 46.40 44.83 43.53 44.04 42.58 41.26 40.35 39.01 38.01 37.11 37.74 36.73 36.90 35.59 33.90 32.50 31.85 34.53
49.30 50.04 48.74 47.58 46.69 46.22 46.20 46.25 45.94 44.74 45.01 44.87 43.96 43.36 42.61 42.03 41.90 41.98 42.16 42.25 42.80 43.70 46.14 46.48 45.25 44.19 43.82 43.60 42.98 42.13 40.95 40.91 39.58 38.72 38.28 37.77 37.99 38.31 37.36 34.31 32.70 29.85 31.38
48.32 47.92 47.01 46.64 46.09 45.51 45.46 44.98 42.88 41.63 41.83 41.95 41.88 41.54 41.61 41.37 41.07 41.57 42.09 41.99 43.51 44.28 44.99 44.34 44.25 43.66 43.25 42.55 42.48 41.41 40.15 39.81 39.62 39.07 39.07 38.00 38.01 37.41 36.20 35.35 34.68 31.26 27.19
46.32 46.22 45.92 46.03 46.66 46.06 43.87 42.32 42.07 41.04 40.81 41.37 41.56 41.14 41.24 41.73 41.79 41.88 41.30 41.92 43.06 44.14 44.28 43.46 42.81 42.97 43.13 42.09 40.74 40.35 39.70 38.71 39.30 38.43 38.05 36.64 35.94 35.57 35.81 34.93 34.15 32.94 29.74
45.60 44.64 44.45 45.25 45.77 43.65 41.79 40.93 40.21 40.95 40.55 40.60 40.80 41.23 41.30 41.64 41.67 41.23 41.33 41.46 42.41 43.17 42.84 42.36 42.25 41.80 40.63 40.56 40.00 39.10 38.12 37.47 38.19 37.13 35.54 34.87 35.25 34.32 33.86 33.44 32.86 31.51 30.93
43.94 43.61 42.78 41.96 41.24 40.65 40.62 39.95 40.77 40.62 39.62 39.68 39.87 40.20 41.00 40.99 40.50 40.36 40.49 40.78 40.50 40.97 40.53 40.95 40.78 40.59 40.06 39.22 38.37 37.76 37.65 36.80 35.57 35.39 34.34 33.95 33.48 32.87 33.32 32.49 31.33 30.76 31.11
42.17 41.65 39.66 39.51 39.69 39.94 40.31 40.85 40.31 38.75 38.77 38.78 39.25 39.75 39.96 39.92 39.86 39.71 39.89 39.88 39.62 39.93 40.86 40.55 38.79 38.36 38.35 37.47 37.02 36.20 36.03 35.24 34.80 34.12 33.22 32.66 32.07 31.50 31.91 31.12 29.93 29.16 28.84
41.37 41.39 39.20 39.08 39.53 39.76 40.32 40.40 39.23 39.00 38.74 38.53 38.62 38.65 39.40 39.57 39.58 39.45 39.56 39.60 40.09 39.95 39.88 38.85 38.87 38.18 36.30 35.84 35.68 35.06 34.45 33.84 33.45 33.25 32.69 32.08 31.50 30.62 30.17 29.80 29.80 29.20 27.36
40.55 39.86 38.52 38.30 39.01 38.70 39.46 39.22 38.90 38.69 38.70 38.03 37.77 38.52 39.65 39.74 39.48 39.17 39.01 39.23 39.68 40.30 39.08 38.01 35.21 35.21 35.06 34.08 34.70 33.75 33.40 33.35 32.74 32.45 31.47 31.05 29.96 29.19 28.95 27.79 27.56 26.65 25.10
40.98 40.42 39.32 38.22 38.13 38.82 39.22 38.12 37.83 38.15 38.00 37.52 37.57 38.43 38.94 39.13 38.84 38.47 38.56 39.08 39.49 39.65 37.01 36.33 34.92 33.72 33.17 33.00 32.76 32.25 31.87 30.18 28.92 27.82 28.25 28.13 27.10 27.50 26.29 26.08 26.38 26.59 24.77
41.60 40.25 39.10 38.61 38.22 38.80 38.48 38.03 37.81 37.52 36.90 36.82 37.19 37.58 37.92 38.11 38.12 37.72 37.49 37.96 38.53 38.94 37.93 34.51 33.92 33.59 33.43 31.06 30.11 28.23 29.30 28.02 27.42 26.56 25.81 25.81 26.35 25.89 26.35 26.22 26.52 27.16 27.12
41.79 40.95 40.52 39.35 38.41 38.49 38.05 37.45 36.84 36.40 35.66 35.87 36.54 37.14 37.66 37.30 37.49 37.06 36.86 37.82 38.03 37.00 36.67 33.93 33.22 32.61 30.60 28.65 28.20 27.36 28.66 27.62 26.50 25.68 25.56 25.13 25.43 25.98 25.16 26.16 26.14 26.07 26.78
43.01 41.86 41.45 40.02 37.32 37.28 37.37 36.30 35.85 35.44 35.15 35.59 36.41 37.05 37.25 36.79 36.64 36.43 36.94 36.98 35.89 35.88 34.97 33.43 31.57 29.53 29.30 27.07 26.78 27.02 27.25 25.88 25.12 25.67 25.99 25.37 24.94 25.00 26.25 25.40 24.44 24.76 25.54
42.03 40.35 39.39 36.36 35.86 35.99 36.07 35.29 35.67 35.56 35.72 36.19 36.51 37.12 37.18 36.89 36.35 36.56 36.45 35.83 34.96 32.52 32.97 30.22 29.25 25.89 27.50 25.14 25.80 26.23 26.79 24.75 24.88 25.48 25.50 23.94 23.92 24.59 25.15 24.48 24.07 22.28 24.73
36.42 35.48 35.67 35.51 36.51 36.63 36.36 36.06 35.35 35.11 36.05 36.21 36.51 36.70 37.00 36.27 36.53 36.29 35.40 33.96 32.83 31.76 30.57 28.45 28.04 27.15 26.58 26.58 24.73 25.28 26.31 25.16 24.48 23.55 23.53 24.72 23.46 24.17 24.01 23.84 23.82 23.78 24.54
35.36 35.97 35.83 36.11 35.89 36.70 36.03 35.05 34.61 36.30 36.06 35.98 35.72 35.85 36.32 35.73 35.13 34.98 34.32 32.02 31.49 30.07 28.49 27.78 27.34 27.85 26.44 23.54 24.50 24.99 24.94 24.74 24.18 23.16 23.48 24.04 23.16 22.86 22.54 22.69 22.38 22.81 22.79
35.32 36.09 36.33 35.75 35.42 35.37 35.13 34.35 35.49 35.37 34.89 34.85 34.84 35.11 35.25 35.11 34.62 33.56 32.43 30.62 30.11 29.38 28.51 27.62 27.76 27.66 27.54 27.01 23.52 24.30 24.58 24.27 23.92 24.84 23.39 22.00 21.69 21.15 21.19 20.92 20.79 20.22 21.94
35.29 35.23 34.78 33.40 33.35 34.60 34.04 34.27 34.60 34.62 33.80 33.43 33.69 34.51 33.86 33.54 33.93 33.18 32.14 30.58 29.61 29.53 28.65 28.93 28.06 27.95 27.17 26.89 26.60 26.32 27.18 24.16 24.22 22.82 22.95 20.60 20.54 19.31 19.73 20.95 21.03 20.71 19.83
33.81 34.21 33.00 32.65 33.01 33.83 33.57 34.17 33.89 33.32 32.58 32.69 32.88 32.12 32.53 33.11 33.29 32.32 32.06 30.64 31.18 31.41 30.73 30.00 29.04 28.60 27.44 27.41 25.96 25.61 27.06 26.54 24.17 21.23 22.34 21.70 20.66 20.27 20.32 20.38 19.98 19.45 18.53
33.46 32.52 32.69 32.78 32.56 32.74 32.91 33.16 33.10 32.87 32.38 31.80 32.90 32.66 32.18 32.30 33.05 32.89 32.09 30.05 30.23 28.20 29.01 28.76 28.42 29.71 26.64 24.93 25.42 26.08 26.32 24.98 23.16 22.44 21.29 20.29 19.63 19.13 19.22 19.03 18.38 18.95 16.72

GFSMW_sfc_wetblb_006.txt.gz
Wetbulb
59.76 61.52 62.81 63.89 64.49 65.26 64.52 64.24 63.19 63.55 64.31 62.45 61.12 59.78 59.50 58.29 56.77 56.42 55.64 55.30 55.24 54.93 55.12 55.37 55.15 54.70 53.77 53.57 53.52 52.56 51.50 50.72 51.50 48.50 48.36 48.49 49.41 50.89 51.24 52.07 50.65 50.69 50.77
59.01 60.44 62.17 63.19 63.63 63.49 63.72 63.55 63.14 63.40 62.19 61.36 60.78 61.16 61.41 58.03 55.92 56.03 55.27 54.79 54.20 54.07 54.10 54.62 54.25 54.05 53.20 53.28 52.86 51.29 49.23 48.98 49.97 46.28 45.20 42.46 44.61 47.13 49.15 48.98 48.47 48.59 48.79
58.67 60.11 61.46 62.70 63.74 63.48 63.82 63.18 62.37 60.41 59.53 58.72 59.14 57.83 57.70 56.90 57.34 55.92 55.52 54.53 54.60 54.14 53.86 53.91 53.77 53.48 52.88 51.54 51.52 50.40 48.69 46.49 47.65 47.10 44.07 40.28 38.78 41.66 44.99 46.41 45.65 46.69 45.30
60.16 60.94 61.72 62.52 63.16 63.48 63.09 61.23 59.07 57.76 56.27 56.15 56.47 55.63 54.50 53.71 53.29 53.74 54.45 54.14 54.37 53.90 53.40 53.09 53.20 52.82 51.96 51.08 50.59 49.52 48.16 46.32 43.62 45.03 45.00 44.37 42.58 38.24 36.83 42.52 43.61 43.31 42.79
58.86 58.51 59.10 60.02 58.98 58.16 57.79 57.39 56.01 54.98 55.44 55.30 55.58 54.51 53.18 53.16 53.41 53.07 52.09 52.64 53.01 53.03 52.40 52.21 52.20 51.67 50.98 50.78 50.14 48.62 46.53 45.82 44.09 43.15 42.32 42.07 41.29 40.68 37.29 34.61 37.76 40.78 41.67
55.67 55.84 56.59 55.81 55.15 56.10 55.84 55.62 54.54 53.63 53.85 53.61 53.45 52.80 51.67 50.15 48.69 47.61 47.01 46.77 46.73 47.29 48.09 48.44 50.67 51.50 51.06 50.36 49.28 48.06 45.57 44.47 43.40 42.23 41.06 39.57 37.87 37.13 36.58 35.27 36.14 36.27 38.90
53.56 53.34 53.25 53.42 53.86 54.39 54.44 53.90 53.13 51.69 52.73 52.41 51.06 49.48 47.77 46.81 45.68 45.03 44.45 44.47 44.52 45.20 46.13 47.51 48.38 49.84 50.58 49.24 47.53 46.18 44.41 43.75 42.14 41.06 40.13 40.29 39.58 39.48 38.32 36.78 35.51 34.70 37.29
53.74 53.89 54.09 54.44 54.08 53.30 53.07 52.86 52.31 51.15 50.20 48.52 46.78 46.91 46.59 46.24 45.81 45.65 45.33 44.91 44.69 45.54 47.64 48.77 49.72 49.71 48.00 45.63 45.04 46.00 44.44 43.32 42.12 40.98 40.79 40.40 40.19 39.94 39.01 36.92 35.08 32.55 34.19
53.69 54.33 54.34 53.80 53.23 52.53 52.39 52.54 50.50 47.97 46.85 46.96 46.19 46.62 46.52 45.95 45.62 45.91 46.04 45.08 45.45 45.63 47.29 48.87 48.24 47.06 45.63 45.18 45.63 44.44 43.08 42.47 41.78 41.34 40.84 40.01 39.99 39.66 39.06 38.48 37.28 33.82 30.33
53.85 54.06 53.14 52.10 52.42 52.44 51.62 50.09 48.79 47.40 45.48 45.15 46.53 46.19 45.97 46.02 46.20 45.78 44.61 44.55 45.13 45.64 46.61 47.16 46.65 44.83 44.99 45.15 44.41 42.92 42.23 41.04 40.66 40.50 39.70 39.22 38.93 38.75 38.77 38.12 37.42 36.17 33.19
53.51 53.17 52.32 52.27 52.00 51.19 49.17 48.10 47.28 45.66 44.31 46.26 45.81 45.97 46.39 45.51 45.52 44.58 44.32 44.10 44.57 44.53 44.77 45.68 45.56 44.54 43.76 44.09 43.28 41.72 40.87 39.68 39.76 40.11 39.20 38.17 38.39 37.69 37.70 37.48 36.78 35.60 34.64
53.74 52.69 51.66 51.61 50.61 48.59 47.43 46.71 46.53 45.95 45.86 45.05 45.17 45.29 45.79 44.90 44.20 43.98 43.60 44.07 43.60 44.06 43.65 43.83 43.74 43.70 43.30 42.97 41.11 40.13 40.11 39.51 38.71 38.71 38.23 37.34 37.17 36.93 36.96 36.34 35.36 34.70 34.53
51.97 50.77 50.16 49.34 48.07 46.83 46.17 46.04 46.55 45.30 44.49 44.17 44.52 45.31 44.99 44.38 43.47 43.41 43.23 43.45 43.30 43.36 43.59 43.51 42.61 41.70 41.58 40.74 40.34 40.36 39.75 39.11 38.61 38.09 37.12 36.63 36.32 35.31 35.40 34.97 33.94 32.99 31.74
49.62 49.37 48.12 47.30 46.83 46.24 45.89 46.76 45.13 45.30 44.29 43.54 43.88 43.72 43.70 43.51 43.47 43.31 42.88 42.71 42.99 42.69 42.85 42.89 42.78 41.94 40.73 39.99 39.86 39.33 38.97 38.50 38.07 37.57 37.04 36.18 35.08 33.94 33.10 31.92 31.35 30.58 29.34
47.78 47.51 46.95 47.01 46.37 46.08 46.78 46.18 45.51 44.64 44.28 42.95 43.01 42.91 43.52 43.76 43.30 42.65 42.36 42.40 42.70 42.66 43.11 41.47 40.59 40.34 39.72 38.18 38.17 37.97 38.25 37.49 35.99 35.69 34.62 33.99 31.73 28.91 29.03 29.27 29.41 28.47 27.53
47.41 47.62 47.30 47.16 46.19 45.56 45.77 45.34 44.34 43.83 43.79 42.99 42.67 42.97 42.81 42.72 42.53 42.07 41.78 41.86 41.78 42.16 42.28 41.86 40.73 39.99 38.57 32.97 31.27 31.59 35.38 35.00 33.84 32.59 32.48 32.43 30.45 30.04 27.45 27.59 27.24 27.59 26.58
47.76 47.73 48.07 47.29 45.93 44.99 45.61 44.40 43.94 43.64 42.59 42.08 41.91 41.41 41.69 41.52 41.67 41.47 41.44 40.82 41.00 41.63 41.10 41.10 40.32 39.24 38.84 31.15 29.28 28.62 34.10 33.81 32.79 31.57 30.97 30.34 30.36 29.57 29.98 28.38 28.09 28.51 28.27
48.57 49.18 48.91 47.62 44.56 45.66 45.51 44.97 43.23 42.06 41.53 40.87 40.81 41.31 41.19 40.74 41.03 41.13 40.81 40.95 41.00 40.43 39.70 39.64 39.63 38.80 35.51 28.65 27.71 27.74 33.46 32.90 31.87 30.96 30.33 30.11 29.76 29.63 27.09 27.52 27.94 28.83 29.80
50.42 50.62 50.01 48.21 46.58 44.19 44.77 42.74 41.52 41.45 40.43 40.18 40.51 40.17 40.28 40.36 40.36 40.08 40.73 41.17 40.46 39.69 39.29 39.09 38.23 36.67 34.99 27.34 26.73 27.69 32.19 31.05 30.14 30.31 30.29 28.81 28.33 26.82 25.66 26.14 25.79 27.27 28.20
50.96 50.06 49.01 46.71 45.07 44.01 42.37 40.84 40.54 40.84 40.12 39.93 39.51 40.24 40.55 39.97 39.69 40.29 40.61 41.11 40.38 38.93 38.01 36.71 36.59 30.00 33.24 26.07 25.97 27.53 31.44 29.31 29.18 29.91 29.14 26.40 25.84 24.28 24.92 25.16 24.95 24.04 25.55
50.07 49.11 45.53 44.11 43.27 42.52 41.37 39.87 40.51 39.79 39.43 39.71 40.09 39.92 40.11 39.85 40.29 40.61 41.03 40.51 39.65 38.11 36.67 34.17 34.48 33.59 32.04 31.14 25.47 25.39 29.47 29.27 27.95 28.17 28.23 28.53 25.13 24.43 24.23 23.87 25.06 23.86 24.63
46.76 44.80 42.70 41.09 39.71 41.42 41.19 40.39 39.02 39.62 39.69 39.85 39.32 39.48 39.65 39.37 39.29 39.48 39.84 39.47 38.21 36.43 34.88 33.46 33.42 34.39 32.71 26.77 26.53 25.27 25.53 26.02 27.16 26.89 28.46 27.68 24.46 23.99 23.47 23.47 22.29 22.40 23.31
42.92 40.52 38.60 38.73 39.78 40.10 39.47 38.07 38.68 39.22 39.08 38.85 38.55 38.57 38.78 38.54 38.76 38.38 38.52 37.66 37.18 35.57 34.46 33.36 33.48 34.14 34.19 33.23 26.13 25.24 25.13 25.43 26.95 28.10 26.38 23.92 23.37 23.51 24.39 23.03 22.05 22.53 24.82
39.89 39.16 36.86 36.19 35.38 37.24 37.14 38.09 38.63 38.76 38.02 37.09 37.24 37.67 36.59 35.53 37.61 38.29 37.96 37.18 36.32 35.39 33.80 33.53 33.23 33.50 33.15 32.92 33.02 31.67 31.30 27.68 27.33 27.94 28.02 25.73 23.15 23.92 24.69 25.56 25.59 25.32 23.90
37.49 37.36 36.38 36.38 37.15 37.28 36.90 37.93 37.40 37.24 35.93 36.25 35.99 36.12 36.21 34.71 34.02 35.20 37.46 36.26 37.21 35.80 35.25 34.89 33.88 32.78 31.66 31.79 31.02 29.81 30.15 30.17 28.30 25.50 27.56 27.51 26.89 25.70 26.08 26.04 25.18 25.17 23.82
34.90 34.49 35.92 34.90 35.07 35.89 36.19 36.86 37.01 35.96 35.59 34.66 35.69 36.47 36.32 35.64 33.93 33.89 34.33 32.55 31.21 30.41 30.23 29.97 31.33 34.60 31.18 27.62 27.53 26.75 26.81 26.96 25.98 25.90 26.15 26.63 26.44 25.57 25.14 24.82 24.57 24.87 22.94

GFSMW_sfc_wetblb_009.txt.gz
Wetbulb
62.38 63.21 62.88 63.94 64.74 65.82 65.58 65.25 64.50 64.54 64.99 63.22 61.71 60.38 59.78 59.42 58.55 58.01 57.63 57.43 57.14 56.47 56.57 56.52 56.58 56.56 55.08 54.86 54.90 53.91 52.85 51.62 51.86 49.12 48.62 48.30 50.37 51.29 49.78 50.55 51.07 50.56 50.08
60.85 61.68 63.03 63.90 64.58 65.21 65.46 64.92 64.56 64.46 63.24 62.24 61.28 61.66 61.14 58.97 57.64 57.67 57.19 56.88 56.65 56.57 55.97 55.93 55.14 55.20 54.03 53.81 53.59 52.86 50.86 49.55 49.58 46.25 45.82 41.80 43.58 46.36 48.04 47.87 47.92 49.63 48.13
60.03 61.37 62.26 63.42 64.59 64.43 64.50 64.32 64.06 62.91 61.66 61.44 60.52 59.13 58.85 58.11 57.50 56.72 56.51 56.08 56.02 55.62 55.22 54.87 54.25 53.83 53.15 51.14 52.23 51.22 49.90 46.56 47.52 48.02 44.19 39.61 38.12 41.24 44.39 45.05 45.96 47.75 46.28
61.24 62.05 62.49 62.14 62.76 64.06 64.74 63.54 62.25 60.61 59.36 58.53 58.40 57.68 56.28 55.02 55.02 55.22 55.34 54.77 54.85 53.95 52.86 52.10 52.13 52.31 51.88 51.00 50.49 50.61 49.33 47.63 44.61 45.81 45.87 45.39 43.27 38.10 37.29 41.75 42.70 43.84 43.65
61.20 61.66 62.76 63.51 63.75 63.72 62.96 61.60 59.97 57.74 57.77 57.87 57.98 56.51 55.19 54.74 54.54 52.50 50.54 50.30 49.75 49.06 48.19 48.37 49.22 50.23 50.34 50.97 50.60 50.14 48.88 47.15 45.41 44.27 43.12 42.40 41.66 41.11 37.76 34.95 37.64 40.66 41.76
61.19 61.51 62.03 62.19 61.03 60.94 59.99 58.82 57.00 56.22 56.75 56.74 56.16 55.05 52.30 50.06 48.87 47.81 46.89 46.71 47.10 47.29 47.96 48.04 48.48 48.79 49.10 50.15 50.23 49.44 47.57 46.04 44.88 43.78 42.41 40.14 38.51 37.42 36.88 35.50 36.19 37.14 39.19
58.75 58.25 58.30 57.20 57.23 56.94 57.16 56.75 56.00 54.68 55.65 54.81 52.58 50.85 49.56 48.46 47.50 46.76 46.23 45.98 45.76 46.10 47.03 48.07 48.51 48.53 49.46 49.72 48.57 46.62 45.55 44.93 43.49 42.79 41.32 41.13 40.19 40.19 38.71 36.83 35.73 35.57 37.53
56.62 56.33 56.26 55.92 55.93 56.36 56.28 55.73 54.94 54.32 53.47 50.77 49.66 49.49 48.17 47.81 47.75 47.09 46.67 45.90 45.54 45.92 47.01 47.71 48.68 48.88 48.78 47.29 47.06 46.07 45.72 44.84 43.44 42.32 41.66 40.84 40.26 40.24 39.34 37.06 35.79 33.82 34.71
54.98 55.06 55.56 55.95 56.03 56.05 55.56 55.50 54.92 53.04 50.48 50.02 49.47 48.29 47.96 48.07 47.38 46.75 46.89 45.66 45.98 45.46 46.20 47.23 47.63 47.96 47.29 46.80 46.58 45.35 44.35 44.12 42.90 42.07 41.41 40.32 40.23 39.87 39.21 38.78 37.66 34.86 31.19
54.66 55.29 55.67 56.28 56.52 56.04 55.42 55.76 53.93 50.69 50.23 49.42 48.28 48.18 47.90 47.92 48.16 47.27 45.53 45.07 45.43 45.46 45.39 45.63 46.38 46.11 46.49 46.41 45.16 43.98 43.94 42.25 42.01 40.79 40.31 40.08 39.86 39.54 38.90 38.04 38.08 37.42 35.03
55.05 55.47 56.12 56.28 55.90 55.47 55.11 53.28 51.39 50.24 49.31 48.66 48.37 47.41 47.59 47.52 47.42 46.58 45.21 44.96 45.12 44.85 44.47 44.42 44.82 44.72 43.85 44.45 43.82 43.22 42.89 41.28 40.92 40.87 39.67 38.97 39.23 38.18 38.06 38.35 37.92 36.50 36.42
55.71 56.11 56.15 55.20 54.46 54.28 52.99 51.39 50.87 49.79 49.04 48.59 47.10 47.41 47.66 47.04 46.20 45.51 44.85 44.89 44.12 44.51 44.11 44.12 43.83 43.66 43.25 42.98 41.89 41.23 41.20 40.28 39.42 39.36 38.92 37.98 37.92 37.26 37.21 37.22 35.66 35.63 35.70
55.86 56.03 55.55 54.15 53.55 53.19 51.63 50.41 49.79 49.25 48.31 46.72 46.92 47.06 46.85 46.37 45.42 44.96 44.89 44.43 43.82 43.62 44.01 43.80 43.36 42.80 42.67 41.97 41.99 40.93 40.33 39.95 39.66 38.94 38.10 37.42 36.98 35.39 35.64 35.29 34.15 33.86 33.49
55.60 55.71 54.80 53.72 53.81 52.56 50.62 49.54 49.18 48.80 47.22 46.26 46.30 46.04 46.15 45.96 45.23 45.19 44.47 43.64 43.20 42.91 43.30 43.59 42.85 41.93 41.62 40.94 40.44 40.13 39.61 39.37 38.90 38.59 37.51 36.36 35.10 33.86 32.51 31.35 31.08 31.28 30.26
54.46 54.54 53.50 53.36 53.04 51.49 49.93 49.34 49.45 47.86 46.91 45.87 45.44 45.64 46.04 45.67 45.02 44.33 43.90 43.32 42.94 42.97 43.19 42.54 42.68 42.14 41.55 39.91 38.84 39.01 38.71 37.82 37.13 36.92 36.38 35.53 33.05 30.17 29.60 29.12 29.12 28.83 27.44
53.30 53.50 52.97 52.49 51.36 50.37 49.27 49.12 48.44 46.64 46.66 45.28 44.93 45.35 45.07 44.26 43.92 43.66 43.27 42.78 42.36 42.43 42.49 41.90 41.32 41.14 40.27 32.68 31.64 31.10 35.78 36.41 35.79 34.72 34.60 34.25 33.67 32.47 30.54 29.70 28.97 28.59 26.72
52.41 52.43 52.18 51.65 51.14 50.52 49.54 48.39 46.93 46.51 45.28 44.84 44.50 43.93 43.67 42.65 42.73 42.99 42.34 41.86 42.05 42.26 41.74 41.40 40.90 40.73 40.23 32.18 29.92 29.00 33.57 35.47 35.18 34.13 32.98 32.34 32.74 31.63 31.55 30.15 29.53 29.54 30.24
52.15 52.52 52.71 51.98 51.91 51.58 49.37 48.69 46.61 45.55 44.66 43.36 42.75 42.91 42.67 41.94 42.17 42.03 41.70 41.96 42.35 41.73 40.98 40.41 40.33 39.78 35.68 30.46 28.82 28.28 32.82 35.29 34.56 33.34 32.64 31.81 31.26 29.64 27.41 27.04 27.18 28.30 29.50
53.41 53.59 53.68 53.23 52.85 50.67 48.85 46.56 45.57 44.75 42.77 41.62 41.85 42.65 41.66 41.03 41.27 40.88 41.03 41.72 41.77 41.35 40.93 40.42 39.40 38.68 35.48 29.77 28.19 27.77 33.45 33.54 32.45 32.57 32.40 30.97 29.42 27.11 25.92 25.65 25.34 26.18 27.59
53.72 53.55 53.98 53.50 52.11 49.80 47.58 45.93 43.79 43.04 42.23 42.23 42.40 41.64 41.44 40.94 40.44 40.62 40.59 41.40 41.63 40.69 40.37 39.32 38.78 31.90 36.49 28.83 27.86 27.73 32.37 31.39 31.06 31.77 31.63 28.69 26.72 25.38 25.21 24.85 24.33 23.21 25.66
53.48 53.98 53.67 52.43 51.25 49.29 46.28 43.80 44.41 41.66 42.52 40.97 40.81 41.05 41.07 40.74 40.74 40.62 40.78 40.59 40.39 40.47 39.87 37.38 37.50 36.98 34.94 33.02 28.16 27.10 29.64 30.69 29.49 29.17 29.74 30.70 27.19 25.81 25.25 25.06 24.62 24.15 23.87
52.96 52.19 51.32 48.51 47.61 45.60 44.09 41.85 40.09 42.27 40.75 40.74 40.24 39.76 40.22 40.22 40.00 39.47 39.90 39.97 39.73 38.89 37.79 36.03 36.00 36.64 35.46 29.70 28.28 27.53 26.80 27.32 27.82 28.03 29.67 29.69 26.63 25.43 24.88 25.11 25.00 24.02 23.87
50.34 48.48 44.47 41.49 41.90 42.06 41.81 40.00 38.39 40.03 39.77 39.49 38.92 39.18 39.23 38.90 38.53 38.57 38.50 38.74 38.85 37.23 36.19 34.94 34.83 34.97 36.25 35.54 29.54 27.97 26.71 26.28 27.48 29.58 28.99 26.51 26.64 26.10 26.57 26.95 25.43 24.27 26.55
45.24 43.64 41.68 39.56 38.93 39.44 39.29 38.90 39.80 39.44 38.19 37.46 37.58 37.66 36.87 36.47 36.71 37.64 38.53 38.54 37.56 36.79 35.25 34.69 33.78 34.79 34.73 35.21 34.26 30.95 30.03 27.63 28.02 29.40 29.90 28.48 27.12 27.06 25.88 27.16 28.46 27.67 26.91
40.07 40.85 39.56 39.05 37.71 38.94 38.42 38.16 37.68 38.37 36.69 35.81 36.23 36.38 36.85 37.17 37.34 37.19 36.94 37.73 38.33 36.45 36.29 35.85 35.84 36.04 33.85 33.55 33.31 32.42 32.17 32.07 29.74 27.40 28.69 28.49 28.87 27.54 27.57 27.85 27.80 27.51 26.76
37.47 36.49 37.04 36.90 37.34 37.32 37.24 37.52 38.14 36.95 35.42 34.80 35.55 36.74 37.04 37.33 37.20 36.33 35.16 35.00 34.04 32.89 31.81 31.05 33.68 36.68 32.87 30.39 29.95 29.64 28.30 27.36 27.31 27.02 27.14 27.20 27.90 27.22 26.87 26.74 26.36 26.94 25.81

GFSMW_sfc_wetblb_012.txt.gz
Wetbulb
60.73 61.30 61.14 62.42 64.05 63.94 63.52 63.74 63.32 63.11 63.37 62.12 58.96 58.32 57.22 57.21 56.31 55.74 56.46 55.42 55.48 55.19 54.46 53.78 53.63 53.32 51.75 51.35 51.01 49.90 48.57 47.62 47.06 43.47 43.22 43.62 44.15 43.22 43.59 43.34 43.15 44.09 45.34
59.91 61.23 61.79 61.71 63.20 63.53 63.47 63.59 63.19 63.43 63.45 61.55 60.51 60.30 57.82 56.40 55.77 55.90 55.29 55.33 54.93 54.20 53.22 53.04 51.74 51.93 50.32 50.10 49.46 47.53 46.18 45.78 45.81 41.05 40.62 37.04 39.07 41.28 42.73 42.05 42.36 40.58 42.90
59.27 60.49 60.82 62.17 63.94 62.65 62.80 63.58 62.09 63.33 61.37 60.09 59.11 57.58 56.73 55.92 55.24 54.75 54.19 54.54 54.47 53.07 51.94 51.21 50.53 49.92 49.15 47.78 47.44 46.25 45.93 43.00 43.29 43.49 39.40 35.80 33.27 36.77 39.71 39.25 39.93 40.02 40.10
59.91 60.48 61.36 61.79 62.77 61.77 63.23 62.92 62.87 59.72 59.90 59.43 57.25 56.17 54.13 52.05 53.00 52.74 51.57 50.46 50.15 48.43 47.12 47.17 47.24 46.47 47.65 47.35 47.16 46.93 45.54 44.15 40.49 41.33 43.61 39.85 37.52 33.22 32.13 35.96 36.92 37.91 38.78
59.72 60.46 61.24 61.65 62.52 61.73 62.87 62.12 59.41 57.83 57.77 57.61 56.97 54.95 53.10 52.74 51.02 48.67 47.61 47.40 46.94 47.41 46.97 46.40 46.31 45.68 45.61 45.68 46.88 46.95 45.25 43.86 41.28 39.43 38.32 37.09 36.63 35.85 32.21 30.16 31.96 35.57 36.94
60.03 61.01 61.55 61.81 61.29 62.18 61.19 58.83 56.61 55.85 56.67 55.75 54.60 52.25 49.69 47.85 46.58 45.57 44.99 44.89 45.30 45.26 45.99 46.60 45.82 46.26 46.13 45.92 46.72 45.17 43.32 42.64 41.06 40.71 40.14 36.99 34.48 32.86 31.87 30.55 31.09 31.66 34.26
59.64 60.25 60.18 60.66 60.37 59.12 57.70 56.55 55.24 54.30 54.92 53.56 50.85 49.65 48.15 47.18 46.07 45.30 44.64 43.74 43.31 43.46 44.06 44.58 45.02 45.35 46.29 46.19 44.89 43.50 42.57 42.01 40.31 39.82 37.78 37.27 36.35 35.95 34.46 32.53 31.74 30.65 33.29
59.76 59.63 59.55 58.61 57.76 56.68 56.10 55.24 54.27 53.55 53.27 50.46 48.91 48.99 48.38 46.85 46.41 45.83 45.07 44.10 42.93 43.05 43.59 44.08 44.90 45.61 45.94 44.24 44.06 43.28 42.71 42.24 40.98 38.24 38.06 36.53 37.17 36.17 35.04 32.67 30.58 28.60 29.99
57.63 57.49 57.89 56.34 55.70 55.44 55.29 54.74 53.89 53.43 50.51 49.10 48.88 48.25 47.54 47.05 46.16 46.24 45.50 43.89 43.40 43.49 43.19 43.75 43.85 44.75 44.13 43.96 43.20 42.56 41.46 39.64 39.75 37.51 38.77 36.18 35.89 35.81 35.11 33.94 32.91 29.78 25.81
56.18 55.89 55.72 55.26 55.32 55.74 55.44 55.16 54.49 51.86 49.26 49.26 48.68 47.69 47.35 47.45 47.08 45.40 43.72 42.79 42.93 43.23 43.11 42.93 42.62 42.98 43.62 44.04 42.62 41.80 41.38 39.44 38.36 39.33 37.67 35.91 36.30 35.97 35.49 33.18 33.44 32.36 30.45
55.28 54.61 54.60 55.21 55.54 55.63 54.97 54.38 53.75 50.05 48.71 48.71 47.74 47.36 46.61 46.93 46.62 44.83 43.46 42.71 42.77 42.88 42.38 42.50 42.22 41.86 41.60 41.56 40.45 40.19 39.34 38.98 37.52 38.69 35.97 36.26 37.60 33.71 33.26 33.30 32.99 31.49 31.15
55.48 54.84 55.06 55.37 55.45 54.79 54.27 53.46 52.12 49.56 49.09 48.42 47.48 46.93 47.39 47.04 45.46 44.53 43.47 42.94 42.11 42.57 41.99 42.23 41.88 41.99 41.69 40.46 39.72 38.67 38.30 37.52 36.34 36.80 36.48 35.07 36.97 33.01 32.64 31.47 30.40 30.27 29.81
55.50 55.27 55.25 54.94 54.56 54.02 53.46 52.81 51.25 49.53 48.83 48.25 46.75 46.50 46.52 46.87 44.89 43.61 43.40 43.02 42.06 41.51 41.45 41.94 41.49 41.33 40.59 40.03 39.68 38.83 38.11 37.16 36.65 36.54 34.57 34.84 33.29 29.78 29.44 28.38 27.53 27.86 29.75
55.27 55.09 54.98 55.00 54.15 53.74 53.22 52.07 50.47 49.81 48.81 47.42 46.00 45.47 45.57 45.91 44.47 43.67 43.14 42.83 42.02 40.79 40.83 41.48 41.90 40.96 39.90 39.74 39.07 38.09 36.44 35.97 36.16 35.51 34.47 33.15 31.13 27.97 26.33 26.60 24.95 26.20 24.64
54.25 54.83 54.91 54.91 53.93 53.14 52.89 51.64 49.95 49.54 48.36 46.27 45.13 45.41 45.60 45.19 44.62 43.61 43.59 42.83 41.97 41.19 41.14 40.68 41.08 40.48 40.30 39.96 35.67 35.55 34.13 33.29 32.85 33.13 33.77 32.11 31.82 31.72 28.35 26.63 24.27 24.19 23.02
51.64 54.36 55.12 54.68 53.72 53.50 52.54 50.92 49.33 48.49 47.31 45.64 45.29 46.01 45.00 44.61 43.10 42.86 42.77 42.50 41.54 40.90 40.13 39.73 39.91 39.02 40.66 33.79 32.86 32.34 30.28 32.24 32.12 30.95 30.70 30.65 32.82 31.59 30.53 31.55 30.93 28.02 23.42
51.84 53.04 54.06 54.48 53.97 53.22 52.42 50.04 48.85 48.08 46.01 44.80 44.83 44.90 44.15 42.18 42.05 42.24 41.98 40.82 40.07 40.50 39.97 39.55 38.87 37.69 34.33 33.38 31.87 30.06 28.64 30.30 31.09 30.14 28.87 29.41 31.70 29.54 26.83 27.98 27.92 27.51 29.38
52.30 52.99 53.22 53.57 53.50 52.96 51.79 50.10 49.41 46.85 45.14 44.06 43.72 42.73 42.65 42.09 42.09 41.45 40.63 40.47 40.37 39.75 39.09 38.63 38.50 37.79 34.19 32.80 31.20 29.47 27.22 29.57 30.27 28.93 28.32 27.38 26.51 24.31 24.97 23.60 23.24 24.08 25.11
52.12 52.59 53.29 53.42 53.13 52.16 51.62 49.36 47.80 45.50 44.04 42.73 41.61 41.81 42.03 40.61 40.50 39.74 39.47 39.38 39.25 38.60 38.68 38.99 37.71 36.36 31.08 31.61 30.08 28.13 27.55 29.36 28.65 29.96 29.40 28.08 25.57 26.24 26.72 23.57 22.73 22.21 23.22
52.45 52.43 53.18 53.29 52.60 52.20 50.46 47.21 45.19 43.27 42.16 43.04 42.65 41.18 40.79 40.10 39.13 38.79 38.78 39.00 38.81 38.45 38.79 37.61 36.74 33.26 30.10 31.00 29.68 27.98 27.01 27.33 27.49 27.63 27.84 28.92 25.70 26.08 26.14 22.54 21.66 20.07 21.67
52.30 53.40 53.28 51.23 50.24 50.48 47.91 44.62 42.86 41.79 41.71 41.34 41.05 40.50 40.51 39.16 39.37 38.78 38.86 37.99 37.33 37.09 34.86 33.08 33.56 33.18 31.52 28.84 30.19 29.00 26.22 26.78 26.46 25.82 25.39 26.29 27.35 26.78 26.82 25.85 22.47 21.87 23.17
51.06 51.78 44.99 42.38 42.63 44.22 44.21 42.23 40.58 40.79 39.98 40.14 39.92 39.75 39.25 39.29 38.83 37.42 36.77 37.02 36.26 34.96 34.11 32.97 32.51 32.07 31.46 31.59 30.26 29.57 28.10 27.95 22.99 25.27 25.70 26.21 28.33 27.71 27.05 25.83 26.20 26.72 24.40
46.68 43.03 41.36 39.66 40.43 40.11 41.23 37.50 38.73 40.25 40.48 39.65 38.68 38.03 38.50 37.91 37.28 34.99 34.42 34.72 35.34 33.70 33.10 32.32 31.04 30.28 31.75 30.67 30.44 30.21 29.02 27.87 23.20 25.47 27.71 28.94 28.05 28.64 26.87 28.61 27.91 23.63 20.98
42.02 41.24 39.98 39.14 39.00 39.95 39.56 38.74 40.02 39.00 37.78 36.48 36.37 36.81 36.10 35.83 35.75 36.15 35.56 33.96 33.27 33.07 32.07 31.34 30.37 31.25 31.00 30.71 27.72 27.14 26.54 26.69 26.16 25.94 26.85 24.78 24.99 22.82 23.60 22.91 25.70 24.93 22.83
40.16 39.97 38.06 37.30 36.90 37.68 37.47 38.24 38.21 37.53 36.11 35.96 35.65 35.55 34.37 35.14 35.40 36.10 34.78 32.71 33.42 31.95 30.88 31.21 31.33 30.72 29.69 29.32 31.61 30.05 29.79 29.00 28.25 22.45 21.41 21.21 23.12 22.77 24.40 22.87 23.53 23.35 22.35
38.05 37.38 37.40 37.12 37.17 37.52 37.42 37.83 38.25 37.43 35.75 34.41 34.14 34.45 34.54 34.45 34.58 34.38 34.11 34.45 33.77 33.89 33.96 32.49 31.07 31.08 33.51 31.79 31.59 31.23 30.72 29.49 27.23 21.77 18.85 18.00 19.04 20.21 21.26 19.73 20.61 20.70 20.12

GFSMW_sfc_wetblb_015.txt.gz
Wetbulb
54.32 56.47 58.78 59.71 59.51 60.13 61.61 61.15 60.24 58.85 59.71 57.04 55.41 53.47 52.25 50.91 50.89 51.31 51.55 51.73 51.71 51.77 50.03 49.51 49.02 48.96 47.47 46.73 47.05 46.06 44.01 43.48 43.24 40.33 39.46 40.07 40.40 39.86 39.21 39.99 39.59 40.18 41.53
55.10 55.59 56.68 59.18 59.66 59.47 61.05 60.29 60.45 59.70 60.42 58.92 54.35 53.98 52.72 50.71 50.88 50.94 51.14 51.37 51.11 50.41 50.50 48.16 47.45 46.83 46.18 45.64 45.05 43.55 42.09 42.69 41.38 38.56 36.94 34.13 36.22 38.20 39.29 37.78 38.71 36.61 38.65
54.99 55.70 56.71 59.01 59.17 59.17 60.11 60.36 60.02 59.88 59.27 57.27 54.71 52.35 51.18 50.38 50.02 49.51 49.34 49.12 46.86 44.76 44.08 44.27 43.16 42.60 43.58 43.83 43.47 42.99 42.59 40.04 40.51 39.65 37.20 32.59 30.44 32.46 35.73 36.27 35.93 35.47 35.78
56.82 57.01 55.98 57.16 59.28 59.70 61.42 61.56 61.22 57.73 55.86 54.34 52.73 51.15 49.08 47.94 47.65 46.49 44.30 43.21 44.05 43.75 43.58 43.85 42.74 42.06 42.21 41.27 42.61 45.27 42.23 40.43 37.56 38.55 40.08 36.21 34.66 29.68 28.40 32.79 33.93 35.06 36.06
56.55 56.03 56.38 58.36 59.74 61.55 60.84 60.84 56.98 55.24 53.32 52.56 51.44 50.38 48.48 45.75 43.42 42.62 41.66 41.64 42.48 43.11 43.43 43.21 42.11 42.43 42.70 42.09 42.52 41.46 40.74 39.94 37.77 36.95 35.90 34.40 33.57 32.15 29.45 26.76 29.17 32.25 33.89
54.85 56.96 58.05 59.65 60.02 60.50 57.78 55.97 54.08 52.18 51.60 50.59 48.58 46.17 44.21 41.94 40.91 40.17 40.22 40.34 40.98 41.62 42.56 43.25 42.18 42.46 42.43 42.60 41.89 41.13 40.66 39.48 38.55 38.80 36.83 34.71 32.08 30.95 29.61 27.81 27.98 28.52 31.17
55.54 56.52 56.94 57.25 58.12 55.10 53.14 52.70 52.18 50.53 49.27 46.21 44.59 43.65 42.38 41.59 40.53 40.15 39.80 39.80 39.52 40.01 39.62 40.64 40.81 41.65 43.18 42.34 41.78 40.94 40.07 39.35 38.27 37.49 35.79 35.13 34.40 34.06 32.24 29.97 27.94 27.26 29.11
54.90 56.53 57.80 58.38 55.64 53.13 52.60 50.00 50.62 49.73 47.70 45.20 44.07 43.26 42.80 41.75 41.41 40.92 40.06 39.99 39.34 39.13 39.45 39.97 40.63 41.32 43.07 41.78 41.38 40.34 39.78 39.74 38.07 37.63 35.74 35.50 34.45 34.41 32.91 30.79 27.81 25.06 26.09
54.39 57.85 57.59 55.87 53.39 52.71 50.36 49.02 50.00 49.15 46.53 44.50 43.65 42.77 42.57 42.26 41.59 41.30 41.50 39.88 39.93 41.25 39.74 39.58 39.71 39.97 41.17 41.22 41.26 39.95 39.40 38.59 36.69 35.57 34.68 36.46 34.02 32.97 32.61 31.84 30.45 27.40 24.06
53.49 53.44 53.73 52.79 52.76 51.99 51.02 49.34 48.87 47.20 45.06 44.26 43.70 43.14 42.47 42.67 42.22 41.06 40.03 40.78 41.28 39.69 39.44 38.98 38.97 39.20 39.14 39.31 40.46 38.90 38.51 37.40 38.22 36.83 36.02 36.00 35.96 35.13 33.80 30.87 31.17 29.45 26.43
51.78 51.30 51.59 52.34 52.15 51.91 50.90 49.56 47.96 45.63 44.05 44.01 43.42 42.79 42.46 43.39 42.52 41.51 40.76 40.76 39.55 41.48 39.32 39.57 39.29 39.21 38.65 38.25 36.75 36.41 36.15 36.52 35.16 35.88 35.10 34.32 35.65 32.09 31.35 30.14 29.01 27.67 26.24
51.99 51.00 50.75 51.17 51.03 50.98 50.81 49.86 46.88 45.36 44.75 44.03 43.76 42.88 43.59 43.38 42.76 42.52 41.54 41.02 39.73 39.57 38.99 39.26 39.13 39.75 39.49 38.43 37.87 37.20 36.22 35.61 35.65 35.70 34.60 33.78 35.89 30.63 28.75 27.29 25.40 24.59 24.77
50.92 50.58 49.77 50.64 51.10 50.90 50.18 49.88 47.07 45.06 45.23 44.38 43.33 43.67 44.62 44.59 43.29 42.48 41.56 40.61 39.60 38.42 39.99 39.43 39.14 39.43 38.93 37.98 37.81 37.00 36.07 35.12 35.47 35.17 33.41 32.78 30.91 26.47 25.44 24.84 23.78 23.58 26.40
51.79 50.34 50.46 50.15 51.12 51.09 50.39 50.31 46.95 45.94 45.59 44.54 43.51 43.58 44.82 44.54 43.40 42.19 41.01 40.14 39.90 39.38 39.14 39.07 40.01 39.78 39.00 38.58 37.34 36.10 34.37 34.13 33.78 33.37 32.24 31.05 28.14 26.29 24.84 25.04 23.26 24.10 22.42
48.56 49.95 49.16 49.07 50.93 50.97 50.38 49.39 48.16 46.31 45.49 43.45 42.71 43.45 44.52 43.97 42.48 41.74 41.24 40.32 40.58 39.58 39.54 39.20 39.09 39.48 39.12 38.66 35.01 33.85 32.23 32.04 31.53 31.19 31.55 30.27 30.87 33.13 27.88 25.76 22.76 22.83 21.76
47.37 48.26 50.55 50.21 50.17 49.84 49.29 49.12 47.34 45.77 44.09 42.93 43.27 44.47 43.50 42.49 41.16 41.03 40.83 40.69 40.43 39.71 39.06 38.34 38.27 38.06 39.42 35.25 35.33 32.57 29.31 30.31 30.07 29.13 28.83 28.20 30.60 31.09 31.22 29.83 29.16 27.05 22.03
47.45 48.65 49.26 50.10 49.78 49.62 50.02 47.33 45.90 44.81 43.05 41.83 43.34 42.83 41.19 40.66 40.29 40.39 40.70 40.24 39.85 38.98 38.21 38.08 37.92 36.86 35.52 34.61 33.70 31.95 28.19 28.27 28.20 28.58 26.69 27.63 29.55 26.82 25.02 25.74 26.45 25.49 27.26
47.79 48.00 48.24 49.20 49.48 48.90 47.81 45.77 45.32 43.48 41.68 42.01 40.55 40.42 40.09 40.34 40.52 40.29 39.96 38.34 38.20 37.57 37.05 37.21 37.30 35.48 34.29 34.13 33.15 30.77 26.71 27.40 28.46 27.24 26.58 25.49 23.92 24.53 24.66 23.06 22.28 22.19 23.01
46.53 46.67 47.45 48.37 48.26 47.54 47.08 45.19 42.77 41.49 40.66 39.78 40.10 40.78 39.98 39.57 39.91 38.49 37.23 37.65 37.12 36.38 35.91 36.64 36.10 33.91 32.14 33.39 31.62 28.68 27.07 27.99 27.28 28.18 27.81 27.03 24.09 26.94 26.84 23.34 22.13 21.49 22.19
47.24 45.27 43.45 43.32 45.95 46.08 44.25 42.65 40.69 39.81 39.40 38.37 39.27 39.40 39.73 39.46 38.13 37.39 37.24 36.89 36.01 36.05 36.24 35.61 34.74 33.32 29.73 32.51 31.04 28.90 25.24 25.87 25.86 26.13 26.03 28.45 24.64 26.72 26.58 22.82 20.74 19.28 20.61
41.50 40.46 40.09 39.09 39.87 42.79 41.34 38.75 38.40 37.95 39.81 40.49 39.78 39.65 40.07 39.13 38.11 37.31 36.58 35.19 34.78 34.71 32.83 31.57 30.77 30.05 29.12 29.41 31.49 30.92 26.15 25.13 25.56 25.00 24.29 24.65 27.56 27.21 28.08 28.00 22.37 20.78 22.97
38.80 38.78 37.13 37.01 37.93 39.42 39.43 38.31 37.88 38.88 38.76 38.69 38.86 39.03 39.20 38.28 38.01 35.35 34.53 34.31 33.83 31.81 31.27 29.25 28.99 28.59 28.78 30.11 31.76 31.39 28.82 28.13 22.06 24.31 24.63 24.41 29.37 29.06 28.86 27.47 27.36 27.68 25.89
37.06 38.69 37.65 37.68 37.93 38.86 38.97 37.18 37.48 38.51 39.28 39.21 38.94 37.70 37.36 37.23 36.17 34.39 33.12 31.85 31.45 28.56 30.85 29.72 28.63 28.36 29.15 27.97 31.47 31.57 30.73 29.56 22.83 23.69 24.96 28.42 29.52 29.00 27.56 28.79 28.93 25.33 20.81
37.43 37.70 36.73 35.81 35.81 37.34 38.16 38.38 38.97 38.46 37.22 35.56 35.38 35.71 34.86 34.58 34.32 34.36 33.77 31.95 28.02 27.46 28.63 28.51 28.42 27.61 28.34 26.44 25.80 27.02 27.71 27.43 25.59 24.16 24.84 23.38 24.37 21.51 22.52 22.52 24.70 23.38 21.69
36.71 37.31 36.48 35.89 35.61 36.59 36.21 36.53 36.11 35.51 34.11 34.02 34.03 33.58 31.94 33.01 32.92 33.50 32.64 30.47 30.69 30.21 27.58 27.15 28.18 30.49 27.09 27.42 28.48 27.40 25.18 23.44 25.00 18.85 17.06 18.22 18.34 20.38 22.12 21.10 21.56 21.14 20.39
36.09 35.95 35.40 34.84 35.65 36.01 35.34 35.32 35.59 34.74 33.12 32.50 31.84 30.54 30.06 29.95 31.63 31.04 30.90 33.17 32.87 32.65 33.41 32.81 29.76 27.61 31.68 32.75 33.03 31.83 30.65 29.75 28.84 24.98 17.77 14.09 12.90 15.74 19.63 19.33 19.15 16.69 17.63

GFSMW_sfc_wetblb_018.txt.gz
Wetbulb
56.55 58.90 59.03 58.84 57.90 57.14 60.19 59.58 57.00 57.49 58.03 55.79 53.31 50.82 49.94 49.22 49.24 49.40 50.54 50.49 50.20 49.55 48.40 47.44 47.32 46.41 45.54 44.74 45.12 43.41 42.07 41.36 40.70 38.59 38.34 38.21 37.95 37.41 37.06 37.32 37.02 37.52 38.52
53.62 57.42 57.73 57.60 57.47 58.90 60.33 58.96 57.46 57.99 57.86 56.03 53.51 51.79 50.56 48.55 48.76 49.30 49.19 49.34 48.85 48.41 47.02 45.31 43.05 43.31 43.76 43.46 42.92 42.05 40.59 41.16 39.57 37.38 35.50 33.04 35.27 36.38 36.82 35.92 36.65 33.89 36.05
52.79 55.45 56.61 56.81 57.70 59.01 59.78 59.34 58.18 57.83 58.87 55.61 52.78 50.12 49.20 48.71 47.98 47.36 47.56 44.72 43.83 43.37 43.38 42.58 41.64 41.06 41.09 40.17 40.19 41.32 40.94 38.89 38.05 37.18 36.11 31.48 29.69 31.07 34.03 33.79 33.38 33.93 34.46
53.86 54.59 56.28 56.37 57.51 59.26 60.34 60.00 59.71 58.43 58.81 55.59 52.96 51.04 49.85 48.23 47.27 45.77 42.46 41.30 42.72 42.72 42.96 42.33 41.65 41.34 41.17 40.22 40.51 42.16 39.75 38.36 36.25 36.82 38.13 35.05 34.36 29.02 26.84 31.26 32.12 33.31 34.46
53.57 53.53 56.54 56.92 58.06 59.20 58.95 59.24 58.62 57.04 56.23 53.89 53.98 50.75 47.09 46.16 43.50 41.22 40.11 40.43 40.89 42.21 42.44 41.85 41.63 40.80 42.20 41.41 40.61 39.97 39.07 38.38 36.75 35.89 34.98 33.62 31.95 30.43 28.07 25.63 28.24 30.98 32.11
53.71 54.23 56.92 58.10 57.91 58.81 59.19 58.57 55.78 54.67 54.29 51.48 49.52 49.50 44.93 42.50 40.24 38.95 38.64 39.15 39.77 40.73 40.57 41.68 41.01 40.83 41.72 41.05 40.29 39.97 39.32 38.18 37.18 36.84 35.33 33.57 31.15 30.06 28.60 26.22 26.61 26.87 29.54
53.20 54.88 56.50 57.41 58.18 57.81 54.44 53.84 53.25 51.82 51.71 49.50 46.20 44.46 42.51 41.05 40.24 39.00 38.79 39.18 38.87 38.52 37.87 39.52 39.33 40.70 41.86 41.29 40.72 39.99 38.83 38.27 37.01 36.48 35.49 34.42 33.38 32.95 31.48 28.94 27.55 26.07 27.87
54.79 55.96 56.85 57.44 57.55 55.47 52.71 52.47 52.23 49.28 48.00 46.30 44.54 43.23 41.73 41.10 40.55 40.49 39.56 39.34 38.89 38.77 39.67 40.49 40.94 40.20 41.74 41.45 40.32 39.11 38.00 38.43 37.52 36.30 36.10 34.35 33.22 33.25 32.06 30.01 27.35 24.97 26.05
53.79 55.26 55.82 56.41 55.25 52.14 49.74 50.85 49.86 47.39 46.81 45.47 44.36 43.35 41.75 42.25 41.51 40.55 40.03 39.23 39.12 40.44 40.99 39.65 40.08 38.87 39.04 39.85 39.76 38.42 37.97 37.71 36.57 35.01 34.52 33.63 33.06 32.63 32.31 31.99 30.27 27.13 21.51
53.44 54.69 55.14 53.48 53.08 50.95 49.45 49.23 49.51 46.83 46.82 45.86 44.38 44.10 42.68 42.63 41.54 40.36 39.32 40.74 41.00 40.57 39.97 40.27 38.91 38.42 38.01 37.76 38.12 37.00 36.72 35.39 35.07 35.17 34.10 33.40 34.95 34.74 32.59 30.67 30.57 28.60 25.58
53.41 54.43 53.33 52.79 51.82 50.35 49.65 49.47 48.72 46.35 45.51 46.17 44.52 42.24 41.25 41.37 40.68 40.56 41.11 40.47 39.43 40.57 40.43 40.08 38.66 39.55 37.98 38.42 37.29 36.60 35.74 35.49 34.97 34.71 34.02 33.78 34.57 32.15 30.98 29.07 27.95 25.75 24.39
53.35 53.66 53.00 52.12 51.05 50.55 49.45 48.64 47.83 46.59 45.53 43.87 42.90 42.55 43.47 43.18 41.41 40.35 39.90 40.62 40.16 39.92 40.01 38.46 39.54 39.33 38.39 38.27 36.89 36.21 36.26 35.48 34.46 34.44 34.33 34.30 35.63 30.10 27.84 26.10 24.68 23.93 23.51
50.40 50.52 51.34 51.18 51.23 51.27 50.55 48.63 47.76 45.93 44.38 43.78 43.93 42.91 43.16 42.29 42.24 41.40 41.03 39.57 40.13 39.30 39.06 38.76 38.24 38.32 38.54 38.45 37.78 36.60 35.93 35.14 34.85 35.21 33.74 33.12 31.41 27.33 26.33 25.05 23.75 23.22 25.72
50.15 48.37 49.43 50.91 51.49 51.51 50.83 49.95 47.41 45.22 45.07 44.08 43.15 42.57 43.21 43.58 43.00 40.66 38.90 38.52 38.38 37.31 37.38 38.51 38.58 39.49 38.88 38.19 37.60 35.48 33.52 33.22 33.12 32.98 31.89 30.79 28.62 26.73 25.08 24.34 22.97 23.47 21.93
48.66 48.58 47.55 46.60 48.56 48.89 49.55 49.56 45.38 45.28 44.90 43.92 43.19 43.43 44.56 44.46 42.30 39.09 38.37 38.30 38.01 38.19 38.88 38.24 38.97 39.28 38.65 38.33 36.06 34.67 32.64 32.04 30.88 30.59 30.53 29.33 29.96 32.75 27.62 24.86 22.86 22.49 21.46
45.57 46.57 48.19 47.44 48.65 48.73 48.22 48.24 46.09 45.74 44.55 43.40 42.83 44.47 44.05 41.71 40.30 38.37 38.03 38.41 39.08 39.84 38.50 38.70 37.97 37.39 38.26 37.18 36.58 33.80 30.22 30.28 29.44 28.63 28.30 27.40 30.33 31.22 31.27 30.00 28.64 25.64 21.06
45.13 46.39 47.96 47.91 47.60 47.74 48.28 47.82 46.45 45.28 43.31 41.90 43.89 43.51 41.42 39.87 39.76 39.42 38.10 38.80 39.15 39.33 39.01 38.04 37.55 36.34 35.93 36.36 36.32 34.23 28.87 29.71 28.47 27.84 26.80 27.14 28.94 27.33 25.39 26.55 26.12 24.78 26.03
44.60 44.48 44.90 47.77 47.60 47.84 48.41 47.44 45.29 42.27 40.47 40.52 41.10 40.63 40.35 39.37 39.63 38.80 38.58 38.60 38.55 36.76 35.91 35.72 36.16 35.57 35.51 35.19 34.84 32.27 28.77 28.08 28.75 27.29 26.21 25.69 24.73 24.46 24.74 23.20 22.62 22.36 22.60
43.15 41.15 40.39 40.84 44.69 46.63 45.43 42.45 40.68 39.40 38.96 39.29 39.66 40.18 39.77 38.61 38.40 37.76 37.93 37.59 37.09 36.06 34.57 35.45 35.82 34.85 32.84 34.53 33.29 29.75 26.39 28.01 27.43 27.96 27.54 26.60 24.71 26.34 28.65 23.76 22.61 21.76 22.06
39.06 38.74 39.38 39.81 39.91 40.23 41.61 39.48 38.83 38.21 37.72 38.31 38.37 38.81 38.42 38.58 38.13 37.84 37.63 37.22 35.17 35.17 35.28 34.48 34.27 34.47 31.82 34.01 32.79 29.95 26.47 26.18 26.12 26.37 26.36 28.88 25.74 28.13 27.61 23.13 21.49 19.35 21.17
38.26 38.49 37.73 37.25 37.42 38.84 39.39 38.16 38.20 37.79 38.97 39.27 39.72 39.85 40.09 39.52 38.85 38.27 37.14 35.59 33.99 33.00 31.87 31.48 31.77 31.02 29.92 30.17 32.84 32.11 26.51 26.07 25.85 26.05 24.59 25.08 28.54 28.28 28.37 28.62 23.44 20.78 22.97
37.40 37.70 36.64 36.26 37.31 38.04 37.72 37.06 36.84 38.66 39.33 39.52 39.86 39.86 39.84 39.12 37.89 35.20 34.44 33.42 32.33 30.33 30.41 29.01 29.61 27.43 28.40 30.71 32.51 32.47 29.90 28.11 24.46 25.31 25.18 24.62 28.83 29.03 29.55 27.95 28.27 28.89 26.27
36.46 37.59 37.43 37.21 36.88 37.59 38.63 36.85 36.84 38.37 39.56 39.27 38.69 38.70 37.01 36.02 35.42 33.00 32.14 30.88 31.07 27.54 28.09 27.12 24.99 26.78 28.05 27.47 31.68 32.37 31.75 30.22 24.28 24.60 25.04 26.89 28.57 29.25 28.13 29.16 28.70 25.14 22.06
35.78 35.66 35.27 34.68 35.27 37.22 37.37 36.54 36.96 36.98 35.89 34.52 34.11 33.81 32.98 33.00 33.14 33.15 32.51 30.19 27.15 26.16 28.41 27.43 26.64 26.07 27.33 28.79 27.65 28.38 29.65 29.04 26.24 24.32 25.63 23.02 24.42 20.95 21.53 21.45 24.47 23.51 21.33
35.04 35.05 34.12 33.78 33.95 35.29 34.88 35.15 34.68 34.41 32.78 32.40 32.42 32.34 29.78 30.67 30.82 31.05 30.75 30.02 29.88 29.15 28.38 27.72 27.04 24.49 24.38 29.20 32.31 30.02 26.91 26.76 26.67 19.67 15.49 16.62 17.91 20.27 21.16 20.40 21.02 20.91 19.90
34.70 34.17 33.97 33.75 33.95 33.85 33.14 33.63 34.22 33.50 32.28 31.46 30.65 28.71 27.84 27.76 29.29 29.83 30.31 32.67 32.87 32.72 32.81 32.74 29.71 27.69 31.06 32.54 33.11 33.17 31.74 30.62 27.89 22.45 15.98 19.20 17.29 18.77 19.99 18.03 18.15 18.04 17.14

GFSMW_sfc_wetblb_021.txt.gz
Wetbulb
58.04 59.62 60.25 58.77 59.07 56.00 58.85 58.15 56.23 55.70 57.06 53.49 50.63 49.65 49.30 48.73 48.93 48.81 49.03 49.52 49.24 48.57 47.19 46.67 45.78 44.97 44.01 43.64 43.18 41.53 40.43 40.02 38.69 37.87 37.22 36.28 36.05 35.80 35.05 35.34 34.85 35.68 36.53
55.42 58.25 57.70 57.47 56.93 56.54 58.94 57.24 56.86 56.78 56.44 54.25 51.13 50.50 48.89 47.64 47.47 48.10 47.91 48.09 47.87 47.21 46.74 43.06 41.38 41.83 41.16 40.89 41.18 40.85 39.77 39.69 37.87 36.32 34.49 32.78 34.64 34.89 34.82 33.66 34.99 32.88 34.35
53.41 56.38 56.61 56.46 56.13 56.52 58.65 57.76 56.91 57.40 56.41 53.81 50.84 48.40 48.14 47.49 46.73 46.04 45.85 43.74 44.10 42.74 41.88 41.36 40.90 40.49 40.03 38.90 38.59 40.37 39.93 37.72 36.55 36.00 35.74 31.02 29.57 30.61 32.88 32.73 32.68 32.59 33.46
53.54 56.27 56.46 55.66 55.78 56.66 59.11 59.41 57.66 57.71 56.61 53.51 50.98 50.10 49.09 46.84 46.08 45.71 41.29 40.00 41.99 42.15 41.71 41.44 41.15 40.79 40.87 40.19 41.15 41.32 39.20 37.61 35.62 36.16 36.95 34.04 32.69 28.95 27.57 30.45 31.12 32.26 33.48
51.77 54.49 55.94 56.61 56.65 57.41 58.51 59.40 57.77 57.34 57.75 54.11 52.67 50.08 48.83 47.78 44.03 40.67 39.55 39.25 40.41 41.12 41.25 41.53 40.60 41.52 42.45 42.01 40.97 39.39 38.23 38.25 36.79 35.36 34.19 32.69 31.22 29.49 27.39 25.61 28.07 30.27 31.26
51.49 52.44 56.24 56.72 56.65 57.58 58.28 58.49 57.31 57.09 56.60 54.71 53.41 51.01 49.10 45.60 40.99 38.37 38.06 38.44 39.09 39.20 40.46 40.89 40.63 42.13 42.07 42.45 41.75 39.38 38.27 37.31 36.78 36.06 34.87 33.04 30.98 29.23 27.69 25.75 26.09 26.37 29.26
51.78 50.98 54.32 55.06 55.96 56.54 57.26 57.67 56.55 56.93 56.41 53.56 52.51 50.71 48.96 46.12 42.98 39.36 38.48 38.20 38.44 37.58 38.46 38.53 39.69 43.33 43.70 42.58 41.68 39.58 38.80 37.53 36.26 35.71 34.99 34.00 32.73 32.08 30.39 28.04 26.35 26.09 27.59
51.75 52.46 54.54 55.45 55.89 56.77 57.37 57.50 53.73 52.37 50.29 51.30 49.62 47.34 45.60 44.28 43.26 41.28 40.64 38.54 38.36 37.76 38.63 39.74 41.56 43.25 43.20 40.10 39.95 39.82 37.27 38.49 36.56 35.72 35.31 34.33 33.31 32.52 31.33 29.40 27.36 24.86 25.66
51.12 52.96 54.61 56.15 56.44 56.77 55.69 55.51 52.38 50.63 48.02 48.15 46.64 45.03 44.36 43.96 42.11 41.07 40.84 38.13 38.04 39.48 38.93 41.05 40.82 40.63 40.53 39.61 39.33 39.37 37.21 37.43 36.42 34.74 34.21 33.54 32.62 31.93 31.86 30.57 29.83 27.06 22.43
51.74 53.67 55.41 56.23 57.06 57.08 54.33 51.39 50.69 49.26 47.57 45.78 45.32 45.33 45.46 43.40 42.12 41.00 39.85 39.75 39.79 41.36 40.68 40.26 40.22 39.70 39.07 38.98 39.11 37.04 36.37 35.35 34.42 34.72 33.20 32.71 33.01 33.63 32.21 29.72 29.69 28.47 25.79
52.02 53.94 55.13 55.71 56.02 53.58 50.65 49.97 47.19 45.99 44.92 45.78 45.27 45.61 42.86 41.75 41.31 40.11 40.60 40.97 41.02 40.67 40.66 39.82 39.39 39.28 39.01 37.89 36.24 35.92 34.99 34.88 33.63 34.25 33.66 33.55 33.43 32.02 29.58 28.18 26.88 24.99 23.93
51.76 54.01 54.61 52.70 50.54 49.45 48.98 49.35 48.07 46.59 46.13 45.74 44.42 42.85 43.55 41.78 40.16 40.98 42.20 41.80 40.16 40.56 40.46 39.88 39.54 39.82 39.02 38.52 37.19 35.84 35.33 34.30 33.34 33.60 32.96 32.97 34.60 30.98 29.05 26.68 24.88 23.93 23.03
50.49 51.78 51.28 50.70 50.88 49.84 49.01 49.04 48.26 47.16 45.89 46.18 45.07 42.88 41.18 40.89 41.10 42.84 41.53 40.42 40.32 38.82 38.82 38.72 39.06 38.99 38.75 37.92 36.87 35.80 35.20 33.88 33.63 34.08 33.58 32.74 31.68 28.81 26.58 25.30 23.99 23.02 24.95
49.71 48.88 49.50 49.98 50.20 50.25 48.83 48.70 47.71 46.91 45.82 44.82 44.07 43.28 41.94 41.85 42.11 41.20 40.64 40.18 39.75 38.73 38.27 39.08 39.10 39.11 37.60 37.67 37.18 35.73 34.53 33.44 33.16 33.31 32.57 31.45 29.66 27.46 25.75 24.69 23.26 23.01 21.46
47.62 47.18 47.45 47.43 48.54 48.92 49.28 48.58 46.49 44.57 45.27 43.99 43.57 42.42 43.58 42.50 42.52 41.35 40.27 39.44 39.02 38.75 38.52 38.47 38.84 37.84 37.53 37.49 35.62 34.46 33.11 32.08 31.23 30.68 30.27 29.56 29.78 31.65 28.02 24.72 22.57 21.81 21.06
45.05 45.83 46.73 47.40 47.40 47.69 47.60 47.14 45.41 45.05 45.21 43.33 42.92 43.28 42.88 43.50 41.31 39.83 39.26 39.11 38.97 38.76 38.71 39.19 38.14 36.85 37.90 37.34 37.46 35.02 32.26 31.50 29.88 28.53 29.66 29.50 31.61 31.99 32.83 31.47 29.40 25.10 20.78
43.43 43.82 44.95 47.05 46.44 46.38 46.87 46.22 44.66 45.05 43.47 42.52 42.52 43.53 42.98 40.49 39.33 39.31 38.94 39.02 38.96 39.61 39.71 37.96 37.05 36.71 36.73 36.40 37.37 36.25 30.75 29.42 28.40 28.98 28.95 27.20 28.06 28.73 27.35 29.91 28.62 27.16 26.78
42.14 41.04 40.43 41.51 44.47 46.22 45.95 45.82 43.46 41.98 40.27 40.41 40.09 40.63 40.06 38.53 38.65 38.76 38.56 38.44 38.62 37.76 36.83 36.33 35.84 34.77 34.63 35.67 36.30 34.71 28.93 28.41 28.19 27.84 27.19 25.62 25.42 25.31 24.82 23.49 22.75 22.41 23.04
38.45 37.96 37.96 37.96 39.43 42.75 41.95 39.68 38.35 38.46 38.56 38.28 38.61 39.34 39.40 38.55 38.71 38.12 38.43 38.71 38.09 37.56 35.83 34.81 34.53 34.20 32.91 34.91 35.25 31.51 27.15 26.65 26.69 28.40 26.99 26.32 25.22 27.74 29.77 24.38 23.06 22.31 22.86
36.99 36.60 36.96 37.28 37.20 37.35 38.34 37.54 37.17 36.90 36.30 37.39 37.69 39.23 39.50 39.57 39.26 38.91 38.49 38.44 37.22 35.33 34.71 33.51 32.95 33.28 31.80 33.65 34.85 30.74 25.87 26.23 26.73 26.37 26.89 31.22 27.15 28.73 29.36 24.17 21.80 20.30 22.22
36.58 37.21 36.81 36.13 36.55 37.93 38.15 36.64 36.85 36.38 38.42 39.75 39.66 40.29 40.65 40.16 39.56 38.96 38.46 37.18 34.76 32.85 30.49 29.94 30.39 30.85 30.42 30.27 34.55 33.27 27.01 27.21 26.01 26.35 25.52 25.94 29.61 29.69 29.97 28.71 23.19 21.64 23.33
36.13 36.57 35.64 35.27 36.14 37.01 37.20 36.09 36.13 38.14 39.89 40.36 40.51 40.64 40.57 40.03 39.15 37.29 35.25 33.75 31.49 29.56 29.42 28.20 28.60 28.01 28.77 30.76 32.26 33.57 31.32 28.60 25.42 25.78 26.17 25.95 29.46 29.98 29.64 28.51 28.81 29.02 25.62
35.12 35.83 35.33 35.42 35.96 36.62 36.81 35.56 36.32 38.00 38.78 38.51 39.05 38.69 37.99 36.50 35.13 32.57 31.68 30.69 30.32 27.62 27.97 28.00 27.33 27.40 28.27 26.52 31.19 32.54 32.84 31.39 26.22 26.42 26.77 28.19 29.15 29.77 28.79 30.16 30.09 25.35 20.12
33.21 33.96 34.24 33.85 33.61 34.93 35.34 35.26 35.41 35.98 35.01 33.37 32.64 32.52 31.85 32.20 31.93 32.02 31.69 30.39 27.66 26.56 28.19 27.79 28.12 27.92 26.77 26.29 26.86 29.05 30.53 31.01 29.24 25.95 27.33 26.05 25.73 22.37 22.73 22.53 25.93 22.67 20.92
33.75 33.92 33.27 32.59 32.43 33.28 32.98 33.02 32.73 32.66 31.32 31.28 31.11 30.71 28.93 30.15 30.22 30.11 30.18 30.08 29.98 30.01 29.67 29.22 28.94 27.37 27.52 27.58 30.22 29.50 28.56 29.58 30.10 29.05 24.07 23.44 20.84 22.01 23.10 21.26 21.65 20.37 18.89
33.03 32.56 32.24 31.96 31.38 31.29 31.17 31.92 32.46 31.63 30.43 30.43 29.68 28.46 28.07 28.14 28.91 29.02 29.68 32.31 32.60 32.62 32.98 32.82 31.79 31.93 31.42 32.10 32.80 33.29 33.06 32.69 30.86 25.98 24.58 23.54 22.32 21.07 21.44 20.39 20.45 17.45 16.78

GFSMW_sfc_wetblb_024.txt.gz
Wetbulb
57.35 56.97 57.70 59.23 58.81 57.52 57.15 57.75 56.58 55.37 56.39 53.92 51.57 51.25 50.33 50.31 48.89 49.02 49.26 50.47 49.30 48.35 46.85 45.62 44.80 44.11 43.52 42.80 42.64 40.92 39.78 39.14 38.49 37.72 36.55 36.48 36.29 35.26 35.19 35.57 35.61 36.65 36.71
55.42 56.55 57.29 56.92 57.79 56.85 57.40 57.14 56.53 55.86 56.10 55.42 50.43 50.46 48.98 47.57 47.37 47.53 47.67 48.33 47.26 46.43 46.11 43.19 42.14 42.49 40.90 40.18 41.14 40.53 39.65 38.37 37.31 36.70 35.23 33.24 35.28 35.30 34.91 34.40 35.37 34.58 35.69
54.70 56.17 57.23 56.17 57.21 56.65 57.23 57.65 56.56 56.35 55.81 53.59 49.32 47.57 47.91 47.15 46.18 45.35 45.09 44.41 44.32 42.64 41.25 40.79 40.17 39.56 39.37 38.57 39.37 40.10 39.74 37.44 37.50 36.51 36.10 32.69 31.14 31.37 33.83 33.87 33.64 34.00 34.58
54.71 55.79 56.90 55.59 55.74 56.50 57.49 57.99 56.98 56.55 55.71 52.21 49.83 49.50 48.44 46.55 45.79 45.16 41.39 39.88 41.48 41.07 41.11 40.97 40.80 40.51 40.30 40.42 41.42 41.77 39.88 38.70 36.06 36.29 36.40 34.36 33.87 31.51 29.72 31.94 32.35 33.03 34.18
53.02 53.92 56.30 56.97 56.43 56.33 56.82 57.92 56.68 56.43 55.88 52.97 51.50 49.59 47.57 46.61 44.96 41.29 38.72 39.57 39.86 40.60 41.07 40.90 41.64 41.20 40.96 41.03 40.83 40.36 38.61 38.22 36.33 35.44 35.08 33.62 32.27 31.48 28.97 27.23 29.25 31.53 32.79
50.89 53.35 55.86 56.09 55.75 55.23 56.00 57.01 56.04 56.14 55.74 53.84 51.77 50.02 49.08 45.98 43.16 39.88 38.93 38.59 38.50 39.31 40.08 40.71 41.17 41.36 41.61 42.13 41.53 40.80 38.26 37.72 37.28 36.57 36.92 34.25 32.34 30.76 28.46 26.83 27.41 27.50 30.35
49.57 50.04 53.44 54.67 54.77 54.64 56.13 57.24 56.68 55.23 55.83 54.74 52.42 50.67 49.06 47.76 45.85 41.78 41.55 39.34 38.42 38.17 38.27 39.30 40.84 41.71 42.95 42.00 41.89 40.35 38.38 37.24 36.53 36.54 36.19 34.60 33.65 32.50 30.91 29.13 28.17 27.33 28.94
50.44 50.74 52.87 54.98 55.34 55.29 56.39 57.25 56.99 56.61 56.07 56.26 54.19 51.62 50.26 48.82 47.10 43.87 42.07 40.64 39.91 39.12 38.77 40.86 42.77 43.26 43.80 42.62 41.92 39.99 38.89 38.56 37.78 36.02 35.38 34.52 34.18 33.30 32.21 30.17 28.38 26.29 26.82
47.93 50.27 51.25 54.19 55.14 55.70 56.75 57.37 57.52 57.08 54.86 54.43 51.29 49.54 49.70 47.81 44.72 45.32 43.38 40.51 40.17 40.77 41.90 41.48 41.54 42.92 42.77 41.60 41.12 40.53 38.95 37.85 36.54 35.97 34.97 34.28 34.15 32.60 32.21 31.55 30.26 28.01 25.04
47.76 49.64 51.12 53.36 54.79 55.77 56.71 56.57 57.10 55.93 52.44 51.36 49.54 48.33 47.44 46.95 45.47 43.41 41.10 41.07 41.51 41.75 41.20 41.03 40.65 39.89 39.58 39.69 40.28 39.05 38.04 36.29 35.70 35.44 33.76 32.92 32.83 32.53 32.65 30.69 30.60 29.61 27.70
48.96 50.53 52.03 53.45 54.58 55.28 55.37 54.90 53.95 51.71 47.98 47.63 47.94 47.70 46.10 45.77 44.22 42.94 41.69 41.40 41.80 41.60 40.85 40.44 39.98 39.40 39.06 38.92 37.95 36.59 35.03 34.20 33.65 33.93 33.47 32.86 33.31 32.85 31.93 29.83 28.90 27.53 26.27
49.46 51.26 52.19 52.73 53.19 54.43 52.38 50.93 48.94 47.07 48.97 47.46 46.65 46.72 44.40 43.35 41.70 41.33 41.15 40.83 41.33 41.20 40.62 40.13 39.71 39.69 39.05 38.69 37.19 35.47 35.34 34.30 33.03 33.03 32.83 32.99 34.14 31.58 30.42 28.50 27.23 26.07 24.99
47.02 50.70 51.51 51.31 51.49 49.35 48.68 49.69 48.67 46.76 45.30 45.80 46.29 45.02 44.81 42.57 41.78 41.29 41.52 41.54 41.12 40.14 40.09 39.71 39.29 39.37 39.14 38.54 37.01 36.18 35.16 33.92 33.44 33.26 32.37 32.49 32.02 30.47 28.46 27.04 25.87 24.87 25.91
47.78 49.32 49.58 49.36 49.13 49.18 49.15 48.53 47.75 46.15 45.49 45.99 44.74 44.95 44.54 43.02 42.73 42.15 40.10 39.01 40.25 39.45 38.95 39.36 39.39 39.24 39.04 38.01 37.81 36.46 34.61 33.92 33.64 33.11 32.91 32.34 31.03 30.43 28.24 26.67 25.24 24.39 23.01
46.89 46.97 47.69 48.20 48.80 49.10 48.79 48.34 46.79 46.19 45.59 44.81 44.57 43.86 42.87 42.99 41.89 39.35 39.75 39.95 39.50 39.25 38.96 38.66 38.58 39.29 38.57 37.69 36.64 35.08 34.28 32.80 32.05 32.10 31.72 31.08 31.64 33.35 29.24 26.20 24.59 23.04 22.03
43.26 44.12 45.41 45.84 46.18 47.48 48.04 47.23 45.41 44.11 44.50 44.05 43.74 43.73 42.58 40.80 39.75 38.86 39.41 37.48 38.47 38.14 37.08 37.75 39.65 39.11 38.48 37.17 37.21 36.49 33.15 32.37 30.73 29.99 28.92 29.04 33.15 33.10 34.18 33.62 30.06 25.54 22.66
40.09 40.19 40.14 41.58 43.49 44.50 45.45 45.78 44.47 43.24 42.52 42.22 41.95 41.35 40.32 38.90 39.25 38.97 38.36 38.28 38.81 39.78 39.49 39.91 38.66 37.05 36.43 36.40 36.97 36.43 33.28 30.96 30.97 29.29 29.16 28.52 28.81 29.77 27.86 31.52 31.46 29.41 28.64
38.31 37.61 37.11 38.47 39.71 43.40 43.82 42.56 42.15 40.93 39.76 39.27 39.23 39.06 38.62 38.81 39.21 38.89 39.14 39.20 39.73 40.09 39.77 38.47 37.80 35.61 35.17 35.61 35.88 35.25 32.95 30.41 29.44 28.62 28.49 28.02 27.35 26.38 26.22 25.74 24.94 24.14 24.14
36.24 35.41 35.58 35.95 36.57 36.95 37.64 37.85 37.37 37.65 37.93 37.43 37.37 38.20 39.06 39.28 39.15 39.02 39.10 39.57 39.49 39.10 38.34 37.37 35.33 35.06 33.66 34.78 35.07 34.25 29.80 28.12 27.70 28.31 28.23 27.35 26.35 28.45 31.12 25.04 23.58 23.01 23.54
35.60 35.54 36.16 36.53 36.41 36.10 36.84 36.12 35.63 35.95 35.58 36.97 37.72 39.51 40.30 40.12 39.40 39.56 39.28 39.33 38.74 37.65 35.93 34.89 34.61 33.29 31.16 33.18 34.65 34.40 26.79 26.78 26.92 26.95 27.59 31.57 27.55 29.57 30.55 26.79 23.45 21.33 22.98
35.54 35.88 35.40 34.85 35.22 36.54 36.96 35.89 36.22 36.14 38.05 39.14 39.43 40.63 41.03 40.38 40.24 39.41 38.95 38.00 36.97 35.39 31.95 30.55 30.31 30.41 30.92 30.31 33.60 34.47 27.73 27.63 27.01 27.15 26.73 27.63 31.15 31.33 31.23 30.38 24.28 22.81 24.06
34.69 35.30 34.62 34.42 35.25 36.30 36.90 35.92 35.81 37.52 38.50 38.87 38.95 39.59 40.30 40.19 39.48 37.84 36.85 33.86 30.95 29.45 28.96 27.11 29.13 28.76 29.44 31.24 31.52 32.81 33.80 29.64 26.52 27.45 27.59 27.72 30.14 31.37 31.42 29.90 28.80 28.21 25.70
33.67 34.58 34.55 34.49 34.89 35.40 36.22 34.81 34.74 36.60 36.67 35.87 35.09 34.40 34.23 33.72 32.65 30.96 30.22 29.50 28.62 25.78 27.74 27.90 28.19 29.21 29.45 28.84 31.11 32.20 32.84 32.76 27.69 28.63 28.86 29.09 29.86 31.24 30.19 30.89 29.85 27.10 24.92
32.47 33.34 33.45 32.53 31.84 32.82 32.81 32.42 32.67 32.52 32.12 30.85 30.57 30.48 30.04 30.25 29.84 29.81 29.79 28.76 26.82 26.46 28.48 28.33 28.36 28.72 29.43 27.81 27.85 27.73 28.22 29.78 30.02 28.15 28.52 27.66 27.75 27.82 27.51 26.56 28.92 28.69 25.07
32.71 32.62 31.93 31.28 30.29 31.32 31.57 31.66 31.26 31.09 30.53 30.35 30.02 29.09 28.00 28.29 28.91 29.13 28.89 28.77 28.66 28.95 29.07 29.29 28.76 28.26 28.73 30.36 31.02 30.64 27.96 27.74 28.70 28.54 22.08 22.81 24.86 24.84 25.34 24.77 25.17 25.29 23.82
31.81 31.20 30.27 30.03 30.46 30.79 30.28 30.79 30.54 29.78 28.76 28.01 27.66 26.78 26.31 25.78 27.11 27.44 26.67 30.45 31.53 32.05 32.57 32.74 31.84 31.47 32.39 32.97 33.39 33.55 33.25 32.63 30.95 28.00 26.43 25.71 25.31 24.31 25.22 24.45 24.77 24.50 23.91

GFSMW_sfc_wetblb_030.txt.gz
Wetbulb
59.53 60.92 62.34 63.42 63.23 63.95 63.30 63.35 63.21 64.48 65.46 64.94 62.13 61.53 62.90 64.98 65.67 65.85 65.32 63.85 62.76 61.15 61.24 60.03 59.08 58.69 57.79 57.24 56.37 54.30 52.48 52.35 53.69 51.37 50.70 50.36 50.07 49.64 49.84 50.06 49.88 48.79 49.06
59.22 60.21 61.33 61.82 61.99 63.04 63.81 64.03 64.09 64.98 65.49 64.64 63.02 62.99 63.73 64.71 65.54 64.90 64.22 63.45 62.09 61.10 60.43 59.64 58.37 58.17 56.91 55.72 54.44 52.95 51.54 52.56 52.22 50.91 50.45 49.28 49.26 48.61 48.47 48.95 48.13 48.52 48.57
59.39 60.20 60.70 61.51 62.22 62.16 62.97 63.63 64.51 65.03 65.24 64.89 63.48 64.09 64.55 63.35 62.90 61.79 61.98 62.68 61.54 60.72 59.69 59.04 58.15 57.38 56.20 53.97 53.65 53.01 51.25 50.30 51.25 51.38 48.28 47.94 46.01 48.48 48.90 47.48 47.60 47.37 47.28
60.55 61.41 62.16 62.59 62.60 63.19 64.00 64.33 64.37 64.88 65.33 65.67 64.21 62.68 62.00 61.35 62.15 61.63 62.27 61.63 60.49 59.58 58.53 58.06 57.35 56.04 53.80 52.61 52.02 51.87 52.08 51.56 48.78 49.53 49.71 49.93 47.56 43.59 43.12 46.78 46.74 46.92 45.90
60.82 61.13 62.15 63.38 64.41 64.34 64.13 65.13 65.34 65.14 65.28 65.25 64.26 63.19 62.84 63.72 64.06 61.44 60.73 59.28 57.94 56.69 57.07 56.13 54.96 53.58 52.61 52.23 51.71 51.66 51.06 51.75 50.65 49.04 50.13 47.98 47.14 46.24 43.04 41.54 43.78 45.61 45.81
60.88 61.83 62.96 63.97 64.36 65.28 65.10 64.98 65.19 65.03 64.99 65.05 64.59 64.29 63.57 63.69 61.46 59.47 56.58 55.38 52.57 52.81 53.49 53.50 53.55 53.13 51.94 51.24 51.57 50.11 50.33 51.25 49.62 50.09 48.33 46.16 45.19 44.92 43.56 41.78 42.32 42.21 43.93
60.39 61.31 61.90 62.81 63.96 64.37 64.97 64.81 64.85 64.35 64.84 64.79 64.28 64.51 64.05 62.95 60.10 57.82 55.53 53.30 53.08 50.54 52.77 52.28 51.25 49.05 49.81 50.91 49.98 48.51 48.18 48.79 49.58 48.27 47.37 47.95 46.52 45.77 44.20 42.44 41.48 40.88 43.14
60.10 60.99 62.08 62.88 63.66 64.52 64.94 65.13 64.37 64.21 64.77 64.48 63.81 63.29 62.58 61.52 59.56 57.89 55.03 52.90 51.17 49.17 51.10 47.70 49.24 49.65 49.18 49.24 47.80 48.29 48.13 50.19 49.06 48.48 48.13 46.96 46.51 46.10 44.87 43.04 41.32 39.09 40.13
56.58 58.88 61.00 62.80 63.40 64.25 64.81 64.94 64.25 63.53 64.74 64.59 64.25 63.68 62.76 61.34 59.34 56.90 55.31 53.83 51.97 50.96 49.10 48.12 47.90 49.14 48.70 47.89 47.66 48.03 49.39 47.82 48.89 48.67 48.12 46.62 46.02 46.39 45.81 44.70 43.50 40.11 36.18
56.11 56.69 58.39 60.33 62.07 63.74 64.74 65.19 65.19 63.63 64.21 64.71 64.32 63.79 63.06 61.32 58.40 56.95 54.15 51.74 51.77 52.06 50.39 48.29 47.57 46.19 46.52 47.16 47.95 48.90 47.91 47.98 47.92 47.97 46.98 45.90 45.54 45.09 45.21 44.19 43.56 42.38 39.75
56.84 57.83 57.75 59.17 60.45 62.26 63.54 63.65 63.80 62.98 63.79 65.06 64.52 63.84 62.75 59.54 56.83 55.93 54.98 54.43 54.59 52.36 48.81 45.72 45.06 44.78 46.74 48.05 47.06 46.61 46.81 45.40 45.47 46.77 45.52 45.17 44.78 43.93 44.07 44.03 43.19 42.18 41.26
56.34 58.43 58.93 59.44 59.97 61.04 61.86 62.19 63.03 63.24 63.92 64.51 64.06 63.51 60.80 59.11 58.12 57.38 56.37 54.88 54.00 47.83 44.76 44.91 44.49 44.89 47.64 46.97 44.74 45.06 43.87 43.16 43.41 44.42 44.94 43.99 43.49 43.96 44.38 43.85 42.68 42.20 42.00
55.97 57.88 59.38 59.55 60.32 60.76 61.07 61.44 62.06 62.38 63.00 61.95 60.78 60.81 60.01 58.11 56.71 54.97 53.42 50.80 46.86 45.07 45.56 44.44 43.16 44.06 43.83 44.71 44.10 43.73 42.34 43.12 43.83 44.80 44.28 43.94 44.16 43.62 43.90 43.49 42.57 42.29 41.09
54.30 57.16 58.80 59.52 60.22 60.56 60.58 60.81 60.77 61.28 60.57 59.45 59.49 58.90 57.90 57.64 57.14 55.20 52.73 51.73 49.77 46.52 44.59 44.06 44.55 43.09 44.60 44.37 42.72 43.28 44.30 45.26 44.88 43.74 44.55 44.48 44.17 43.71 43.74 43.23 42.78 41.84 40.60
54.61 56.22 57.84 58.95 59.60 59.48 59.28 59.17 59.15 57.96 57.70 57.10 57.05 56.56 56.65 56.24 55.07 54.15 53.67 52.15 49.58 46.23 43.14 42.81 42.39 44.28 43.04 44.52 44.29 44.04 42.98 44.48 43.90 44.55 44.58 44.67 43.72 41.33 41.79 42.66 42.08 41.63 39.67
52.74 53.63 54.19 54.30 54.22 55.29 56.82 56.49 56.44 55.63 55.88 54.77 54.13 53.84 53.34 52.44 51.44 49.57 47.29 44.94 43.52 42.70 41.42 42.23 41.65 43.82 43.82 39.29 39.02 39.78 42.66 43.45 42.91 43.00 43.49 44.22 42.18 41.01 38.10 37.80 37.25 38.75 40.03
50.05 50.37 51.26 52.17 53.00 53.36 54.33 54.15 53.57 54.01 53.36 52.59 51.89 51.30 50.66 49.31 48.40 47.16 44.87 42.78 41.08 41.49 40.74 42.20 42.98 42.74 43.62 39.81 38.35 37.03 39.68 41.22 42.93 42.57 42.40 42.11 42.46 40.68 42.23 37.47 35.19 33.72 32.85
48.31 48.98 49.75 50.20 50.97 51.80 51.70 51.90 51.65 50.92 50.11 49.34 48.95 49.11 48.68 47.02 46.27 45.14 43.41 41.17 42.14 42.25 43.18 42.95 43.05 42.46 43.00 38.34 36.84 36.41 39.28 42.39 41.97 41.95 41.73 41.44 41.59 42.11 41.43 41.01 39.61 37.89 38.39
48.27 48.31 49.12 49.13 49.41 49.15 49.58 49.36 48.71 48.36 47.57 46.61 46.52 46.92 46.98 46.52 46.14 45.02 44.37 45.01 44.86 44.53 43.24 42.49 42.85 41.88 43.40 37.68 37.69 38.02 41.29 40.13 40.14 40.84 41.21 41.25 40.87 38.76 37.23 39.00 38.33 38.40 38.11
47.47 47.18 47.45 47.78 47.73 47.83 48.50 47.54 46.67 46.39 45.54 45.79 45.86 46.55 46.55 45.91 45.34 45.50 44.63 44.93 44.44 43.62 42.40 40.69 39.50 37.65 38.73 38.82 37.79 37.03 39.84 38.43 38.99 40.15 40.23 36.61 37.57 36.09 34.67 37.74 37.70 36.05 37.20
45.58 46.66 46.82 46.15 46.52 47.50 47.51 45.93 45.53 44.43 45.32 45.86 45.47 45.16 45.39 44.44 44.03 43.61 41.67 39.62 38.77 38.73 39.88 40.83 41.77 41.60 40.51 40.46 36.41 35.77 37.50 37.90 38.23 37.97 38.59 39.88 35.39 34.13 34.13 34.13 37.21 36.66 37.89
44.52 45.28 44.90 44.86 46.14 46.92 46.29 44.53 43.47 44.59 44.89 44.41 43.35 42.42 41.26 40.38 41.10 41.30 41.34 41.06 40.69 39.66 39.28 39.65 39.17 40.56 40.74 36.84 36.61 35.07 34.22 34.54 35.77 35.81 38.43 39.71 35.96 34.75 33.48 33.54 33.56 33.87 32.16
44.41 44.67 44.02 43.36 44.37 44.86 44.38 42.35 42.55 42.79 41.78 40.65 39.77 39.60 39.73 39.85 39.85 39.72 39.26 39.44 39.10 38.14 37.10 35.98 36.01 36.18 36.70 36.99 33.20 31.21 30.74 31.15 31.37 32.97 34.73 33.45 33.20 33.81 33.31 32.54 32.70 31.76 34.95
43.62 43.33 41.75 40.41 39.55 40.74 40.79 40.56 40.46 40.39 39.62 38.25 37.75 37.87 36.50 36.89 36.76 37.42 36.18 35.59 34.55 33.29 32.43 32.15 32.09 32.29 32.21 32.73 31.58 29.66 30.11 28.84 30.13 30.87 33.50 30.97 29.67 32.33 33.74 34.17 34.95 35.39 35.89
42.02 41.78 40.34 39.00 38.10 38.72 38.47 38.93 38.89 38.74 36.81 35.80 34.72 34.66 34.10 33.65 33.75 33.22 32.56 31.35 31.94 29.21 29.01 29.50 29.13 28.38 27.79 28.02 25.88 25.63 26.79 27.70 27.05 27.49 30.55 31.04 31.46 30.60 33.75 34.42 34.65 34.81 35.56
40.31 39.41 38.40 37.24 36.45 36.21 35.59 35.72 36.28 36.32 35.06 32.87 32.30 31.27 32.27 32.28 31.91 31.43 32.03 26.55 26.26 25.62 25.40 24.81 25.46 26.38 25.03 23.56 23.43 23.91 24.39 24.04 25.02 26.06 29.24 31.09 31.67 31.34 31.33 32.67 33.90 34.79 33.83

GFSMW_sfc_wetblb_033.txt.gz
Wetbulb
59.42 60.77 61.80 61.41 61.92 62.03 61.65 61.81 61.93 62.98 63.74 63.30 62.37 60.89 60.12 62.45 64.73 66.15 66.37 66.25 65.31 64.35 63.92 63.03 62.05 61.38 60.07 59.28 58.82 56.38 54.74 53.12 53.76 53.02 53.51 53.40 53.06 52.45 51.79 51.67 50.98 50.49 50.06
58.40 59.86 61.24 62.46 62.10 62.13 62.74 62.69 62.43 63.52 63.95 63.46 63.28 61.78 61.90 62.76 64.90 66.81 66.26 66.25 65.52 64.12 63.40 62.96 61.30 60.68 59.48 58.94 57.61 55.84 53.83 53.55 53.99 52.81 52.72 50.60 50.73 51.29 51.20 51.08 50.15 50.03 49.76
58.30 59.24 60.01 61.59 62.61 62.52 62.76 63.24 63.60 64.06 64.73 64.66 64.08 62.01 62.22 63.82 63.58 64.47 64.67 65.30 65.03 63.91 63.08 62.67 61.72 60.86 59.86 57.68 56.85 55.44 53.76 51.63 52.93 53.75 51.31 49.21 48.04 49.39 50.95 49.86 49.69 49.62 48.90
59.79 60.00 60.24 60.55 61.78 62.68 64.18 64.16 64.20 64.07 64.66 65.10 63.57 61.62 61.16 60.71 63.17 63.90 64.50 63.93 64.45 63.64 62.77 62.25 61.62 60.32 59.09 57.91 56.25 54.87 54.03 53.04 51.68 53.82 52.52 52.58 50.90 45.59 44.93 49.12 49.04 49.06 48.08
59.54 59.92 60.83 61.39 62.17 63.34 63.39 64.36 64.46 64.63 65.05 65.09 64.46 63.22 62.42 63.05 63.66 64.05 63.94 63.54 64.22 63.15 62.35 61.70 60.86 59.51 57.94 56.87 56.12 54.07 53.16 53.43 51.02 50.85 49.57 51.56 49.92 48.89 45.02 43.10 46.23 47.84 47.67
59.83 60.47 61.80 63.01 63.28 64.06 64.79 65.05 64.19 64.00 64.84 65.24 65.05 65.46 63.91 63.51 63.20 64.23 62.68 62.65 61.78 60.57 60.82 59.60 58.50 56.90 54.16 53.90 53.85 53.40 51.74 50.46 51.39 49.95 50.79 49.16 47.08 46.87 46.33 44.51 44.60 44.37 46.27
59.73 59.91 60.40 61.48 62.80 64.15 64.97 64.82 64.35 63.77 64.72 65.14 65.12 65.40 64.53 64.58 63.99 63.26 62.22 60.61 58.97 55.77 54.91 54.45 53.85 52.22 51.29 49.72 49.98 49.91 49.39 49.44 49.26 50.50 50.03 49.14 48.80 48.62 46.42 44.33 42.96 42.21 44.72
59.98 60.32 60.73 61.35 62.40 63.53 65.04 65.29 64.77 64.15 64.77 65.60 65.32 66.00 64.31 63.92 64.76 63.59 62.36 60.02 55.86 52.14 53.66 51.86 52.97 51.01 48.88 49.84 50.33 49.29 48.13 48.71 49.70 50.27 49.53 48.99 48.55 47.98 46.62 44.43 42.55 40.36 41.37
58.23 60.01 61.02 62.18 62.88 63.68 65.00 66.50 65.39 64.95 65.36 65.69 64.52 65.44 64.95 64.30 64.75 64.06 62.88 58.52 54.46 54.31 53.58 53.71 51.96 49.43 48.95 48.31 47.70 47.46 48.53 47.45 50.56 49.86 49.04 48.40 47.78 47.64 47.33 46.29 44.56 41.17 36.91
57.52 58.21 59.90 61.80 63.14 64.19 65.30 67.55 66.43 65.83 65.76 65.97 65.09 65.25 65.24 64.66 64.11 62.97 59.30 56.26 55.29 54.42 53.45 52.39 50.32 49.57 49.17 47.31 47.59 47.57 47.51 48.28 47.82 48.78 48.02 47.82 47.94 47.21 46.20 45.14 44.51 43.30 40.59
57.25 58.90 59.07 60.37 62.09 63.94 64.87 65.69 66.25 66.16 66.21 66.04 66.07 65.80 64.46 63.48 63.04 61.00 58.36 56.83 55.33 54.30 53.44 51.97 51.04 48.69 46.95 45.61 45.89 47.67 47.73 47.20 47.45 47.18 46.18 46.78 47.22 45.97 44.95 44.57 44.01 42.57 41.99
56.84 59.29 60.35 60.50 60.55 61.84 63.14 64.66 65.51 65.40 66.06 65.94 65.49 64.47 62.74 60.23 59.20 58.49 57.86 57.18 56.46 56.27 53.90 52.57 49.12 46.79 45.35 46.01 46.91 45.71 45.58 46.33 44.84 45.11 45.78 45.84 45.81 45.12 44.88 43.95 43.89 43.01 43.50
56.01 59.03 60.62 60.45 61.00 61.69 62.73 63.42 64.07 64.30 64.74 65.08 65.23 64.46 60.85 59.16 58.19 57.67 57.73 56.70 55.12 52.71 49.95 47.40 45.79 45.33 45.30 45.60 46.06 46.16 45.66 45.29 44.51 44.49 46.02 45.72 45.87 44.72 44.54 44.50 43.62 43.29 42.79
55.16 57.44 60.31 61.24 61.45 61.74 62.07 62.58 63.10 63.89 64.00 63.59 62.50 62.25 61.06 58.96 58.18 57.54 55.75 53.59 49.66 46.75 45.71 45.96 44.83 44.16 44.83 44.79 44.15 44.18 44.69 44.28 44.31 45.33 46.31 45.17 44.88 44.83 44.51 44.20 44.16 43.35 42.86
55.81 57.37 59.18 60.65 61.36 61.60 62.04 62.50 61.86 61.65 61.46 60.94 60.69 59.96 59.32 59.11 57.56 56.43 55.12 53.50 51.18 49.22 47.15 44.38 43.51 43.29 43.96 43.90 44.13 44.49 44.22 43.27 43.61 45.13 45.34 45.54 44.79 42.01 41.97 43.23 43.75 43.59 42.19
55.81 57.60 59.34 60.03 59.91 60.49 60.43 59.66 58.87 58.48 58.89 57.94 56.97 57.06 56.64 56.02 55.23 54.02 52.15 50.93 49.85 47.89 45.55 43.77 44.63 43.07 43.24 39.96 40.17 42.62 43.86 42.69 42.65 42.64 43.71 44.84 42.67 42.86 38.81 39.19 38.60 40.50 41.48
55.13 55.69 55.75 55.84 56.38 56.83 56.90 55.94 56.09 56.72 55.84 55.01 54.46 54.06 53.48 51.97 51.12 50.16 48.64 47.33 46.26 45.39 43.36 42.87 42.64 42.73 44.09 39.34 39.18 37.88 41.05 39.62 39.95 40.46 41.65 42.72 43.52 41.58 43.49 40.61 37.04 37.06 36.27
53.55 53.73 53.76 53.83 54.48 55.09 54.70 54.75 54.41 53.70 52.89 52.25 51.95 51.91 51.06 49.64 49.20 48.08 46.38 44.63 44.25 43.76 43.90 43.87 44.29 44.82 44.32 39.31 38.40 36.84 39.02 38.98 40.28 42.58 43.02 42.33 42.41 42.48 41.40 42.03 41.50 42.26 42.62
53.18 53.27 53.63 53.14 53.16 52.87 53.07 52.30 51.57 51.18 50.58 49.71 49.66 49.75 49.82 48.52 47.86 46.80 46.62 46.64 46.14 45.61 45.05 45.09 44.15 43.14 43.21 38.36 37.29 37.47 39.86 41.23 40.99 41.41 41.56 41.31 40.96 39.27 38.28 39.45 39.32 40.12 40.85
52.12 51.60 51.99 52.20 51.82 51.80 52.08 50.72 49.75 49.21 48.37 48.65 48.73 49.12 48.90 47.95 46.75 45.22 44.76 44.68 44.85 44.38 44.65 42.95 42.19 39.35 41.67 39.51 37.62 37.89 39.37 38.04 38.77 39.41 40.11 37.51 38.42 36.17 35.79 38.58 38.25 36.94 39.25
51.04 51.21 51.37 50.77 50.72 51.32 50.84 49.04 48.46 47.23 48.11 48.35 48.24 47.59 46.98 45.42 44.99 44.88 44.27 43.27 43.49 43.10 42.74 41.99 42.81 42.06 40.93 40.56 35.81 34.45 36.81 34.02 31.79 33.80 35.72 37.98 35.62 35.36 34.84 35.02 37.33 36.73 38.63
49.25 50.36 49.46 49.24 50.10 50.48 49.49 47.78 46.63 47.47 47.23 46.36 45.48 44.86 44.49 43.52 44.05 43.73 42.92 42.10 41.81 41.13 40.83 40.24 40.08 41.33 41.13 35.07 32.75 32.21 29.83 29.60 30.35 30.55 33.05 34.07 32.68 32.30 32.39 32.72 34.14 34.51 33.18
49.19 49.57 48.76 48.06 48.72 49.04 48.44 46.41 46.14 46.32 45.22 43.70 42.31 41.62 41.66 41.54 41.88 41.31 40.69 40.84 39.89 38.55 37.18 35.94 35.82 36.05 36.60 36.26 32.06 30.48 29.28 29.04 29.16 30.83 30.82 29.72 29.68 30.26 30.66 31.59 31.77 32.84 34.64
48.45 48.61 47.33 46.26 45.62 46.55 46.24 45.37 44.56 44.16 42.98 41.25 40.52 40.15 39.60 38.70 39.21 39.01 37.74 36.85 35.65 34.31 33.23 32.79 32.36 32.42 32.36 32.54 30.28 28.06 28.03 27.44 28.16 28.21 28.88 27.69 27.94 28.83 29.63 30.72 32.96 34.20 33.45
47.83 46.75 45.30 43.88 43.12 43.68 43.01 43.11 42.79 42.18 39.94 38.93 38.08 37.38 36.66 36.52 35.75 34.98 33.62 33.26 30.62 29.02 29.59 29.93 29.55 28.63 27.68 27.24 24.27 24.03 24.75 25.80 25.28 25.15 27.45 29.11 29.76 29.11 30.26 31.23 32.30 33.53 33.83
46.12 45.05 44.00 42.84 41.70 41.32 40.69 40.89 40.94 40.14 38.07 35.98 35.38 34.87 34.83 34.45 34.38 34.02 31.70 26.93 27.17 25.89 25.31 24.40 24.82 26.03 24.71 22.84 22.47 22.96 23.52 23.52 24.07 24.62 25.84 26.88 26.62 25.58 25.72 26.31 27.41 30.09 30.65

GFSMW_sfc_wetblb_036.txt.gz
Wetbulb
58.49 58.80 58.89 59.26 57.62 57.16 56.78 57.39 57.98 58.52 59.38 58.92 58.50 60.06 57.53 59.31 60.05 63.21 64.33 64.22 64.07 63.12 62.37 61.44 60.01 58.67 57.80 56.32 56.41 53.39 50.87 48.84 49.19 48.14 48.26 48.54 49.43 48.76 48.03 47.68 46.95 46.91 46.63
57.48 58.13 58.41 59.42 58.72 57.82 58.42 59.63 60.32 60.51 60.31 60.86 61.52 61.21 59.41 59.41 60.59 63.59 64.01 63.46 63.05 62.56 62.25 61.06 59.32 58.87 57.47 56.82 55.10 52.84 50.17 50.09 49.85 47.82 47.78 45.74 45.81 46.94 48.08 46.85 46.93 45.25 45.81
56.36 57.80 58.47 58.68 59.63 58.98 59.35 60.36 61.10 61.26 61.54 62.05 62.17 62.03 60.44 60.08 59.75 62.78 63.24 63.30 63.79 63.02 61.40 61.11 59.78 58.79 57.98 55.85 54.62 52.77 51.04 48.03 48.84 49.33 46.75 43.80 43.26 44.71 46.06 46.19 45.41 45.04 44.35
57.20 58.22 58.50 59.46 59.09 60.28 60.88 61.12 61.00 60.95 61.76 62.39 60.87 60.33 57.80 56.46 59.43 62.01 62.89 63.07 63.60 62.91 61.80 60.99 60.34 59.40 57.60 56.06 54.21 53.61 51.06 49.16 47.51 49.84 50.83 48.84 48.10 42.55 39.79 43.66 44.65 45.28 45.19
57.97 57.41 58.33 59.76 61.30 61.78 61.56 61.77 62.15 62.02 62.48 62.73 62.41 61.10 58.54 58.98 60.06 61.80 62.03 62.23 62.44 62.47 61.37 60.94 59.57 58.15 56.69 54.61 54.09 52.47 50.58 50.06 48.39 47.15 46.76 48.11 48.88 45.96 42.19 38.96 42.35 42.84 43.70
58.14 58.93 59.52 60.11 60.85 61.65 62.20 62.63 62.12 62.30 62.78 62.83 62.52 61.98 59.42 59.92 60.16 60.52 60.96 61.24 61.23 61.87 60.85 59.30 58.04 53.87 52.72 51.72 50.98 51.35 49.97 50.00 49.21 48.57 47.95 48.00 46.73 43.23 41.23 40.10 40.07 40.51 41.99
58.21 58.25 58.98 59.28 59.88 60.44 61.29 62.26 62.18 61.95 62.86 62.99 63.22 62.29 62.17 61.14 60.63 61.23 61.58 60.27 59.88 58.26 56.57 53.91 52.56 52.50 52.30 51.47 50.85 49.89 48.99 48.69 47.44 48.19 48.79 49.51 47.10 46.07 43.94 41.28 38.03 37.06 39.63
58.39 58.82 58.73 60.10 60.58 60.78 61.33 61.68 61.83 61.61 62.41 62.84 63.13 63.35 62.77 62.52 61.99 61.58 60.93 60.27 59.09 56.18 54.06 53.22 52.44 52.11 51.03 49.52 49.18 48.82 47.80 47.86 47.72 47.66 47.50 47.78 46.74 45.53 44.10 41.42 38.61 35.57 36.86
58.33 58.66 59.60 60.05 61.24 61.96 62.18 62.35 62.43 62.39 62.56 62.86 62.86 62.66 63.71 62.00 61.28 61.77 61.58 59.72 57.06 54.00 53.03 52.87 51.95 50.79 49.42 48.64 47.98 47.42 47.07 47.61 47.61 47.21 47.62 45.79 45.72 45.54 44.61 42.84 41.63 38.24 32.72
57.72 58.45 59.72 60.27 61.12 61.82 63.51 64.03 63.71 63.17 63.35 63.51 63.65 63.40 62.00 62.07 61.93 61.85 61.36 58.44 55.12 53.94 53.63 52.80 51.85 49.55 47.91 48.03 47.93 46.89 47.50 47.21 46.50 46.76 45.48 45.65 45.43 44.59 44.31 41.81 40.95 39.72 36.34
57.52 58.12 58.73 59.52 61.26 62.06 61.81 63.53 64.06 63.98 63.88 63.96 63.76 62.86 61.02 59.65 59.51 62.14 60.29 56.58 55.41 54.76 53.45 52.08 49.84 48.37 48.14 47.70 46.46 46.27 46.27 46.29 45.88 44.98 44.96 45.01 45.70 45.28 44.15 41.91 40.64 39.54 38.03
56.80 58.54 59.28 59.70 59.92 60.83 62.57 63.82 64.01 64.43 64.92 64.21 62.47 62.51 62.68 62.74 61.23 59.53 58.26 57.18 55.80 54.62 52.49 51.35 49.73 48.54 47.45 46.79 45.51 45.67 45.98 45.03 43.97 44.79 44.20 43.91 45.43 44.36 44.20 42.20 39.17 38.18 38.42
55.41 58.10 59.24 59.38 59.53 60.33 61.26 62.31 63.79 64.17 64.73 64.57 62.60 62.22 60.87 59.29 58.74 57.54 56.61 55.68 54.62 53.47 52.25 50.23 48.54 46.56 45.55 45.15 45.20 45.66 45.05 44.12 43.95 43.88 43.74 43.38 43.94 43.19 42.67 40.32 39.16 38.56 40.66
54.33 56.14 58.66 59.55 60.30 61.12 61.67 62.16 62.55 63.07 63.02 62.92 60.61 60.49 59.53 58.67 57.64 56.75 54.61 50.18 48.21 46.16 45.83 46.16 46.02 45.46 45.31 45.10 45.05 45.48 44.46 43.71 43.98 43.98 43.37 43.25 44.08 41.20 41.08 41.19 40.50 40.03 38.48
54.04 55.38 58.32 59.55 60.15 60.51 61.14 61.79 61.81 61.63 61.84 60.84 60.10 58.24 58.51 57.90 56.99 55.40 53.39 51.07 48.34 46.52 45.62 44.92 44.62 44.45 44.12 44.84 43.63 43.73 43.15 42.56 41.90 42.24 43.66 43.75 43.20 41.57 40.60 40.62 38.48 38.45 38.07
54.33 55.99 57.69 60.11 60.04 60.52 60.52 60.31 59.56 59.37 59.74 58.62 57.45 57.87 57.61 56.77 55.32 53.32 52.22 50.73 48.70 47.95 45.14 43.78 42.81 42.36 43.28 39.01 41.88 42.49 42.55 42.00 41.78 40.56 42.06 42.25 41.50 41.80 39.99 39.40 38.83 38.59 37.28
55.35 56.89 58.60 59.09 59.64 59.12 58.60 56.86 56.84 57.20 55.77 54.88 54.93 54.34 53.50 51.58 50.46 49.46 47.98 46.55 45.33 44.50 42.59 42.57 42.14 42.48 42.07 40.24 39.36 38.54 40.04 39.40 38.32 39.22 39.77 40.61 41.92 40.43 41.01 39.21 37.54 36.20 36.22
55.51 56.31 55.86 56.16 56.28 56.23 55.52 55.23 55.03 54.00 53.16 52.48 52.06 51.77 50.71 49.26 48.17 46.52 44.28 43.06 42.49 41.67 41.44 41.55 42.21 42.03 42.49 39.09 38.76 36.83 37.83 38.34 39.10 39.40 39.19 39.40 39.58 38.45 37.55 36.72 35.21 35.96 37.12
55.01 54.65 54.69 54.43 53.98 53.52 53.58 52.62 51.64 51.28 50.70 49.97 49.59 49.37 48.76 47.25 46.00 44.56 43.85 43.90 43.08 43.16 43.50 43.06 42.80 42.25 40.54 38.39 37.53 37.30 38.15 39.12 38.21 38.30 37.46 36.74 35.84 35.82 36.04 33.76 32.90 33.82 35.04
53.88 53.12 53.15 52.72 51.99 51.77 51.62 50.29 49.28 48.84 48.13 48.55 48.56 48.79 48.27 46.95 45.38 44.62 43.72 43.95 44.02 43.01 42.90 42.06 41.13 39.14 41.01 38.02 36.35 36.02 33.79 31.81 30.00 31.71 33.08 33.61 33.86 33.66 33.43 30.05 29.00 28.59 30.21
52.46 52.59 51.90 50.72 50.88 51.14 50.44 48.49 48.05 47.03 48.15 48.46 48.05 47.39 45.85 44.63 44.44 43.98 43.80 42.45 41.65 41.32 39.16 39.03 39.74 40.48 35.98 33.23 32.13 31.77 28.59 26.80 26.79 27.31 27.70 28.24 31.91 31.38 30.27 30.73 27.19 26.83 29.04
51.01 51.19 50.17 49.71 50.35 50.42 49.11 47.44 46.19 47.39 47.04 46.28 45.75 44.99 44.62 44.02 43.70 42.37 42.36 42.01 40.30 38.29 36.59 35.29 34.80 35.48 33.04 31.83 30.92 29.52 28.41 28.28 25.62 25.59 26.47 27.42 28.87 28.69 28.96 28.70 29.99 30.91 29.51
49.85 50.66 49.26 48.67 49.26 49.30 48.64 46.21 45.93 46.15 45.50 44.67 43.38 42.58 42.33 42.03 41.59 39.72 38.58 37.68 37.23 34.18 31.41 30.76 31.00 30.93 30.45 29.81 29.23 27.89 27.12 27.09 24.92 25.86 26.76 26.93 26.83 27.62 27.68 30.31 30.81 29.86 29.27
49.27 49.63 48.40 47.52 46.95 48.02 47.75 46.32 45.97 45.29 43.13 40.85 40.06 39.54 38.24 37.97 37.68 36.85 35.91 34.25 30.80 30.11 29.65 29.54 28.16 28.06 27.90 24.58 23.99 23.61 22.99 24.90 24.36 24.13 22.74 23.28 25.24 25.67 25.37 25.96 26.22 25.96 26.48
49.07 48.60 47.12 46.28 45.82 46.02 44.75 44.64 43.88 43.03 40.63 39.19 37.68 36.31 35.94 35.01 33.32 30.23 30.23 28.36 26.35 26.99 27.24 26.25 26.35 23.58 22.58 22.03 22.72 22.34 21.85 21.34 22.78 20.84 21.59 22.83 23.82 22.84 22.50 22.53 23.05 23.25 23.52
48.05 46.93 45.92 44.50 43.29 42.78 42.03 42.34 42.19 40.47 37.93 35.95 34.74 33.07 32.46 31.70 32.67 29.97 27.51 28.60 26.86 26.40 25.89 24.89 24.04 24.16 23.56 22.55 22.70 22.71 23.36 23.72 23.85 21.13 20.33 18.92 18.59 19.20 19.90 19.37 19.71 20.12 20.15

GFSMW_sfc_wetblb_042.txt.gz
Wetbulb
53.48 53.46 53.14 52.61 52.97 52.60 52.49 53.62 53.97 54.50 54.40 54.59 54.85 54.01 52.54 51.25 52.82 53.54 56.07 58.74 58.77 60.24 58.72 57.83 57.60 55.80 55.13 54.45 52.90 50.61 48.35 46.40 46.22 44.34 43.42 43.74 44.17 44.19 43.69 43.30 44.63 45.83 47.20
52.63 52.71 52.38 51.61 51.32 51.51 52.47 53.01 53.68 53.58 53.81 54.66 54.50 53.46 53.25 52.01 53.58 54.38 56.59 59.74 60.40 60.42 59.54 58.10 57.36 55.79 54.44 53.50 51.82 49.86 46.51 45.69 45.04 43.37 43.40 41.61 44.07 43.75 44.43 43.07 43.29 42.83 46.78
52.14 52.07 51.97 51.66 50.88 50.77 51.52 52.88 53.25 52.82 53.64 53.87 52.56 51.02 51.94 53.57 53.62 54.85 55.93 58.37 60.33 60.42 60.33 58.35 57.31 55.71 55.18 53.87 51.68 49.49 47.89 45.62 44.74 45.59 44.59 41.08 40.99 42.10 43.05 43.82 43.74 44.12 42.14
53.41 52.85 52.20 51.48 50.87 50.66 51.86 52.79 53.39 52.60 53.25 53.68 52.11 51.40 52.05 51.55 54.40 55.92 56.42 57.92 59.92 59.99 59.50 58.97 57.30 55.57 55.11 53.65 52.85 49.94 47.70 47.84 46.41 47.79 49.07 48.14 46.25 41.99 40.26 42.31 44.98 44.44 42.56
52.86 52.75 52.92 52.27 52.20 51.34 50.89 51.44 52.57 52.70 53.64 54.02 53.22 52.11 51.83 53.84 55.96 53.35 54.87 57.20 58.51 59.46 58.37 58.39 57.62 55.99 55.16 54.83 53.29 49.53 48.43 49.84 49.41 48.98 47.31 47.81 47.68 45.79 43.67 41.09 42.67 43.11 43.30
53.21 53.80 54.59 53.96 52.39 52.44 51.44 51.80 51.54 52.20 55.59 54.63 54.52 54.22 53.90 55.35 56.18 53.76 54.36 56.56 58.14 58.97 58.64 58.50 58.57 57.12 56.63 55.22 53.58 51.66 49.29 49.28 48.55 48.51 48.80 48.16 46.91 46.39 44.83 42.14 41.64 41.01 42.37
53.46 53.73 54.06 53.66 52.73 52.13 52.50 52.88 53.24 53.66 55.65 56.45 55.79 55.60 56.26 56.76 56.32 55.16 55.27 55.98 56.87 56.40 57.99 59.14 58.21 57.05 55.07 54.43 53.52 51.27 50.52 48.86 48.35 47.92 48.69 49.15 48.39 47.48 46.69 44.18 43.39 39.52 39.08
53.82 53.82 54.38 55.01 54.69 53.32 53.54 54.03 54.62 55.09 55.97 56.60 56.42 56.67 57.42 57.92 57.84 57.13 55.31 58.01 58.52 59.01 59.30 59.38 58.34 57.17 53.11 52.34 52.79 50.62 50.45 48.74 48.79 48.60 48.76 49.01 48.92 48.03 46.56 43.45 41.63 36.88 36.56
52.65 53.95 54.93 55.21 55.67 55.82 54.94 54.79 55.53 56.60 57.10 57.22 57.22 57.23 57.79 58.08 58.05 57.04 56.57 57.50 59.41 59.42 58.57 57.35 55.78 54.12 53.17 52.48 51.26 50.28 48.64 48.83 48.54 48.59 48.59 47.95 47.90 47.79 46.32 43.82 42.02 39.23 34.75
53.47 53.54 54.85 55.65 56.56 56.81 57.19 56.93 57.00 56.74 57.49 58.04 58.37 58.46 58.31 58.69 59.08 57.66 57.40 57.70 55.35 55.90 55.62 54.39 53.52 51.71 51.35 50.04 50.30 49.42 48.21 48.06 48.31 47.94 47.04 46.86 46.87 45.62 44.80 43.76 42.91 40.94 38.23
50.62 53.16 53.90 55.85 56.78 57.76 57.61 57.34 57.55 57.60 57.69 58.43 58.73 58.57 58.67 59.04 58.53 57.93 57.66 56.88 56.84 56.26 54.57 53.21 51.69 50.81 50.54 49.32 48.53 47.83 47.76 47.51 46.96 46.80 46.48 45.52 45.09 44.39 44.07 43.95 43.61 42.12 39.17
49.51 52.27 53.12 54.52 55.68 56.18 57.08 57.97 58.11 58.45 58.92 59.26 59.42 58.60 58.25 57.69 58.28 58.42 57.64 57.32 57.38 57.00 55.72 53.45 53.27 51.05 49.29 48.85 47.42 46.77 47.35 46.43 45.37 45.10 44.67 44.13 44.91 43.27 43.43 43.16 41.99 41.35 40.80
49.86 50.55 50.61 52.28 53.64 54.87 56.31 56.81 57.78 58.26 59.32 58.71 59.50 59.37 59.14 59.07 59.58 59.58 58.26 58.72 58.08 57.30 54.21 53.83 52.08 50.09 49.26 47.66 46.71 46.71 46.11 45.53 45.28 44.78 44.09 43.66 43.12 41.49 41.72 41.60 41.11 39.89 39.43
50.30 51.04 50.72 51.81 52.30 53.87 55.54 56.49 57.00 58.53 58.58 57.49 57.70 58.04 58.38 59.29 59.84 59.78 57.59 56.84 54.86 53.56 52.80 51.29 50.35 48.67 47.39 46.80 46.32 45.69 45.14 44.63 44.59 44.38 43.81 43.19 42.01 41.51 41.32 40.58 39.24 39.05 37.08
47.63 50.53 51.08 51.70 52.95 54.81 56.13 56.91 57.59 58.38 58.63 57.75 57.37 56.83 57.98 59.18 57.83 55.37 54.53 53.20 52.64 51.58 50.53 49.85 48.47 46.70 46.09 45.56 45.21 44.78 44.10 43.70 43.30 43.35 42.70 42.55 42.47 41.49 40.14 40.15 39.17 38.27 37.99
47.78 50.65 52.13 52.63 54.96 55.77 55.51 55.93 56.32 56.62 58.55 58.72 58.64 57.33 56.58 55.90 54.24 52.20 50.11 48.86 48.56 47.71 46.29 45.91 45.11 44.53 44.91 40.44 41.42 43.20 43.29 42.91 41.95 40.91 40.80 40.74 40.66 40.67 37.58 35.46 35.19 34.07 30.56
47.38 47.81 52.39 53.87 55.44 55.74 55.42 54.53 54.81 55.52 55.70 56.06 55.94 55.42 54.50 53.02 51.41 50.25 48.44 47.35 44.83 44.03 43.36 43.52 43.83 42.81 43.26 39.69 40.34 39.98 41.77 40.39 39.33 37.99 38.08 39.32 38.52 35.91 34.25 32.79 32.35 31.53 32.77
47.38 50.44 53.18 53.64 54.48 53.73 52.78 52.41 53.34 52.60 51.42 51.18 50.94 50.62 49.95 49.55 48.88 46.52 44.16 41.44 41.64 41.16 38.92 38.61 39.36 39.38 39.43 38.41 38.14 36.83 36.81 35.46 37.06 37.87 35.62 33.76 32.25 32.88 30.11 28.06 26.51 26.16 26.70
49.02 52.18 54.26 52.95 52.53 51.74 51.15 51.00 49.99 49.32 48.96 48.74 48.17 47.53 46.39 45.04 43.62 41.29 40.22 39.12 39.03 38.48 38.16 39.02 38.16 37.85 37.16 37.45 36.61 35.62 34.79 33.58 31.54 32.19 32.31 30.86 28.55 30.67 30.61 26.66 24.83 24.46 25.29
50.94 50.54 50.52 51.13 50.35 48.76 49.66 48.53 47.26 47.36 46.34 45.39 44.29 43.97 42.87 41.58 39.89 38.97 38.27 38.07 37.91 38.18 38.96 37.76 37.31 36.57 35.25 36.65 36.84 36.36 32.65 28.78 27.75 27.27 27.04 28.73 27.89 28.92 28.33 25.10 24.03 23.94 24.49
49.38 49.12 50.31 50.26 47.69 47.84 48.16 45.97 45.14 44.38 44.72 44.31 43.46 42.75 41.94 40.67 39.92 39.40 39.08 38.26 37.61 36.80 35.50 33.65 32.93 31.95 32.17 31.57 31.74 30.35 26.93 25.69 25.38 24.51 24.44 24.82 26.96 27.13 27.86 28.87 25.92 25.57 24.84
47.07 48.02 46.85 45.83 45.50 46.58 46.12 44.02 42.95 43.20 43.44 42.95 42.13 41.44 41.34 41.44 40.64 39.45 38.97 38.74 37.24 33.50 30.87 28.93 27.63 27.75 27.19 29.20 29.10 28.79 27.20 25.77 24.34 23.91 24.46 24.10 26.04 27.13 27.74 26.58 26.66 26.04 24.16
46.86 47.01 45.48 43.87 43.47 44.64 45.43 42.32 41.35 42.66 42.36 41.60 40.91 40.86 40.75 40.56 39.81 38.16 36.75 35.52 33.62 31.19 29.47 27.31 24.86 23.44 23.20 23.35 25.94 26.06 25.18 24.41 23.11 24.15 23.87 24.50 25.29 25.61 25.26 25.08 24.56 22.42 21.79
44.72 44.98 44.35 42.98 41.61 42.88 43.12 42.11 42.25 42.26 41.36 39.94 38.93 36.88 32.75 31.92 31.35 30.73 31.50 30.12 27.59 27.90 29.00 27.39 24.74 22.51 21.81 21.64 22.57 22.40 22.81 23.46 23.25 23.05 22.56 22.17 23.26 22.77 22.13 22.51 22.31 21.77 20.30
44.30 44.95 43.45 41.92 41.04 41.85 41.36 41.39 40.85 40.06 36.67 34.15 31.79 29.51 29.04 28.36 25.57 24.63 25.48 26.29 26.90 27.25 26.34 25.63 25.58 21.03 19.98 22.34 23.25 23.01 22.70 21.51 23.22 19.63 18.15 20.12 19.41 18.58 18.68 19.32 19.31 18.61 18.03
42.98 41.82 40.85 40.13 39.48 39.24 38.23 38.01 37.37 35.68 32.83 30.21 28.48 27.00 26.33 26.18 25.12 24.45 24.59 28.35 28.13 28.34 27.94 26.77 24.73 24.01 24.25 23.83 23.73 23.33 23.40 24.22 24.05 20.65 16.87 13.29 11.56 14.41 16.32 15.53 15.24 15.35 14.46

GFSMW_sfc_wetblb_045.txt.gz
Wetbulb
52.47 52.61 53.69 53.73 53.79 54.10 54.52 54.77 55.09 55.57 56.05 55.51 55.19 54.58 53.47 53.15 53.23 53.79 55.77 55.58 56.92 58.39 57.14 56.27 56.23 55.33 54.44 53.69 52.51 49.52 48.40 46.26 45.76 44.35 43.15 43.15 43.39 43.34 43.12 44.28 46.61 47.64 48.38
51.34 51.90 51.96 51.86 51.94 52.48 53.07 54.13 54.54 55.02 55.17 55.77 55.51 55.25 52.44 52.91 52.83 53.77 53.59 56.24 57.56 57.46 57.88 56.93 56.39 55.20 53.64 52.20 51.01 49.67 46.61 46.00 45.15 43.05 41.96 40.19 42.77 43.36 44.79 42.67 43.54 44.41 46.32
51.19 51.52 51.52 50.88 49.99 50.64 51.39 52.66 54.07 54.50 55.04 55.16 52.83 51.59 52.75 52.45 51.53 51.28 52.21 54.01 57.20 58.33 58.22 57.36 56.86 55.42 53.96 52.60 51.50 49.12 47.70 44.91 43.87 44.91 45.27 40.35 40.79 43.67 44.89 44.29 43.76 43.52 43.69
52.70 52.05 51.38 50.77 49.56 50.22 51.54 52.46 53.20 53.73 53.98 53.04 51.74 51.01 51.47 50.59 51.48 51.04 51.85 53.40 56.31 58.15 59.16 58.53 57.12 55.79 54.63 52.92 52.49 50.67 47.73 47.35 44.19 46.72 47.78 48.12 45.93 43.01 42.25 42.33 44.51 44.99 44.30
52.83 52.01 51.39 51.81 50.75 50.96 50.78 51.97 52.80 52.89 53.08 52.70 52.10 50.90 50.10 51.31 51.66 52.18 52.80 53.53 55.04 57.51 58.31 58.17 57.31 56.19 55.16 54.14 53.70 51.51 51.22 48.94 48.30 47.22 47.28 47.02 46.82 45.30 43.85 40.87 43.72 43.09 44.46
52.89 53.73 53.10 52.47 51.48 50.75 50.82 51.25 51.95 52.45 52.77 52.78 52.35 51.03 50.65 49.99 51.20 52.73 53.02 53.95 54.04 56.07 56.91 56.98 57.42 56.49 55.26 54.35 54.69 54.31 51.50 50.16 49.69 48.46 47.69 46.56 46.87 45.33 44.43 41.27 40.18 41.70 44.05
52.17 52.87 52.27 51.76 51.19 50.24 50.15 50.54 51.03 51.45 52.44 52.56 52.71 52.39 51.27 50.70 51.59 53.16 53.79 53.79 53.75 54.25 56.39 56.53 55.91 56.27 56.57 55.87 55.06 53.44 52.13 50.75 49.63 48.70 49.40 49.46 49.12 48.47 46.83 44.76 41.75 41.65 41.98
52.36 52.53 53.08 52.90 52.25 51.26 49.94 50.43 50.70 51.04 52.01 52.61 52.62 53.18 53.22 52.73 52.97 53.73 54.89 54.67 54.72 55.52 55.85 56.95 57.81 58.20 57.05 54.73 54.31 53.85 53.06 51.50 50.29 49.09 49.60 49.58 49.50 48.84 47.26 45.31 43.39 39.57 38.03
52.14 52.62 53.53 53.79 53.37 52.20 51.31 50.18 50.74 50.85 51.65 51.82 53.98 53.57 53.82 53.53 53.87 54.64 55.57 55.51 55.79 57.38 56.49 56.91 57.76 58.31 57.11 55.97 54.29 53.73 51.66 50.51 49.89 49.61 49.96 49.53 49.52 48.72 47.50 44.81 42.16 39.62 36.16
51.58 53.24 53.75 54.19 54.80 54.13 52.85 52.63 51.71 51.64 52.15 52.59 53.17 55.00 54.90 55.08 55.34 55.95 55.79 55.12 55.53 55.93 55.77 55.27 55.69 55.31 54.52 54.41 53.83 52.30 51.05 49.88 49.13 49.19 49.26 48.58 48.46 46.17 45.78 43.57 43.25 41.39 39.34
51.31 52.18 53.87 54.67 55.41 55.59 54.37 52.97 52.97 52.71 53.00 54.21 54.83 55.49 55.77 55.99 56.68 57.02 57.58 56.11 55.45 55.85 56.37 56.07 54.94 53.48 53.60 50.91 50.75 49.34 48.38 48.76 48.01 48.28 48.47 47.29 46.65 44.92 44.53 44.04 43.62 42.42 40.56
50.01 52.63 52.84 54.28 54.69 54.97 55.67 54.96 54.16 53.88 54.83 56.00 56.25 56.69 57.27 57.66 57.56 57.77 57.69 57.27 57.05 57.38 56.25 55.17 53.70 52.08 50.90 50.23 50.05 48.22 48.17 47.89 47.24 47.04 46.73 45.24 45.16 43.70 43.68 43.19 42.21 41.72 41.51
47.59 49.51 50.78 51.71 53.96 54.94 55.46 55.82 56.31 56.08 56.47 56.77 56.71 56.91 57.39 57.65 57.77 58.08 58.29 57.78 58.46 58.01 57.77 57.63 54.74 52.91 51.94 49.82 48.95 48.46 47.68 47.31 46.93 46.04 45.37 44.28 43.66 42.27 41.90 41.65 41.40 40.40 40.08
47.76 47.71 49.04 51.36 53.06 54.24 55.18 55.92 56.49 57.00 57.28 57.28 57.08 56.90 57.54 57.93 58.27 58.41 58.41 58.32 58.08 57.80 57.31 54.64 53.64 52.22 50.23 49.71 48.20 47.36 46.57 45.96 45.69 45.00 44.49 43.76 42.90 41.44 41.31 40.84 39.47 38.98 36.82
46.90 48.03 48.34 49.05 50.36 51.65 53.40 54.72 55.56 56.54 57.35 57.26 57.29 57.50 58.07 58.60 58.44 58.21 58.44 58.16 57.79 57.33 54.43 52.67 51.08 49.63 48.13 47.74 46.84 46.07 45.06 44.32 43.88 43.83 43.68 42.82 42.50 40.90 40.00 39.79 37.30 35.53 33.55
46.50 48.08 49.47 49.91 50.91 53.07 54.22 54.72 53.84 53.92 56.31 56.69 56.89 57.38 55.95 56.45 56.73 56.09 54.36 53.06 51.67 51.09 51.57 49.55 47.60 46.80 47.18 43.68 41.41 43.52 44.05 43.74 43.01 41.90 41.21 41.18 40.31 37.32 36.08 35.75 34.54 32.39 28.43
46.63 46.76 48.46 51.53 52.33 54.62 55.04 54.63 54.02 55.56 55.99 55.86 55.81 55.60 55.43 55.31 53.36 52.22 51.16 49.78 47.94 46.64 46.33 45.76 46.14 45.14 43.71 39.97 40.60 40.25 42.93 42.11 40.82 40.13 38.94 38.66 36.68 34.34 32.55 31.26 30.41 29.55 30.24
46.76 46.41 47.64 50.35 52.70 53.67 52.57 52.52 53.99 55.13 55.81 55.93 55.33 54.79 53.50 50.96 49.83 48.87 47.61 45.11 45.16 44.20 43.66 43.23 43.62 43.36 42.64 39.09 38.81 38.03 39.17 38.49 38.25 37.74 36.36 33.31 32.13 31.47 30.16 27.96 25.77 25.39 25.59
49.13 48.87 48.32 50.51 53.05 52.71 51.93 51.98 50.99 52.32 53.05 51.88 51.50 51.10 50.68 49.02 47.45 45.24 43.40 41.80 41.48 41.09 40.76 41.27 40.70 40.41 39.30 37.60 36.82 37.06 36.64 33.54 31.66 31.77 31.21 30.54 29.83 30.17 29.88 26.04 24.61 24.83 25.71
46.28 48.52 50.30 51.66 52.12 50.53 51.30 50.02 48.64 49.07 49.51 49.23 47.82 48.44 48.21 46.63 44.00 40.97 40.48 38.08 38.33 37.90 38.24 35.97 35.38 36.42 36.06 36.57 36.71 34.96 31.28 28.98 27.53 27.80 27.66 28.94 28.16 27.77 27.45 24.77 24.30 24.17 24.31
48.77 50.09 50.76 50.91 50.65 49.91 49.89 47.89 47.13 46.16 45.62 45.08 44.19 44.32 44.37 42.66 40.12 38.31 38.21 37.17 36.77 35.66 34.64 32.38 32.17 32.64 32.74 33.08 34.08 33.29 30.65 28.64 26.92 25.78 24.99 24.76 26.27 26.71 27.67 28.13 25.32 24.55 22.76
47.91 49.15 48.40 46.65 47.71 48.48 48.18 45.67 43.88 43.64 43.17 42.64 41.24 40.77 40.44 39.89 38.90 37.72 37.41 37.16 35.63 33.22 30.85 28.88 27.39 27.93 28.48 29.82 29.89 28.99 27.87 27.62 25.82 24.36 23.49 23.64 25.85 26.99 27.34 25.40 25.62 24.78 23.07
46.51 47.31 45.73 43.75 43.78 44.97 46.12 42.54 42.22 42.30 41.66 40.88 39.99 39.50 39.18 38.83 38.23 37.04 35.74 33.91 33.50 31.67 29.77 27.92 25.87 24.29 24.54 25.84 27.09 26.65 25.77 25.01 24.26 24.20 24.31 24.72 25.31 25.81 24.78 24.12 23.47 22.21 20.85
43.68 44.13 44.27 42.66 41.39 42.41 42.64 42.23 42.41 41.71 40.91 39.15 37.03 35.32 33.30 31.14 31.47 31.27 32.63 31.41 31.66 30.86 28.56 26.75 24.64 22.82 22.12 21.90 22.18 22.89 22.92 23.99 23.50 22.85 23.27 22.91 23.84 22.28 21.80 21.62 21.30 20.47 19.27
43.56 43.20 42.29 40.90 39.99 41.10 40.74 41.18 41.14 40.24 35.51 32.62 31.40 29.48 28.09 27.83 27.09 27.30 28.28 27.55 27.70 29.65 27.86 25.66 23.98 21.33 20.55 21.90 23.35 23.24 23.24 23.13 23.67 21.51 21.20 18.78 18.58 17.78 18.25 18.52 18.06 17.63 16.66
42.01 40.39 39.98 39.47 38.23 37.92 36.71 36.74 37.30 35.29 32.00 29.34 28.51 27.00 25.91 25.35 25.30 24.73 24.91 28.76 28.97 29.13 28.90 27.82 25.79 24.62 24.76 24.81 24.32 24.27 24.28 24.47 24.16 20.73 16.81 12.54 10.80 14.72 15.87 15.10 14.65 14.59 13.91

GFSMW_sfc_wetblb_048.txt.gz
Wetbulb
51.95 53.78 54.39 54.54 54.84 55.00 55.24 55.65 56.09 56.95 57.00 56.53 55.45 55.46 55.18 53.29 52.87 53.99 56.54 58.35 58.30 58.24 57.47 56.80 56.68 55.91 54.13 53.35 52.02 49.50 48.36 46.41 45.54 44.28 43.77 43.94 44.12 44.02 43.97 46.56 48.22 50.23 50.88
51.42 52.76 52.53 53.49 53.58 53.92 54.70 54.62 55.43 55.91 56.76 56.88 57.00 55.56 55.61 53.42 53.03 53.70 54.90 56.86 57.69 58.28 58.28 56.19 55.83 55.01 53.77 52.12 50.59 49.88 47.49 47.06 45.88 43.93 42.57 41.28 42.89 43.93 44.01 43.42 45.32 47.24 48.99
49.86 51.58 51.99 51.74 52.78 52.98 53.74 54.34 55.13 55.37 56.30 56.82 56.14 52.93 53.14 52.67 52.16 52.19 53.11 54.36 56.37 56.96 57.26 56.90 55.87 55.22 53.87 52.01 50.50 49.42 47.74 45.77 44.82 44.79 44.77 41.62 41.40 44.01 44.86 43.96 43.79 44.01 45.13
51.17 51.45 51.32 51.09 51.45 52.35 53.33 54.12 54.72 55.17 55.32 55.94 54.42 53.70 53.97 53.78 54.35 52.01 52.42 53.46 55.01 55.14 56.71 56.96 56.11 55.31 54.06 52.71 51.83 50.46 48.05 46.70 44.75 44.49 46.30 47.08 46.83 42.55 42.11 42.99 43.58 43.89 44.25
50.40 51.30 51.23 51.21 51.56 51.33 51.65 51.65 53.30 54.30 55.18 53.94 53.96 52.46 52.10 53.46 52.01 50.39 50.49 51.10 52.82 54.62 56.02 56.78 56.03 54.99 54.44 53.83 52.79 50.84 48.59 48.15 47.16 48.11 47.69 47.60 47.21 46.07 44.77 42.50 42.71 43.53 44.32
50.74 52.23 52.47 51.91 50.23 49.96 50.36 51.26 51.83 52.42 53.36 52.71 52.29 52.18 52.13 51.37 50.46 49.90 50.39 51.22 51.98 53.07 54.78 56.01 56.23 55.75 54.87 53.92 53.40 52.32 50.75 51.40 50.64 50.42 49.86 48.47 47.44 45.75 44.10 43.30 43.13 43.15 44.08
50.79 51.63 50.96 50.73 50.09 49.17 49.42 50.38 51.32 51.64 52.60 52.16 52.00 51.62 51.71 51.28 51.19 51.25 51.19 51.44 51.55 51.98 52.97 53.98 54.15 54.43 54.59 54.49 53.71 53.15 52.79 52.06 51.71 50.79 50.04 50.66 50.30 49.29 47.52 45.58 43.67 43.06 43.58
51.05 51.88 51.69 51.41 50.88 50.17 49.86 50.27 50.63 51.26 52.19 52.21 52.00 52.03 51.55 51.25 51.02 50.97 51.79 51.57 52.45 52.32 53.03 53.94 54.59 54.60 54.66 54.31 53.77 53.24 53.93 53.01 52.11 51.75 50.92 50.96 50.61 49.52 48.63 46.80 45.08 40.62 40.07
50.34 51.45 52.71 51.93 51.24 50.98 50.20 50.16 50.47 50.98 51.54 51.93 51.98 51.92 52.05 51.69 51.05 51.12 50.79 52.12 52.87 53.95 54.31 54.78 54.30 54.29 55.21 54.77 54.12 54.34 53.53 53.31 53.20 51.86 51.28 50.42 50.31 49.90 48.79 45.58 45.01 44.54 39.06
49.38 51.20 52.06 52.82 52.70 52.00 51.49 50.97 51.35 50.76 51.42 51.86 51.76 52.16 52.09 52.29 52.33 51.74 52.00 53.22 53.79 53.97 54.62 54.96 55.41 55.99 56.45 55.99 55.83 55.87 56.11 54.97 53.53 51.68 50.13 49.70 49.92 49.25 48.26 46.19 43.88 42.23 40.97
48.30 50.89 52.00 53.11 53.91 53.70 51.87 50.72 50.50 51.15 50.99 51.50 51.86 52.39 52.86 52.55 52.83 53.20 54.48 55.12 55.27 55.25 54.94 55.75 56.05 56.29 56.21 56.13 55.61 54.78 51.93 51.61 52.00 50.88 50.03 48.99 49.00 47.91 46.19 44.58 43.92 42.10 41.26
48.77 49.89 52.02 52.75 52.88 53.70 53.16 51.75 51.21 50.54 51.30 51.52 51.69 52.34 53.39 54.60 54.22 54.18 54.97 55.50 54.90 55.86 56.08 56.01 55.83 56.49 56.19 53.42 52.55 51.31 50.57 50.83 49.71 49.02 48.71 47.15 47.58 45.69 45.15 44.14 42.87 42.61 42.31
46.21 48.43 49.57 51.89 52.63 53.39 53.94 53.47 52.67 52.12 52.23 52.10 52.37 53.03 53.24 54.21 54.44 54.75 55.50 55.60 55.27 56.24 56.37 56.57 56.25 55.67 52.30 50.91 50.83 50.14 50.01 48.96 48.44 47.53 47.10 45.91 45.32 43.59 43.26 42.64 41.76 41.53 40.69
44.77 45.81 47.96 50.21 52.49 53.29 53.70 54.48 54.13 53.67 53.54 53.02 53.15 53.00 53.51 54.20 54.67 55.39 55.49 55.73 56.46 56.20 56.79 57.16 56.92 56.47 52.07 50.61 49.86 49.76 48.50 47.56 47.02 46.61 46.56 45.56 44.54 42.94 41.90 41.63 40.24 39.29 37.89
44.19 45.87 45.95 48.51 49.94 51.19 53.07 54.13 54.77 55.18 55.09 53.97 53.64 53.86 54.73 55.45 55.48 55.69 56.09 56.85 56.88 56.84 57.48 57.16 55.43 52.56 51.46 49.66 48.79 48.09 47.04 46.17 45.00 45.06 44.68 44.24 43.14 41.54 41.30 40.17 38.29 37.08 35.55
45.54 45.51 47.67 47.36 47.93 50.23 51.68 53.35 54.03 54.63 55.54 55.18 54.83 55.23 55.34 55.70 55.91 56.07 56.17 56.84 57.02 57.29 57.05 55.15 51.41 50.00 49.48 43.78 43.89 45.87 46.05 45.07 43.98 42.17 41.56 41.45 39.79 37.73 36.42 36.16 34.82 34.20 31.57
45.90 45.85 46.61 48.95 49.23 49.55 50.78 51.43 52.90 52.38 54.35 54.92 55.36 55.51 55.57 55.59 55.95 57.03 57.09 56.47 55.41 52.61 51.53 49.55 48.98 47.89 47.73 41.42 41.86 42.70 44.26 43.01 41.98 40.85 39.89 38.47 36.21 34.25 32.81 32.01 31.14 30.31 30.70
46.68 46.08 45.75 46.28 49.03 50.03 51.67 51.71 52.89 52.70 52.69 53.51 53.58 53.89 54.60 55.55 55.53 53.44 52.55 49.07 48.79 49.37 46.97 46.28 46.10 44.83 43.24 40.23 39.56 38.62 40.87 39.57 39.14 39.11 37.26 34.33 32.23 31.88 30.44 28.67 27.29 26.32 26.40
47.38 48.11 48.77 47.15 48.18 51.15 51.77 52.61 53.58 52.97 53.11 53.19 54.53 54.63 53.99 50.71 50.02 48.63 47.22 46.15 46.19 45.34 44.49 43.72 43.17 41.69 39.62 37.81 37.18 37.91 35.96 33.25 31.61 31.90 32.24 31.34 30.09 30.77 30.27 27.16 25.37 25.55 26.43
45.43 45.44 45.23 47.75 50.02 50.60 52.15 51.70 53.00 54.55 53.11 52.21 51.27 51.07 50.40 49.01 47.26 44.17 42.76 41.59 41.49 39.38 38.79 36.90 37.65 37.55 36.75 36.63 36.34 35.05 32.79 29.87 28.13 28.33 28.83 29.59 28.14 28.24 28.24 26.22 25.81 24.80 24.74
45.19 47.68 49.44 49.52 49.70 50.54 51.48 49.40 50.85 51.07 48.72 48.28 48.14 47.54 46.76 44.55 42.11 40.45 40.13 39.07 36.92 34.73 32.92 31.58 31.56 32.31 33.95 34.08 34.82 34.24 32.07 29.49 27.64 26.24 25.31 26.05 27.31 28.19 29.02 28.16 26.31 24.68 23.53
45.39 46.65 47.80 46.90 47.55 49.54 49.22 47.08 44.42 44.39 44.82 44.32 43.16 41.98 41.40 40.87 40.03 39.01 38.25 36.70 34.29 31.90 30.18 28.69 27.50 28.29 28.75 30.24 31.37 31.17 30.26 29.54 27.09 25.29 24.28 25.77 27.38 28.01 27.77 25.68 25.42 24.33 22.74
44.78 45.76 44.55 43.40 44.30 45.75 46.12 42.21 41.47 42.93 43.29 42.44 40.27 39.51 38.77 38.61 38.58 36.74 35.78 34.12 32.98 31.21 29.97 28.45 26.32 25.06 26.14 26.40 27.64 27.53 27.25 26.63 24.62 25.17 25.62 26.33 26.81 26.60 24.58 24.24 23.55 22.63 20.55
42.47 43.53 42.99 41.74 41.59 43.05 42.88 42.68 43.38 42.19 40.77 37.51 35.40 34.41 33.94 32.92 32.60 32.68 33.79 33.29 31.67 30.27 29.46 27.96 25.52 23.86 23.22 23.33 24.04 23.95 24.54 24.62 24.02 23.58 23.86 24.01 23.41 22.36 21.92 21.69 21.20 20.19 18.94
41.56 41.94 40.58 39.84 39.69 40.86 41.14 41.62 41.02 38.45 34.75 32.70 31.44 30.57 29.93 29.37 27.93 27.81 29.16 29.98 30.84 31.99 30.13 27.91 25.84 23.43 22.17 22.38 23.94 23.85 23.06 23.56 23.34 22.42 21.35 19.88 19.18 18.47 18.67 18.70 18.08 17.62 16.73
39.23 37.58 36.82 35.80 35.24 35.48 35.64 35.99 36.07 34.99 32.68 30.07 29.60 28.96 28.36 27.98 28.03 27.28 26.24 29.90 30.14 29.76 28.51 27.53 25.96 25.24 25.46 25.75 25.55 25.56 25.53 25.43 24.35 21.04 17.95 15.50 15.14 15.54 16.29 15.67 15.16 14.88 13.99

GFSMW_sfc_wetblb_051.txt.gz
Wetbulb
55.20 55.49 55.89 56.85 56.38 57.48 57.10 57.79 57.94 57.54 57.78 57.10 57.04 56.35 56.18 57.01 57.92 60.67 61.02 60.72 60.47 60.23 60.03 59.34 58.54 57.94 56.98 58.45 58.13 56.61 55.41 53.68 53.24 51.61 51.43 51.63 52.18 52.42 53.30 54.39 54.94 55.09 57.55
53.94 54.26 54.30 55.58 55.76 56.48 57.16 56.45 57.27 57.26 57.53 57.24 57.74 57.77 56.79 56.23 57.86 58.55 59.94 60.93 60.82 60.06 60.37 60.37 59.52 58.92 57.91 58.25 58.03 56.81 55.31 55.44 53.62 52.57 52.43 49.84 50.70 50.99 51.64 51.68 52.91 54.47 55.21
52.96 53.08 53.24 54.11 55.44 55.37 56.07 56.44 56.29 56.90 57.50 58.04 56.60 55.47 54.53 54.55 54.56 55.91 56.92 58.96 60.43 60.41 60.91 61.43 61.33 60.13 60.34 58.48 58.70 58.09 56.72 55.14 53.63 53.97 54.37 49.70 50.22 52.24 52.86 52.20 50.65 50.48 53.86
54.39 54.29 53.86 53.92 55.06 55.77 56.77 56.96 57.52 56.87 57.26 57.58 56.06 54.79 55.52 54.56 54.92 55.43 55.66 55.51 58.43 60.10 61.00 61.85 61.17 60.31 60.64 60.19 60.09 58.50 58.21 57.77 55.08 53.16 52.56 54.25 54.28 50.86 48.74 50.24 51.90 52.11 51.13
54.61 54.10 54.52 54.72 54.97 55.93 56.02 56.20 57.55 57.85 57.84 56.93 56.77 55.09 56.41 56.80 56.39 55.76 54.17 54.68 57.40 58.56 59.25 60.02 60.93 61.06 60.88 60.78 60.52 58.71 57.39 57.19 57.81 55.07 53.92 52.48 50.90 50.08 47.56 49.68 47.90 47.78 51.58
54.26 55.16 55.81 55.66 54.57 54.75 53.77 55.14 56.34 56.90 57.72 57.68 57.25 56.46 56.37 56.58 55.99 54.68 54.06 55.45 56.07 57.50 58.22 58.60 60.15 61.02 61.08 60.83 60.50 60.20 58.53 57.75 56.75 56.25 55.77 53.80 49.99 47.41 46.42 45.61 49.68 47.13 52.05
54.30 54.67 54.37 53.77 53.67 52.15 51.62 53.21 54.82 55.65 57.15 56.94 56.67 57.19 57.13 56.54 56.47 56.61 55.75 56.24 55.74 56.16 57.11 58.16 59.02 59.62 60.21 60.80 60.78 59.86 59.27 58.54 57.33 56.86 55.92 55.13 53.89 51.99 49.77 49.40 48.37 48.48 47.67
54.64 54.72 55.13 54.58 53.52 52.55 52.06 52.96 53.88 55.11 56.08 56.62 56.10 56.52 56.91 56.78 56.62 57.18 56.99 57.22 56.66 57.30 57.69 58.13 58.88 59.34 59.44 60.06 60.50 60.15 60.04 59.51 58.74 57.83 56.55 53.53 53.03 52.64 52.44 50.79 48.14 43.94 47.34
53.62 54.83 55.57 55.41 54.81 53.94 53.59 53.85 54.44 55.13 55.72 56.22 56.81 56.79 56.62 56.37 56.01 56.87 56.54 57.02 57.44 57.11 57.86 58.01 58.25 58.91 59.34 59.79 59.79 59.29 59.13 58.69 58.37 56.95 55.77 53.27 53.42 54.16 54.09 52.29 50.29 49.67 43.63
52.49 54.33 55.55 55.61 55.72 55.41 55.08 54.73 55.15 55.05 55.85 56.12 56.73 56.62 56.52 56.67 56.83 56.79 56.00 56.16 56.92 57.02 57.59 58.41 58.90 58.95 59.38 59.23 59.17 59.19 59.15 58.24 56.38 56.32 54.38 53.59 54.40 54.74 52.15 50.00 49.78 49.21 48.46
52.49 54.21 55.41 56.32 56.34 56.18 55.45 54.54 54.67 54.85 55.26 56.20 56.70 56.77 56.36 56.47 56.49 55.58 55.61 55.87 56.08 55.76 56.48 57.60 58.29 58.53 58.78 59.30 59.11 59.33 58.84 55.38 55.86 55.87 54.08 53.74 53.75 51.48 50.80 49.86 47.23 46.12 45.64
52.38 54.12 55.45 55.95 55.95 55.69 55.52 54.89 54.62 54.85 55.37 55.91 56.01 55.84 56.35 56.11 55.72 55.55 56.26 56.81 56.41 55.51 55.72 56.71 57.63 57.95 58.53 59.15 58.13 57.64 55.76 54.58 53.94 53.70 51.97 52.04 50.70 50.17 49.16 47.54 45.45 44.48 44.72
50.60 52.64 54.18 55.02 55.73 56.22 55.72 55.29 54.99 55.09 55.72 55.17 55.41 55.66 55.61 55.60 55.01 55.62 56.24 56.98 57.07 57.17 57.88 57.38 57.27 57.57 56.97 57.89 57.88 57.35 53.90 52.81 54.13 54.22 52.29 50.54 49.13 47.82 46.18 45.35 44.86 43.54 43.27
49.98 50.23 52.35 54.15 55.86 56.31 56.66 56.07 55.42 55.84 55.49 54.85 54.99 54.88 55.31 55.48 56.09 56.54 56.77 57.17 57.37 57.44 57.98 58.27 58.17 58.31 57.54 57.52 55.86 55.31 56.12 54.97 53.66 52.93 49.79 48.58 47.76 47.02 44.29 43.65 42.82 41.44 39.64
50.22 49.22 50.28 52.66 54.47 55.71 56.48 57.13 57.06 56.38 55.90 54.65 54.57 54.58 55.43 55.95 56.35 56.94 57.45 57.51 57.49 57.76 58.34 58.40 58.55 58.89 58.23 55.67 54.75 53.71 52.41 51.78 49.44 48.44 47.40 47.13 46.06 43.11 43.14 42.62 40.93 40.17 38.45
50.45 50.49 49.60 50.84 52.18 53.64 55.52 56.61 57.21 57.36 56.64 55.76 54.92 55.60 55.95 55.85 56.31 56.57 56.92 57.64 57.74 57.72 58.19 58.03 57.89 57.59 56.36 48.16 45.62 49.62 51.30 50.25 46.75 44.55 43.11 42.97 41.07 39.14 37.88 37.50 37.14 39.36 36.12
50.17 50.50 50.63 50.39 51.58 52.68 54.15 55.95 56.89 57.65 56.98 56.36 56.39 56.44 56.77 56.45 56.90 57.00 56.80 57.21 57.81 58.36 58.28 57.96 57.05 55.42 54.16 43.63 43.45 42.36 47.64 46.39 45.16 42.05 40.44 38.81 37.41 36.92 35.25 33.02 32.32 31.73 31.04
50.25 51.00 51.43 51.78 52.57 53.72 54.06 55.20 56.43 56.63 56.63 56.81 57.00 57.16 57.08 56.71 57.19 57.17 57.19 57.79 57.82 56.87 55.20 53.03 51.02 49.01 46.41 41.09 40.33 40.55 43.65 42.38 41.81 41.40 39.45 36.59 34.76 33.91 31.95 29.77 28.40 28.09 28.73
50.12 51.42 52.87 52.55 52.75 52.44 54.00 53.62 54.17 54.78 55.63 56.07 56.60 57.02 57.38 57.15 57.05 56.46 52.60 49.35 48.29 46.37 45.28 45.27 45.05 44.08 40.88 38.79 38.01 38.84 37.45 35.22 34.64 34.93 34.64 33.40 32.15 32.45 32.23 29.21 27.46 27.66 28.26
51.30 50.34 50.72 50.75 50.83 52.28 54.38 54.35 54.40 54.31 53.88 54.91 55.85 56.53 56.58 53.56 51.76 48.36 45.90 43.39 42.50 39.95 38.87 37.45 38.61 37.69 37.82 36.97 36.85 36.63 34.13 31.56 30.40 30.63 30.50 30.60 30.05 30.22 29.46 28.51 28.23 26.79 28.01
49.29 49.55 49.76 49.77 51.76 52.93 54.28 54.02 55.23 55.01 53.33 52.68 52.39 52.01 51.62 48.50 44.79 42.30 41.56 39.43 36.87 35.09 33.42 32.19 32.54 34.03 35.39 35.62 35.87 35.55 33.48 30.48 28.87 27.45 26.59 27.88 29.03 29.61 29.13 29.21 28.51 27.23 28.20
48.17 50.33 50.94 50.73 50.71 52.92 53.15 52.79 49.79 48.40 48.04 46.88 45.29 44.07 43.43 43.86 42.01 39.64 37.83 36.41 34.58 32.18 30.72 29.59 28.54 29.07 30.57 32.71 32.77 32.40 31.74 31.24 28.15 25.92 26.40 27.74 29.09 29.35 27.86 27.88 26.26 24.86 25.16
46.46 47.31 47.98 47.70 48.76 50.03 48.62 45.08 44.52 45.60 44.25 42.56 41.53 42.22 41.84 39.45 39.10 36.76 35.22 33.94 33.60 31.94 30.66 29.24 27.17 26.25 26.97 27.52 29.29 29.36 28.56 27.68 26.09 26.76 27.41 28.28 28.28 26.80 25.81 25.09 24.31 23.23 23.78
44.60 45.43 45.33 44.38 43.17 45.19 46.48 45.55 44.69 43.76 41.53 38.62 37.19 36.60 35.37 34.67 35.19 35.27 34.55 33.33 32.39 31.45 30.28 29.22 26.66 25.59 25.14 24.77 25.46 25.75 26.25 26.27 26.45 26.46 26.67 25.50 24.80 24.53 23.83 23.67 22.97 22.68 22.15
41.55 41.84 40.62 39.42 39.48 40.06 40.38 41.41 41.43 40.15 36.81 34.88 34.03 33.35 32.45 31.13 30.20 30.40 31.55 31.65 32.82 34.50 33.04 30.44 28.54 26.73 24.30 23.98 25.36 25.05 24.73 24.99 24.80 25.12 25.21 24.01 23.05 21.94 22.16 21.58 20.82 20.91 20.20
36.11 35.45 34.92 35.00 34.73 35.74 35.24 35.85 37.19 36.98 35.95 34.27 33.72 33.09 32.51 31.89 30.77 29.05 27.81 30.19 29.81 29.26 28.66 27.81 26.83 26.39 26.93 27.45 27.56 27.16 26.24 25.09 24.09 23.12 21.54 20.26 20.67 20.49 20.44 20.30 19.69 18.91 17.23

GFSMW_sfc_wetblb_054.txt.gz
Wetbulb
59.81 59.90 59.63 58.03 58.72 59.41 58.85 58.51 57.74 58.29 58.78 57.95 58.36 58.19 57.17 57.30 58.38 58.69 61.00 62.48 60.66 60.92 61.28 60.37 60.94 61.59 61.16 61.18 60.94 59.68 58.13 57.22 58.07 55.41 55.33 55.87 57.24 57.48 57.66 58.36 58.52 58.61 59.96
58.60 58.83 59.22 59.13 57.35 59.23 58.57 58.47 58.21 58.72 58.31 58.16 58.48 58.33 57.82 57.07 57.90 58.48 60.18 61.88 62.31 61.14 61.34 61.22 60.59 60.84 61.34 61.83 61.29 60.50 58.40 58.75 57.90 55.92 56.79 54.32 55.49 56.33 56.79 57.42 57.05 57.64 57.27
58.49 58.58 58.52 59.15 59.55 59.35 58.62 58.12 58.34 57.95 58.37 58.24 58.76 58.02 57.81 57.39 56.46 56.99 59.73 61.49 63.03 61.98 61.80 61.85 61.62 61.15 61.26 60.81 61.47 61.31 60.29 58.68 58.76 59.52 58.08 55.15 53.31 57.28 58.01 56.28 56.84 57.19 56.94
59.77 59.45 58.94 59.16 59.39 60.12 60.67 59.49 58.62 58.15 58.03 58.33 57.66 56.45 54.97 54.81 56.43 56.91 59.68 61.28 62.51 62.11 61.72 61.92 62.09 62.48 61.80 61.16 61.60 61.73 61.27 61.16 58.91 58.74 58.81 60.31 59.96 56.07 54.52 57.39 57.06 54.29 54.97
60.31 59.60 59.54 60.24 60.45 60.48 60.38 59.46 59.09 58.68 57.93 58.21 57.75 56.20 55.80 55.76 56.52 56.65 57.72 60.21 61.91 62.22 61.62 62.09 62.79 63.13 63.47 63.04 63.05 62.61 62.15 62.00 61.80 59.95 59.63 58.75 58.89 58.83 56.03 54.98 56.49 54.37 52.49
60.18 60.61 60.98 60.90 60.75 60.89 60.66 59.29 58.23 58.28 58.27 57.69 57.89 56.61 56.59 56.61 56.93 55.69 55.11 56.11 57.69 60.87 62.03 62.10 63.27 63.66 63.28 63.39 63.73 63.88 63.12 62.48 61.83 62.06 61.22 59.92 58.02 57.17 56.30 55.00 56.04 53.93 51.51
59.47 59.95 60.07 59.90 60.12 60.09 59.66 59.84 58.26 57.10 58.48 57.99 58.34 58.94 58.18 58.81 58.81 57.36 56.58 56.96 56.07 56.74 57.96 60.68 61.39 61.29 61.98 62.86 63.22 63.19 63.19 62.90 61.98 61.88 61.09 61.11 60.28 59.64 58.74 56.18 52.28 53.16 52.82
59.43 59.69 60.58 60.49 60.38 60.04 59.61 58.61 58.96 59.15 59.11 58.81 58.88 60.62 60.34 60.86 59.73 60.12 59.47 59.11 58.76 59.44 59.29 60.28 60.78 60.92 61.21 61.40 61.90 61.62 61.99 62.44 62.45 62.28 62.06 61.45 61.39 60.40 57.48 52.01 49.96 46.61 48.64
58.53 59.31 60.37 60.98 61.06 60.46 59.57 57.91 58.58 59.42 60.01 59.97 60.57 60.48 61.02 61.18 61.04 61.18 61.48 60.87 61.05 60.74 61.64 60.88 60.34 60.24 60.43 60.88 61.16 61.26 60.70 61.75 62.62 62.06 62.27 61.88 61.17 60.42 57.38 56.01 52.77 49.86 47.75
56.52 58.30 59.79 60.73 61.18 61.46 60.51 58.83 59.08 59.17 60.25 60.60 61.00 60.94 61.46 61.67 61.84 61.97 61.37 61.42 61.76 61.77 61.29 60.90 60.70 61.09 61.21 61.34 60.87 61.36 61.34 61.14 62.10 61.63 61.62 60.80 60.64 57.74 56.49 54.05 54.19 52.92 49.98
56.68 58.29 59.54 60.90 61.24 61.69 61.08 59.95 59.48 59.47 59.58 60.24 60.61 60.70 61.35 61.61 61.68 61.92 61.72 61.53 61.72 61.58 61.01 61.29 61.11 60.72 61.19 61.29 61.22 61.41 61.43 61.02 61.34 61.32 60.12 59.15 58.60 56.90 54.75 54.26 52.35 50.66 50.24
56.28 57.47 59.92 60.74 60.63 60.90 61.03 60.83 60.19 59.92 59.94 60.33 60.20 60.84 60.79 60.82 60.79 61.23 61.46 62.17 61.63 61.36 61.41 61.36 60.99 60.41 61.24 61.39 60.98 60.20 60.06 60.02 59.81 60.00 58.73 56.69 54.40 53.49 53.01 52.42 51.03 49.91 49.18
55.56 55.52 58.15 59.73 60.29 60.48 60.55 60.91 60.74 60.38 60.75 60.40 60.07 60.06 60.24 60.69 60.95 60.81 60.46 60.47 60.11 60.24 60.11 59.77 59.50 58.76 59.92 59.48 59.65 58.15 60.20 60.22 59.59 59.81 56.94 55.05 55.56 53.17 52.61 50.09 48.09 47.21 46.01
54.50 55.46 55.71 58.49 60.02 60.74 60.71 60.88 60.81 61.13 61.04 60.46 59.91 59.56 59.97 60.56 60.63 60.46 60.32 60.53 60.07 59.32 59.47 60.00 59.53 59.77 59.26 59.18 59.24 58.79 59.42 59.52 59.42 59.42 57.84 57.92 55.58 53.20 49.71 47.15 46.27 45.16 43.10
53.39 54.69 55.30 56.47 58.35 60.05 60.80 61.13 61.21 61.14 60.94 60.09 59.58 59.85 60.74 60.08 59.91 59.62 59.64 59.73 59.81 59.54 59.43 59.70 59.65 59.89 59.77 59.63 59.83 59.88 59.72 59.08 57.51 56.35 56.32 57.04 52.45 46.58 47.01 45.96 44.34 42.77 40.63
53.17 54.26 55.30 55.68 55.47 57.49 59.71 60.66 60.98 60.85 60.68 59.71 59.55 60.07 59.87 59.74 59.59 59.44 59.65 59.32 59.39 59.33 59.58 59.28 59.37 59.69 59.55 50.06 47.42 53.69 57.91 56.74 55.23 50.73 49.49 48.96 45.26 42.88 40.70 41.48 41.15 41.58 40.89
52.54 53.38 54.11 55.39 56.18 56.53 57.76 59.02 60.62 61.78 60.66 59.69 59.65 59.70 59.66 58.98 59.20 59.45 59.05 58.90 59.34 59.94 59.37 59.32 59.41 59.30 60.39 44.61 45.16 45.34 56.88 53.64 51.53 47.55 44.15 42.90 41.48 39.98 37.97 35.44 34.25 32.90 33.11
52.74 54.37 55.40 55.56 56.50 57.45 57.30 58.80 59.87 60.74 60.86 59.81 59.40 59.37 59.17 58.85 59.21 59.00 58.54 58.83 59.36 59.46 59.72 58.77 58.97 58.41 58.30 44.43 44.25 41.89 48.92 45.87 44.91 43.35 41.93 38.97 37.71 36.86 34.94 33.40 31.19 31.43 31.09
53.43 54.15 55.57 56.56 57.03 56.29 56.76 56.11 58.10 59.69 60.23 59.94 59.69 59.98 59.94 58.87 59.25 58.80 59.21 59.69 58.79 58.21 54.87 53.59 52.49 50.91 46.12 41.33 39.69 42.00 41.11 38.86 37.26 37.97 37.39 35.86 33.56 33.92 33.93 30.55 28.79 28.26 28.41
53.84 53.11 53.77 54.99 55.33 55.81 56.22 55.76 55.75 56.91 58.16 59.27 59.71 60.53 60.22 59.76 59.51 59.60 59.02 52.89 49.47 42.19 40.29 38.36 39.36 38.65 38.85 37.96 38.67 38.51 35.52 33.24 31.46 31.08 32.19 33.22 32.33 31.73 31.89 30.35 29.37 27.93 27.79
52.34 52.67 53.21 53.98 55.53 55.94 56.03 55.17 55.92 55.55 57.59 58.34 58.45 59.17 59.93 59.06 56.22 51.38 46.30 41.72 38.28 36.27 34.45 33.24 33.93 35.04 36.28 36.20 36.24 36.08 33.85 31.68 30.29 29.27 29.04 30.13 31.22 30.92 30.80 30.63 30.40 29.68 29.58
50.64 51.54 51.47 52.32 54.13 55.18 56.06 55.85 55.72 55.33 55.61 54.47 52.13 50.14 48.57 46.28 44.97 42.09 40.09 39.78 36.45 34.36 32.33 31.04 29.98 30.96 32.33 33.19 33.60 33.17 32.24 31.41 28.75 27.37 28.52 30.09 30.59 29.81 28.96 27.96 27.33 26.78 28.34
48.69 48.16 47.64 47.57 47.06 49.40 53.70 53.60 49.68 49.27 47.64 45.57 43.64 42.04 41.21 40.44 40.28 40.90 38.73 35.46 34.67 32.85 31.05 29.19 27.63 27.02 28.15 29.24 30.85 30.43 29.59 28.90 27.81 28.57 29.46 30.37 28.83 27.73 26.98 26.31 25.20 25.57 27.66
43.75 41.72 41.06 40.23 39.12 40.24 41.74 45.26 45.05 44.42 41.57 39.31 38.27 37.79 37.25 37.38 37.57 36.60 35.86 34.27 32.79 31.53 29.97 28.41 26.65 26.14 26.06 26.28 27.33 27.64 27.92 27.99 28.24 28.85 28.69 27.24 26.53 27.06 25.29 24.64 25.00 25.31 25.06
34.97 36.20 35.15 34.67 35.53 37.19 37.47 38.84 39.67 38.92 36.35 35.46 34.58 34.21 32.81 31.37 30.16 30.20 31.38 31.45 32.91 33.16 30.34 28.79 27.64 25.63 24.41 25.27 26.81 26.67 26.46 26.82 26.50 26.96 27.11 26.69 25.86 24.90 25.15 24.75 24.11 24.08 23.65
31.86 31.63 31.50 31.18 30.97 31.16 33.63 35.88 38.02 37.81 35.06 32.96 32.92 31.73 30.44 29.80 29.18 27.83 27.34 29.95 29.91 29.49 29.16 28.89 27.75 27.40 27.82 28.45 28.40 27.84 27.19 26.61 26.79 26.85 25.57 25.17 25.50 24.81 23.90 23.98 23.23 23.04 20.61

GFSMW_sfc_wetblb_057.txt.gz
Wetbulb
61.51 61.67 61.69 61.42 61.98 61.55 60.64 60.15 59.18 59.46 59.50 58.59 57.53 57.65 57.39 58.13 58.91 59.73 60.49 60.88 60.48 60.63 60.97 59.97 61.86 61.40 60.97 60.65 62.10 59.66 58.96 58.25 59.49 56.80 56.28 57.20 58.41 58.75 58.50 58.68 58.77 59.38 60.57
60.55 60.78 61.28 60.73 61.51 60.42 60.33 59.07 58.70 58.79 59.05 59.35 59.48 58.57 57.71 58.01 58.41 58.63 61.25 61.75 62.27 60.49 60.78 60.95 60.13 60.65 61.07 62.83 62.27 61.54 58.48 57.82 58.57 55.17 54.98 52.76 54.87 56.73 58.29 58.95 58.95 60.55 59.22
59.92 60.56 60.42 60.80 60.61 60.81 60.01 58.62 58.20 58.89 59.56 59.44 60.49 59.31 59.15 57.37 56.38 56.18 57.64 60.32 62.15 60.68 60.52 61.31 61.38 61.21 62.84 62.53 62.88 62.23 61.17 57.94 59.11 59.76 57.27 53.94 52.79 56.28 58.87 59.01 58.83 59.98 58.80
60.78 61.14 60.80 61.11 60.60 61.01 61.25 60.09 59.01 58.61 59.82 59.43 58.28 57.85 56.63 55.31 55.91 56.08 56.60 59.60 61.80 61.50 59.88 61.68 63.33 63.45 62.53 63.23 63.44 62.95 62.35 61.98 59.11 59.65 59.03 61.56 59.99 55.36 52.18 57.83 58.50 59.09 58.49
60.76 61.10 61.26 61.62 62.14 62.09 61.57 60.98 58.82 58.76 58.91 59.35 58.37 57.82 57.45 57.91 56.52 56.06 56.25 59.51 61.22 60.08 60.77 62.64 63.74 63.58 63.31 63.63 63.59 63.37 63.12 62.49 61.31 60.59 59.72 59.73 59.80 60.12 56.85 54.81 56.10 57.57 58.47
60.08 61.46 62.32 62.62 62.31 62.35 62.09 60.44 59.90 58.03 58.39 59.04 58.64 58.30 57.13 56.39 55.88 55.46 55.32 58.89 60.30 61.44 61.09 62.51 63.04 63.55 64.01 63.93 63.47 63.69 63.67 63.13 62.62 62.33 61.29 59.88 57.74 57.41 57.49 56.17 57.05 56.99 56.79
59.04 60.99 61.38 61.44 62.06 61.70 61.66 60.69 59.11 58.81 58.28 58.02 57.77 58.72 59.12 57.16 57.62 57.43 56.67 55.48 57.52 59.00 61.16 62.34 62.07 63.05 63.55 63.57 61.83 62.55 63.48 63.46 62.85 62.47 62.03 61.76 60.34 60.76 60.01 58.47 56.64 56.59 57.63
59.19 60.65 61.68 62.10 61.94 62.14 61.69 61.27 59.93 59.32 58.92 58.41 58.07 59.64 59.85 58.97 59.65 58.79 59.28 58.77 57.36 58.89 60.77 62.64 63.27 63.61 63.95 63.92 63.24 63.12 62.81 61.82 62.15 62.97 62.13 62.20 60.79 61.67 61.09 59.09 58.00 54.61 54.21
58.68 59.78 61.33 62.40 62.65 62.43 62.02 61.68 60.65 60.34 60.29 58.94 58.58 58.38 58.66 58.75 59.67 60.68 61.16 60.58 60.27 60.44 61.26 62.23 62.84 63.18 63.29 63.33 63.19 62.79 62.56 62.58 63.03 62.91 62.95 61.90 61.66 62.06 62.03 61.45 60.01 56.82 51.34
57.01 58.93 60.54 61.89 62.99 63.24 63.16 62.53 61.71 60.65 61.02 61.04 60.24 59.66 59.34 59.41 61.52 61.23 61.78 61.75 61.40 61.46 61.41 61.31 61.64 61.61 62.33 62.40 62.50 61.85 62.24 61.59 61.92 61.74 61.80 61.85 62.15 61.77 62.25 60.56 59.51 57.23 54.66
56.22 57.79 59.51 61.25 62.89 63.70 63.36 62.65 61.62 61.01 60.95 61.94 61.79 61.23 61.43 61.19 61.38 61.76 62.69 62.77 63.13 62.13 61.57 61.59 61.50 61.18 61.33 61.68 61.44 61.04 61.10 60.86 61.05 61.70 61.50 61.08 61.71 60.92 60.72 59.12 57.11 55.12 53.54
56.12 57.18 59.14 60.93 62.05 62.75 63.15 62.72 61.73 61.25 61.25 62.05 62.78 62.94 63.46 63.23 62.13 62.34 63.60 63.83 63.23 63.38 62.74 61.87 61.78 61.48 61.23 61.61 61.42 60.73 60.60 60.55 60.14 60.40 60.46 60.12 60.19 60.37 59.66 58.64 55.53 54.66 53.79
55.78 56.50 57.80 60.05 61.48 62.10 62.62 62.81 62.53 61.70 62.08 61.69 62.25 63.18 63.32 63.07 63.03 63.25 63.64 64.16 63.52 63.33 62.70 62.37 61.72 61.15 61.27 61.22 61.49 61.10 60.89 60.94 60.73 60.44 60.00 59.97 60.25 58.45 58.16 55.61 53.32 53.55 51.54
54.72 55.45 56.23 57.58 60.54 61.99 62.40 62.69 62.97 63.59 62.79 62.16 61.79 61.85 62.50 62.81 63.09 63.70 63.65 63.49 63.60 62.92 62.74 62.63 61.97 61.92 61.87 61.46 61.28 61.02 60.97 60.94 59.98 60.74 58.98 58.14 59.78 57.76 56.51 55.14 53.78 51.43 48.24
53.94 54.85 55.84 56.87 57.80 59.96 62.05 62.69 63.08 63.81 63.63 62.76 61.90 62.01 62.58 63.00 62.78 62.94 63.12 63.22 62.97 62.53 62.47 62.11 62.16 62.16 61.59 60.78 60.73 60.36 59.95 58.66 57.99 58.98 60.51 60.30 58.27 51.41 54.15 54.55 52.64 48.71 45.46
52.72 54.33 55.63 56.40 56.54 57.52 58.56 61.53 62.46 63.46 63.96 62.94 63.02 63.18 63.01 62.01 62.43 62.46 62.67 62.64 62.39 62.42 62.22 61.39 61.35 61.14 60.78 50.99 46.58 54.04 60.40 58.57 56.76 56.72 58.72 58.94 50.56 48.13 44.00 43.51 43.41 46.21 44.37
52.66 53.52 55.05 56.05 56.84 57.71 58.82 58.64 61.20 63.06 62.96 63.16 63.06 62.85 63.19 62.33 62.37 62.48 61.95 61.74 61.64 62.06 61.31 61.20 61.13 60.86 61.47 46.62 44.62 44.57 58.93 59.75 59.47 58.77 58.10 50.74 46.50 44.80 43.21 37.61 35.26 34.90 35.17
53.41 54.25 55.14 55.50 56.36 57.34 58.08 59.23 59.04 60.35 61.94 62.03 62.15 62.55 62.60 62.23 62.26 61.96 61.54 61.41 61.47 61.07 61.24 61.03 61.25 60.75 60.14 44.63 44.04 43.82 57.02 57.59 54.45 53.39 50.13 44.86 40.75 40.27 39.19 36.39 33.92 32.52 31.99
53.85 54.25 54.96 55.20 55.84 56.43 57.88 58.03 57.80 58.18 59.31 61.12 62.02 62.08 62.29 61.67 61.77 61.35 61.15 61.47 61.29 61.08 60.68 60.73 60.32 57.90 55.42 42.37 42.55 43.75 43.48 40.19 38.78 39.70 40.37 38.72 36.33 36.48 37.02 33.21 31.19 30.45 29.98
53.89 53.05 53.65 54.53 55.11 55.73 56.99 57.59 57.06 56.96 57.13 60.00 61.91 62.56 61.98 61.54 60.96 61.20 61.13 61.24 60.73 57.28 47.06 41.41 40.96 38.41 40.16 41.10 41.46 42.18 38.12 34.51 32.82 33.30 34.16 33.99 33.26 32.91 32.87 31.05 29.71 27.37 26.75
52.37 52.63 51.71 51.00 50.41 50.21 51.07 53.27 56.59 56.96 57.63 58.68 59.91 61.82 62.16 61.54 61.65 61.69 61.20 52.56 45.90 40.15 36.74 34.55 34.64 35.52 36.23 36.75 37.72 37.31 34.52 32.19 31.09 30.65 30.53 31.50 32.26 32.50 32.69 32.21 30.95 29.19 29.13
50.19 50.21 48.31 46.89 45.22 42.92 43.41 45.91 52.47 56.34 58.15 58.81 58.65 54.85 54.56 52.88 50.99 47.31 44.23 42.18 38.53 34.92 33.08 32.13 31.77 32.09 32.87 33.45 33.69 33.47 32.54 32.18 29.95 28.94 29.70 30.62 30.95 30.72 30.42 29.15 29.73 28.88 29.42
46.88 46.17 44.96 42.10 39.06 36.65 38.46 39.55 43.26 47.86 49.52 50.03 46.82 43.83 42.78 42.65 42.06 40.36 38.52 36.53 35.64 33.77 32.36 30.71 28.53 28.21 29.71 30.42 31.55 31.54 30.96 30.35 29.16 29.58 29.60 29.80 29.05 28.13 27.14 26.85 26.70 27.91 28.08
42.73 41.91 39.99 37.98 33.57 33.10 34.00 35.41 39.68 41.12 40.50 38.72 38.25 37.23 36.30 35.87 36.15 36.27 36.70 35.41 33.62 32.82 31.19 28.82 26.87 26.63 26.90 27.59 28.39 28.94 29.53 29.42 28.64 27.89 27.70 26.95 26.92 25.98 24.91 25.26 26.72 26.58 25.52
36.85 37.68 34.88 34.71 30.94 31.34 31.83 33.03 36.28 37.04 34.81 33.66 32.86 31.64 31.16 30.24 29.20 29.66 31.12 30.85 31.80 31.58 29.36 27.98 27.35 25.46 24.93 26.75 28.39 27.86 27.00 26.82 26.62 26.87 27.53 26.70 26.99 26.56 26.03 25.11 24.53 24.73 24.64
31.12 31.04 29.42 30.58 28.78 29.02 30.16 31.35 33.16 33.48 32.97 31.03 30.56 29.94 28.86 28.57 27.98 27.08 26.79 30.03 29.75 29.85 29.30 28.82 27.67 27.89 28.93 29.26 29.19 29.07 29.04 29.23 29.39 29.16 27.92 27.29 27.37 26.28 25.65 25.36 24.40 24.12 22.64

GFSMW_sfc_wetblb_060.txt.gz
Wetbulb
60.83 61.06 61.14 61.10 61.08 60.61 60.33 59.57 59.42 59.69 59.07 58.15 57.75 57.89 57.45 58.43 58.44 59.35 59.84 59.92 59.10 59.04 58.95 58.52 58.77 58.93 57.33 56.66 57.96 58.02 56.71 56.00 56.42 53.91 53.27 53.41 54.17 54.72 54.39 55.26 55.37 56.67 58.00
59.62 60.30 60.48 60.24 60.80 59.90 59.53 59.68 59.15 59.22 58.71 58.39 58.18 58.06 57.93 58.15 58.37 58.76 58.72 58.53 58.29 58.40 59.14 58.56 58.39 58.26 58.37 58.20 57.52 56.59 55.46 55.83 56.26 52.25 50.86 48.07 50.09 52.69 54.61 53.93 54.30 54.06 55.84
58.79 59.47 59.84 59.57 60.27 59.81 59.22 58.87 59.07 59.03 58.87 58.76 58.65 58.09 57.89 57.70 56.81 56.49 57.78 58.53 58.50 58.45 58.51 58.82 58.57 58.48 58.93 58.29 57.87 57.75 56.64 53.41 54.09 54.14 51.60 47.78 46.59 50.26 52.37 53.18 53.69 53.45 54.84
59.77 60.03 59.80 59.61 59.21 59.91 59.71 58.73 58.61 58.56 58.96 59.11 57.97 56.61 55.83 54.78 55.16 56.54 57.87 58.39 60.11 58.63 58.56 58.80 58.95 58.42 58.27 59.31 59.37 59.74 58.28 57.32 53.44 53.43 55.42 54.78 55.23 52.46 49.80 52.15 53.57 54.87 54.35
58.90 59.84 60.04 60.50 60.45 60.55 59.68 58.52 58.30 58.28 58.84 59.23 58.54 57.55 56.16 55.99 55.50 55.93 55.96 57.07 59.16 60.61 58.95 59.10 59.31 58.27 58.10 58.55 59.94 59.52 58.94 58.34 57.05 55.00 54.68 54.10 54.43 55.30 52.70 49.83 51.37 52.70 53.47
58.02 60.29 61.30 61.37 60.96 60.46 60.36 58.90 58.26 57.99 58.73 58.61 58.73 57.92 56.76 55.81 54.81 55.04 54.21 54.97 56.79 59.62 59.86 59.11 59.14 59.67 59.77 59.01 59.65 59.72 59.29 58.96 58.37 57.67 57.20 56.02 54.15 53.29 53.04 51.45 51.71 51.37 52.57
58.10 59.58 60.28 60.16 60.80 60.27 60.10 59.21 57.95 57.53 58.62 57.93 57.97 57.99 58.05 57.22 55.86 55.04 54.74 54.25 54.85 57.21 58.55 58.68 58.62 59.74 59.64 60.29 60.51 59.62 59.41 59.91 58.96 58.03 57.53 57.94 56.38 56.52 55.75 53.52 51.93 51.59 53.34
58.33 58.89 60.47 60.81 60.82 60.58 60.56 59.30 58.29 57.13 57.81 58.44 57.92 58.15 58.19 57.92 56.90 56.15 55.85 55.15 55.07 57.39 58.67 58.66 58.53 59.25 60.10 60.37 60.59 60.03 59.84 59.21 58.79 58.69 58.09 58.07 57.80 57.31 56.92 55.40 52.79 49.87 51.28
57.11 58.63 60.57 61.34 61.10 61.06 60.48 59.87 58.98 58.71 57.91 57.12 58.56 58.24 58.68 57.72 57.16 57.26 57.04 56.37 56.44 57.54 58.85 59.79 59.39 59.40 59.56 60.20 60.23 59.85 59.05 58.65 58.99 58.92 58.89 58.38 58.32 58.57 57.47 56.88 55.27 53.02 49.64
56.60 58.38 59.50 61.51 61.85 61.88 61.71 61.15 60.03 59.02 59.28 58.28 58.10 58.05 58.29 58.71 58.43 58.34 57.73 57.43 57.35 56.97 57.57 58.73 59.73 59.67 59.63 60.20 60.46 59.64 59.20 58.79 58.87 58.85 58.26 58.53 58.49 58.47 57.75 57.32 56.35 55.59 54.04
56.07 57.10 59.15 60.57 62.28 62.44 62.11 61.31 60.77 59.68 59.38 58.90 58.56 57.89 57.74 58.47 59.03 58.34 58.64 58.19 58.26 58.14 57.55 57.85 58.13 58.73 59.57 59.87 59.32 59.09 58.66 58.39 58.15 57.98 57.73 58.08 58.57 57.84 57.74 57.37 57.05 56.33 55.26
55.94 56.90 57.96 60.28 61.07 61.87 62.20 61.75 61.20 60.58 59.98 60.09 59.37 58.51 58.37 58.30 58.40 58.28 58.95 59.13 58.74 59.19 58.53 57.97 58.41 58.39 58.63 58.91 58.62 58.26 58.50 57.73 56.94 57.26 57.00 56.99 57.66 57.00 57.62 57.45 56.82 55.75 54.92
54.61 55.44 56.19 58.97 60.19 61.30 61.86 62.26 61.80 61.15 61.19 60.83 60.42 59.56 58.85 58.59 58.52 58.43 59.18 59.51 59.29 59.92 59.69 58.77 57.94 58.01 58.18 58.07 58.24 58.23 57.75 57.36 57.17 56.96 56.58 56.59 56.67 56.29 56.74 57.10 56.99 56.55 55.08
53.63 54.60 55.13 56.06 56.81 60.78 61.55 61.92 62.35 61.92 61.33 61.05 60.37 59.97 59.76 59.55 59.32 59.98 59.94 60.09 60.68 59.81 59.97 59.93 59.31 58.82 58.67 58.59 58.35 58.13 57.54 57.51 57.57 57.59 57.27 57.67 57.11 56.48 56.72 56.29 56.58 55.53 53.59
52.13 53.53 54.12 55.05 56.22 56.68 57.40 60.75 62.22 62.99 62.09 60.74 60.54 59.83 60.70 61.10 61.18 60.68 60.59 60.72 60.57 61.08 60.72 60.29 59.72 59.65 59.21 58.70 57.90 57.92 57.38 57.08 57.03 57.18 57.71 57.83 56.04 51.43 53.44 56.07 55.99 54.40 52.56
51.65 52.84 54.03 54.94 55.00 55.49 55.88 56.81 58.55 62.20 63.23 61.67 60.94 61.27 60.60 60.86 60.84 60.77 60.82 61.10 60.68 60.76 60.90 60.25 59.90 59.41 59.47 51.91 47.27 53.34 57.70 57.39 56.74 56.19 56.56 56.41 49.57 49.41 45.77 46.53 47.84 52.16 52.19
51.99 52.32 52.88 53.69 54.41 54.81 55.81 55.78 56.95 57.96 60.65 62.09 61.95 61.79 61.46 60.68 60.41 60.75 60.54 60.24 60.06 60.38 59.74 59.63 59.67 59.03 59.25 47.84 46.31 44.81 56.66 57.07 56.59 55.84 55.05 54.54 51.48 48.42 46.25 37.00 35.91 35.18 35.33
51.44 51.88 51.81 52.34 53.91 55.15 55.35 55.46 56.90 57.76 57.35 59.06 61.51 62.17 61.82 61.41 61.07 60.41 59.86 59.77 59.97 59.47 59.21 58.97 58.85 58.66 58.59 47.19 45.63 44.08 53.44 55.76 55.49 54.35 53.94 55.54 46.57 44.26 40.12 36.42 33.78 32.88 33.06
51.47 50.93 51.61 51.53 52.07 50.75 49.96 50.23 52.12 54.61 56.20 57.14 57.04 61.23 61.78 61.18 61.04 60.20 59.72 59.85 59.31 59.07 58.68 58.80 58.05 57.62 57.13 40.56 41.96 42.83 48.60 42.26 37.30 37.84 38.45 38.37 37.66 38.07 38.78 35.52 32.40 30.68 29.77
50.81 49.27 49.42 49.76 48.33 45.99 45.40 45.94 48.13 49.92 52.48 54.21 57.38 58.08 60.10 61.12 60.45 60.10 59.59 59.54 59.30 58.13 53.94 42.20 40.81 38.45 41.13 38.91 39.81 43.53 39.96 34.36 32.48 32.54 32.76 33.68 33.59 34.16 34.47 31.96 29.85 26.95 26.79
48.90 47.50 46.96 45.85 43.89 41.16 40.63 41.41 42.75 44.08 44.48 48.33 53.40 51.99 52.73 58.65 60.13 59.52 58.87 58.21 49.12 40.09 36.42 34.37 34.04 34.52 35.71 36.49 38.63 38.14 35.44 33.00 31.52 30.80 30.73 31.89 33.23 33.44 33.02 31.75 29.47 28.32 29.09
45.93 44.36 43.00 42.23 41.08 38.49 37.45 37.00 37.32 39.54 41.95 44.85 48.86 46.50 45.49 47.19 47.65 46.98 43.86 42.63 39.71 35.96 33.56 32.04 31.09 31.85 32.82 33.95 34.41 34.36 33.33 32.94 30.37 29.25 29.84 30.78 31.79 31.52 30.86 29.68 30.53 30.05 29.29
40.82 40.28 38.82 38.48 36.87 36.01 35.67 33.99 35.24 38.54 38.90 39.15 38.89 38.78 38.80 38.80 40.31 40.48 38.70 36.86 35.60 33.68 31.72 30.23 28.68 28.18 30.16 31.08 32.30 32.27 31.85 30.96 29.17 29.29 29.61 29.24 28.99 28.87 28.58 29.25 29.11 27.97 27.53
34.27 34.82 33.30 32.54 31.19 32.64 32.53 33.15 34.16 36.24 34.97 33.33 32.67 32.13 30.91 31.35 33.31 35.79 36.60 35.33 33.11 31.20 29.97 29.41 27.29 26.96 27.25 28.56 29.06 28.41 28.12 27.70 26.92 26.46 25.95 25.67 25.83 25.95 26.44 26.01 25.02 24.62 24.56
31.27 30.93 29.28 29.22 28.74 29.88 29.84 32.14 32.75 33.59 31.90 30.93 30.44 29.83 29.34 28.89 28.32 28.58 29.09 28.87 30.06 30.90 29.11 27.38 27.68 25.70 25.28 27.09 28.57 27.44 26.62 26.66 26.88 26.75 26.92 26.45 26.05 24.66 24.34 24.54 24.89 24.82 24.17
28.21 27.11 26.58 26.59 27.19 28.31 29.14 30.69 31.71 32.04 30.51 28.86 28.57 28.23 27.63 27.44 27.45 26.96 26.95 30.21 30.03 30.09 29.96 29.53 28.60 28.67 29.88 30.25 30.21 30.35 30.29 30.50 30.31 27.94 25.96 25.05 24.32 23.49 23.45 23.08 22.10 21.58 19.55

GFSMW_sfc_wetblb_063.txt.gz
Wetbulb
56.88 56.94 57.58 59.04 58.11 57.51 58.66 58.76 59.05 59.13 58.96 58.45 58.27 58.53 58.07 58.13 58.64 58.92 59.04 59.79 59.21 59.25 57.79 59.21 58.85 58.02 58.51 57.94 57.03 56.07 54.86 53.41 54.16 52.27 51.66 51.54 52.88 53.29 53.72 54.95 56.63 56.46 57.07
55.91 56.08 57.57 58.12 57.65 57.11 57.69 58.62 58.48 58.33 58.43 58.32 58.48 58.44 58.22 58.12 58.14 58.43 58.89 59.41 58.34 58.32 57.40 57.75 57.41 57.43 57.70 56.74 55.78 55.15 54.33 54.17 54.35 51.67 49.96 46.53 48.30 49.96 51.99 51.77 53.03 54.88 57.21
55.05 55.55 56.08 56.73 57.02 56.60 57.27 58.24 57.92 58.16 58.19 58.41 58.17 58.14 58.07 57.86 57.06 57.47 57.89 58.32 57.64 57.85 57.70 57.54 57.05 56.80 57.07 56.29 54.92 54.11 54.16 52.73 53.38 52.50 49.48 45.49 44.90 46.58 48.87 50.60 50.85 51.37 51.99
56.35 56.27 55.67 55.54 56.62 56.68 57.73 58.90 58.11 57.92 58.08 58.27 57.34 56.59 55.76 54.81 55.95 56.65 57.07 56.75 57.11 56.93 57.07 57.54 57.31 56.77 56.94 56.43 55.38 55.86 55.64 53.77 51.94 51.09 53.33 51.57 51.89 48.82 47.48 50.04 50.43 51.22 52.11
55.76 55.96 55.94 56.02 56.95 57.52 57.10 57.25 57.80 57.97 57.92 57.83 57.40 56.39 55.55 55.62 56.29 56.31 56.23 56.32 56.37 56.69 56.70 57.13 56.94 55.76 55.85 56.52 56.77 56.38 56.51 56.48 54.20 51.46 50.28 50.21 51.91 52.70 50.38 48.25 49.46 51.29 52.32
55.97 56.74 57.40 56.97 56.61 57.30 56.68 56.52 57.25 57.47 58.06 57.71 57.15 56.05 55.63 54.31 53.78 53.71 54.47 55.50 56.98 57.03 56.73 57.02 57.53 56.72 55.90 55.86 57.93 57.75 57.05 56.68 56.52 55.30 54.28 53.09 51.53 51.30 51.09 49.12 49.07 49.31 50.34
56.09 56.20 56.23 56.26 55.92 56.21 55.92 55.94 56.49 56.92 57.86 57.73 56.87 56.21 55.75 55.18 53.22 54.22 54.99 55.14 54.46 56.79 57.57 56.74 55.79 56.86 57.32 56.31 57.40 58.30 58.19 57.23 57.13 56.70 56.32 56.29 55.95 55.35 53.85 52.33 51.33 50.33 51.66
56.43 56.42 56.81 56.96 56.50 56.71 56.35 56.16 56.00 56.85 57.71 57.53 57.09 56.91 56.39 55.58 54.44 54.43 55.22 55.30 55.36 55.97 58.23 58.14 57.20 56.89 57.95 58.30 58.53 58.14 58.35 58.50 58.06 57.11 56.77 57.12 56.98 56.40 55.18 53.29 51.39 48.00 49.30
54.67 56.66 57.21 57.69 57.22 56.96 56.66 56.47 56.05 56.60 57.63 57.71 57.31 57.27 57.73 56.87 55.52 54.82 54.79 55.21 55.09 55.89 56.54 58.18 57.60 57.26 57.58 58.33 58.79 58.45 57.47 57.83 57.68 56.94 57.21 56.53 56.23 56.90 57.28 56.21 55.03 52.47 48.25
52.13 56.63 57.49 57.58 58.15 58.11 57.41 57.03 56.54 55.97 56.69 57.66 57.69 57.75 57.70 57.93 57.51 56.15 55.01 54.58 54.42 55.17 55.74 57.53 57.78 57.54 57.42 58.27 58.56 58.51 59.00 57.87 57.43 57.71 56.93 57.33 57.26 56.87 57.74 57.28 56.20 54.93 53.62
50.48 52.98 57.37 58.41 58.73 58.57 57.98 57.07 56.80 56.35 55.99 56.44 57.17 57.81 57.51 57.74 57.63 56.58 55.94 55.54 55.22 54.97 54.78 56.46 57.52 57.99 57.59 57.45 58.23 58.79 58.57 57.76 57.53 57.50 57.23 56.91 57.37 56.64 56.72 56.57 56.28 55.06 54.75
51.88 52.73 53.34 55.02 57.19 58.26 58.17 57.66 57.32 57.28 57.06 56.48 56.37 56.67 57.84 57.78 57.90 57.35 57.42 57.38 55.64 55.77 55.37 55.22 56.31 57.45 57.94 57.79 57.13 57.09 58.30 57.59 56.72 56.77 56.62 56.11 56.97 56.36 56.78 56.24 55.79 55.86 55.86
51.17 51.92 52.72 53.10 54.27 55.49 57.82 58.46 58.21 57.62 57.84 57.60 56.87 56.48 56.63 56.63 57.21 57.86 58.06 57.88 57.64 56.76 56.67 56.06 55.18 55.54 56.23 56.92 57.74 57.81 57.62 57.84 57.68 57.28 56.56 56.52 55.99 55.62 56.40 56.26 55.96 55.71 55.68
50.70 51.43 51.51 52.01 52.75 53.78 54.41 57.23 58.31 58.77 58.29 58.18 57.29 56.57 56.24 56.19 56.25 57.40 57.87 57.85 57.94 57.09 56.87 57.07 56.63 56.25 56.37 56.49 56.54 57.01 57.38 57.48 57.47 57.13 56.79 56.75 56.36 55.71 55.59 55.03 54.67 55.00 55.11
50.29 50.66 50.28 50.81 51.84 52.50 53.38 54.14 54.64 56.44 59.13 58.41 57.91 57.38 57.30 57.36 57.02 56.66 57.42 57.98 57.68 57.68 57.83 57.54 57.32 57.09 56.44 56.58 56.65 56.67 56.36 56.27 56.14 56.52 56.54 56.37 54.86 50.79 52.88 55.61 55.08 54.65 54.48
49.47 49.79 49.75 50.54 51.23 51.19 50.95 51.37 51.91 53.04 55.87 58.83 58.51 58.57 58.87 58.04 57.61 57.49 57.38 57.79 57.66 57.65 58.04 57.26 57.70 57.75 57.52 50.77 46.41 52.54 56.10 55.99 55.60 55.20 55.58 55.71 49.42 49.18 45.69 45.44 47.15 52.63 54.30
47.81 48.22 48.75 49.21 48.90 46.75 46.72 45.91 47.92 51.13 52.49 54.18 56.86 59.14 58.87 58.46 58.66 58.79 58.35 58.00 58.06 58.58 58.07 58.19 58.53 57.85 58.25 48.20 45.97 44.99 55.80 55.77 55.30 55.09 54.96 54.97 54.96 49.61 53.00 38.59 38.31 38.08 38.25
46.36 46.50 46.97 46.91 45.25 43.73 43.13 44.07 46.03 47.45 49.32 48.86 49.25 52.38 54.73 56.87 58.76 58.70 58.77 58.96 59.02 58.52 58.37 58.46 58.51 58.72 59.02 48.58 46.94 44.10 52.68 56.12 56.65 56.44 55.99 55.59 53.81 49.88 44.49 37.93 33.67 32.32 32.44
44.93 45.09 45.30 43.93 41.88 39.36 39.91 41.48 42.79 43.26 43.78 43.30 44.53 47.53 51.69 50.44 50.89 56.54 57.81 58.60 58.46 58.43 58.29 58.80 58.60 58.43 58.41 45.48 44.84 44.46 52.57 53.52 39.86 37.58 39.41 41.96 41.45 38.79 39.58 34.86 30.65 29.25 29.34
43.22 42.38 42.50 41.08 38.06 37.30 37.93 38.58 38.55 39.45 38.74 40.39 42.08 45.13 47.77 46.16 46.42 47.98 51.59 58.57 58.35 57.77 57.68 47.34 41.11 38.57 43.53 38.06 41.03 44.08 46.22 35.62 32.87 32.99 33.75 34.98 35.67 35.41 34.92 31.99 29.95 27.14 26.89
38.95 39.62 39.17 36.80 35.05 35.62 36.11 35.29 36.18 35.29 37.63 39.27 41.49 41.55 41.32 41.25 42.30 43.40 43.89 53.94 52.08 41.04 37.77 35.69 35.58 35.69 36.65 37.80 40.24 41.18 40.74 36.03 32.42 31.46 31.31 32.62 33.62 33.53 33.15 32.16 30.15 28.31 29.14
34.46 34.40 34.39 33.19 32.72 32.72 32.42 32.30 32.30 34.33 37.03 37.56 36.52 35.16 34.81 35.38 36.66 39.66 40.64 41.17 40.33 38.38 36.43 34.41 32.44 31.83 32.80 33.94 34.83 34.88 34.52 33.83 30.92 30.11 31.00 31.61 32.43 31.90 31.35 30.27 30.55 30.10 29.08
31.55 32.29 31.98 30.71 30.48 30.30 30.24 30.31 31.48 33.83 34.81 33.46 31.87 31.18 31.43 31.08 31.67 31.96 34.55 36.43 37.08 35.21 33.55 32.53 30.12 29.01 30.56 31.30 32.32 32.22 31.82 31.45 29.60 29.86 30.55 30.66 29.93 29.58 29.09 29.58 29.44 28.39 27.71
29.37 29.45 28.90 27.47 27.17 28.76 29.65 30.58 31.62 32.72 32.10 30.12 29.33 29.34 28.83 28.32 28.88 29.66 30.07 30.10 32.56 32.59 31.54 30.10 28.36 27.96 27.55 27.41 27.84 27.65 27.61 27.31 26.80 26.30 26.40 26.27 25.52 24.89 24.97 25.48 25.85 25.18 24.79
27.50 26.96 26.34 26.61 27.04 28.27 28.30 30.00 31.24 31.40 29.44 28.37 27.98 27.61 27.74 27.46 26.79 27.51 28.12 28.02 29.25 29.84 28.47 29.10 28.62 27.15 25.15 26.75 28.54 28.00 26.68 26.32 26.18 26.82 25.98 24.51 24.11 23.34 23.19 22.92 21.84 22.04 22.16
25.43 25.00 25.63 26.09 27.02 27.53 27.68 28.49 30.40 30.23 29.09 27.20 26.37 26.42 26.08 26.32 25.92 25.58 25.53 29.41 29.98 30.41 30.50 30.49 29.85 29.72 30.51 30.76 31.03 30.74 30.74 30.29 28.87 25.38 23.12 22.03 22.05 21.76 20.73 19.18 18.66 19.56 19.70

GFSMW_sfc_wetblb_066.txt.gz
Wetbulb
55.06 56.45 58.62 58.51 57.40 57.16 57.46 58.59 59.34 59.64 60.20 59.69 59.51 59.55 59.22 59.36 58.89 59.27 59.89 60.56 59.92 60.42 61.36 59.53 59.09 59.09 57.27 56.98 56.26 54.74 54.64 54.01 54.54 52.89 51.38 51.35 53.24 54.47 54.72 55.05 54.91 55.27 55.76
52.89 56.02 57.25 57.33 56.99 57.23 56.71 56.97 58.97 59.28 59.44 59.51 59.34 58.97 59.25 59.08 59.61 59.08 59.16 60.26 59.47 59.28 59.96 60.26 58.72 59.16 58.00 56.16 55.41 54.93 52.89 53.76 54.45 52.40 50.60 48.18 49.11 50.96 52.79 53.57 54.69 54.30 55.61
52.90 54.65 56.29 56.28 56.18 56.78 56.43 56.67 58.07 58.33 58.40 58.55 58.56 57.52 58.19 57.88 57.42 57.78 58.08 59.51 58.78 58.63 58.45 59.75 57.79 58.27 57.92 56.49 54.70 54.39 54.12 53.03 52.78 53.57 51.17 46.30 46.69 46.84 48.49 50.49 52.69 54.06 54.64
54.61 54.95 56.09 55.93 55.62 56.07 56.89 56.75 57.31 57.65 57.92 58.29 57.76 57.09 55.91 55.28 56.74 57.22 58.05 58.97 58.26 57.63 57.66 58.08 57.30 56.92 57.75 56.68 56.00 54.91 53.15 53.46 53.37 51.45 52.65 51.51 50.03 46.58 44.88 48.82 49.64 51.15 53.53
54.58 54.19 55.64 56.17 56.29 56.45 56.45 56.59 57.05 57.50 57.76 57.91 57.65 57.02 56.17 56.55 56.80 57.38 57.29 57.82 57.48 56.92 56.75 56.96 57.32 56.19 56.98 57.23 56.55 54.96 53.43 53.81 53.31 51.62 50.65 50.12 51.02 51.09 48.90 46.86 48.15 49.19 50.73
54.91 54.83 55.73 56.68 56.12 56.35 56.69 56.13 56.21 56.80 57.42 57.50 57.55 56.70 56.00 55.73 55.39 55.75 55.22 55.99 56.13 55.91 56.20 56.57 56.69 56.61 56.39 56.87 56.58 55.76 54.17 54.15 54.06 53.87 51.91 50.65 49.60 50.07 49.99 48.31 48.21 48.50 49.50
54.44 54.17 53.33 55.02 55.70 55.80 55.88 55.82 55.68 56.04 57.15 57.06 56.99 56.57 55.49 54.95 54.65 54.59 55.33 55.39 55.05 55.15 55.50 56.26 56.31 56.24 56.47 56.64 57.43 56.10 54.50 54.26 55.16 54.90 53.16 53.94 52.89 53.42 52.43 51.19 49.33 48.76 49.67
54.42 54.32 54.37 54.57 55.74 55.78 55.42 55.74 55.48 55.74 56.53 57.08 56.66 56.46 55.88 54.29 53.96 54.59 55.16 54.84 55.72 55.89 56.52 56.25 56.67 56.94 56.71 56.12 56.29 57.20 56.87 56.11 55.65 55.36 55.78 55.97 55.51 55.47 54.37 53.06 51.52 47.52 48.29
53.87 54.63 55.23 55.01 55.40 55.54 55.22 55.44 55.54 55.96 56.57 56.84 57.03 55.88 55.36 54.96 54.01 53.51 54.47 54.85 54.34 56.19 57.13 56.94 56.08 56.43 56.67 57.18 56.58 55.41 56.11 57.13 57.04 56.67 56.42 56.41 56.51 56.82 56.59 55.28 52.96 51.44 46.38
54.12 54.96 55.54 55.58 55.66 56.10 55.97 55.69 55.73 55.65 56.28 56.84 57.24 57.07 56.29 56.01 55.12 53.60 53.49 54.63 54.91 54.14 55.36 57.38 57.18 56.76 56.63 56.74 56.58 56.41 56.54 56.41 56.94 57.24 56.97 56.85 56.81 56.12 55.98 55.40 53.98 53.52 52.72
51.18 53.66 54.98 56.00 56.20 56.40 56.14 55.64 55.51 55.34 55.94 56.66 56.58 57.04 57.31 57.45 56.89 55.77 54.01 53.93 54.69 53.65 53.66 55.55 57.31 57.13 56.48 55.43 55.60 56.33 57.07 56.73 56.62 56.74 56.40 56.28 56.90 56.10 55.59 55.71 55.81 54.98 54.61
50.83 51.73 53.34 55.27 56.27 56.37 55.91 55.10 55.00 55.33 55.92 56.52 56.43 56.32 57.12 57.78 57.41 56.90 56.60 55.27 53.93 53.93 53.80 53.63 55.52 56.62 56.78 56.27 55.48 54.95 55.81 56.43 56.38 56.43 56.18 55.86 56.57 55.61 56.24 55.59 54.91 54.88 54.87
49.83 50.66 51.53 51.83 52.58 53.61 56.92 56.99 56.18 55.86 56.03 55.85 55.83 55.93 56.30 56.51 56.63 57.01 57.33 56.69 55.82 54.87 54.19 54.02 53.50 54.46 56.26 56.59 56.56 56.12 55.65 55.74 56.53 56.86 56.27 56.09 55.91 55.19 55.42 55.29 54.81 54.67 54.67
48.84 49.23 49.92 50.81 51.14 51.60 51.39 52.76 54.95 56.52 56.92 56.68 55.65 55.18 55.35 56.37 56.37 56.73 56.92 57.38 57.35 56.59 55.79 55.06 54.50 54.10 54.07 55.33 56.43 56.43 55.93 55.66 55.82 56.63 56.87 56.78 56.08 55.55 55.24 54.88 54.85 54.96 54.24
48.01 48.83 48.46 47.63 47.15 46.65 47.17 47.67 48.67 50.87 52.65 57.08 56.51 56.05 56.24 56.47 56.49 56.35 56.51 57.09 57.04 57.32 57.30 56.63 56.27 55.47 54.89 54.42 54.19 54.83 55.01 55.40 55.57 56.08 56.43 57.05 55.71 51.69 53.45 55.35 55.23 55.10 54.43
46.64 47.35 46.71 45.05 43.52 43.37 43.52 44.91 46.21 47.44 50.11 49.91 49.41 56.02 57.58 57.44 56.81 56.29 56.17 56.17 56.43 56.75 56.77 56.86 56.65 56.26 56.04 50.16 46.12 50.63 54.66 54.70 54.46 54.82 56.04 56.72 50.07 49.71 45.60 45.76 47.09 52.18 53.83
45.23 44.91 43.37 41.39 40.07 39.56 40.75 41.60 43.22 45.23 44.74 45.09 45.78 47.44 48.60 52.41 56.79 57.67 56.95 55.98 55.62 56.29 56.41 56.69 56.87 56.30 56.60 48.18 45.85 44.42 54.14 54.99 54.87 54.46 54.43 54.40 54.73 49.35 53.82 44.93 41.84 36.85 36.14
42.97 41.92 40.24 38.42 37.57 37.71 38.08 39.83 40.42 40.57 40.63 40.85 41.90 43.96 45.43 48.04 48.18 49.19 52.32 56.99 57.04 56.59 56.01 56.07 56.37 56.46 56.70 48.00 45.06 43.69 52.37 54.13 54.80 55.00 54.86 55.04 54.79 53.84 52.52 44.59 35.39 32.98 32.71
41.02 39.41 37.60 36.17 35.47 35.51 36.61 37.21 36.92 36.84 37.08 38.09 39.09 40.93 42.47 42.83 43.34 44.39 45.71 47.12 47.88 55.78 57.14 57.20 56.87 56.34 56.56 48.87 45.56 45.54 53.71 54.10 54.26 54.63 49.45 49.47 53.07 49.68 44.65 38.60 32.19 30.22 30.24
37.84 36.75 35.29 33.85 32.92 33.10 34.79 34.97 34.07 34.23 34.51 36.48 37.23 37.68 37.58 37.50 38.48 40.38 41.09 43.44 44.17 45.52 53.26 57.54 57.28 53.34 56.40 45.51 42.96 45.57 54.95 54.04 51.37 36.88 35.77 36.92 41.61 39.14 39.25 38.80 32.39 28.10 28.17
34.56 35.08 33.03 30.66 30.29 31.07 32.93 32.23 32.72 32.61 35.17 35.85 35.00 33.58 33.44 33.57 35.29 35.21 38.07 40.72 41.18 40.94 41.00 39.52 36.00 36.45 36.12 36.89 39.73 42.42 49.90 48.21 35.40 33.22 31.81 32.89 34.53 34.88 34.67 34.07 32.08 29.21 29.30
31.16 31.77 30.34 29.11 29.72 30.46 31.35 30.41 30.64 33.21 33.53 32.91 31.84 30.88 30.51 31.06 31.78 32.28 32.87 36.09 36.80 35.76 33.95 32.11 31.16 31.66 31.86 33.56 35.11 35.44 34.99 36.18 34.07 31.79 31.43 31.92 32.69 32.51 31.93 31.03 31.08 30.28 29.12
28.10 28.94 27.98 27.66 28.10 29.22 30.07 29.27 30.55 31.42 30.79 29.58 28.57 29.13 28.86 28.99 29.87 29.50 29.66 31.04 33.18 32.02 30.91 30.00 28.41 27.94 28.84 29.32 31.50 32.02 32.58 31.92 31.24 31.06 30.67 30.43 29.79 29.02 28.21 29.12 28.55 27.67 26.52
25.66 27.05 26.75 25.93 26.00 27.82 28.16 29.46 30.17 29.67 28.09 27.19 26.75 27.12 26.75 26.99 27.69 28.62 29.05 28.83 28.99 29.07 28.98 27.74 26.18 26.22 26.83 27.74 27.82 27.88 27.76 27.54 26.52 25.74 25.74 25.57 25.34 24.31 23.53 23.76 23.85 23.05 22.95
25.05 25.58 25.10 25.09 25.20 26.41 26.79 28.08 29.05 29.53 27.08 26.51 25.85 25.68 25.54 25.54 25.33 26.26 27.46 28.26 29.22 29.33 27.42 27.36 27.50 26.21 25.69 27.37 28.77 27.45 26.56 26.48 25.87 25.38 24.91 22.98 21.61 20.20 19.94 20.36 20.88 20.87 20.64
23.39 23.02 23.68 24.06 24.23 25.05 25.44 26.00 27.86 26.62 25.09 24.19 23.74 22.81 22.78 22.47 23.13 23.67 23.49 26.44 27.99 29.55 29.92 29.77 28.83 28.55 29.63 29.67 29.39 28.91 28.26 27.61 26.24 22.75 20.50 19.56 18.85 17.73 17.97 17.82 17.32 17.66 17.35

GFSMW_sfc_wetblb_069.txt.gz
Wetbulb
54.45 55.36 57.48 57.47 57.31 56.89 56.67 58.97 58.74 60.38 60.66 60.22 59.48 59.14 58.46 58.66 58.74 58.68 60.15 60.46 61.69 60.45 58.27 57.40 56.68 55.87 52.27 53.51 54.95 52.93 52.79 52.14 53.80 52.85 51.66 51.97 53.98 53.76 54.19 53.99 54.17 54.41 54.94
51.19 56.07 57.05 57.16 57.41 57.23 57.39 57.67 58.04 59.47 60.40 60.39 60.27 59.81 59.85 59.43 59.26 58.69 58.74 60.30 60.22 61.28 59.27 57.48 57.29 55.93 54.44 54.63 55.01 53.11 51.90 52.12 53.46 52.14 51.39 48.76 50.67 52.50 52.84 53.13 53.48 54.12 55.22
51.35 55.16 56.23 56.42 57.04 56.32 56.69 56.89 57.77 58.34 59.39 59.91 58.65 58.37 58.23 58.36 58.50 58.10 58.53 59.81 59.63 59.97 60.79 58.50 58.05 57.56 56.32 55.76 54.98 53.36 53.44 51.91 52.00 53.24 51.39 46.97 48.02 48.72 50.08 51.93 53.30 53.65 53.82
53.08 54.81 55.63 55.77 56.09 56.45 55.87 56.17 58.20 57.87 58.41 59.07 58.42 57.56 57.03 56.33 57.49 58.26 58.41 59.33 59.07 59.14 58.89 60.01 58.43 58.42 58.11 56.73 55.37 55.05 54.50 53.96 52.76 50.95 52.05 51.85 50.82 48.00 46.46 49.13 52.21 53.43 53.07
53.04 53.79 55.34 55.97 56.69 56.98 56.38 57.01 57.04 56.77 57.58 57.83 57.81 57.22 56.22 56.55 57.34 57.32 57.39 58.45 58.41 57.83 57.30 58.72 57.91 57.73 58.15 57.65 56.37 54.27 52.84 54.95 54.20 51.22 50.33 50.69 51.06 50.69 48.82 46.27 47.53 48.53 52.31
52.91 53.96 55.91 56.25 56.06 56.51 56.49 56.13 56.01 55.23 56.67 57.06 56.67 55.21 55.96 55.67 55.97 56.47 56.25 57.39 58.03 57.05 56.68 57.79 57.26 57.41 57.28 57.15 56.76 55.58 53.94 53.76 55.12 53.32 52.08 51.32 50.89 50.68 49.99 47.59 47.32 47.46 49.12
52.22 52.76 54.14 54.79 55.02 55.69 55.87 55.69 55.71 55.22 55.77 56.90 56.23 55.39 54.31 55.41 55.79 55.89 56.33 56.31 56.67 56.25 55.57 56.36 56.89 56.46 56.67 57.16 57.28 56.31 55.83 53.96 53.40 54.05 52.54 53.10 52.54 53.24 53.15 50.82 49.24 48.47 49.40
52.52 52.89 54.45 54.86 55.04 55.62 55.77 55.23 54.92 55.21 55.57 56.28 56.89 56.84 55.34 56.01 55.31 56.16 56.21 56.57 56.69 56.36 55.89 56.22 56.83 57.28 56.91 56.58 57.16 56.57 55.95 55.59 54.25 53.84 53.91 53.09 53.05 52.79 52.52 51.14 49.35 46.37 47.21
52.64 52.28 54.19 55.02 54.84 55.66 55.45 55.08 55.00 55.53 55.65 55.81 56.45 56.72 55.95 53.65 53.69 54.59 55.06 56.07 57.14 56.49 55.08 55.48 56.14 56.82 56.82 56.42 56.06 56.48 55.89 55.90 54.77 54.31 55.01 54.94 54.70 54.74 54.02 53.19 52.31 50.88 47.62
51.72 52.44 53.53 54.80 55.44 55.47 55.70 55.40 55.70 55.56 55.52 56.06 55.59 55.65 55.75 55.69 53.28 52.61 52.98 53.23 53.39 54.49 55.91 55.64 55.53 55.85 56.54 56.42 55.78 55.22 55.37 56.03 55.82 55.03 53.97 54.37 55.47 55.68 55.73 55.17 54.41 54.12 53.21
51.12 52.61 53.45 54.27 54.90 55.34 55.53 55.45 55.67 55.85 55.60 55.75 56.39 55.68 55.59 54.80 54.09 52.98 52.44 53.28 53.46 53.07 53.72 56.67 56.16 55.61 55.74 56.08 55.60 55.19 54.95 54.37 55.27 55.61 55.30 55.38 56.01 55.75 55.84 55.46 55.14 54.49 53.90
50.97 52.46 53.54 54.54 55.04 55.21 55.14 55.57 55.64 55.08 56.28 56.90 56.62 55.97 55.51 55.77 55.29 54.78 54.36 53.24 53.61 53.62 53.43 53.25 55.63 56.93 56.05 55.74 55.58 55.78 56.27 55.74 54.82 54.77 54.68 54.84 56.10 55.89 56.35 55.59 54.86 54.70 54.99
49.03 49.41 49.32 49.18 50.91 54.50 56.07 55.71 55.77 55.06 55.73 55.97 56.20 55.91 55.11 55.47 55.55 55.84 56.42 56.06 54.48 53.85 53.51 53.74 53.02 54.80 55.62 56.33 56.14 55.37 55.02 54.99 55.52 55.79 55.57 55.42 55.29 54.76 55.38 55.88 55.45 55.39 54.96
46.63 45.85 45.34 45.63 46.97 48.19 49.39 50.24 50.42 51.24 52.13 55.63 55.77 55.35 55.59 55.67 55.91 56.07 56.11 55.78 55.79 55.16 54.25 53.64 53.61 53.54 53.80 54.99 55.54 55.32 54.83 54.52 54.35 54.42 55.00 55.31 55.28 55.14 54.99 54.68 55.03 55.05 54.47
44.30 42.78 41.98 41.88 42.85 43.16 44.50 46.15 46.24 47.21 48.07 51.77 52.08 53.98 55.98 56.49 56.93 56.57 56.16 56.42 55.96 55.75 55.55 55.29 54.84 54.43 53.56 53.38 53.36 54.57 55.16 54.85 54.53 54.75 54.80 55.28 54.50 51.30 52.94 55.02 54.67 54.04 53.27
42.45 40.86 39.76 39.09 38.52 39.28 40.38 41.74 42.14 43.07 43.45 43.99 44.93 46.98 48.77 53.03 54.86 56.63 56.73 56.63 56.66 56.81 56.60 55.50 55.40 55.23 55.06 49.03 45.50 48.77 53.06 53.69 54.14 53.95 54.52 54.90 49.58 49.46 45.67 45.43 47.20 52.16 53.34
40.72 38.88 37.75 37.04 36.67 36.67 38.53 37.96 38.70 40.09 40.41 40.48 41.65 42.97 44.28 45.24 46.10 47.33 48.82 54.37 55.83 56.48 56.31 56.50 56.36 55.75 56.05 47.47 45.58 44.03 52.75 53.22 53.04 53.15 53.38 53.49 54.36 49.81 54.36 47.20 43.35 44.24 43.43
38.03 36.62 36.34 35.56 35.20 35.71 36.90 37.35 36.74 36.75 38.09 37.83 38.63 39.31 39.44 39.79 41.17 42.90 43.89 44.38 46.39 47.43 51.26 55.67 56.32 56.22 56.50 47.94 46.14 45.89 52.76 54.13 54.07 53.87 53.75 53.56 53.50 53.44 52.95 52.98 50.97 48.07 47.39
36.07 34.60 33.87 33.35 32.94 33.30 35.36 34.82 34.55 35.28 35.64 35.23 35.26 35.06 35.60 35.68 37.30 38.31 38.44 39.82 42.98 43.90 44.96 47.09 47.85 53.23 56.28 48.11 44.16 45.04 52.77 53.33 53.80 54.80 54.55 54.21 53.55 50.51 46.55 50.59 49.43 37.33 33.10
34.08 32.43 32.03 31.46 31.03 32.05 33.55 32.76 32.60 33.25 32.67 32.80 32.17 32.07 31.75 32.58 33.73 34.20 34.99 36.62 39.00 40.86 42.10 40.16 36.46 34.93 34.70 36.04 36.03 38.67 51.46 52.63 52.62 53.11 52.01 35.50 35.38 36.92 40.91 49.38 49.48 37.70 30.78
32.64 32.24 30.79 28.97 29.90 32.02 32.32 31.29 31.83 30.88 31.40 31.51 31.03 29.98 29.85 31.29 31.74 31.95 32.78 33.92 35.57 36.85 34.91 32.61 31.44 30.73 31.09 32.69 34.84 36.95 40.84 47.50 46.91 36.38 32.06 32.41 33.73 34.08 34.92 35.25 35.79 32.58 29.47
29.50 29.81 28.37 28.14 29.57 30.57 31.04 29.85 29.06 30.48 30.34 29.82 28.97 27.90 28.08 29.46 30.08 29.91 30.95 31.88 32.72 31.91 30.80 29.40 28.50 28.72 29.13 30.65 31.71 33.51 34.45 35.12 32.77 31.67 31.54 31.42 32.41 32.37 32.36 31.13 31.21 29.80 27.88
27.08 27.77 27.07 27.36 27.74 28.47 29.75 28.25 27.97 28.57 28.39 27.67 26.91 26.85 26.63 27.16 28.65 28.16 28.24 28.65 29.62 29.09 28.27 27.68 26.87 27.02 28.11 28.17 29.56 29.85 29.80 30.18 28.86 28.58 28.35 28.46 28.31 27.80 27.24 28.45 27.69 26.16 24.96
25.38 26.65 26.39 25.63 25.82 27.18 27.86 28.11 28.90 27.78 27.21 25.83 25.51 25.65 25.94 24.98 25.07 26.51 26.87 26.49 27.05 27.09 27.34 26.69 25.98 26.27 27.01 27.20 27.30 27.05 26.78 26.71 25.71 24.67 23.91 24.12 23.81 22.82 22.37 22.22 22.74 21.93 21.84
24.61 25.21 24.58 24.12 24.53 25.45 25.91 27.34 26.24 26.74 25.01 24.06 24.10 23.44 23.64 24.02 24.04 24.76 25.11 25.05 26.45 26.67 24.77 24.69 25.52 24.65 24.23 26.41 28.06 27.37 25.45 24.81 24.53 23.00 21.83 20.58 19.90 18.87 18.76 18.68 18.82 19.02 19.02
21.62 21.48 22.11 22.65 23.12 23.97 24.28 25.11 26.94 26.08 24.68 23.50 22.90 22.14 22.25 22.10 21.96 22.22 22.50 25.73 25.92 26.81 27.41 27.35 25.20 25.42 26.72 26.89 26.96 26.63 25.86 25.12 24.00 19.87 17.75 16.98 16.96 16.01 15.82 15.45 15.41 15.80 15.42

GFSMW_sfc_wetblb_072.txt.gz
Wetbulb
55.18 54.70 56.60 57.16 56.20 55.34 56.90 59.03 59.64 60.76 60.88 60.01 59.12 58.69 58.15 58.51 59.09 60.22 61.54 61.73 61.08 59.56 58.55 57.18 56.47 56.11 55.42 54.88 54.24 53.52 53.18 53.08 54.84 52.37 51.17 51.73 53.81 54.16 54.12 54.44 54.80 55.42 55.71
50.71 54.49 56.04 56.64 56.52 56.72 57.02 57.63 58.81 60.47 60.75 60.58 59.58 59.84 59.27 59.01 59.02 59.15 60.39 61.49 60.35 58.69 57.83 56.96 55.89 55.20 53.15 53.86 54.32 53.86 52.34 53.08 54.82 51.94 50.69 48.40 50.89 53.46 53.95 53.95 54.32 54.32 55.61
49.84 53.77 55.34 56.42 57.35 56.66 57.23 56.88 57.98 59.62 60.46 60.30 59.43 59.13 58.47 58.85 58.03 58.15 58.81 59.88 61.11 59.57 58.37 58.00 55.58 55.01 53.60 53.27 53.94 52.79 52.42 51.34 52.06 54.32 51.02 47.67 48.46 50.44 51.97 52.65 53.27 53.85 54.11
50.27 53.81 54.65 55.86 56.92 56.94 57.58 57.10 57.50 58.31 59.59 59.57 58.84 58.03 57.13 56.24 57.84 57.97 58.72 59.52 60.37 60.58 58.90 57.86 57.35 55.47 54.60 54.55 54.61 54.26 53.26 53.15 52.28 50.65 52.21 52.40 50.95 49.49 47.47 50.16 52.68 53.87 53.89
49.95 53.43 54.44 55.56 57.19 57.38 56.72 55.92 57.24 57.67 58.54 59.08 58.92 58.44 57.68 57.21 57.76 57.92 57.84 58.82 59.11 59.87 59.94 58.21 58.13 57.00 56.69 56.11 55.28 54.48 53.10 53.43 53.09 51.71 50.79 50.62 50.71 50.96 49.73 47.74 48.62 50.45 53.50
49.55 52.79 54.85 55.86 56.68 57.09 56.15 56.38 56.75 55.78 56.96 57.72 58.27 57.61 56.32 55.71 56.10 56.32 56.78 57.83 57.75 58.24 58.66 59.66 57.82 57.87 57.73 56.66 56.27 55.32 54.18 53.88 53.76 53.62 52.28 51.69 50.52 50.17 49.99 48.55 48.69 48.54 50.24
47.84 52.30 54.02 55.09 55.76 55.49 55.78 55.85 55.23 54.60 55.31 56.08 56.84 56.68 56.12 55.88 56.00 56.16 56.44 56.56 57.12 56.66 56.50 58.17 57.64 58.09 57.53 57.40 56.75 55.33 54.17 53.60 53.70 53.64 53.20 53.35 53.22 53.13 52.30 51.54 50.16 49.44 50.74
48.07 51.95 54.06 54.72 55.48 55.02 55.22 55.78 55.07 54.81 54.28 53.76 54.48 55.49 53.88 54.54 56.21 56.73 56.92 57.18 57.21 57.28 57.28 57.15 57.20 57.23 57.52 57.42 57.37 56.36 55.67 55.63 54.37 53.58 53.99 53.36 53.89 53.34 52.81 51.79 50.85 47.80 48.31
45.93 50.83 53.71 54.40 55.29 55.16 54.85 55.26 55.10 55.28 55.36 54.22 54.00 53.72 53.68 54.27 55.41 56.30 56.48 56.98 57.42 57.52 56.61 56.77 56.98 56.80 57.14 57.16 57.14 56.94 56.58 56.54 56.28 55.05 53.99 53.95 53.94 53.67 53.28 52.92 52.22 51.11 47.60
50.78 52.63 53.41 54.70 55.23 55.75 55.68 55.58 55.01 55.12 55.22 55.64 53.64 53.88 53.67 53.07 53.03 54.53 55.03 55.67 56.33 56.65 55.14 55.55 56.39 56.70 56.72 56.62 56.44 56.34 56.40 55.90 56.08 55.94 54.79 54.24 54.76 54.27 54.05 53.42 52.81 51.85 50.77
51.26 52.33 53.67 54.64 55.46 55.46 55.36 54.83 54.89 55.12 54.99 55.45 55.66 53.77 53.42 53.11 52.23 52.26 52.71 54.54 54.66 55.05 54.83 54.93 55.20 55.34 56.08 56.47 55.86 55.50 55.44 55.51 55.43 55.78 54.93 54.17 54.46 53.92 54.72 54.87 54.34 53.58 53.33
48.97 52.49 53.25 54.38 53.98 54.42 55.41 54.80 55.16 55.06 55.35 56.05 55.71 55.65 55.13 53.65 52.42 52.13 52.01 52.86 53.81 53.41 53.99 55.77 54.42 54.70 55.24 55.85 55.89 55.03 54.93 54.21 53.99 54.97 54.63 54.03 54.40 53.93 54.17 54.28 54.15 54.56 55.09
44.41 45.53 47.25 48.26 51.01 53.51 54.76 54.70 55.13 55.86 56.00 56.22 55.68 55.39 55.33 54.71 53.24 53.39 53.32 52.62 52.74 53.05 52.70 52.86 54.72 55.61 55.14 54.66 55.13 55.46 55.04 54.30 53.77 53.76 53.54 53.92 54.94 54.24 54.90 54.87 54.87 54.99 54.97
42.24 42.22 42.42 43.80 45.70 46.93 47.74 48.61 48.33 49.40 50.35 55.05 56.19 55.51 55.35 55.79 55.72 55.86 55.33 54.64 53.77 53.09 53.70 54.12 53.79 54.08 54.78 55.51 55.22 54.68 54.52 54.92 55.48 55.80 55.60 55.43 54.72 54.14 53.96 54.04 54.47 54.78 54.87
39.27 39.80 40.01 40.63 42.12 42.13 43.08 42.53 43.37 43.78 46.15 48.02 48.08 48.64 51.77 56.48 56.63 56.44 56.58 56.59 55.82 55.49 54.79 53.83 53.21 53.88 53.94 53.74 53.90 54.85 54.84 54.24 53.79 53.93 54.10 54.59 54.02 50.63 52.59 54.83 54.60 54.53 53.72
38.05 37.46 37.38 37.19 37.64 38.43 37.95 38.66 39.71 40.64 42.14 42.03 42.60 43.52 45.03 46.96 46.98 47.67 49.23 54.95 56.50 56.45 56.11 55.34 54.83 54.20 53.78 47.22 44.91 49.05 53.26 53.70 53.90 53.69 54.15 54.42 49.09 48.73 45.07 45.02 46.46 51.90 52.92
36.95 35.86 34.94 34.58 34.93 35.94 36.42 35.75 37.16 38.95 38.38 38.10 38.13 38.35 39.57 40.54 41.23 43.79 44.73 44.11 45.32 47.63 48.92 52.89 55.31 55.62 55.68 46.61 44.90 43.18 51.86 53.15 53.37 53.24 53.18 53.31 54.09 49.32 53.34 47.93 42.82 43.47 42.66
35.16 33.94 33.36 33.10 33.55 35.10 35.10 35.66 36.07 36.00 35.16 34.14 34.15 34.67 35.51 36.27 38.02 38.59 38.27 39.50 41.95 43.95 44.92 45.55 45.87 44.34 41.99 35.33 35.59 36.61 48.82 52.82 53.90 54.17 54.32 53.61 53.73 53.74 52.98 52.90 52.04 50.04 48.93
33.38 32.31 32.09 31.81 32.70 32.81 33.87 34.26 33.29 32.88 32.06 31.07 30.82 31.05 32.70 33.87 34.39 34.38 35.24 37.12 38.63 40.75 41.02 37.95 36.44 33.76 34.82 33.67 34.98 36.06 40.89 50.02 52.39 53.99 54.60 54.17 53.72 50.19 46.30 50.31 50.22 50.16 38.07
32.33 30.92 30.91 31.16 31.24 31.54 33.19 32.51 30.41 29.86 29.27 29.68 28.84 29.68 31.80 32.03 31.59 32.53 33.60 35.57 37.21 37.10 36.33 32.66 31.64 31.25 30.94 32.55 34.27 35.18 38.95 40.90 45.87 49.18 34.53 33.42 33.78 35.32 38.33 42.47 49.39 49.09 34.93
30.86 30.62 30.01 28.98 29.62 31.46 31.39 29.42 29.06 28.11 28.86 28.97 28.44 28.27 29.65 30.38 30.74 31.23 32.46 33.25 33.49 32.40 31.30 29.63 29.50 29.46 29.91 30.37 31.99 32.93 35.10 35.75 32.29 30.86 30.18 30.84 32.49 33.95 36.86 33.71 33.98 32.47 28.61
27.96 28.69 27.93 27.86 28.95 29.90 29.77 26.57 26.52 28.28 28.40 27.90 26.80 26.05 27.05 28.64 28.90 28.89 29.73 29.59 30.85 29.63 28.83 28.52 28.22 28.56 28.57 29.59 29.92 29.31 29.59 29.76 27.43 26.32 26.95 27.68 29.27 30.08 30.15 29.13 29.47 28.62 26.38
26.89 27.78 27.30 26.84 27.47 28.08 28.13 26.98 26.42 27.49 26.92 26.22 26.01 25.54 25.72 26.07 26.89 26.46 26.91 27.36 27.23 26.95 26.65 26.82 26.29 26.52 27.63 26.89 28.12 28.51 27.14 26.68 24.91 25.35 25.36 25.06 24.76 24.51 24.16 25.55 25.25 23.72 22.86
25.69 26.42 25.89 24.92 24.92 26.58 26.69 26.12 26.83 26.09 25.61 23.94 24.20 25.24 24.75 24.63 25.55 25.84 26.27 25.73 25.12 24.20 24.58 23.71 23.19 23.55 24.16 24.74 24.41 23.91 23.55 23.69 23.12 22.70 21.81 21.84 22.09 20.36 19.64 19.91 20.34 19.77 19.62
24.09 24.50 24.08 23.74 23.61 24.79 24.90 26.26 25.84 25.49 24.08 23.68 23.61 22.97 23.26 24.00 23.47 24.22 24.44 24.39 25.65 25.48 22.89 23.54 24.07 22.74 22.71 25.22 26.21 24.63 21.87 20.79 21.25 20.42 19.72 18.23 17.48 16.69 16.83 16.64 16.46 17.05 17.21
20.98 20.72 21.21 21.31 21.58 22.42 22.33 22.67 24.49 25.67 24.12 22.52 21.80 20.79 21.33 21.01 21.25 22.01 21.49 24.98 25.30 25.94 26.58 26.42 24.62 24.49 25.74 25.91 26.08 25.54 24.72 23.56 22.25 17.33 15.51 14.88 14.89 14.18 14.29 13.42 13.26 13.96 13.74

GFSMW_sfc_wetblb_075.txt.gz
Wetbulb
53.25 57.41 59.13 60.49 61.28 61.86 60.88 60.75 61.10 61.27 61.08 60.71 60.56 60.01 59.24 60.81 60.57 62.10 62.81 62.04 61.71 62.82 61.47 59.96 59.12 59.55 59.17 59.36 58.59 58.34 58.57 58.53 59.64 57.52 57.03 57.63 58.79 58.95 59.03 59.51 59.64 60.13 60.66
51.29 55.67 58.28 59.82 60.35 60.03 60.59 60.75 61.17 61.12 61.60 61.45 60.37 60.54 60.13 60.23 60.68 61.82 61.91 62.97 61.53 61.22 60.08 59.04 59.03 58.90 59.95 59.12 58.81 58.63 57.92 58.36 58.90 57.13 56.40 53.34 55.18 57.14 57.91 57.64 58.29 59.27 59.76
50.16 53.27 56.86 58.74 60.24 59.59 60.16 60.12 60.50 61.30 61.83 61.97 61.38 60.08 60.13 59.93 59.04 58.97 60.33 60.25 60.01 59.51 58.80 58.90 58.31 58.54 58.91 57.98 57.99 58.25 57.93 56.04 57.84 59.12 57.61 53.27 53.09 54.49 56.83 57.09 57.47 58.06 58.04
50.06 52.13 56.50 57.87 59.27 60.11 60.96 60.22 59.86 60.46 61.32 61.19 60.07 58.93 58.03 57.49 58.61 59.04 59.62 60.43 60.44 59.66 58.66 57.19 57.28 57.70 58.12 58.25 58.00 57.95 57.04 56.63 55.15 57.52 57.68 59.25 57.53 54.19 52.01 54.84 56.73 57.20 57.05
50.71 52.95 55.77 58.05 59.75 60.43 59.66 59.09 59.26 59.75 60.59 60.90 60.06 59.01 58.58 59.89 59.61 59.27 59.12 59.66 60.31 59.51 59.19 57.93 56.86 55.80 56.98 58.19 57.59 57.73 57.75 58.76 58.21 57.22 56.57 56.66 56.82 57.94 56.00 53.09 53.03 55.52 56.95
51.40 53.57 56.88 58.45 59.26 60.04 58.92 57.48 58.14 58.53 60.00 60.35 60.47 59.65 58.67 58.12 58.35 58.09 59.09 59.36 59.36 59.71 58.67 58.49 57.30 56.50 55.75 55.58 55.82 56.33 58.39 58.23 58.82 58.55 58.59 56.82 55.67 54.44 54.39 53.02 53.81 54.19 55.01
51.68 54.26 55.87 56.84 57.94 58.06 56.99 56.87 57.49 56.83 58.44 59.56 59.58 59.23 58.37 58.33 57.96 58.26 58.28 58.26 57.84 58.00 58.95 58.75 58.33 57.90 56.95 56.41 56.42 55.73 55.63 57.21 57.37 58.61 57.29 57.82 57.59 57.21 55.97 55.27 53.57 53.27 55.07
50.47 53.89 56.40 57.15 57.66 57.38 55.99 57.05 56.60 55.79 56.56 57.49 58.49 58.71 58.19 57.82 57.90 58.06 57.98 58.55 58.22 58.13 58.15 58.92 58.40 58.37 58.27 57.48 56.91 56.26 55.39 55.72 57.06 57.78 58.45 57.57 57.47 57.77 57.43 55.72 55.34 52.91 53.41
53.23 51.92 56.14 57.11 57.66 56.55 55.72 56.52 56.20 55.47 55.62 56.48 57.52 58.20 57.21 57.08 57.59 57.99 58.87 58.62 58.90 58.52 58.18 58.51 57.98 58.46 57.92 57.86 57.40 56.39 55.71 55.22 55.42 56.18 57.30 55.79 57.67 57.28 57.16 57.18 57.45 54.23 51.03
52.99 53.24 55.82 56.02 57.05 56.11 55.92 56.52 56.85 57.55 56.68 55.96 58.31 58.61 58.66 58.18 57.66 57.94 57.38 57.79 58.37 58.56 58.28 58.84 57.91 57.38 57.94 57.89 57.43 57.16 56.95 56.09 56.16 56.19 55.56 55.50 56.23 56.15 56.55 54.10 55.68 54.16 54.22
52.45 53.73 54.47 55.64 55.82 55.98 56.07 55.81 56.26 57.05 57.05 56.59 57.00 58.34 58.06 58.43 58.52 57.33 57.27 57.39 57.72 57.14 56.68 57.48 57.34 57.12 57.61 57.77 57.17 57.08 57.03 56.63 56.61 56.60 56.25 56.00 56.58 56.10 55.42 55.18 54.44 53.63 53.28
46.53 52.02 54.20 54.61 54.83 54.91 55.14 55.21 55.60 55.83 56.77 56.78 56.68 56.50 57.67 57.65 57.29 57.53 58.25 58.98 57.62 57.35 56.18 56.62 56.84 57.69 57.97 58.99 58.32 57.74 56.53 56.00 55.82 56.29 55.88 55.50 55.87 55.46 56.34 55.14 54.26 56.31 57.15
43.29 44.02 45.77 47.03 50.20 52.28 52.52 51.83 53.06 54.81 56.33 56.70 56.45 56.38 56.32 56.24 56.28 57.11 57.13 57.70 58.15 58.19 57.42 56.88 56.14 56.61 57.98 58.55 57.66 58.09 58.49 57.83 57.28 57.14 56.63 56.42 56.04 55.61 55.56 55.70 56.08 56.23 55.62
40.34 40.32 40.99 42.02 43.22 44.39 45.00 45.82 47.80 49.51 53.87 56.00 55.53 54.28 55.62 56.16 56.26 57.15 57.54 57.30 57.19 57.51 57.77 57.98 58.15 58.11 57.66 56.98 57.06 57.46 57.81 58.08 58.06 58.21 57.64 57.43 58.04 58.00 58.12 57.96 57.85 56.69 55.56
36.97 37.01 37.25 38.41 39.77 40.71 43.10 43.71 43.84 44.82 46.10 46.45 46.04 46.16 47.97 49.16 51.07 53.33 55.42 57.04 57.05 56.99 57.09 57.34 57.20 57.77 57.53 57.09 57.21 56.54 56.12 56.52 57.38 58.68 58.29 58.75 56.97 51.38 54.36 57.58 57.93 58.07 56.99
35.62 35.23 35.19 35.75 36.46 37.39 38.46 40.59 40.25 39.95 40.64 39.37 39.32 41.14 42.48 43.67 44.69 46.37 47.34 47.89 47.93 49.12 53.47 54.93 54.65 54.30 49.99 36.50 38.42 44.82 55.85 56.60 56.54 56.87 57.92 58.55 51.27 51.40 45.00 45.25 46.19 52.86 55.81
35.48 34.32 33.77 34.18 35.38 36.09 37.56 37.13 37.55 38.20 37.17 36.24 36.90 37.41 39.30 39.92 40.29 41.47 42.25 42.58 44.31 45.84 46.12 45.14 44.98 41.92 36.17 35.03 36.21 36.36 43.90 50.99 53.98 54.65 55.24 55.81 56.42 51.66 56.57 48.07 42.73 43.63 43.17
33.96 32.94 33.21 34.18 34.52 35.56 35.86 35.48 35.12 34.82 34.41 34.15 34.46 35.85 37.44 37.69 38.56 39.75 40.36 41.16 42.95 42.59 39.75 38.16 36.42 37.38 35.07 34.39 35.01 34.87 42.17 45.89 49.27 52.31 53.52 52.80 52.55 53.38 51.61 53.34 52.77 51.44 50.73
32.76 32.33 33.04 32.90 33.45 34.57 34.74 33.34 33.14 33.19 31.86 31.46 32.37 34.35 34.96 35.19 35.98 36.42 37.28 38.80 39.74 38.25 35.05 34.04 33.22 33.35 32.77 32.87 33.38 35.10 40.64 43.26 44.51 36.55 34.53 33.69 35.45 36.22 36.95 41.46 48.00 50.01 35.39
31.45 31.22 31.95 31.97 31.92 32.49 33.03 31.74 30.80 30.37 29.19 29.65 30.70 32.58 32.97 33.10 33.28 33.97 35.07 35.55 35.26 33.60 32.82 31.43 31.78 31.27 31.92 31.34 31.97 34.90 38.91 38.04 35.01 31.69 30.59 31.77 32.87 33.11 33.54 36.90 38.01 34.21 30.32
30.37 30.86 30.47 29.34 30.57 30.70 30.99 29.45 29.50 28.43 29.08 29.51 29.78 30.24 31.01 31.28 32.49 32.68 33.42 33.35 32.53 31.86 31.21 30.48 30.68 30.33 30.07 30.62 30.64 30.68 31.02 30.35 28.30 27.32 26.98 28.11 29.72 30.35 30.57 30.20 29.07 27.72 27.20
28.78 29.65 28.56 28.02 29.13 30.58 29.45 27.90 26.85 28.82 29.61 28.83 28.50 28.61 28.85 29.49 30.08 30.73 30.92 31.15 31.30 30.60 30.16 29.38 28.89 29.21 29.10 28.93 28.93 28.50 28.30 27.57 25.66 24.39 25.40 26.06 27.03 27.55 27.18 26.51 26.62 25.69 23.85
27.49 28.44 27.82 27.33 27.63 28.22 28.38 26.48 26.88 27.71 28.39 28.04 27.30 27.54 28.05 27.92 28.43 28.48 28.09 27.46 27.98 27.97 27.30 26.60 26.20 26.76 28.07 28.71 26.68 27.10 26.20 26.13 26.92 26.69 25.41 24.74 24.75 24.71 25.00 24.48 23.77 22.64 22.91
25.44 26.60 26.29 25.31 24.97 26.39 26.98 27.24 27.32 28.05 27.32 26.28 26.11 26.30 25.83 26.21 26.90 27.52 27.49 26.71 26.16 26.23 26.08 25.68 25.78 26.52 26.79 27.66 28.75 27.74 28.08 26.14 26.23 25.19 24.67 23.74 23.20 21.96 22.34 23.65 23.95 23.67 23.17
23.70 24.53 23.97 23.60 23.40 24.60 24.84 25.91 27.36 27.33 25.91 25.66 25.45 25.31 25.61 24.87 24.37 24.99 25.67 25.72 26.86 26.78 25.46 25.34 25.94 25.91 24.94 26.21 26.49 26.78 26.17 25.51 23.41 24.53 24.50 23.51 22.98 22.21 21.97 21.01 20.40 21.26 21.77
21.71 21.79 21.90 21.66 22.04 22.58 22.79 23.86 25.78 26.59 25.86 24.55 24.02 23.78 24.05 24.19 23.85 23.23 22.11 24.48 25.10 25.56 25.88 25.98 26.17 26.12 25.72 25.36 24.89 23.98 22.91 21.75 22.13 22.06 20.70 19.75 19.64 18.90 18.98 18.57 17.84 17.91 16.78

GFSMW_sfc_wetblb_081.txt.gz
Wetbulb
55.68 56.75 58.65 60.82 64.38 67.04 67.96 68.44 67.58 67.74 66.96 65.57 64.18 63.71 63.82 64.08 64.14 64.41 64.28 64.24 64.81 65.63 65.14 63.10 61.95 61.59 61.56 60.87 61.40 60.92 61.61 61.76 61.82 59.87 58.42 60.28 61.34 61.96 60.83 61.24 60.91 61.48 61.72
55.07 55.67 57.66 60.54 64.57 66.22 67.52 68.04 67.02 66.99 66.40 65.73 64.80 64.22 63.83 64.78 64.94 64.93 64.56 63.99 63.84 64.48 62.84 62.65 61.27 61.66 60.57 59.58 59.76 60.58 60.19 61.27 61.95 57.74 58.15 54.25 56.87 59.41 60.29 60.65 60.77 61.44 61.45
54.64 55.09 55.90 59.81 64.34 65.34 67.16 67.43 66.91 66.40 66.00 65.78 64.97 64.10 62.70 63.82 62.64 63.58 64.28 63.72 64.58 64.54 64.08 61.88 60.87 60.66 59.90 58.77 59.31 60.09 59.78 58.92 60.98 61.71 58.40 53.80 52.90 56.20 59.48 60.18 60.45 61.97 60.93
55.09 55.49 55.71 58.80 63.18 64.95 67.19 67.48 66.96 66.17 66.00 65.71 64.08 62.67 61.62 60.00 62.59 62.99 63.74 63.79 63.93 64.23 63.60 61.34 60.76 60.19 59.73 58.86 59.50 60.91 60.63 60.29 59.12 61.23 61.63 60.47 59.16 55.31 54.46 59.04 59.78 60.70 60.20
55.30 55.12 55.78 57.44 62.61 65.15 66.40 67.28 67.02 66.31 65.94 65.60 65.29 63.59 62.35 62.70 63.32 62.66 62.29 62.04 62.38 61.51 61.01 60.90 60.25 59.70 59.51 59.12 59.40 60.09 60.64 61.03 60.17 60.49 60.89 60.35 59.90 58.59 56.78 54.37 56.78 59.71 60.13
55.65 56.26 56.44 57.17 61.36 64.76 66.60 66.54 66.10 65.59 65.78 66.00 65.12 63.78 62.84 62.23 62.30 61.69 61.25 60.53 60.48 59.78 59.14 59.98 60.29 60.40 59.95 59.23 59.50 60.59 61.49 61.65 61.79 61.42 60.81 59.52 58.23 57.49 57.36 56.37 56.97 57.70 59.44
57.32 57.14 56.65 57.58 59.93 63.29 65.27 65.66 65.73 63.99 65.42 65.17 64.31 63.65 63.09 62.92 60.85 61.64 60.90 60.00 58.37 58.47 58.21 58.46 58.66 58.82 60.09 60.49 60.55 60.39 61.24 61.60 60.96 60.97 59.76 60.29 60.43 60.26 57.91 57.76 56.69 54.85 58.84
59.31 59.17 58.21 59.01 60.96 63.11 64.56 64.99 64.80 62.63 64.57 64.75 64.04 63.54 63.41 62.52 62.86 62.91 61.86 60.87 59.83 59.65 58.80 58.39 58.23 58.00 58.72 59.20 60.27 61.09 61.48 61.58 61.60 61.11 60.98 60.38 59.09 58.71 60.33 56.73 56.23 55.01 56.00
55.45 59.07 58.82 60.85 61.93 63.49 62.85 62.87 63.79 60.96 63.06 64.09 63.90 62.94 62.46 61.66 61.79 62.21 62.35 62.13 62.11 61.31 60.84 58.98 57.49 56.95 57.40 57.94 58.51 58.66 59.66 60.87 60.73 60.23 60.81 59.84 58.67 58.90 59.83 59.81 58.76 56.51 52.53
49.31 54.58 59.40 60.98 62.32 62.90 60.90 60.76 61.97 59.98 61.44 63.60 63.40 61.70 62.09 61.84 62.02 62.27 61.39 60.65 61.12 61.05 61.27 60.34 59.07 57.31 56.68 57.08 56.68 56.61 56.77 56.53 57.17 57.40 56.91 57.38 57.66 58.14 57.70 57.38 59.00 58.10 56.03
43.99 48.82 53.06 60.55 61.57 59.40 58.92 59.67 59.51 59.82 60.02 60.52 61.74 60.52 60.64 61.48 61.81 61.29 61.31 60.57 61.30 60.63 59.97 60.23 59.53 58.35 57.03 56.33 55.83 56.35 55.31 55.00 55.23 56.04 56.19 56.06 57.10 56.63 56.57 56.82 56.91 57.24 57.77
41.37 43.20 46.68 49.00 56.62 56.95 57.56 58.09 59.30 58.47 59.09 59.79 60.26 59.99 60.31 60.13 60.65 60.21 60.92 61.20 60.24 60.00 59.56 59.53 59.41 58.93 58.41 57.88 57.19 56.05 55.53 54.95 54.82 54.70 54.56 54.76 55.24 56.15 56.28 56.01 56.01 55.85 55.89
39.08 39.96 41.16 42.83 45.32 47.67 51.64 53.25 57.95 58.51 58.72 58.88 58.69 58.79 59.23 59.87 59.41 59.18 59.67 59.81 59.34 58.68 58.78 59.16 59.28 59.41 59.28 58.57 57.92 57.30 57.08 56.61 55.19 55.87 54.88 55.07 55.57 55.18 55.71 56.22 55.39 55.24 55.29
36.77 37.25 37.99 39.23 40.97 42.79 43.52 44.95 46.99 51.64 55.05 55.17 53.88 54.10 55.84 58.60 59.22 59.41 60.25 59.89 59.72 58.47 58.17 58.25 58.57 58.85 58.22 55.59 56.62 58.11 57.91 57.92 58.28 58.94 58.81 57.97 57.17 56.55 56.06 55.75 56.58 57.38 57.20
34.61 34.96 35.81 36.91 38.12 39.21 39.83 41.05 42.59 43.77 46.73 46.92 46.45 46.28 46.95 48.25 49.00 49.52 52.87 55.50 52.98 51.98 52.13 55.63 48.30 44.23 41.48 38.50 40.66 48.94 55.79 58.57 58.91 60.49 59.15 59.19 57.35 51.53 53.78 57.82 57.71 58.81 57.34
34.13 33.84 34.61 35.18 35.35 36.55 37.72 38.52 39.18 40.41 42.45 42.53 42.60 43.33 43.93 44.76 45.11 46.14 46.99 45.38 44.00 44.34 44.80 40.82 39.58 38.50 36.86 34.90 35.61 38.35 50.93 54.74 53.45 53.10 50.10 51.77 43.00 42.95 40.36 40.80 41.30 43.65 51.94
34.22 33.70 34.35 33.47 34.03 34.87 35.90 36.82 38.13 40.84 39.73 39.86 40.72 42.55 43.38 43.14 43.70 44.42 42.20 40.79 39.58 39.43 38.82 38.37 36.36 34.04 33.91 34.36 35.49 35.47 44.61 43.44 38.87 38.10 38.62 41.36 40.10 36.63 37.71 39.85 40.64 34.44 34.19
33.94 33.31 33.11 33.04 33.96 34.56 35.14 36.47 36.45 36.32 37.79 38.58 39.42 41.12 42.22 42.74 43.03 42.18 40.25 38.93 37.57 36.40 36.48 36.60 35.47 33.57 32.70 33.51 34.85 35.78 39.98 36.29 34.12 33.19 34.23 34.61 33.84 32.49 33.76 38.00 41.94 32.38 30.76
33.40 32.16 33.85 33.79 33.64 33.75 34.35 33.81 33.69 35.04 34.55 34.40 35.91 38.88 40.31 40.64 40.64 39.62 39.39 38.68 37.76 36.37 35.57 35.36 35.76 34.01 31.84 32.99 34.63 39.45 37.55 34.32 32.59 31.99 31.49 32.57 32.83 31.39 34.07 40.45 36.16 30.04 28.36
32.36 33.19 32.34 32.81 33.50 33.69 34.31 32.35 32.05 32.07 32.15 33.58 35.16 36.34 36.91 37.95 37.24 37.83 37.91 38.21 38.24 36.79 36.46 34.93 34.15 33.57 31.84 31.33 33.76 36.24 34.74 32.10 30.70 30.58 30.31 29.95 30.06 30.47 32.03 34.19 31.03 26.64 25.66
31.86 32.52 33.19 32.63 33.20 34.10 33.13 31.10 31.54 30.98 31.84 33.26 34.14 34.65 35.52 35.82 36.56 37.68 37.92 37.54 36.97 36.44 35.14 33.68 33.59 32.23 31.47 30.03 31.20 33.58 34.64 32.56 31.37 29.99 28.92 29.64 29.54 29.90 29.78 29.57 28.74 26.95 27.58
33.56 33.98 32.42 32.28 34.42 35.84 34.59 32.55 31.50 31.77 31.99 32.81 32.22 32.39 33.70 34.55 35.79 36.05 36.03 35.61 36.14 35.40 34.04 32.80 32.41 32.74 31.40 29.69 29.50 29.69 30.63 31.75 29.99 28.76 28.77 29.24 28.70 28.75 29.34 29.99 29.92 30.22 31.27
32.55 34.00 33.00 32.61 33.60 35.11 35.05 33.10 33.04 33.51 34.13 33.86 32.44 32.10 32.04 32.24 32.57 32.88 33.40 33.82 34.48 33.36 32.34 31.51 30.70 30.20 31.61 31.88 29.96 29.25 28.63 28.74 29.15 29.38 28.71 28.50 28.65 28.45 28.45 27.85 28.29 29.05 30.29
30.46 32.58 32.13 30.60 30.06 32.57 33.41 33.86 34.51 34.71 32.92 31.30 30.77 31.23 31.30 31.31 31.59 30.22 29.45 28.56 31.11 30.55 30.59 30.33 29.35 28.74 27.83 28.35 30.62 31.15 30.83 29.80 30.19 30.06 30.23 29.33 28.89 28.76 28.15 28.55 28.48 29.04 28.41
29.83 30.42 29.72 29.09 29.19 30.80 31.57 33.15 33.63 33.69 31.82 31.44 30.65 29.73 29.01 27.28 25.31 25.27 26.89 26.12 26.86 27.02 27.97 27.16 26.92 26.61 24.65 24.76 25.93 27.11 28.18 29.30 29.28 31.22 30.67 29.04 28.91 27.49 27.72 26.93 26.35 25.81 26.51
27.63 26.50 26.85 26.93 26.87 27.34 27.31 28.90 31.99 33.20 31.94 30.10 30.27 30.63 30.86 29.66 27.90 25.63 23.17 24.52 25.26 25.39 25.39 25.19 26.54 25.26 24.57 24.84 24.89 25.29 25.93 26.78 28.48 28.34 26.63 25.81 25.80 25.00 24.78 24.19 23.99 23.50 23.00

GFSMW_sfc_wetblb_084.txt.gz
Wetbulb
54.78 55.53 56.48 56.20 59.08 63.62 66.92 68.38 67.00 66.54 66.81 64.19 62.93 62.71 61.81 63.14 63.35 63.99 64.11 64.69 64.62 64.87 64.19 63.35 62.81 62.83 62.00 61.65 61.51 61.10 60.23 59.91 59.76 57.56 57.63 58.10 58.73 57.66 57.25 58.02 58.85 58.80 59.38
53.68 55.47 55.96 58.23 62.04 64.86 66.42 67.74 66.80 66.83 66.48 64.81 63.77 63.66 63.04 63.34 62.95 63.41 63.61 64.34 64.38 64.45 63.55 62.91 62.08 62.04 61.34 61.36 60.81 60.50 59.23 59.68 59.89 56.05 55.31 52.46 55.11 57.36 58.04 56.70 57.07 58.83 58.57
52.90 54.52 55.67 56.92 62.42 64.63 66.16 67.26 66.35 66.73 66.13 65.20 64.32 63.42 63.41 62.89 61.72 62.11 62.85 63.28 63.81 63.54 63.55 62.92 61.51 61.26 61.30 60.45 60.65 60.14 59.25 57.77 58.80 58.22 55.43 52.12 50.60 53.60 56.53 56.06 56.43 57.00 56.87
51.78 54.71 55.59 56.10 62.02 63.70 66.97 67.41 66.78 66.14 65.85 65.30 63.41 61.74 60.41 59.84 61.00 61.04 62.77 63.06 63.69 63.04 63.09 62.36 61.54 61.23 61.02 60.46 60.12 60.85 59.82 58.73 56.69 58.04 58.68 56.81 55.07 51.40 50.80 55.31 56.75 57.77 57.36
52.93 54.35 55.44 56.39 62.49 63.90 66.27 67.12 66.39 65.53 65.15 64.78 63.55 61.88 60.54 61.09 61.24 61.49 61.64 61.77 62.05 62.94 63.17 61.43 61.05 60.54 60.52 59.69 59.87 59.87 59.57 59.34 57.78 56.87 56.79 56.24 56.35 55.90 53.25 51.03 54.01 55.93 56.89
53.22 54.33 56.35 56.75 60.95 63.44 65.81 66.57 65.62 64.64 64.60 64.50 63.23 62.50 61.09 60.56 60.29 60.18 59.95 60.94 60.14 59.89 60.65 61.22 60.54 60.42 60.20 58.94 59.22 60.03 59.76 59.45 58.59 58.23 57.87 56.81 55.27 55.12 54.04 53.50 53.86 53.90 55.67
55.73 57.20 58.21 55.49 57.11 62.51 64.66 65.85 65.12 63.83 64.45 63.93 64.03 62.81 62.49 61.24 60.82 60.28 60.33 59.55 58.75 58.43 58.83 59.38 59.56 59.29 59.54 59.35 58.58 59.27 59.44 59.27 58.38 58.14 58.06 57.79 57.25 57.23 56.68 55.01 54.11 53.97 55.80
51.79 53.43 55.34 54.24 58.86 62.82 64.76 64.91 64.60 63.64 63.96 63.98 63.29 62.89 62.17 60.99 61.09 61.42 60.96 59.71 58.98 58.68 59.17 58.79 58.93 59.08 59.62 59.36 59.31 58.81 59.39 59.18 58.69 58.28 58.01 57.76 58.29 57.61 57.04 54.86 52.84 50.90 52.17
48.80 50.42 52.53 54.24 60.06 62.65 64.01 64.10 64.23 63.22 63.75 63.54 62.94 62.18 61.71 61.18 60.76 61.04 61.23 60.91 60.10 59.76 58.79 58.34 57.87 58.11 58.25 59.42 59.34 58.59 58.57 58.70 58.83 58.45 58.21 57.80 58.39 57.54 57.07 57.09 56.66 53.74 50.32
44.93 46.63 47.64 50.72 61.67 63.25 62.87 62.58 62.33 62.16 62.63 62.67 62.89 61.83 61.20 60.96 61.03 61.04 61.01 60.80 60.97 60.09 59.23 58.54 57.56 57.11 57.37 57.57 57.71 57.87 58.12 58.18 58.24 57.84 57.06 56.83 56.77 57.17 57.14 56.60 55.88 54.80 53.60
41.62 42.33 43.93 47.05 51.83 60.03 60.51 59.78 60.34 60.02 60.83 60.95 61.04 60.88 60.26 60.38 61.03 61.14 60.86 60.17 60.68 60.03 59.95 59.10 57.62 56.57 56.53 56.95 56.83 56.49 56.43 56.15 55.55 55.83 55.77 55.67 56.56 55.99 55.65 55.55 55.29 54.38 53.02
39.77 40.16 40.62 43.05 45.75 47.96 54.35 58.77 58.92 59.23 59.30 60.50 59.85 59.75 59.89 60.17 60.01 59.65 60.04 60.07 59.54 59.77 59.42 59.31 58.69 57.62 56.63 56.27 55.97 55.57 55.33 55.23 54.69 55.05 54.97 55.09 55.65 55.37 55.55 55.13 54.82 54.18 53.75
37.87 38.00 38.52 38.75 40.67 42.51 44.90 47.12 52.74 57.94 58.31 59.09 59.18 58.84 58.71 58.65 58.84 59.16 59.34 59.74 59.09 58.78 58.56 58.56 58.28 58.27 57.74 56.43 56.07 55.79 55.09 54.90 54.40 54.33 53.88 53.90 54.28 53.54 53.76 54.45 54.15 54.74 54.60
36.12 36.30 36.11 36.67 37.79 39.72 40.67 41.81 44.94 49.79 54.84 54.45 52.26 51.54 52.60 54.94 54.82 56.59 58.18 58.74 58.68 57.93 57.82 56.45 49.72 47.95 45.04 46.11 50.28 56.66 56.54 55.95 55.64 55.35 55.23 54.96 54.39 53.95 53.60 53.57 53.89 54.71 54.04
34.59 34.69 34.33 34.74 35.38 36.39 38.62 40.27 41.38 43.61 46.60 47.72 47.55 47.89 48.94 49.34 50.83 49.54 49.03 48.57 48.68 47.11 47.90 44.44 42.54 40.54 38.96 37.55 38.52 44.96 53.86 57.21 56.52 56.42 57.05 51.03 44.16 41.17 41.87 52.37 51.37 53.73 54.54
34.46 34.00 33.65 33.73 33.81 34.22 36.52 37.85 39.91 40.58 42.44 43.34 43.76 44.75 45.39 45.67 44.33 43.98 42.93 42.30 41.78 41.30 39.51 37.64 37.19 36.85 36.12 35.76 36.63 39.06 49.73 45.44 44.58 43.18 43.34 44.15 37.79 38.95 38.13 36.30 35.36 35.81 44.04
33.82 33.81 33.17 33.29 33.03 33.91 34.87 35.00 36.46 39.34 40.23 41.00 42.76 43.64 43.99 42.42 41.15 40.17 39.26 38.53 38.30 37.71 36.34 35.77 35.47 34.25 34.75 35.83 37.84 38.51 39.20 36.63 35.91 35.93 36.73 37.61 35.85 34.72 36.71 37.14 33.85 32.63 32.88
32.71 33.24 33.90 33.31 33.06 33.59 33.65 34.65 35.19 35.55 36.28 38.01 39.75 41.61 41.65 40.86 40.47 39.03 37.47 36.71 36.64 36.38 35.70 34.50 33.68 33.03 33.87 36.85 36.54 35.60 35.32 33.39 32.11 32.15 33.46 32.95 32.05 33.19 35.45 37.63 31.66 29.89 29.99
32.80 31.73 33.30 34.11 32.79 32.86 33.18 32.92 32.84 33.79 34.38 34.40 35.87 38.51 39.67 39.75 38.69 37.69 37.11 36.52 35.74 34.41 33.82 33.55 32.60 32.09 31.78 34.85 36.46 35.58 33.47 31.99 30.88 30.92 31.22 31.23 30.79 33.10 37.80 34.44 30.11 27.94 27.45
32.27 32.80 32.27 32.09 32.41 32.21 33.18 32.49 31.92 32.37 32.32 33.42 34.30 36.34 37.08 37.28 37.19 37.71 37.27 36.65 35.84 34.04 32.53 30.99 31.65 30.94 30.99 33.29 34.72 34.69 32.84 30.34 29.14 29.35 29.69 31.17 30.11 30.93 31.57 30.02 27.99 25.26 25.46
32.62 33.16 34.22 32.45 32.09 32.09 32.09 31.04 31.65 31.41 32.50 33.02 33.85 34.08 34.87 35.43 35.44 35.70 36.61 35.58 34.22 33.42 31.90 30.67 29.61 29.43 29.87 30.62 32.64 34.46 32.44 29.73 28.13 27.57 27.37 28.28 30.13 30.81 31.33 29.88 27.50 26.53 28.35
33.45 34.17 32.86 33.62 34.37 34.49 33.66 31.88 30.20 31.90 32.05 32.30 32.54 32.32 33.42 34.71 34.30 34.88 34.81 34.99 33.61 32.55 31.38 30.47 30.31 30.04 29.41 29.88 30.30 30.41 30.51 30.07 27.82 27.06 28.10 28.48 29.30 29.58 29.81 29.40 30.39 31.11 30.21
32.85 33.28 32.21 31.46 32.88 33.61 33.52 31.29 31.60 32.99 32.80 32.39 31.73 31.31 31.47 30.96 30.35 29.23 31.51 31.72 32.35 31.54 30.04 28.90 27.74 27.43 28.56 30.14 30.42 29.94 29.75 29.55 28.22 28.48 28.92 29.03 28.83 28.71 27.55 28.58 28.63 27.64 28.03
30.93 31.53 30.45 29.83 30.32 32.28 32.88 33.03 33.44 32.80 31.56 29.12 28.10 27.33 25.92 26.20 27.66 27.18 26.72 26.06 28.36 28.41 28.50 28.18 26.05 24.95 24.51 25.43 27.98 29.59 29.76 29.57 29.89 29.39 29.01 28.17 28.30 27.47 24.27 23.67 24.30 24.40 25.72
28.70 29.42 28.29 27.29 26.91 28.00 28.43 31.25 33.11 33.18 31.18 29.56 28.07 26.96 25.94 24.06 23.45 24.42 24.78 24.28 25.09 26.48 25.38 23.97 24.83 22.87 22.04 24.34 26.65 27.20 27.05 28.30 28.64 28.97 27.83 26.24 25.16 22.14 21.51 20.57 20.20 20.29 20.26
26.76 26.24 26.22 25.67 25.54 26.34 27.26 28.41 30.74 32.18 30.66 29.55 29.68 29.58 27.72 26.21 24.19 22.40 21.66 25.37 25.41 25.68 25.56 25.98 24.39 23.84 24.81 25.64 26.19 26.89 27.59 28.51 29.16 25.24 22.89 21.55 20.00 18.60 18.51 18.25 17.64 17.66 17.01

GFSMW_sfc_wetblb_087.txt.gz
Wetbulb
49.57 52.06 52.74 53.95 52.02 51.83 65.42 65.95 65.35 65.34 64.32 63.17 61.70 61.06 60.64 63.37 61.45 61.51 62.45 62.54 62.45 62.98 61.34 61.74 62.89 62.37 61.03 61.55 61.08 61.11 60.48 60.23 60.70 57.84 56.83 56.36 55.64 54.56 57.07 57.64 57.65 56.88 57.62
48.47 51.97 52.26 51.70 51.29 56.58 65.55 65.68 65.21 64.92 63.41 63.02 62.05 60.05 59.71 62.08 60.27 60.43 61.44 63.54 62.30 62.05 61.70 62.39 62.05 61.74 61.46 61.17 61.16 60.56 60.00 59.95 60.21 56.50 55.37 52.37 54.20 55.92 54.86 57.08 57.35 56.12 57.66
47.03 50.22 51.78 51.75 52.43 61.78 64.88 64.72 64.70 64.65 63.20 62.30 61.92 60.98 60.07 59.37 58.87 59.79 60.39 62.45 63.36 62.46 62.24 62.02 61.95 61.75 61.57 60.78 60.73 60.47 59.62 58.20 59.40 58.12 54.89 51.46 49.91 53.67 54.87 54.55 56.31 56.52 57.24
48.48 49.79 51.20 51.08 56.74 64.07 65.41 64.52 64.52 64.29 62.73 62.32 60.90 60.37 59.53 58.30 58.38 59.38 61.40 60.87 61.59 62.39 62.51 62.38 61.89 61.44 61.46 60.97 60.72 60.76 59.85 59.09 57.25 57.19 57.22 55.93 54.94 51.13 50.08 53.78 54.42 55.75 56.29
46.90 48.48 49.73 51.62 57.55 63.63 64.73 64.27 64.33 64.13 62.98 61.99 60.78 59.64 57.87 57.72 57.95 58.72 59.70 60.37 61.04 61.53 61.32 61.06 61.36 60.94 61.15 61.05 61.05 60.27 59.48 59.36 58.30 56.84 55.61 54.20 54.81 54.34 52.22 49.76 51.66 53.83 55.35
50.13 51.57 52.77 54.11 54.55 62.61 64.38 63.89 63.55 63.32 62.65 61.55 60.59 59.86 58.20 57.83 57.85 57.70 58.55 58.43 59.73 60.52 60.87 61.04 61.08 61.23 60.81 60.47 60.65 60.46 59.82 59.18 58.72 58.16 57.05 55.33 54.34 53.55 52.98 51.08 51.44 52.22 53.15
47.43 48.13 48.52 49.69 52.03 54.31 62.81 63.06 62.55 61.96 62.08 60.85 60.65 59.98 59.17 57.47 57.48 58.31 58.56 58.85 57.73 57.42 58.31 60.14 59.98 60.15 60.41 60.33 60.53 60.04 59.47 59.26 58.43 58.02 57.50 57.53 56.13 56.15 55.63 53.95 53.79 52.69 52.95
45.26 45.76 46.54 46.85 49.19 54.00 61.75 62.76 61.67 61.28 61.34 61.04 60.65 61.15 59.53 58.55 58.94 59.51 59.18 58.20 58.33 57.78 58.13 58.65 59.71 59.62 60.03 59.59 59.78 59.82 59.43 59.34 58.54 57.75 57.78 57.71 57.64 56.82 56.10 54.33 53.00 50.60 52.25
42.25 43.63 45.36 45.90 48.86 57.85 61.08 61.82 61.65 61.49 61.55 61.23 61.43 60.70 59.25 59.04 58.50 58.73 58.97 58.90 58.92 58.94 58.29 58.47 58.57 59.21 59.01 58.81 58.72 58.76 58.81 58.71 58.42 57.52 57.62 57.53 57.98 57.05 56.64 56.16 54.56 51.08 47.72
40.42 41.87 42.60 44.07 47.37 50.67 57.33 59.03 61.11 61.08 61.49 61.83 61.10 60.16 59.42 59.05 59.78 60.50 59.87 58.50 58.72 58.81 58.36 57.79 57.77 57.69 58.23 58.97 58.44 57.82 58.34 58.39 58.10 57.68 57.08 56.72 56.62 56.40 56.28 54.91 53.91 53.63 51.36
38.87 39.51 40.34 41.99 44.65 47.02 49.27 51.65 58.89 59.52 60.91 60.84 60.20 59.48 59.47 59.91 60.42 60.28 60.20 59.97 59.19 58.61 58.28 58.02 57.14 57.02 56.98 57.39 58.43 57.96 58.01 57.44 57.28 56.72 56.70 56.02 56.16 55.16 55.44 54.99 53.39 53.59 53.02
38.13 38.16 38.24 38.80 40.42 42.71 44.38 47.15 51.19 58.28 58.93 59.46 59.04 58.87 59.18 59.86 59.75 59.51 59.08 59.79 59.48 59.47 58.48 58.16 57.28 56.78 56.70 56.80 56.56 56.84 57.36 56.74 56.22 55.62 55.36 55.06 55.64 54.67 55.07 55.02 54.05 53.85 53.59
36.83 36.86 36.51 36.36 37.15 39.95 40.70 42.28 45.06 53.60 58.13 58.60 58.16 58.11 58.49 58.86 58.42 58.58 58.87 59.08 58.67 58.15 58.32 58.45 57.78 57.02 56.52 56.32 56.36 56.26 55.92 56.26 56.14 55.64 55.38 54.76 54.90 54.26 54.29 54.09 53.66 53.93 54.05
35.22 35.29 35.04 35.20 35.59 37.09 37.94 40.54 41.78 45.40 51.81 52.58 52.92 52.42 53.88 54.05 53.30 54.02 55.49 56.34 56.85 52.88 49.47 48.33 47.02 46.66 46.22 48.94 54.43 56.02 55.40 55.44 55.23 55.23 55.41 54.81 54.85 54.52 54.12 53.85 53.39 53.35 52.53
33.84 33.64 33.73 33.96 34.64 35.20 36.26 37.44 39.80 42.02 45.53 48.17 48.42 48.64 49.85 49.33 47.89 46.93 46.79 46.03 45.57 45.19 44.76 42.77 41.51 40.86 40.34 39.08 43.30 51.44 54.18 55.32 53.26 51.94 45.08 42.12 41.54 39.31 40.55 51.97 50.59 51.67 53.09
33.00 32.98 33.28 33.18 33.26 33.65 34.58 35.83 36.85 39.24 42.81 43.77 44.68 45.25 44.49 43.68 43.16 42.20 41.85 41.13 40.14 39.09 38.42 37.32 37.72 38.24 38.41 37.43 38.17 44.10 43.25 43.17 42.88 42.62 41.71 38.59 38.75 37.05 35.90 35.50 34.46 34.75 40.32
32.04 32.29 32.42 32.74 32.82 33.04 33.80 33.58 35.75 37.45 38.29 41.14 42.23 41.91 41.36 39.72 39.38 39.33 38.88 37.54 36.61 36.21 35.50 35.61 36.16 37.13 37.75 36.77 37.00 36.75 36.42 35.51 35.56 35.78 36.60 35.91 35.78 37.35 35.13 33.46 32.70 32.24 32.25
31.01 31.70 32.61 32.76 33.47 33.86 33.61 34.33 34.77 35.36 35.48 36.87 39.67 40.18 39.64 38.74 38.20 37.17 36.14 35.71 35.17 33.96 33.59 33.30 34.07 35.28 36.18 35.51 35.02 34.08 33.42 32.43 32.10 32.23 32.45 32.96 34.38 36.57 35.16 31.83 30.41 29.77 29.91
32.34 31.36 33.05 33.28 32.48 32.63 33.98 33.70 33.40 33.78 33.89 33.46 35.03 37.83 38.50 37.49 36.90 35.59 34.73 34.53 33.55 32.38 31.68 32.14 32.22 33.19 34.17 35.46 34.44 33.23 31.79 30.64 30.45 31.31 31.48 31.63 32.17 35.14 34.57 30.96 28.35 27.22 27.67
31.93 32.40 32.37 32.01 31.97 31.74 32.49 32.46 31.98 32.29 31.76 32.33 33.02 34.68 35.72 36.37 35.75 34.66 33.90 33.32 31.99 30.90 30.67 30.25 31.27 32.30 32.38 33.86 33.78 32.44 30.45 28.30 27.96 28.96 30.03 31.85 30.57 31.34 30.92 29.02 27.72 26.03 26.27
32.33 33.08 34.08 31.89 31.83 32.37 32.22 30.32 30.41 29.97 31.89 32.42 32.36 32.84 33.53 33.19 34.30 34.59 33.93 32.46 31.31 30.34 29.21 28.87 29.27 30.08 30.90 31.69 32.42 31.68 29.68 28.10 27.44 27.51 27.90 29.73 31.65 32.14 31.78 30.76 28.95 27.58 28.36
33.04 33.40 32.36 32.96 34.78 33.98 32.80 30.24 29.58 31.39 31.90 31.84 31.32 30.97 30.90 31.24 32.17 32.52 32.46 32.63 31.44 29.94 29.32 28.69 28.10 28.75 29.39 30.69 30.82 30.55 29.92 29.27 27.29 26.92 27.94 28.72 30.24 30.38 30.30 29.53 30.57 30.07 26.93
31.35 32.07 31.11 30.91 31.58 32.98 32.51 29.92 31.24 31.87 30.32 28.20 27.02 26.85 28.27 28.13 28.14 27.60 29.10 30.96 30.84 29.00 26.99 26.12 25.30 25.70 27.35 29.84 30.23 30.04 29.73 29.26 27.68 28.14 28.75 28.83 28.22 27.67 27.29 28.31 28.22 26.24 25.17
29.12 29.16 27.75 26.70 27.12 29.51 30.78 31.76 31.22 30.28 28.76 26.70 26.17 25.99 25.56 25.42 25.90 25.94 25.99 26.11 26.75 26.21 26.26 24.46 23.06 23.78 24.93 26.33 28.36 28.94 29.41 29.00 28.89 28.27 27.81 26.69 25.01 23.41 22.57 22.20 22.28 21.70 20.65
26.18 26.77 25.97 25.48 25.98 27.28 27.80 29.59 31.93 31.44 28.24 26.82 25.61 24.26 23.91 23.87 23.69 24.19 23.88 24.35 25.84 24.88 23.02 22.94 23.03 22.02 22.41 25.66 28.27 27.79 27.18 27.74 27.01 25.50 24.08 22.32 21.04 20.07 18.80 18.62 18.44 18.57 19.37
24.29 23.55 23.82 23.98 24.50 25.27 26.51 28.19 29.14 30.12 29.28 28.44 28.09 25.90 24.07 22.98 22.01 21.39 21.40 25.70 25.93 26.39 26.43 25.39 23.58 23.67 26.38 27.59 28.35 29.00 29.30 28.34 26.25 22.00 19.32 18.01 17.61 17.29 17.23 16.28 15.62 16.40 16.10

GFSMW_sfc_wetblb_090.txt.gz
Wetbulb
47.78 47.21 50.26 50.27 51.08 51.56 61.20 65.32 65.89 65.59 65.21 64.14 62.87 62.24 62.23 62.56 61.80 62.58 62.13 63.22 63.45 63.21 62.71 61.31 62.11 63.52 61.93 61.23 60.49 60.07 59.60 60.03 61.26 60.34 57.50 56.03 57.92 58.17 58.21 58.13 57.94 57.17 57.43
48.12 48.73 47.75 49.22 49.12 50.12 60.20 64.92 65.18 64.70 65.01 64.30 63.54 62.22 61.54 61.49 63.07 60.84 60.83 61.62 61.28 61.82 61.75 61.69 61.65 62.42 60.86 60.81 60.53 59.95 59.27 59.12 60.93 57.76 55.62 51.90 53.46 54.62 56.61 56.72 56.66 56.14 56.61
48.97 48.67 49.18 47.48 48.82 50.15 62.32 64.41 64.83 64.33 64.26 63.67 60.92 60.24 58.94 58.83 60.29 61.06 59.13 60.29 61.03 61.24 61.50 62.17 62.40 61.74 60.96 60.36 60.88 60.16 59.28 58.15 59.19 59.14 55.38 51.29 49.96 52.95 53.89 53.77 55.74 54.53 55.53
48.87 49.49 49.81 50.85 49.61 51.15 62.34 64.71 64.88 64.23 63.38 62.31 61.15 60.11 59.30 58.18 59.58 60.91 58.28 59.16 60.64 60.59 61.27 62.22 61.77 61.44 61.65 60.75 60.28 60.51 59.91 59.89 57.16 57.68 58.51 56.02 54.88 50.82 49.94 52.80 54.16 55.57 55.12
46.86 47.51 48.85 50.16 51.72 58.43 62.83 64.52 64.63 63.29 62.32 62.43 61.11 59.75 58.43 57.37 58.65 58.40 57.84 58.04 58.56 59.87 61.35 61.75 61.66 61.27 61.08 60.94 60.33 60.35 59.79 59.95 58.02 56.79 55.78 54.68 54.91 53.87 51.49 50.19 51.62 53.43 55.57
45.29 46.55 48.57 49.06 48.87 52.18 62.47 63.85 63.73 62.34 62.10 61.76 60.68 59.53 58.59 57.31 57.71 58.00 57.94 59.14 59.61 59.83 60.61 61.59 61.65 61.39 60.98 60.82 60.62 60.74 59.86 59.60 59.11 57.93 56.48 55.12 53.87 53.00 52.28 50.92 50.40 52.16 52.71
43.64 44.64 45.94 46.76 47.98 50.61 53.75 62.96 62.70 61.09 61.50 60.54 60.05 59.43 59.14 58.24 57.86 57.57 57.72 58.74 59.06 59.61 60.43 60.71 60.77 60.83 60.95 60.83 60.96 60.59 60.05 59.69 58.57 57.67 56.77 56.59 55.56 56.06 54.91 53.71 51.86 51.66 52.67
42.27 42.95 44.57 44.84 46.89 50.25 55.32 62.47 61.89 60.10 60.15 59.75 59.30 59.39 58.85 58.24 57.99 58.39 58.99 58.43 58.61 58.72 58.92 59.79 60.19 60.22 60.36 60.56 60.81 60.65 60.07 59.68 59.00 58.08 57.59 57.30 57.19 56.35 56.16 54.20 52.55 50.51 51.44
40.68 41.29 42.55 42.72 44.96 47.44 52.30 58.91 61.77 61.03 59.91 59.73 59.54 58.90 58.69 57.66 57.75 58.07 58.68 58.14 58.71 57.95 57.49 57.86 58.14 58.95 59.32 59.52 59.47 59.91 59.18 59.32 58.97 58.17 58.03 57.77 57.55 56.98 56.53 55.62 54.81 52.58 49.73
38.92 39.21 40.01 41.00 43.67 46.04 48.58 54.62 59.16 60.23 60.20 59.86 60.06 59.34 58.86 58.68 59.15 58.51 57.85 58.29 58.34 58.42 57.63 57.80 57.92 58.42 58.54 58.64 58.76 58.95 59.06 58.54 58.58 58.33 57.38 56.76 56.94 56.49 56.02 55.31 54.63 53.50 51.50
37.07 37.22 38.19 39.95 41.84 44.04 45.60 48.87 52.56 59.64 59.53 59.74 59.47 58.43 58.51 59.54 59.62 58.80 58.41 58.62 58.41 58.39 57.89 57.53 57.66 57.24 57.58 58.14 57.72 57.60 58.00 57.95 57.80 57.84 57.26 56.18 56.34 56.06 55.26 54.55 53.92 52.99 52.29
35.96 36.39 36.64 37.26 39.07 39.45 42.54 44.44 46.95 50.62 58.53 59.10 58.85 58.82 59.46 59.76 59.35 59.43 59.51 58.95 58.31 58.18 58.09 57.88 57.28 57.22 57.04 57.06 57.56 57.14 57.30 57.10 56.60 56.62 56.24 55.57 56.20 55.49 55.38 54.44 53.41 52.78 52.84
34.36 34.86 35.08 35.35 36.14 37.15 38.76 41.45 44.41 46.17 54.37 58.40 58.16 58.39 58.54 58.64 58.78 58.70 59.29 59.47 59.06 58.50 58.18 57.76 56.96 56.76 56.68 56.68 56.56 57.20 57.20 56.94 57.19 56.75 55.98 55.43 55.57 54.47 53.87 53.48 53.28 53.56 53.98
33.30 33.51 33.52 34.16 35.06 36.30 36.52 38.02 41.63 44.82 47.66 53.75 55.26 54.11 53.67 53.78 53.74 54.01 53.63 54.29 52.86 51.32 49.70 49.36 49.01 49.42 49.80 52.82 56.15 56.54 56.48 56.60 56.56 56.46 56.58 56.00 55.78 55.09 54.57 53.74 53.23 53.19 52.98
32.41 32.68 32.11 32.85 33.62 34.56 35.60 36.59 38.26 41.48 44.97 47.34 48.43 48.93 48.41 48.42 48.27 47.16 46.00 45.01 44.30 44.26 44.45 43.71 42.66 42.52 42.26 41.63 47.96 54.16 55.37 54.59 47.56 45.58 43.38 41.61 41.02 39.91 42.80 53.11 51.37 52.76 52.30
31.65 31.90 32.06 32.30 32.13 33.14 34.16 35.89 36.56 37.78 41.92 42.27 42.53 44.22 44.78 43.51 42.22 41.65 41.03 40.06 39.35 39.08 39.11 38.60 39.76 39.74 39.48 38.36 39.63 44.94 45.37 45.20 43.01 40.25 39.68 39.55 37.30 35.93 35.54 35.35 34.31 35.09 42.80
30.99 31.12 31.38 31.17 32.00 32.18 33.85 34.32 35.87 37.48 37.71 40.13 41.25 39.89 39.81 39.74 39.04 38.40 37.45 36.41 35.94 36.22 35.96 36.95 37.12 35.86 35.84 35.96 36.40 36.94 37.53 36.69 37.03 37.32 37.30 37.43 36.69 35.47 34.06 33.17 32.81 32.33 32.68
30.78 31.30 31.44 31.47 31.86 32.61 32.76 34.57 35.28 35.58 35.84 36.03 37.77 38.05 37.58 36.62 36.45 35.77 34.53 34.09 34.03 33.57 33.84 34.99 35.82 34.55 34.42 34.42 34.33 33.96 33.57 32.41 32.23 32.95 34.40 35.60 36.50 34.21 33.29 31.72 30.38 30.06 30.27
32.41 31.20 31.99 32.04 31.61 31.68 32.25 32.64 32.96 33.59 33.39 33.07 34.27 35.79 35.41 34.23 33.66 32.22 32.17 32.52 32.10 31.90 32.04 33.17 33.91 33.38 33.06 33.53 33.22 32.58 31.47 30.83 31.02 31.97 32.40 33.93 33.35 33.57 33.65 30.52 28.83 28.64 29.40
32.12 31.79 31.78 31.49 30.51 30.89 32.23 31.63 30.96 31.17 30.99 31.90 32.31 33.39 34.08 33.22 31.91 31.78 31.28 31.28 30.98 30.33 30.52 30.35 31.56 32.91 32.53 33.08 32.48 31.74 30.49 29.08 29.46 30.61 30.96 31.71 31.39 32.00 31.52 29.70 28.70 27.02 27.65
31.95 32.76 33.21 31.40 32.00 32.33 31.63 29.85 30.11 29.17 30.55 31.28 31.56 31.38 32.19 32.30 32.39 32.19 31.89 31.13 30.21 29.34 28.75 28.66 29.59 30.31 31.16 31.58 32.24 31.55 29.87 28.98 28.50 28.86 29.51 31.33 32.17 31.94 31.60 30.73 28.68 27.00 27.46
30.52 30.87 29.45 29.08 32.25 32.69 31.82 30.05 28.22 29.11 28.82 28.58 28.43 28.36 28.72 29.50 30.55 31.69 31.60 31.22 29.87 28.49 27.75 27.62 27.75 29.12 29.89 31.24 31.47 31.13 30.14 29.91 27.86 27.44 28.86 29.98 31.10 31.20 30.86 29.56 29.37 28.37 23.75
27.94 28.52 27.45 27.32 28.07 30.27 31.67 29.30 29.97 29.68 28.58 27.23 26.37 26.20 26.41 26.67 27.43 27.41 28.11 28.53 28.03 26.73 26.27 26.17 25.97 26.62 28.83 29.51 30.75 30.40 29.75 29.14 27.43 27.88 28.04 27.88 27.24 26.68 26.04 27.20 26.59 23.99 22.55
25.65 26.33 25.77 25.15 25.57 28.55 29.71 29.55 28.71 28.59 27.30 25.68 25.33 25.73 25.34 25.06 25.48 26.03 26.79 25.69 25.39 25.25 24.78 24.23 23.86 25.19 26.19 27.10 28.36 29.16 29.23 28.75 27.11 24.90 23.93 23.09 22.79 21.25 21.03 21.39 21.52 20.89 20.12
23.47 24.08 23.66 23.71 24.33 26.60 27.62 29.16 32.16 29.55 26.57 25.72 25.12 24.28 24.21 24.47 24.29 24.82 24.88 24.64 25.07 24.87 23.29 23.22 24.08 24.00 24.62 27.29 29.14 28.51 26.80 25.85 25.11 23.50 22.26 20.67 19.55 18.08 18.05 17.97 18.12 18.67 18.55
21.89 21.26 21.97 22.05 22.36 23.35 24.64 27.08 28.75 29.57 28.63 26.42 24.79 23.64 22.66 22.16 21.99 21.74 22.58 26.92 26.90 26.43 26.32 26.15 24.98 26.23 28.21 29.53 29.84 28.66 27.19 25.94 24.10 19.95 17.44 16.36 16.14 15.18 15.24 14.89 15.25 16.13 16.01

GFSMW_sfc_wetblb_093.txt.gz
Wetbulb
47.61 50.29 47.45 47.54 48.33 46.76 47.87 57.93 64.84 66.13 66.17 64.85 64.09 63.81 63.47 63.38 63.51 63.90 64.21 63.76 64.20 63.77 63.39 62.76 61.94 61.77 61.50 61.24 61.82 61.53 60.08 59.05 60.77 59.97 57.40 56.46 58.78 59.45 59.68 59.62 58.94 57.60 57.83
47.78 49.52 50.34 51.43 47.10 48.48 49.66 56.82 64.16 65.51 65.84 65.30 64.72 63.58 64.61 63.85 63.61 63.48 63.62 64.06 62.94 62.87 62.99 62.05 61.57 62.28 61.97 61.79 60.72 60.43 59.10 59.50 60.58 58.40 55.52 52.01 54.10 56.21 58.04 58.21 58.29 57.01 57.28
45.58 46.80 48.63 49.04 49.76 48.85 50.01 59.83 63.32 65.06 65.44 65.28 62.42 60.21 60.89 61.04 61.10 61.70 62.53 62.31 61.74 61.65 62.43 61.12 62.41 62.01 61.55 60.81 60.34 60.23 59.59 58.49 60.09 57.47 55.68 51.61 50.74 53.73 54.78 55.66 56.55 55.86 55.64
45.99 45.98 46.90 47.93 48.35 49.10 51.31 60.03 63.61 64.38 65.15 64.26 61.84 60.62 61.04 60.33 61.92 62.49 62.54 60.87 60.57 60.83 60.92 60.78 61.94 62.16 61.40 60.24 60.23 60.70 59.88 58.60 58.00 58.84 58.31 56.53 55.16 52.09 50.36 53.77 54.51 54.59 55.37
44.65 44.17 46.76 47.46 47.87 49.47 51.02 59.07 63.62 64.05 64.60 63.12 62.48 60.94 60.14 60.01 58.76 59.56 60.29 59.18 59.73 60.67 61.71 62.13 61.82 61.06 60.99 60.78 60.57 60.57 59.96 59.37 58.26 58.10 56.74 55.49 55.32 54.58 52.69 50.51 51.68 53.08 54.70
43.14 44.48 45.58 46.50 46.37 48.46 51.48 59.44 62.40 62.97 63.43 62.60 61.34 61.07 58.98 57.85 58.06 58.70 58.74 58.06 58.77 60.27 60.92 60.87 61.42 61.39 60.66 60.74 60.01 60.05 59.89 59.87 59.51 58.26 57.46 55.53 53.70 53.07 52.44 50.88 51.43 51.92 52.56
42.16 42.54 42.13 42.72 44.01 45.76 48.93 56.75 63.17 62.63 62.00 62.08 60.52 59.79 58.34 58.37 57.97 58.07 58.12 57.78 58.43 58.65 59.52 61.15 60.99 60.72 61.06 60.71 60.69 60.13 59.79 59.69 59.01 58.00 56.91 56.77 55.93 55.90 54.79 53.28 51.09 50.30 51.70
40.72 40.74 40.81 41.26 42.24 44.63 47.16 52.19 62.81 61.65 61.78 61.13 60.17 59.42 58.69 58.48 58.26 58.10 57.95 58.31 58.68 59.11 59.64 59.65 60.40 60.95 60.66 60.75 60.72 60.34 60.30 60.09 59.51 58.19 57.21 56.45 56.25 56.48 55.74 54.00 52.96 50.47 50.88
38.99 38.96 39.59 40.39 41.70 42.93 45.31 47.84 60.05 60.69 61.21 60.27 59.68 59.03 58.78 58.10 57.57 57.57 58.65 58.86 58.82 58.73 58.93 59.96 60.01 59.73 60.05 60.11 60.13 59.99 59.77 59.75 59.50 58.85 57.37 56.80 56.92 56.68 56.45 55.85 54.93 52.53 49.10
36.95 37.28 37.71 38.69 41.06 42.03 43.92 46.57 51.99 60.15 60.06 59.88 59.38 58.94 58.42 58.12 57.57 57.82 57.02 57.16 56.48 56.90 57.74 57.50 57.72 57.94 58.30 58.67 58.95 59.07 59.70 59.54 59.30 58.54 57.29 57.03 57.16 56.66 56.56 55.57 55.25 54.16 52.27
35.00 35.62 36.20 37.70 39.67 41.61 42.12 44.34 47.73 57.88 59.19 59.30 59.06 58.30 57.73 57.65 57.60 57.28 56.60 56.58 56.66 57.22 56.94 57.49 56.88 56.38 57.46 57.69 57.74 57.92 58.30 58.30 58.36 58.29 57.43 56.79 56.94 55.65 54.82 54.74 54.19 53.40 53.17
34.36 34.74 35.24 35.82 37.04 38.87 40.93 42.24 43.86 48.54 54.61 59.43 58.68 57.96 58.13 58.29 58.07 56.90 56.76 57.02 56.60 56.26 56.14 57.16 57.26 57.34 57.18 57.38 57.16 56.78 57.02 57.26 57.06 57.32 57.30 56.73 56.83 55.40 54.60 54.12 53.48 53.30 52.73
33.63 33.76 33.82 34.01 34.62 36.17 38.59 39.78 41.14 44.38 48.20 56.92 58.42 58.04 58.38 58.59 58.63 58.93 58.06 58.41 56.98 57.24 57.60 57.36 56.88 56.92 56.98 56.66 56.82 56.96 56.64 57.32 57.26 57.12 56.76 56.00 56.40 55.66 54.75 53.95 53.43 53.13 53.14
32.75 32.61 32.18 32.71 33.52 34.58 35.72 37.49 38.66 42.14 44.71 47.48 52.93 55.53 57.42 57.32 56.36 55.83 55.96 55.24 54.36 52.02 50.59 50.52 49.70 50.11 51.56 54.45 56.25 56.84 56.82 56.78 56.94 57.00 57.03 56.36 56.26 55.50 54.80 53.90 53.55 53.29 52.81
31.40 31.67 31.28 31.56 32.44 33.10 34.35 35.98 37.89 39.44 42.80 43.06 43.21 44.67 48.69 50.75 49.51 48.08 47.02 46.23 45.47 45.06 45.22 44.47 43.36 42.97 42.93 42.22 44.80 54.71 55.59 51.08 47.81 46.18 44.30 43.84 44.19 44.64 50.14 54.54 53.61 53.17 52.19
30.99 31.28 31.26 31.49 31.78 32.36 33.13 34.79 36.21 37.74 40.25 39.41 39.39 40.48 40.90 42.26 41.40 41.23 40.96 40.58 39.88 40.29 40.38 39.15 38.38 37.86 38.06 37.19 39.49 47.05 46.87 45.49 43.51 40.44 39.18 38.70 37.87 36.52 36.19 36.19 35.08 37.53 50.37
30.21 30.57 30.81 31.17 31.73 31.78 32.69 33.07 34.38 36.11 36.89 37.26 37.10 36.45 37.03 36.78 36.76 36.55 36.56 36.46 36.51 37.71 36.97 36.01 35.62 34.58 35.28 35.83 36.61 37.43 38.71 38.15 38.25 38.60 38.60 36.71 35.81 35.01 34.04 33.56 33.13 32.86 32.83
29.93 30.20 30.59 30.68 31.10 32.21 32.57 32.68 33.18 33.50 33.59 33.83 35.23 36.09 34.78 33.05 33.62 33.71 33.31 33.56 34.10 34.49 35.01 34.40 34.02 33.42 33.74 34.39 34.48 34.42 34.61 33.89 33.57 34.41 36.75 35.55 34.13 33.87 33.54 32.39 31.05 30.45 30.23
31.29 30.94 31.50 31.38 31.05 31.07 32.14 31.97 31.48 31.30 31.41 31.47 32.10 33.02 34.25 32.90 32.39 31.19 31.15 31.59 31.52 31.72 32.25 33.37 32.89 32.20 32.45 33.50 33.31 33.02 32.40 31.47 31.56 33.20 34.02 33.47 32.68 33.72 34.39 31.46 29.74 29.07 29.24
31.75 31.35 31.77 31.87 31.33 31.05 31.21 30.02 28.89 28.71 28.49 29.86 30.43 31.97 32.28 32.06 31.72 31.17 30.68 30.91 30.73 30.14 30.32 30.25 31.19 32.42 31.70 33.16 33.04 32.22 31.48 30.25 30.14 30.67 31.35 32.39 31.73 32.13 32.09 30.49 29.36 26.97 26.84
30.18 29.60 29.28 29.63 30.79 31.42 29.75 26.56 26.16 25.59 27.60 29.32 29.81 29.87 30.33 31.51 31.66 31.41 31.17 30.63 29.83 29.31 28.94 28.67 29.37 30.07 30.91 31.45 32.45 32.06 30.51 29.84 29.62 29.85 30.30 31.29 32.07 31.86 31.20 30.17 28.25 26.55 25.30
26.65 26.93 27.30 27.61 29.35 29.75 29.09 26.46 26.03 26.87 27.55 27.60 27.00 26.88 28.04 28.88 29.82 29.43 28.90 28.92 28.60 27.82 27.82 27.67 27.80 28.90 29.82 31.07 31.34 31.11 30.49 30.31 28.49 27.73 29.25 30.43 31.29 30.74 29.87 28.21 27.76 25.54 23.05
25.07 25.90 25.55 26.18 27.71 28.89 27.89 25.93 27.04 26.99 26.19 25.53 25.63 25.91 26.21 26.45 27.43 26.81 26.95 26.66 26.87 26.23 26.12 26.23 26.14 26.62 28.67 29.28 30.43 30.01 29.44 28.45 26.25 26.61 26.92 26.70 26.44 26.19 26.00 26.43 25.22 22.61 20.51
22.39 23.65 23.76 23.22 24.23 27.02 28.50 28.17 27.86 27.24 25.99 24.80 24.84 25.46 25.52 25.02 25.77 26.03 25.84 24.82 24.82 24.44 24.63 25.04 25.19 25.98 26.88 27.50 28.66 27.98 26.15 25.65 24.11 23.14 22.72 22.93 22.49 21.04 20.87 20.72 21.04 20.00 19.08
20.78 21.39 21.17 21.68 22.21 24.45 25.58 27.87 30.22 27.97 26.02 24.88 24.55 24.00 23.82 24.13 24.76 25.30 24.69 24.85 25.79 25.61 24.06 24.53 25.40 25.47 25.87 27.80 28.67 26.70 24.86 23.77 23.23 22.09 21.17 19.61 18.83 17.79 18.02 17.96 18.38 18.57 18.23
18.76 18.65 19.19 19.45 20.50 21.63 22.60 24.45 27.39 28.71 27.04 24.38 23.72 23.06 22.49 22.70 22.81 23.66 24.64 28.34 28.05 28.20 28.25 28.40 27.67 29.02 30.12 29.66 28.93 27.94 26.68 25.26 23.29 19.32 16.98 15.93 15.76 15.54 15.63 15.38 15.12 15.30 14.87

GFSMW_sfc_wetblb_096.txt.gz
Wetbulb
47.84 48.43 49.15 50.13 50.34 49.81 47.55 45.87 53.98 64.23 66.25 66.57 64.88 64.13 63.54 64.48 65.05 64.91 64.52 64.32 64.00 63.49 63.37 62.32 61.13 61.79 61.41 61.47 61.34 61.33 60.46 59.77 61.12 59.51 57.26 57.18 59.32 60.43 60.65 60.73 59.70 59.37 58.75
46.93 47.91 47.84 48.45 48.93 48.83 49.57 49.36 49.69 61.24 65.38 65.90 65.76 64.37 64.82 64.67 64.98 64.87 64.62 64.88 64.24 63.83 63.51 62.60 61.86 61.20 61.08 61.08 61.15 60.95 59.95 60.18 61.28 58.34 56.24 52.65 54.93 57.24 59.53 59.47 59.14 57.77 57.91
44.83 45.43 46.15 47.41 47.82 47.44 48.01 49.69 50.69 58.33 64.61 65.45 65.61 61.46 62.83 61.82 61.32 62.56 63.05 63.54 63.92 63.37 63.36 62.60 61.77 61.55 61.69 60.81 60.99 60.84 60.04 58.77 60.15 59.10 55.90 51.49 51.12 54.11 55.99 57.78 58.14 57.00 57.06
44.70 44.22 44.53 45.35 46.23 46.89 47.70 49.05 52.02 54.47 64.32 65.52 64.70 62.92 62.43 61.08 62.23 62.10 62.67 62.82 63.22 62.86 63.03 62.08 61.79 61.22 61.90 61.57 61.03 61.13 60.27 59.37 57.94 58.48 58.23 56.31 55.22 52.90 50.66 54.77 56.03 56.26 56.14
43.07 41.86 43.46 43.89 45.49 46.40 46.47 49.00 51.41 55.72 63.40 64.92 64.04 62.33 61.91 61.93 61.84 62.22 58.41 61.19 61.81 62.18 62.20 61.74 61.12 61.73 61.72 61.41 60.78 60.45 60.12 59.77 58.64 58.69 57.18 55.82 55.54 55.10 53.29 51.52 52.29 54.39 55.54
42.44 42.31 42.91 43.32 43.26 45.09 45.70 47.41 50.52 58.22 63.32 64.36 63.55 61.47 61.44 58.52 60.49 61.19 60.63 61.13 60.84 61.29 61.79 61.78 61.52 61.25 60.88 60.67 60.64 60.63 60.18 59.59 59.55 59.10 58.49 57.42 54.69 53.72 53.12 52.06 53.27 53.55 53.45
40.21 40.24 40.00 39.96 40.97 42.39 43.85 45.89 48.56 54.83 63.20 63.31 62.87 61.53 60.42 58.84 59.92 60.60 60.53 60.15 60.09 60.33 60.55 60.70 60.22 60.27 60.65 60.83 60.33 60.26 60.14 59.98 59.52 58.86 58.50 58.02 56.31 56.10 55.74 54.20 52.93 52.03 52.37
38.96 38.64 38.85 38.79 39.38 41.20 42.53 43.90 46.63 49.90 62.40 62.25 62.16 61.54 58.49 58.29 58.18 59.04 59.44 59.69 60.00 60.25 60.54 60.15 60.14 59.83 59.62 60.66 60.44 59.88 59.82 59.64 59.42 58.82 58.47 57.62 56.79 56.56 56.04 54.39 52.92 50.24 51.26
36.53 36.95 37.81 37.85 38.22 39.83 41.65 43.21 45.01 48.84 60.61 61.05 60.65 59.41 58.55 57.90 58.00 58.24 58.84 59.64 59.77 59.02 59.04 59.25 59.28 60.41 60.43 60.21 60.22 59.83 59.63 59.60 59.49 58.94 57.93 57.40 56.92 56.90 56.79 56.06 55.38 52.95 49.46
34.96 35.17 36.06 36.82 37.80 39.27 40.63 42.92 44.66 47.72 59.95 60.11 60.26 59.39 58.93 58.21 58.26 58.16 58.02 58.42 58.56 58.59 58.40 58.62 59.19 59.67 60.05 60.03 59.87 59.69 59.78 59.49 59.66 59.50 57.48 56.97 56.75 56.87 56.73 56.02 55.40 54.41 52.50
33.84 34.05 34.38 36.04 36.82 38.14 39.60 40.55 43.19 46.38 51.56 59.20 59.32 58.48 57.82 57.88 58.04 57.96 58.02 57.49 57.37 57.75 57.81 57.93 58.24 57.76 57.80 58.00 58.16 58.35 58.49 58.42 58.93 58.88 57.82 56.72 56.63 56.24 56.24 55.84 54.91 53.84 53.40
33.47 33.46 33.55 34.47 34.99 35.82 37.13 38.21 40.82 44.55 47.42 51.52 57.80 57.62 57.60 57.98 57.44 57.30 57.10 56.40 56.20 55.92 56.60 57.24 56.50 56.48 56.46 57.10 57.02 56.78 57.32 57.30 57.28 57.68 58.14 56.62 56.44 56.00 56.06 55.46 54.25 54.07 53.79
32.48 32.44 32.42 32.46 33.26 34.34 35.23 36.98 39.18 42.14 44.79 48.22 54.90 57.76 57.78 57.96 57.26 57.00 56.60 56.24 56.10 54.89 55.35 55.38 56.66 56.80 57.20 56.92 56.90 56.88 56.86 56.92 57.16 57.89 57.28 56.56 56.32 55.52 55.14 55.46 54.27 53.69 53.36
32.09 31.77 31.49 31.88 32.66 33.62 34.16 35.45 36.90 39.43 40.96 42.27 44.06 46.31 47.22 57.24 58.16 57.88 57.74 57.18 56.92 55.15 53.21 51.75 50.11 50.29 50.60 51.98 55.01 56.54 56.56 56.68 56.74 57.02 57.32 56.99 56.53 55.58 54.46 54.37 54.47 54.04 53.17
31.05 31.11 30.88 31.26 31.82 32.12 32.87 34.13 35.37 37.05 39.43 38.75 38.24 39.05 40.86 42.31 46.79 51.40 48.75 47.55 46.86 46.37 46.63 45.24 43.47 43.25 42.20 40.85 42.99 51.18 55.67 53.66 49.21 45.94 44.11 45.90 53.43 50.62 52.19 54.67 54.10 53.66 52.48
30.07 30.42 30.69 30.82 30.98 31.56 32.11 32.89 33.51 34.79 36.55 37.13 37.10 37.26 37.25 37.58 37.97 40.32 41.53 41.24 40.96 40.25 39.91 38.71 38.10 37.65 37.41 36.93 38.63 46.90 47.08 45.49 43.96 41.16 40.11 39.44 39.01 37.99 37.50 37.50 36.33 40.99 52.19
29.21 29.55 29.95 30.38 30.69 30.98 32.13 31.72 32.42 33.64 33.90 33.86 35.30 36.42 36.26 35.33 33.93 34.36 36.80 36.80 36.88 36.88 35.80 35.36 35.22 34.30 35.15 36.16 36.79 37.33 38.74 38.44 38.78 38.77 37.75 36.86 36.21 35.98 35.06 34.35 34.06 32.95 33.36
29.19 29.60 30.06 30.37 30.51 31.27 31.20 31.54 31.65 31.69 31.78 31.93 32.49 33.83 34.65 34.22 33.72 32.24 32.50 33.48 34.00 33.93 33.66 33.42 33.61 33.37 33.97 34.88 35.09 34.89 35.21 35.17 35.34 35.41 35.06 34.45 33.90 34.35 34.03 33.22 31.72 30.27 30.36
30.56 30.33 31.03 30.88 30.62 29.65 29.70 29.58 28.76 29.63 29.73 29.85 30.44 31.60 32.33 32.33 32.22 32.05 31.42 31.46 31.21 31.14 31.24 32.09 32.31 32.26 32.86 34.10 34.25 33.54 32.55 31.77 32.08 33.25 33.40 33.00 32.86 34.38 35.20 31.49 29.10 27.53 26.90
29.10 28.54 29.61 30.44 29.74 29.63 28.84 27.85 26.78 26.67 26.57 27.96 29.47 30.63 31.21 30.78 30.00 30.32 30.65 30.92 30.96 30.31 30.29 30.18 30.95 32.28 31.87 33.70 33.73 33.10 32.15 30.69 30.40 30.95 31.75 32.69 31.87 32.69 32.67 30.40 28.75 25.79 25.21
27.72 28.29 28.65 28.35 27.54 28.95 28.24 25.52 24.84 24.64 26.57 27.93 28.15 27.86 29.05 29.57 29.54 29.32 29.47 29.55 29.43 29.34 28.99 28.76 29.45 30.28 31.29 32.13 32.92 32.86 31.03 30.17 29.68 29.30 29.59 30.90 31.81 31.64 30.92 29.55 26.85 24.67 25.06
25.46 26.35 26.64 26.68 28.59 27.57 26.84 25.04 24.09 25.61 25.72 26.02 25.71 25.88 26.64 27.41 27.56 27.52 27.96 28.20 28.17 27.38 27.35 27.45 27.35 28.55 29.87 30.78 31.14 30.87 30.20 30.00 27.97 27.57 28.90 29.35 30.00 29.53 28.59 27.19 27.25 25.99 23.79
23.13 24.63 24.53 24.93 25.87 27.90 27.50 25.11 26.01 26.07 25.15 24.39 24.32 24.77 25.02 25.15 25.48 24.79 24.82 25.21 26.25 26.67 26.57 26.26 26.08 26.35 27.68 27.10 28.71 28.50 28.15 27.71 25.66 26.27 27.16 27.33 26.72 25.96 25.50 25.68 24.61 22.73 21.93
20.82 22.32 22.15 21.85 22.55 24.72 26.41 28.76 27.42 26.80 26.04 24.53 23.87 23.90 24.91 24.23 24.73 25.28 25.49 24.77 24.28 24.76 25.03 25.59 25.44 26.05 26.19 25.84 26.33 25.54 24.67 24.85 23.51 22.99 22.96 22.85 22.46 21.24 21.05 21.01 21.27 20.70 20.37
18.37 20.19 20.30 20.32 20.76 22.59 23.06 25.21 27.35 26.96 25.11 24.26 23.77 23.27 23.02 23.37 24.35 25.32 24.95 25.35 27.13 26.86 24.63 25.56 26.52 25.87 25.06 26.32 27.22 24.87 22.91 22.59 22.58 21.72 20.79 19.52 18.98 18.12 18.13 17.88 17.99 18.81 18.79
17.61 16.86 17.56 17.75 18.22 19.57 20.40 21.63 25.07 26.62 25.93 23.85 22.90 22.16 22.42 22.25 22.59 23.19 21.41 27.63 28.73 29.21 29.64 29.90 28.37 28.14 28.82 28.65 28.09 27.25 25.99 24.82 23.06 19.18 17.12 16.01 16.15 15.74 15.82 15.43 15.05 15.46 15.50

GFSMW_sfc_wetblb_099.txt.gz
Wetbulb
50.93 51.92 52.36 52.64 52.96 53.88 53.49 54.13 54.40 55.90 56.78 66.49 65.86 64.50 63.64 65.22 65.98 66.65 65.91 66.02 65.72 64.65 63.65 63.42 63.66 64.22 63.52 63.07 62.76 61.82 61.66 61.44 62.45 60.32 59.18 59.37 61.34 61.33 62.16 62.23 61.76 60.84 61.33
49.60 50.16 50.71 50.95 51.09 51.09 51.98 52.24 53.37 54.42 55.17 62.70 66.47 66.11 64.50 65.23 66.66 66.42 65.55 65.79 65.08 64.30 63.22 63.14 63.07 63.20 62.95 62.80 62.52 61.75 60.61 61.18 62.14 58.83 57.17 54.35 55.88 58.92 61.29 61.62 61.20 60.70 60.43
47.25 48.01 48.10 48.80 49.50 49.11 49.88 50.49 51.76 52.94 54.88 57.32 65.68 66.38 65.72 65.79 64.36 64.93 64.49 65.19 65.37 64.08 63.63 63.84 63.63 62.67 63.09 61.85 62.39 62.27 60.74 59.36 61.15 60.20 57.81 52.83 52.94 54.82 57.97 59.58 61.22 60.17 59.29
47.10 47.07 46.57 46.82 47.36 47.86 48.07 47.61 49.55 52.17 54.56 57.69 63.25 64.30 62.25 61.15 64.03 65.04 64.83 64.56 63.87 63.25 63.02 63.59 64.03 63.05 62.58 62.12 62.76 62.81 61.65 61.07 59.13 60.20 61.56 59.28 58.57 54.96 52.67 56.33 58.66 59.43 59.22
45.37 44.70 44.92 45.24 45.71 45.11 44.55 46.02 47.52 49.56 53.10 57.89 61.86 65.04 63.13 64.75 65.81 65.70 63.53 63.46 64.43 62.85 59.92 59.41 62.77 62.72 62.60 62.98 63.38 61.74 61.42 61.37 60.36 59.37 57.87 57.12 57.68 58.29 56.07 53.29 54.88 56.37 58.68
43.47 43.73 44.31 43.41 42.39 43.29 43.54 44.20 45.66 47.28 50.78 58.11 61.79 64.37 63.72 63.98 64.02 63.60 62.88 64.20 63.09 60.43 60.18 61.73 62.55 62.82 62.38 63.00 63.64 62.80 61.78 61.17 60.97 60.18 59.09 57.58 56.40 56.76 57.82 55.90 55.47 54.73 55.44
40.72 40.85 40.77 39.58 39.87 40.42 41.46 43.06 44.48 45.56 49.07 52.90 63.40 64.01 63.68 63.97 64.12 63.61 63.01 62.43 61.56 60.04 60.45 62.50 62.08 61.96 62.88 62.93 63.82 61.86 62.35 61.07 60.60 59.88 59.42 59.51 59.05 60.58 59.64 58.24 55.74 54.88 53.90
39.37 39.35 39.18 39.19 38.37 39.23 39.96 41.34 43.07 44.20 48.06 51.17 63.36 63.84 62.72 62.59 64.21 64.37 62.75 62.40 61.91 62.07 62.49 62.24 62.85 62.66 62.85 61.81 61.74 61.34 61.41 61.58 60.52 60.31 59.99 59.44 59.46 59.32 59.46 59.37 57.28 53.03 52.06
38.01 38.06 38.45 38.59 37.61 37.96 38.92 39.92 41.72 43.47 47.58 51.75 63.04 62.99 61.33 60.67 61.06 64.21 64.23 63.43 62.60 61.78 61.27 62.32 61.46 61.33 60.75 61.21 61.82 60.69 60.86 61.04 60.80 60.66 59.86 59.18 59.17 59.20 59.48 59.20 58.15 56.01 50.01
37.10 37.21 36.99 37.15 36.98 37.92 38.67 39.63 40.88 43.12 46.61 50.57 61.66 60.47 60.64 60.81 60.42 61.14 60.43 61.02 61.00 59.82 61.24 61.04 60.78 60.30 60.56 61.93 61.53 60.37 60.61 60.36 60.50 60.49 59.46 59.04 59.11 59.21 58.93 57.29 58.10 56.35 53.74
36.29 35.95 36.10 36.69 36.43 36.78 37.53 38.12 39.51 42.08 45.47 47.02 58.43 60.00 59.93 59.08 59.22 59.39 60.60 60.27 59.65 59.54 59.42 59.61 59.88 60.36 60.56 60.86 60.16 60.14 59.99 59.59 59.63 59.61 59.01 58.16 58.50 57.32 57.16 57.15 56.65 54.94 54.40
35.91 35.80 35.15 35.35 34.80 34.87 35.58 36.09 38.16 39.48 43.79 45.05 50.89 58.37 58.97 59.43 59.48 59.07 59.54 59.70 58.32 58.58 58.82 59.04 59.07 58.81 59.29 59.07 58.91 58.53 58.73 59.01 58.17 58.31 58.34 57.77 57.74 57.16 57.26 56.27 55.35 54.92 54.48
34.47 35.11 34.38 33.61 33.37 33.70 34.27 35.13 37.01 37.53 41.29 42.80 43.80 45.81 46.84 56.57 58.74 58.96 58.28 58.57 57.96 57.72 58.02 58.32 58.29 57.97 57.65 57.24 57.11 57.97 58.75 58.62 58.04 58.38 58.40 57.87 56.97 55.99 56.07 56.03 55.11 54.70 54.18
32.45 33.47 33.04 32.49 32.85 33.07 33.39 33.66 34.99 36.11 37.84 39.98 40.48 40.18 42.25 43.56 49.18 58.26 58.51 58.25 58.05 58.35 58.41 57.42 55.69 54.89 53.78 54.75 56.93 57.49 57.65 57.21 58.42 57.49 57.61 57.98 57.48 56.39 55.93 55.43 54.80 54.54 53.92
30.99 31.48 31.21 31.36 31.77 32.00 32.30 32.91 33.51 34.20 35.89 36.69 37.78 38.06 39.09 38.98 39.79 44.58 44.58 55.89 53.05 50.98 49.42 47.38 45.31 44.43 43.98 42.56 46.17 52.28 56.29 57.45 52.28 47.56 45.12 42.89 51.59 51.12 53.74 55.55 55.03 54.28 53.80
30.00 30.30 30.75 30.95 30.57 30.89 31.23 31.54 32.35 32.97 34.26 33.73 34.62 37.03 37.38 37.28 36.11 36.71 38.64 40.02 42.62 41.73 40.73 39.44 39.33 39.28 38.97 37.17 39.46 47.75 49.18 46.49 44.72 42.49 41.18 39.43 39.62 38.82 38.52 39.06 41.04 50.36 53.74
29.34 29.65 29.89 30.26 30.06 30.17 30.63 30.74 31.02 32.21 32.08 32.43 33.04 34.16 35.82 35.92 36.34 35.23 34.78 33.83 35.47 36.45 35.70 35.71 35.87 35.44 36.75 36.59 37.61 38.27 40.81 39.69 39.08 38.61 37.94 37.94 36.98 37.11 36.52 35.20 34.61 33.50 34.00
29.02 29.57 29.91 29.93 30.26 30.39 30.22 31.06 30.99 30.74 30.30 30.27 31.03 31.91 32.96 33.82 34.90 34.46 33.05 31.98 31.96 33.10 33.58 33.70 34.63 34.50 34.86 35.10 35.64 35.92 36.89 35.40 34.61 34.58 35.09 34.93 34.70 35.17 35.39 34.34 32.57 31.67 31.77
28.85 28.98 29.94 29.34 29.92 29.50 29.93 29.57 29.19 29.76 29.16 28.65 28.83 30.38 30.90 30.41 31.42 32.04 31.98 31.81 31.49 31.18 31.63 32.58 32.80 33.25 33.95 34.49 34.40 34.50 33.95 32.55 32.50 33.22 33.56 33.43 33.53 34.38 34.84 31.85 30.14 27.92 27.27
28.65 28.76 29.56 29.38 28.40 28.96 28.93 27.71 27.46 27.25 26.91 28.20 29.08 29.80 29.99 29.48 28.69 29.35 30.35 31.47 31.34 30.11 30.55 30.20 31.36 32.62 32.66 33.99 33.98 33.76 32.87 31.29 30.71 31.55 31.91 32.84 32.47 32.45 32.36 30.94 29.41 25.75 25.02
27.94 28.54 28.48 28.01 29.10 29.09 28.32 26.24 26.17 25.33 27.00 28.43 28.29 28.53 29.66 29.14 29.22 29.39 29.78 29.43 29.25 29.33 28.60 28.11 28.54 29.38 30.74 31.72 33.10 32.89 31.24 30.40 29.43 28.76 29.03 30.18 30.91 30.73 30.25 29.16 26.95 25.37 25.94
25.97 26.93 26.76 26.64 27.97 29.40 28.70 26.52 25.34 27.23 27.18 27.24 27.62 27.29 27.80 28.90 29.66 28.56 28.87 29.64 29.89 28.53 27.81 27.16 26.50 26.74 27.75 29.44 30.12 30.14 29.92 29.73 27.75 27.14 28.28 29.08 29.69 29.20 28.45 26.91 27.06 26.61 25.45
24.46 25.96 25.80 26.14 26.74 27.41 27.99 26.78 27.33 27.99 27.41 26.72 25.82 27.63 27.64 28.31 29.45 29.22 28.86 29.28 29.58 28.94 28.58 27.96 27.84 27.72 28.31 27.48 28.10 27.74 27.13 27.18 25.40 25.94 26.47 26.60 26.57 26.04 25.74 26.07 25.18 24.14 23.93
22.28 23.96 24.09 23.75 23.77 25.86 26.64 26.88 28.72 28.43 27.82 26.59 26.35 26.83 27.04 26.97 28.55 28.98 29.15 28.74 29.39 28.77 28.94 29.21 28.08 27.69 27.85 27.98 27.35 27.26 27.21 26.32 26.04 25.31 25.43 24.03 23.25 23.05 22.96 23.09 23.43 23.10 22.49
20.78 21.81 21.77 22.04 22.28 24.46 25.05 26.23 28.05 29.28 26.82 26.17 26.44 26.24 26.32 26.31 25.98 27.24 28.21 28.83 29.93 29.64 28.31 28.62 28.97 28.00 26.80 27.46 27.87 27.20 26.63 25.59 25.07 25.49 25.42 24.70 23.30 21.72 21.51 21.16 21.35 22.26 22.31
19.41 19.07 19.14 19.39 20.09 22.17 22.59 23.76 26.72 28.35 27.88 26.69 25.05 24.83 25.79 25.72 25.48 25.44 25.37 26.84 28.84 29.19 28.67 28.43 28.77 28.69 28.00 27.21 26.95 26.35 25.85 24.94 24.15 24.42 22.82 21.83 21.40 20.02 19.81 19.39 18.92 19.49 19.48

GFSMW_sfc_wetblb_102.txt.gz
Wetbulb
54.79 55.99 56.62 57.07 57.23 57.66 57.21 57.52 58.22 59.44 59.94 60.08 59.18 64.49 65.88 67.65 68.12 69.66 69.69 69.41 69.28 68.80 68.22 67.40 66.51 66.09 65.39 65.51 65.19 64.23 62.71 63.21 64.60 62.42 61.26 61.66 63.48 63.26 63.11 63.44 62.68 62.29 63.41
53.15 54.39 54.95 55.64 55.79 55.71 56.28 56.03 56.30 57.07 57.72 58.88 59.80 61.95 65.69 66.60 67.18 68.76 70.10 69.17 68.39 68.71 67.50 66.36 65.11 65.42 65.19 64.71 65.09 64.68 61.61 62.67 63.79 60.26 58.97 56.13 57.47 61.95 62.66 62.86 62.29 62.08 61.90
51.39 52.39 52.62 53.39 53.97 53.64 53.92 53.70 54.23 55.00 56.06 57.59 58.97 59.79 64.79 66.58 66.51 66.77 67.82 68.63 68.24 67.60 67.06 65.86 64.54 64.69 64.98 64.76 65.30 64.10 62.39 60.52 62.04 62.43 60.20 55.17 55.67 56.79 60.26 61.08 62.24 61.40 60.86
51.27 51.37 51.18 51.21 51.27 51.79 51.90 50.56 51.09 52.46 53.23 55.28 57.11 58.97 59.95 63.41 65.41 66.01 66.60 66.95 66.67 66.22 66.04 64.67 64.27 63.94 64.76 64.58 64.93 64.58 64.14 63.07 60.01 61.43 62.90 63.80 59.99 56.77 53.88 56.97 60.97 62.56 61.01
49.83 49.44 49.38 49.64 50.11 49.84 48.51 46.79 47.30 48.85 49.67 50.92 52.43 57.11 59.51 65.29 66.00 65.96 65.25 65.25 65.31 65.11 65.35 64.43 64.73 64.06 64.47 64.34 64.89 65.30 65.45 64.40 61.94 60.82 60.73 61.19 60.96 62.28 58.72 54.51 55.87 59.82 60.63
48.87 48.76 49.11 49.10 49.10 49.25 47.55 44.71 44.28 44.94 47.09 48.68 50.69 53.97 60.03 62.34 65.17 65.03 63.79 63.76 63.87 64.33 64.76 65.05 65.53 64.74 63.87 63.76 63.35 64.25 65.50 64.60 63.48 62.08 61.41 61.04 59.45 59.45 58.13 57.07 56.92 56.79 57.63
47.35 47.17 46.86 46.60 46.83 46.21 45.72 43.07 42.10 42.44 44.45 46.05 48.80 53.84 60.44 61.48 65.18 64.91 64.43 62.71 62.71 63.35 63.96 65.29 62.67 63.15 63.61 63.97 63.59 63.28 65.17 64.48 63.10 62.09 60.41 60.67 60.15 60.77 59.23 58.48 57.12 55.81 56.27
46.28 46.03 45.43 45.23 45.11 44.25 44.60 42.27 40.11 40.66 42.83 45.48 49.00 53.72 62.94 63.37 66.47 64.97 64.43 63.61 63.76 64.73 66.58 64.20 62.19 62.26 63.20 63.66 63.86 63.39 65.48 65.32 64.56 62.48 61.67 60.61 60.52 62.73 59.33 58.45 57.18 55.87 55.42
44.54 44.20 44.66 44.09 44.00 42.96 42.95 40.06 39.33 40.15 41.97 45.20 47.69 53.35 65.58 65.92 64.87 64.49 64.47 64.05 66.85 66.63 65.03 63.26 62.11 62.06 62.62 63.72 63.19 64.27 64.63 63.24 62.01 62.11 62.48 60.69 61.21 61.23 60.38 59.31 59.07 56.62 52.69
43.33 43.10 43.01 42.55 42.93 42.39 42.76 39.55 39.14 39.42 40.84 43.82 46.79 51.91 63.39 63.98 64.36 64.49 64.48 62.91 65.69 64.73 64.02 62.79 63.02 62.43 62.58 63.25 63.58 63.63 62.74 61.07 61.89 62.06 60.76 60.96 61.86 61.17 60.26 59.38 59.02 59.03 56.36
41.79 41.41 41.73 41.78 41.96 42.14 41.37 37.81 37.77 37.94 39.34 41.90 45.65 49.01 61.30 62.76 63.15 63.11 62.84 61.98 63.06 63.78 62.54 62.32 61.23 60.66 61.58 62.42 61.73 61.08 62.17 61.89 60.15 61.60 60.64 60.78 60.96 59.86 59.77 60.63 62.32 60.82 59.98
40.59 40.71 40.91 40.61 40.49 40.55 39.37 36.89 36.32 36.48 37.88 39.90 43.07 46.43 48.42 54.89 59.95 60.22 60.64 61.69 61.16 62.29 62.47 62.07 60.30 60.35 61.24 61.18 61.48 61.24 60.89 60.56 59.67 59.84 59.51 59.61 59.50 59.51 59.70 60.22 59.31 57.51 57.95
39.10 39.58 39.82 39.17 39.00 38.98 37.41 34.54 34.62 34.91 35.75 37.95 41.06 42.29 42.46 45.42 47.63 57.95 59.94 60.55 61.41 61.65 60.82 60.70 59.92 59.86 61.91 61.19 60.22 60.50 60.07 60.13 60.10 59.75 59.33 59.68 59.22 58.66 58.24 58.63 56.91 56.81 55.83
36.77 37.08 37.58 38.20 38.20 37.82 37.05 33.58 33.19 33.83 34.31 35.69 38.08 38.82 41.40 41.70 42.41 46.41 53.62 59.03 59.64 59.63 59.86 60.82 59.49 59.41 59.14 59.44 58.96 58.73 58.81 58.83 60.03 61.47 60.38 60.52 59.26 58.56 57.59 57.07 56.63 56.05 54.92
33.69 34.65 35.42 35.73 36.80 35.95 35.31 35.13 32.99 33.07 34.43 33.89 33.87 36.66 38.55 39.11 39.06 39.32 41.22 44.94 51.86 57.60 56.66 53.53 51.49 51.57 51.33 45.61 49.95 56.25 58.51 58.24 57.81 51.67 49.46 45.44 43.45 45.04 53.37 56.57 56.35 55.51 54.26
32.54 33.19 33.99 33.86 34.29 33.44 33.05 33.15 33.63 32.80 32.78 32.48 33.10 34.39 35.29 37.78 38.30 37.17 36.42 37.08 37.63 40.66 44.13 44.77 45.23 42.12 39.47 37.36 39.04 46.37 53.71 50.44 49.63 46.21 44.14 41.93 40.86 40.28 40.39 41.87 44.61 51.98 53.93
31.17 30.97 31.68 32.36 32.73 32.22 32.53 32.49 32.67 33.76 31.62 31.00 31.87 31.95 32.65 33.89 35.34 36.18 35.38 33.89 34.21 34.59 36.01 38.29 37.82 36.75 37.12 36.96 38.20 39.63 45.32 42.09 40.69 40.80 41.38 40.55 39.32 38.79 37.97 36.20 35.77 34.77 35.70
29.52 29.40 30.67 31.21 31.86 31.98 32.04 32.81 32.90 32.02 32.16 30.63 30.31 30.87 31.24 31.42 32.51 34.19 33.68 33.00 32.82 32.08 32.10 33.38 35.44 35.23 35.06 35.38 35.92 35.99 37.31 37.05 36.11 36.13 37.11 37.31 37.26 36.08 37.02 35.78 33.40 32.57 32.49
30.63 30.33 31.01 31.35 30.81 30.61 31.68 31.75 30.97 31.26 30.81 30.50 30.73 30.90 30.39 30.16 30.53 29.93 31.41 32.04 32.15 31.47 30.64 31.42 33.12 33.84 34.20 34.72 34.66 34.83 33.86 32.83 32.75 33.49 34.38 34.14 33.80 34.50 35.81 33.69 31.64 29.92 28.33
30.44 30.80 31.15 31.07 30.52 30.37 30.99 30.30 29.48 29.20 29.00 29.54 29.82 31.47 32.04 30.67 30.13 31.04 30.34 30.58 30.35 28.94 29.06 28.27 29.98 31.76 32.23 33.96 33.83 33.58 32.65 30.97 30.93 31.33 31.58 32.29 31.94 32.32 32.91 30.66 29.29 25.85 26.83
30.05 30.95 30.69 29.60 30.47 32.64 31.41 29.30 29.10 27.75 29.02 30.75 30.70 30.63 31.55 31.54 31.73 31.73 31.92 31.73 30.83 29.43 28.19 27.04 26.96 27.98 29.94 31.29 32.45 32.35 30.75 29.54 29.18 29.31 29.34 30.70 30.76 30.75 30.33 29.17 27.39 25.74 26.67
28.90 29.93 29.37 28.94 30.20 30.81 31.21 29.63 28.37 30.17 30.72 30.59 30.57 30.40 31.07 31.89 32.46 32.28 32.28 31.92 31.73 30.96 29.95 28.63 27.65 27.30 27.68 28.85 29.74 29.74 29.37 29.26 27.54 27.18 28.38 29.26 29.64 29.25 28.84 27.57 27.60 26.94 26.02
27.99 29.74 29.44 29.12 29.15 29.85 29.68 28.89 30.65 31.69 31.81 30.97 29.95 30.66 31.48 31.49 32.39 31.67 31.49 33.01 32.37 31.95 31.05 30.19 29.18 28.58 29.67 29.28 28.67 28.11 27.35 26.78 24.73 25.76 26.66 26.99 26.94 26.67 26.51 26.68 26.30 25.75 24.26
25.74 27.94 28.35 27.18 27.18 29.02 29.26 29.65 31.19 32.88 31.70 30.51 30.11 30.01 30.18 30.34 30.25 31.38 31.19 29.25 30.55 30.85 30.06 29.90 29.73 29.77 29.25 29.91 30.50 30.12 29.72 28.38 27.86 27.26 27.01 26.61 25.93 25.27 25.15 25.26 26.29 26.43 25.12
24.79 25.60 25.30 25.51 25.92 27.71 27.85 29.20 30.21 31.99 31.29 30.17 30.10 30.28 30.03 29.79 29.16 27.65 27.62 28.72 28.76 28.72 29.07 28.84 28.32 27.44 26.07 27.73 28.30 29.02 28.99 28.66 28.24 29.58 29.52 28.11 28.22 26.91 25.86 26.47 27.06 27.52 27.11
22.93 22.73 22.93 23.40 24.79 25.96 25.63 27.19 29.64 29.98 29.86 28.87 28.43 28.36 29.29 29.44 29.51 29.18 27.22 26.08 26.41 27.10 27.35 27.37 28.10 27.33 26.59 26.18 26.11 25.86 25.71 26.72 28.18 29.10 27.81 26.37 26.47 25.95 25.45 25.00 24.87 25.61 25.60

GFSMW_sfc_wetblb_105.txt.gz
Wetbulb
55.58 56.43 57.37 58.29 58.80 59.09 58.75 58.82 58.84 59.84 60.09 59.89 60.34 61.04 60.20 65.34 68.41 69.65 70.82 72.24 71.54 71.66 70.24 69.13 69.49 68.90 66.56 67.96 66.23 66.04 65.64 64.84 66.07 64.24 63.05 64.26 65.67 65.46 65.27 65.34 64.78 63.45 62.70
54.10 54.85 55.78 56.78 56.86 56.87 57.29 56.96 57.16 57.80 58.10 58.51 59.18 60.27 61.58 62.76 66.18 68.97 69.96 71.07 70.00 70.13 68.47 68.61 68.54 68.32 66.58 67.66 65.70 65.42 64.06 64.33 64.53 61.61 59.75 56.79 58.57 62.30 64.37 64.16 63.26 62.66 62.29
53.05 53.44 54.29 55.17 55.56 55.14 54.97 54.64 54.77 55.22 56.77 57.48 57.65 58.70 60.68 61.75 62.94 67.68 68.16 69.17 70.66 70.26 68.63 68.82 68.51 67.31 67.02 65.74 65.46 65.52 63.56 61.86 63.20 63.05 60.62 56.11 55.91 57.86 61.86 62.89 63.01 62.50 61.90
52.76 53.04 53.25 53.44 53.87 54.17 54.41 53.95 53.55 53.32 54.21 55.39 54.74 54.68 56.27 58.19 60.73 64.93 67.26 68.18 69.55 68.36 68.51 69.10 67.26 66.45 66.69 65.80 65.39 65.42 64.68 64.76 61.09 62.77 63.26 64.28 62.64 58.02 55.27 59.66 62.09 62.30 61.54
51.77 51.92 52.38 52.48 53.25 53.44 52.96 52.84 51.94 51.54 52.45 52.40 51.81 50.90 52.50 57.06 61.26 63.01 66.91 68.28 68.81 67.89 68.08 68.43 66.87 65.68 65.58 65.50 64.81 64.93 65.23 65.68 63.39 61.89 61.20 63.33 62.77 62.62 59.57 54.56 57.47 60.50 61.83
51.49 51.86 52.27 51.80 51.66 52.20 51.78 50.92 50.00 49.26 49.76 47.96 47.69 47.95 49.41 52.43 57.70 61.62 64.83 67.09 68.14 66.74 66.59 66.13 65.87 65.71 66.59 64.93 64.50 65.59 66.45 66.23 65.23 64.58 63.31 62.26 60.36 59.52 59.94 58.88 57.93 57.43 59.61
50.09 49.90 49.30 49.27 49.39 49.34 49.55 47.98 46.61 45.88 46.01 44.18 44.66 46.56 48.50 50.63 54.79 59.26 63.18 66.73 66.44 64.77 64.24 64.90 64.30 65.31 64.96 61.52 60.55 62.38 64.83 65.95 64.93 64.56 64.02 62.59 63.51 63.06 61.84 60.80 59.31 56.58 57.78
48.86 48.51 48.30 48.15 47.52 47.55 47.14 45.08 44.47 43.72 43.54 42.66 43.13 45.44 47.49 50.52 55.22 59.64 63.26 65.18 65.94 65.61 63.91 64.33 64.06 64.55 64.55 63.88 64.44 65.13 65.59 65.19 64.44 64.51 64.76 63.78 63.50 63.67 62.51 60.56 59.58 56.15 54.66
47.52 47.22 47.38 47.01 46.58 45.88 45.04 43.49 43.30 43.42 41.32 41.11 41.81 44.07 46.86 51.03 58.87 63.36 65.65 66.10 66.91 65.76 64.33 64.30 63.95 64.24 64.71 64.31 64.55 63.25 63.76 64.65 65.42 65.95 64.01 62.94 62.47 62.92 62.25 61.37 59.54 56.78 53.51
45.96 46.33 46.31 46.11 45.99 45.50 44.55 43.46 43.02 41.64 40.23 40.43 40.68 43.60 45.87 49.62 60.75 64.71 65.16 65.67 66.48 66.24 65.72 64.80 63.76 62.75 62.58 64.30 64.04 62.00 63.54 63.87 65.49 65.41 64.47 63.79 62.79 62.33 61.59 61.09 59.69 58.44 56.05
44.18 44.96 45.30 45.71 45.36 44.82 44.05 42.17 40.72 40.16 39.12 38.89 39.96 41.88 44.27 47.41 52.19 62.86 64.28 65.24 66.20 65.73 64.78 64.35 62.81 62.38 62.48 60.80 61.05 62.39 61.63 62.42 63.36 62.97 62.33 61.24 62.31 62.27 61.34 60.55 61.39 59.12 58.05
43.32 43.99 44.27 44.42 43.65 42.63 42.23 41.26 39.12 39.07 38.55 37.83 38.55 40.04 41.50 43.69 46.47 50.26 57.60 64.18 64.50 64.65 64.61 62.84 63.29 62.94 62.05 62.62 58.66 57.81 60.09 61.13 61.86 62.05 61.15 60.07 60.77 61.52 61.55 60.99 58.75 58.49 58.88
41.71 41.99 42.76 42.34 41.21 40.67 40.50 39.79 37.62 36.35 37.80 36.59 36.55 37.70 38.75 41.22 42.05 43.79 47.54 60.09 62.70 62.34 61.76 62.56 62.53 62.78 62.48 62.31 61.26 58.79 58.14 61.24 62.30 61.98 60.63 59.59 60.63 59.49 59.77 60.03 58.94 59.40 58.61
39.27 39.18 39.98 40.13 39.83 39.43 38.88 38.12 38.32 35.85 35.66 35.73 34.85 34.54 36.31 38.63 40.53 40.87 43.07 43.51 49.80 60.53 60.82 61.55 62.05 61.46 61.66 62.19 62.44 61.10 60.32 60.90 61.39 61.54 61.25 60.69 59.81 59.04 59.42 58.63 58.46 58.74 57.70
36.38 36.38 36.66 36.90 37.24 37.19 36.86 37.24 36.41 36.43 34.12 32.96 32.83 32.81 34.47 36.62 38.48 39.13 38.77 39.83 39.44 41.23 50.64 56.96 54.52 56.58 54.92 55.19 59.98 60.36 59.44 59.46 59.30 56.53 54.68 49.10 44.27 41.65 43.35 54.47 57.98 57.31 56.53
33.66 33.98 34.47 34.41 34.24 34.31 34.44 35.31 34.96 35.06 34.58 32.09 31.76 32.73 33.81 33.63 34.52 35.91 37.11 36.39 36.87 35.81 37.43 40.35 43.60 42.56 41.30 38.67 41.18 53.73 55.45 53.59 52.37 47.65 46.09 44.58 42.29 42.10 37.93 40.08 42.31 50.06 55.73
31.70 31.85 32.03 32.32 32.81 33.00 33.73 33.86 34.33 34.89 33.79 32.38 31.92 32.13 32.09 32.11 31.97 33.57 33.93 34.32 34.78 34.72 33.24 34.10 35.99 36.46 37.60 38.04 40.49 41.13 44.44 41.28 41.22 41.47 41.60 42.08 41.21 40.81 40.50 37.59 36.39 35.18 35.73
30.24 30.85 31.51 32.40 32.29 33.30 33.46 34.47 34.49 33.08 32.04 31.74 31.77 32.13 31.85 31.50 31.75 31.34 31.15 31.68 32.29 32.29 31.79 31.59 32.79 34.16 34.87 35.79 36.71 36.72 37.94 36.51 35.54 35.74 36.59 37.61 38.42 37.57 39.23 36.68 33.47 32.64 32.50
31.49 30.99 31.95 32.25 32.45 32.21 32.57 32.98 32.13 31.85 30.81 30.78 31.13 31.90 32.52 32.04 31.88 31.20 30.38 30.16 28.88 28.90 29.04 30.13 30.49 31.80 32.27 34.16 35.05 34.99 33.71 32.44 32.00 32.69 33.59 34.33 34.57 34.12 36.94 34.21 31.86 31.38 30.82
31.47 31.76 31.94 31.73 32.16 31.98 31.79 30.80 30.36 30.05 29.66 30.62 30.93 32.34 32.77 32.52 31.97 32.15 31.97 31.94 30.91 28.52 27.80 27.67 28.58 30.25 30.24 32.59 33.20 32.97 32.11 30.30 30.22 30.81 31.19 32.04 31.90 32.62 32.76 32.08 30.95 26.94 26.73
31.25 32.22 31.78 31.22 31.54 33.35 33.03 30.55 30.57 29.67 31.06 32.01 32.00 31.70 32.53 32.67 32.82 33.24 32.70 32.34 31.97 31.76 29.77 27.91 27.17 27.54 28.59 29.61 31.45 31.62 29.85 29.03 28.37 28.10 28.37 29.80 30.90 31.12 30.60 29.92 28.05 26.50 27.58
30.59 31.86 31.24 30.61 31.57 32.08 32.13 31.60 30.70 32.52 33.47 32.81 31.88 31.34 31.20 32.36 32.66 32.17 33.03 32.88 32.34 31.97 31.60 31.04 29.79 29.92 28.47 29.28 29.36 29.18 28.80 28.56 26.71 26.35 27.58 28.71 29.58 29.58 29.23 28.07 28.55 27.80 26.69
29.58 30.86 29.85 29.57 30.41 30.94 31.05 30.15 32.53 34.70 34.46 33.67 32.19 32.10 31.71 31.04 31.74 30.59 29.84 29.95 32.23 31.03 30.50 29.64 28.11 27.84 30.17 31.00 30.49 29.36 28.03 27.49 25.47 26.56 27.36 27.84 27.97 27.91 27.25 27.84 27.27 26.25 25.36
27.28 29.24 29.24 28.50 28.11 29.73 30.36 30.88 32.32 34.41 33.13 31.91 31.93 32.38 31.91 30.63 29.76 29.28 29.23 27.53 26.92 28.79 28.11 27.22 27.59 27.31 27.20 27.64 29.75 30.83 30.32 30.06 30.17 30.38 29.92 28.68 27.89 27.83 27.51 27.28 27.17 26.27 25.55
26.35 26.95 26.99 27.21 27.08 28.42 28.51 30.21 31.10 32.34 31.60 30.95 30.54 31.32 31.25 31.12 30.04 27.39 26.87 26.55 26.92 26.42 25.54 27.06 25.51 24.87 24.12 26.10 27.70 27.93 28.45 29.58 30.04 31.13 31.06 30.08 29.03 28.15 28.07 27.82 28.22 28.29 28.45
25.05 24.95 24.78 24.94 25.41 25.89 25.70 27.59 29.66 30.73 29.86 29.50 29.79 29.20 30.07 30.60 29.92 28.96 27.72 26.18 25.71 25.49 25.96 26.03 26.00 26.77 25.28 25.60 26.25 26.75 27.26 28.52 29.86 29.73 28.37 28.04 28.22 27.09 26.67 26.03 26.39 27.59 27.04

GFSMW_sfc_wetblb_108.txt.gz
Wetbulb
55.67 56.72 57.44 58.15 57.67 57.81 57.40 56.86 56.76 57.03 57.22 57.31 57.17 57.68 58.32 60.57 60.83 64.60 67.49 69.03 69.31 69.44 68.71 68.71 68.51 68.13 67.14 66.33 67.13 65.51 65.29 63.97 64.59 62.69 62.91 62.22 63.44 64.03 63.24 63.15 63.72 62.67 62.66
53.81 54.94 55.58 56.20 56.40 55.83 55.11 54.86 54.77 54.72 54.89 55.63 56.05 56.52 56.58 57.53 59.11 60.56 61.77 66.70 67.71 68.12 68.62 68.36 68.07 67.54 66.54 65.92 65.92 65.05 63.56 64.04 64.58 61.40 59.01 55.94 58.09 60.50 62.68 63.62 62.83 62.06 62.21
52.82 53.22 53.63 54.46 55.10 54.22 53.92 53.36 53.24 53.01 53.56 54.33 54.26 54.98 55.74 56.18 57.50 58.37 59.34 61.16 66.86 67.69 67.92 68.25 67.70 66.50 66.13 65.01 65.53 64.82 63.13 61.97 63.42 62.54 57.90 54.43 53.60 55.72 60.45 61.81 61.15 60.90 60.73
52.68 52.35 52.28 52.37 53.22 52.85 53.08 52.59 52.19 51.98 52.19 52.34 51.14 50.58 50.49 50.55 53.15 55.53 58.65 60.84 66.80 66.83 67.37 67.66 67.56 66.19 65.44 64.67 64.66 65.38 63.28 62.39 60.90 62.39 61.60 60.17 58.60 54.51 53.87 58.13 61.33 61.08 60.78
51.53 51.04 50.81 50.89 51.35 51.53 51.07 51.04 50.07 49.57 49.31 49.55 48.70 46.84 46.55 49.47 51.67 53.66 55.57 58.58 60.99 66.09 66.74 66.76 66.60 65.51 64.87 64.09 64.98 64.53 63.81 62.49 61.24 61.12 60.42 60.47 60.49 59.47 55.85 52.01 56.14 59.73 60.10
50.33 50.15 50.26 50.26 49.38 49.95 49.60 48.22 47.24 46.55 47.44 47.28 45.76 44.38 43.78 45.36 47.05 49.19 51.69 54.81 59.58 63.18 65.42 65.54 66.64 66.40 65.00 64.40 64.07 61.74 63.56 62.54 62.55 62.10 61.23 59.53 59.21 58.46 56.88 54.93 54.03 55.47 57.87
48.70 48.10 47.38 47.12 47.26 47.16 47.19 46.17 45.33 44.57 46.07 45.38 43.41 42.75 43.03 43.95 44.95 46.99 49.29 51.77 55.88 60.41 62.42 65.04 65.40 65.53 64.71 64.14 64.01 63.51 63.21 62.67 62.34 62.04 61.35 61.71 60.56 60.27 59.30 57.25 55.33 54.88 56.73
47.42 46.58 46.53 46.26 46.02 45.95 45.56 44.43 43.71 43.14 43.71 43.22 42.16 41.73 42.48 44.02 46.00 47.58 49.96 51.53 55.21 59.51 62.72 63.74 64.58 64.66 64.62 64.34 64.05 63.41 61.99 60.61 60.24 60.70 62.16 61.86 61.45 61.77 59.71 57.86 56.01 55.04 54.65
44.72 45.02 45.75 45.77 45.38 44.78 44.56 43.29 41.78 40.98 41.49 41.30 41.07 40.57 42.36 44.15 45.14 46.94 49.83 53.25 56.25 59.19 63.50 64.62 64.02 64.04 64.22 63.78 60.77 59.38 59.75 59.30 61.41 58.91 60.90 61.60 61.71 61.82 60.73 59.67 58.31 55.41 52.56
43.18 44.11 44.46 44.69 44.40 43.92 43.64 43.13 41.32 39.34 40.13 40.04 39.51 40.19 40.95 43.10 44.72 47.08 49.35 55.81 58.89 62.35 63.53 64.01 64.05 63.46 63.60 63.12 61.30 61.53 62.06 63.08 62.92 62.66 61.92 61.65 61.56 60.82 60.95 59.65 58.44 57.89 54.91
42.10 42.59 43.42 44.00 43.04 42.85 42.00 41.31 40.33 38.35 37.39 37.87 38.57 39.08 39.22 40.79 42.87 43.92 45.80 47.81 51.90 62.11 62.78 63.77 63.51 63.02 62.59 62.79 62.52 62.24 62.35 61.48 60.83 61.39 61.06 61.07 61.22 60.62 60.81 59.83 58.46 57.69 57.40
41.19 41.42 42.10 41.93 40.90 40.36 39.60 39.46 38.60 37.64 36.08 36.33 37.54 37.28 37.74 38.74 40.39 41.12 43.28 46.73 46.78 52.84 62.02 63.00 62.93 62.70 61.57 61.38 61.53 60.45 60.23 59.80 57.27 58.64 59.74 59.85 60.20 60.25 60.35 59.89 59.27 58.60 58.53
39.48 39.23 39.43 38.69 38.63 38.28 38.05 37.90 37.42 36.78 35.88 34.83 35.35 35.57 35.34 36.18 37.53 38.98 40.39 42.95 43.74 46.57 54.46 61.13 61.65 61.17 60.80 60.03 59.92 59.39 59.57 58.31 58.11 58.28 58.76 59.28 59.38 58.18 59.44 59.20 58.90 58.84 58.04
37.15 36.54 36.37 36.08 36.57 36.45 36.34 36.63 36.40 36.37 35.69 34.15 33.76 33.60 34.23 34.97 35.44 37.11 38.28 39.73 40.84 41.66 43.24 53.02 59.19 60.84 60.78 60.47 60.01 58.19 57.16 56.21 57.36 59.46 59.91 59.71 58.45 57.47 59.20 58.32 58.47 58.32 58.14
34.97 34.49 34.12 33.93 34.06 33.87 34.75 35.52 35.62 35.04 34.81 33.72 32.86 32.69 33.76 34.26 34.03 34.48 35.19 36.87 37.82 38.62 38.61 40.58 42.60 45.38 47.75 47.71 54.54 59.24 57.66 55.75 55.55 55.82 52.10 47.75 44.67 41.35 42.96 53.38 57.49 57.86 57.33
32.54 32.68 32.63 32.51 32.13 32.39 33.22 34.33 34.30 33.89 33.73 32.73 32.55 33.25 33.38 33.17 32.47 32.38 32.15 32.66 33.88 34.76 35.72 35.16 36.41 38.61 39.54 36.91 41.59 54.13 57.97 56.55 54.36 47.99 46.74 43.64 42.92 40.29 37.68 38.21 38.73 41.68 53.67
30.03 29.97 30.73 31.20 31.10 31.95 33.37 32.84 33.30 33.50 32.88 32.34 32.45 32.72 32.93 32.50 32.39 31.96 30.74 29.92 30.12 31.61 31.93 33.04 33.24 32.86 33.77 36.00 38.42 41.85 44.06 41.77 40.55 41.69 42.89 41.80 40.53 40.45 40.94 37.34 36.26 35.12 34.90
29.22 29.47 30.53 31.21 31.58 32.85 32.53 32.81 32.56 32.06 31.81 31.46 31.64 32.53 32.48 32.45 32.68 32.23 30.83 29.60 28.80 28.08 28.23 29.43 31.27 31.75 32.47 34.09 34.80 35.44 36.75 35.09 34.43 34.58 35.55 36.51 35.99 36.08 38.59 35.73 33.19 31.89 32.01
31.01 30.40 31.43 31.90 33.02 31.79 32.72 32.46 31.11 31.08 30.99 30.70 30.79 31.94 32.32 31.79 32.33 31.76 31.61 31.46 29.69 28.33 27.48 27.74 28.01 28.99 30.55 33.25 33.25 33.16 32.37 31.28 30.94 31.72 32.73 32.73 32.87 34.74 37.37 34.27 31.85 30.78 30.60
31.47 31.06 31.45 31.89 31.67 32.24 33.25 31.31 30.64 30.16 29.77 30.46 30.41 31.39 32.33 31.20 31.09 31.85 31.68 32.15 32.09 30.97 30.11 28.14 28.09 29.14 28.19 31.53 32.27 31.47 30.42 28.85 29.06 29.26 30.13 31.76 31.82 32.54 32.83 31.74 30.63 27.09 26.19
31.37 32.41 32.00 31.02 31.17 32.39 32.47 31.43 30.84 29.93 31.14 31.74 31.28 30.51 30.80 30.87 30.30 30.70 31.67 31.83 31.86 30.98 29.82 29.10 29.65 29.48 29.30 29.23 30.58 30.24 28.05 27.71 27.35 27.41 27.81 29.21 30.60 31.19 31.06 29.92 28.00 26.51 27.10
30.96 31.51 30.31 29.95 30.76 31.60 31.47 30.49 31.12 31.97 33.48 32.29 31.61 30.00 29.25 29.81 29.85 28.19 28.49 29.30 29.75 28.67 29.02 27.74 27.28 27.93 28.87 31.40 31.17 30.37 29.06 28.03 25.85 25.58 27.27 28.66 30.08 29.92 29.40 28.21 28.87 28.18 26.98
29.46 29.90 29.25 28.46 29.33 30.05 30.08 28.49 30.36 32.35 31.96 32.07 31.44 31.37 29.87 28.80 28.40 26.74 25.67 25.69 26.61 26.80 25.14 25.17 24.85 24.96 26.49 27.64 30.25 31.19 31.25 30.40 27.79 28.25 29.29 29.47 29.15 28.80 27.73 28.51 27.64 26.19 25.42
26.83 28.47 27.92 26.19 25.55 27.48 28.35 29.01 30.57 32.08 31.35 29.16 29.76 30.47 30.20 28.96 27.41 27.28 25.90 24.23 23.83 23.60 23.77 22.62 22.02 22.78 24.18 25.77 27.28 28.16 29.47 30.26 30.08 30.21 29.77 29.20 28.55 28.37 28.32 27.98 27.55 26.10 25.38
26.33 26.11 25.29 24.33 23.99 24.89 26.02 27.96 29.40 30.21 29.54 29.40 28.18 28.80 28.92 28.80 27.52 25.18 24.88 24.06 23.82 23.76 22.37 22.44 22.95 21.11 21.19 23.97 27.04 27.69 27.96 29.54 29.83 29.91 29.12 27.83 27.09 25.76 26.04 26.42 26.52 27.33 27.68
24.66 23.85 23.69 22.82 22.70 22.72 23.40 25.62 28.02 28.70 28.11 26.92 27.47 27.09 27.40 27.40 27.47 27.23 25.67 26.81 26.36 26.16 25.53 25.30 24.28 23.77 25.76 27.09 27.44 27.83 27.89 29.49 28.89 26.68 25.06 24.68 24.50 24.15 24.68 24.10 23.97 25.06 25.40

GFSMW_sfc_wetblb_111.txt.gz
Wetbulb
52.23 53.33 52.96 52.50 52.41 51.72 51.55 51.57 51.35 51.12 51.61 51.49 51.33 51.95 52.38 53.78 54.81 56.22 57.59 58.51 64.93 67.53 67.84 67.33 67.05 67.78 66.75 66.15 65.71 65.51 65.00 62.04 64.22 61.49 60.66 59.89 63.11 63.25 62.80 64.06 63.42 63.07 62.65
51.16 51.64 51.33 50.66 50.22 49.61 49.60 49.72 49.63 49.40 49.73 50.41 50.49 50.55 51.27 52.59 54.12 55.51 56.62 57.12 58.12 60.61 67.03 67.34 66.94 67.25 66.49 65.42 64.87 65.02 62.94 62.40 63.76 59.89 59.07 57.13 57.79 59.99 62.91 63.02 62.33 61.91 61.47
49.54 49.38 49.52 48.60 48.44 47.63 47.60 47.90 47.88 47.87 48.03 48.18 48.60 48.13 48.37 48.95 50.26 51.55 52.53 54.07 56.02 57.88 60.60 66.36 66.81 66.82 66.09 65.34 64.53 63.42 62.94 60.78 61.51 60.94 57.33 53.63 52.17 53.69 56.85 60.58 62.18 61.65 60.35
48.72 48.10 47.48 46.34 46.34 46.21 47.14 46.40 46.46 45.64 46.77 46.51 45.24 43.79 43.24 43.21 45.77 47.24 49.98 51.25 53.07 54.86 57.76 61.10 65.44 66.37 65.73 64.14 62.69 59.27 59.45 57.19 59.86 61.12 61.61 57.43 55.93 52.05 53.33 55.96 59.16 61.19 60.41
46.27 45.42 45.32 45.42 45.88 45.51 44.24 44.52 44.98 44.81 44.98 44.71 43.90 42.28 41.26 42.65 44.49 45.52 46.51 48.22 50.23 52.96 55.40 58.67 62.52 64.25 64.90 63.99 59.94 58.09 60.01 61.73 61.32 58.37 60.67 60.36 57.91 56.11 53.19 52.60 55.54 59.64 60.59
45.01 45.25 45.88 45.87 44.03 43.66 42.48 42.59 42.97 42.94 43.68 42.84 42.51 41.24 40.44 41.34 41.98 42.93 44.04 46.05 48.13 50.23 52.92 56.93 60.90 63.50 63.82 63.58 62.45 61.13 61.34 61.42 61.46 61.53 61.10 59.49 58.29 57.77 56.03 52.46 51.39 55.49 58.27
43.29 43.39 43.34 42.93 42.98 41.66 41.48 42.43 40.99 39.67 40.99 41.28 41.51 40.70 39.90 40.84 41.14 42.74 44.13 45.67 47.36 49.16 51.15 55.12 58.51 61.40 62.79 63.06 62.69 62.77 62.48 62.08 61.18 61.00 60.34 60.61 60.10 58.59 58.72 55.03 53.17 53.31 56.81
43.28 42.66 42.60 41.66 41.10 41.64 41.14 39.41 39.13 37.47 38.51 39.90 39.71 39.91 40.12 40.82 41.39 43.46 44.48 45.26 46.91 49.84 51.80 53.56 57.40 58.63 61.45 62.79 63.01 62.58 61.13 59.54 61.34 60.53 60.85 60.90 60.27 60.04 58.67 58.07 53.99 52.80 53.95
41.60 41.80 41.56 40.70 40.60 40.08 39.90 38.64 38.47 37.00 36.64 37.98 38.34 38.80 39.63 40.16 40.42 41.58 43.77 45.74 48.41 50.52 53.74 53.13 55.55 55.11 57.48 58.84 62.00 61.74 60.00 58.51 56.34 56.73 60.89 60.45 60.71 60.45 60.06 58.40 56.44 54.64 52.08
40.51 40.86 40.27 39.58 39.53 39.18 38.90 37.74 37.36 37.93 36.46 36.63 36.89 38.03 38.32 38.87 39.49 40.85 42.62 43.40 45.52 47.86 50.39 55.79 56.56 58.29 56.02 58.64 61.54 61.21 60.28 59.65 59.23 58.41 58.78 58.94 60.56 60.66 60.43 58.98 57.37 56.16 53.43
38.38 38.59 38.20 38.04 37.88 37.50 37.14 37.28 36.51 36.81 35.62 35.49 35.98 36.44 36.56 37.58 38.17 39.25 40.40 41.29 43.20 45.49 48.48 51.13 59.62 60.60 60.89 60.89 60.62 60.58 59.73 59.14 58.42 59.36 59.05 57.78 60.24 59.90 59.86 59.52 58.82 56.37 55.93
36.62 36.37 35.99 35.97 35.57 35.29 35.69 36.24 36.19 35.60 35.98 35.40 35.33 35.54 35.92 36.40 36.35 36.99 38.35 39.73 40.53 42.79 44.95 49.57 56.19 60.63 60.22 60.40 60.70 59.94 59.86 59.38 59.43 59.58 59.12 58.61 59.69 59.05 59.15 59.28 58.47 58.01 57.34
34.51 34.04 33.83 33.42 33.47 34.49 34.94 35.21 35.05 34.74 34.84 34.82 34.49 34.58 34.49 34.83 34.40 34.92 35.94 37.03 37.84 39.41 41.01 44.23 46.15 51.95 59.92 60.77 61.55 61.00 61.16 60.83 60.47 59.96 58.99 58.12 58.17 58.61 59.13 58.57 58.28 58.03 58.22
33.37 32.69 31.83 32.15 32.98 33.42 33.93 34.11 33.75 34.17 33.84 33.79 33.80 33.36 33.98 34.32 33.67 33.70 33.54 33.95 35.25 35.96 37.65 39.38 41.23 42.98 44.29 46.51 50.27 60.00 59.50 57.45 57.18 57.56 56.30 55.70 57.47 58.10 58.85 58.71 58.46 58.17 57.65
31.19 31.43 31.04 31.11 31.50 31.87 32.98 33.10 32.98 33.17 33.18 32.65 32.96 32.67 33.73 34.43 33.57 32.50 31.77 31.93 32.07 33.00 34.64 36.04 36.70 37.31 38.17 37.24 39.60 46.40 57.23 55.49 55.00 53.21 50.89 49.56 48.24 47.24 50.77 57.39 57.45 57.45 57.07
29.52 29.88 30.45 29.95 30.29 30.59 31.76 31.66 31.90 32.08 32.58 32.03 32.35 33.16 33.25 33.48 33.01 32.37 31.11 30.29 29.91 30.38 31.06 31.92 33.37 33.80 35.57 35.74 35.71 40.39 56.79 54.70 52.13 47.08 45.02 44.26 41.37 39.83 40.45 40.21 38.19 42.75 56.13
28.31 28.72 29.30 29.27 29.95 30.20 31.87 30.57 31.77 32.43 31.85 31.53 32.04 32.65 32.48 32.82 32.63 32.62 31.44 30.24 29.14 29.23 28.89 29.01 30.39 30.89 32.75 35.09 34.59 34.93 40.35 43.45 42.83 41.97 42.08 40.76 41.07 41.85 38.93 37.10 35.64 34.55 34.90
27.21 28.31 28.82 29.95 30.53 31.77 31.85 32.24 32.61 31.60 31.07 30.55 30.70 31.85 30.90 30.86 31.99 31.95 31.83 31.73 30.47 29.20 28.42 28.38 28.49 29.37 31.04 33.80 33.88 32.45 32.09 32.04 32.61 33.12 34.47 35.23 35.91 37.82 39.39 36.13 33.94 31.71 32.26
29.75 26.91 30.02 31.14 32.31 31.99 32.84 32.84 31.27 31.02 30.43 29.39 29.60 30.43 30.30 29.23 29.44 29.37 30.76 31.38 29.84 28.96 28.46 29.06 29.01 28.48 29.32 31.98 32.50 32.43 30.18 29.62 29.23 30.47 32.33 32.29 32.70 35.65 37.67 34.43 31.84 30.43 29.73
29.26 30.06 31.13 30.81 30.69 31.50 32.28 31.77 31.13 30.66 29.87 29.95 28.75 29.33 29.73 27.98 27.34 27.53 28.52 29.68 29.86 28.77 28.49 27.55 27.62 29.77 29.54 32.18 30.99 29.66 28.92 27.27 27.50 28.98 29.70 31.83 31.61 32.47 32.70 31.40 30.74 27.07 26.22
30.63 31.02 30.65 29.60 30.20 31.19 30.97 29.87 30.88 30.06 31.32 31.64 29.87 28.50 28.31 27.31 26.32 26.50 26.71 26.86 27.21 26.26 26.32 26.03 26.61 26.89 28.74 29.96 32.27 30.74 27.18 26.51 26.39 26.91 27.69 29.57 31.07 31.30 31.02 30.00 27.78 26.52 27.24
30.17 30.52 28.60 27.66 28.20 28.60 28.72 27.51 27.65 29.77 30.72 30.79 30.22 28.13 27.60 27.79 26.92 24.59 24.49 24.90 24.59 24.29 22.67 22.96 23.61 25.35 26.67 29.57 30.81 32.00 31.45 30.40 27.69 26.95 28.17 29.03 30.25 30.29 29.86 28.57 28.94 28.25 26.74
28.77 28.06 25.89 25.22 25.82 26.41 26.62 25.75 27.17 29.60 28.62 28.21 28.39 27.98 27.27 26.32 26.40 24.21 23.02 22.09 22.44 21.81 22.29 21.02 20.65 21.96 24.59 26.42 29.06 30.62 31.43 30.95 28.86 29.35 29.65 29.93 29.80 29.63 27.94 28.34 27.51 26.17 25.62
24.48 24.78 23.83 22.42 22.13 23.94 25.23 26.20 27.60 28.83 28.89 26.64 26.62 27.50 27.08 25.43 25.20 24.67 23.72 22.47 21.13 20.80 20.64 20.49 20.79 21.64 23.82 25.16 26.76 27.88 29.08 28.89 29.47 29.14 28.66 28.01 27.52 27.31 27.00 27.11 27.51 26.21 25.36
22.71 22.99 21.81 21.08 20.46 21.96 22.64 24.32 25.65 27.15 26.31 26.49 25.69 25.50 25.91 25.83 25.01 24.79 24.01 23.78 24.06 24.00 22.14 21.34 21.32 21.94 22.45 25.38 27.03 26.70 26.49 26.75 26.37 26.40 25.68 24.55 24.80 24.12 24.21 24.95 25.57 26.54 26.77
21.13 20.18 19.89 19.55 19.15 19.54 20.04 21.57 23.70 26.07 25.19 24.83 25.14 24.78 24.80 25.01 25.14 24.61 22.57 27.48 26.97 26.09 25.41 25.77 25.28 21.68 26.32 27.66 27.41 26.61 26.42 25.94 25.43 22.08 20.62 20.63 21.41 21.75 22.40 22.42 23.01 24.46 24.64

GFSMW_sfc_wetblb_114.txt.gz
Wetbulb
50.57 50.54 50.08 49.71 49.38 49.00 48.53 48.30 47.87 48.06 47.83 47.95 47.87 48.28 47.79 48.98 50.33 52.05 53.84 55.20 56.48 57.56 57.58 64.36 66.35 65.82 65.66 65.50 64.78 64.60 63.01 63.26 64.22 61.14 59.23 60.38 62.93 62.94 63.42 63.11 62.68 62.33 62.73
49.23 48.48 47.64 47.23 46.76 46.20 46.19 45.97 45.64 45.86 45.71 46.27 46.62 46.71 46.31 48.09 48.19 50.65 50.45 51.95 52.79 53.73 54.95 56.39 60.89 65.89 65.70 64.78 63.55 64.41 63.24 64.16 64.00 62.46 61.35 57.83 58.93 60.67 62.29 63.13 62.72 62.31 63.15
47.22 46.30 45.51 44.90 44.40 43.65 43.88 44.04 44.03 44.20 45.04 45.19 44.81 43.94 44.21 45.12 45.70 45.60 46.38 48.36 49.60 50.49 51.83 53.60 55.69 57.23 64.20 65.53 65.06 63.27 62.93 61.62 61.43 61.08 59.09 54.65 54.98 56.46 58.32 60.78 61.54 61.21 61.69
45.52 44.76 43.65 42.60 42.44 42.12 42.98 43.18 44.38 43.47 44.16 43.54 42.32 40.98 39.88 39.61 42.07 43.05 44.90 45.84 47.83 48.82 50.35 52.53 53.99 56.01 58.77 62.80 64.97 63.40 62.07 58.97 56.18 56.48 57.66 58.30 56.80 53.11 52.88 57.58 61.18 60.84 60.35
44.04 42.59 42.32 42.00 41.65 41.74 41.04 41.35 41.02 40.87 41.56 41.57 41.01 40.39 39.56 40.10 41.12 42.96 43.76 45.09 46.40 47.89 49.27 50.16 51.59 53.50 55.22 59.02 64.00 61.47 57.80 57.64 55.60 54.85 56.36 56.83 58.69 56.84 53.64 51.39 56.86 60.01 60.78
42.70 42.30 42.36 42.13 40.75 40.57 40.35 40.17 38.80 37.61 39.45 40.31 39.30 40.44 39.16 39.19 39.90 41.07 42.34 44.31 45.97 47.32 49.00 50.22 50.81 52.63 55.58 58.41 62.41 62.33 60.40 57.53 57.12 56.22 57.92 58.52 58.08 56.28 54.71 51.32 54.28 56.17 58.69
40.98 40.14 39.44 39.22 39.20 39.14 38.54 39.36 38.07 36.68 36.61 37.38 37.66 39.05 39.33 39.64 39.63 40.10 41.39 41.98 43.34 45.13 47.25 49.06 50.68 51.81 53.44 56.54 60.87 60.24 58.84 58.81 58.30 57.82 57.68 58.40 57.68 58.54 58.35 54.03 51.86 52.59 56.04
39.78 38.92 38.61 38.33 37.95 38.07 37.11 36.29 36.75 36.46 36.52 36.53 36.57 38.16 38.53 38.89 38.93 39.14 40.13 41.20 43.12 44.72 46.55 47.88 50.32 51.45 53.04 54.54 58.18 61.48 60.56 59.01 59.90 59.92 59.29 58.59 59.59 60.32 59.15 57.91 54.00 52.05 54.13
37.87 37.53 37.96 37.33 37.01 37.18 36.36 35.70 36.01 36.27 35.84 35.28 35.83 36.82 37.69 37.72 38.00 38.64 39.94 40.99 42.01 43.48 44.46 45.25 47.41 49.57 53.86 54.14 56.46 60.10 59.35 60.10 60.37 60.16 60.02 60.34 60.61 60.36 60.11 59.66 57.91 55.16 51.87
36.32 36.27 36.13 35.88 35.83 36.05 36.60 36.20 36.17 35.42 35.81 35.55 35.64 36.20 36.19 37.27 37.82 38.16 38.14 39.00 40.01 41.27 42.11 43.56 45.85 49.00 53.29 54.67 55.15 57.13 59.89 59.63 59.41 59.82 59.81 59.68 59.95 59.82 59.78 59.26 57.83 56.36 53.26
34.35 34.54 34.74 35.39 35.10 35.11 35.27 34.94 34.31 34.28 34.15 34.64 34.90 34.87 35.03 35.78 36.46 36.41 36.44 36.96 38.11 39.21 40.54 41.45 44.03 47.59 50.03 57.00 55.49 55.77 58.63 59.37 59.11 58.11 57.87 59.36 59.98 59.44 59.30 59.08 58.69 57.39 55.53
33.10 32.91 33.09 33.30 33.53 34.00 34.73 34.02 32.94 33.02 33.65 34.54 34.22 33.86 34.34 34.66 34.39 34.38 34.66 35.30 35.42 37.18 38.13 39.82 41.38 43.90 44.88 48.99 58.62 56.63 58.26 58.37 58.53 58.50 56.92 56.86 58.45 58.87 58.93 58.90 58.62 57.64 57.35
31.93 31.80 31.98 31.58 32.19 32.88 33.40 33.04 32.01 32.31 33.34 34.34 33.55 33.58 33.51 33.45 33.03 32.87 33.31 33.34 33.51 34.13 35.21 37.12 38.25 39.00 40.38 41.36 46.20 57.22 58.26 58.24 58.26 58.93 57.73 56.67 56.11 55.33 56.60 57.66 57.58 58.34 57.87
31.25 30.88 30.19 30.28 31.18 32.12 32.00 31.80 31.53 32.53 32.55 33.13 33.08 32.92 32.78 33.44 32.99 33.00 32.70 32.04 32.28 32.07 32.41 34.01 35.14 36.24 37.69 38.06 39.13 44.26 52.36 57.18 59.20 59.46 59.20 58.54 56.82 56.57 57.53 57.21 56.25 56.94 57.31
29.28 29.18 28.55 29.03 29.81 30.48 30.14 30.94 30.96 32.22 31.92 32.08 32.17 32.05 33.20 33.79 33.47 33.23 33.04 32.09 31.43 31.48 31.49 31.59 32.51 33.39 35.60 35.80 35.98 42.75 48.17 50.88 56.32 56.96 55.37 55.82 56.18 51.71 53.51 56.74 57.49 57.77 57.02
28.19 28.64 28.39 28.48 28.57 29.44 29.66 29.88 30.17 30.91 31.15 30.32 31.17 31.13 31.26 31.64 32.51 32.59 32.02 31.33 30.52 30.60 30.75 30.22 30.77 31.10 33.00 34.81 35.33 37.27 37.25 36.49 42.55 48.74 45.82 44.31 43.44 41.37 41.27 40.88 43.08 53.35 56.62
27.40 27.69 28.40 28.86 29.68 30.24 31.26 30.18 30.44 30.83 29.97 29.67 29.95 30.66 30.05 29.92 30.15 31.34 31.12 30.45 29.29 28.26 28.36 29.00 30.21 30.42 31.13 33.27 34.67 34.38 33.15 32.98 32.41 33.20 37.14 40.77 40.74 40.54 38.61 37.27 37.24 35.31 36.01
26.73 27.90 28.77 30.03 31.07 32.00 31.96 31.69 30.87 30.61 29.09 28.40 28.29 29.27 28.42 28.34 28.91 28.85 29.15 28.28 29.28 27.95 27.51 27.65 28.73 29.79 31.39 32.48 32.04 32.80 32.86 31.32 30.19 31.09 31.60 32.75 33.76 36.21 39.08 37.27 34.29 33.11 33.05
27.84 28.83 30.17 30.56 30.19 29.78 31.84 31.92 30.91 30.98 30.02 27.91 27.29 27.50 26.87 25.43 26.02 25.60 26.07 27.23 26.45 26.48 26.44 27.00 27.08 28.06 29.59 33.04 31.90 29.79 29.79 29.68 29.59 29.92 31.17 30.89 31.44 33.46 35.26 34.77 33.04 31.29 29.72
29.76 29.36 26.77 24.33 26.30 28.26 29.66 30.96 30.99 30.28 29.70 29.15 28.04 27.93 27.78 25.31 23.55 22.98 24.21 25.11 24.96 23.83 24.63 24.91 25.78 27.75 28.15 32.68 33.02 30.75 28.52 27.33 28.11 28.77 29.45 31.32 30.65 31.51 31.85 30.42 30.65 28.73 26.56
28.85 27.57 26.97 26.00 26.53 28.56 29.08 26.85 27.66 26.66 28.77 30.33 28.54 27.26 26.67 26.12 24.81 23.95 23.45 23.17 23.28 23.27 22.81 22.99 24.52 25.57 27.36 28.99 32.50 32.23 28.91 27.77 27.23 27.35 27.68 29.18 30.58 30.66 30.69 30.31 28.41 27.09 27.43
27.32 26.26 25.00 24.79 26.29 26.74 26.74 25.83 25.44 26.95 27.56 27.87 28.14 26.40 25.99 26.38 25.59 23.69 23.34 22.73 22.19 21.43 21.26 22.31 23.22 25.53 26.18 28.45 29.90 30.88 30.35 30.18 27.22 26.53 27.65 28.73 30.17 30.42 29.54 28.08 28.55 28.26 27.11
24.41 24.60 23.16 22.67 23.43 24.63 24.84 23.91 25.95 28.23 27.22 26.51 25.74 25.72 25.41 25.12 24.81 23.29 22.91 22.55 22.59 21.92 21.43 21.25 21.74 23.47 25.44 25.66 27.81 28.55 28.55 28.02 26.58 27.57 28.34 28.71 28.45 28.34 27.66 29.45 28.45 26.12 25.40
21.25 22.10 21.55 20.46 20.83 22.63 23.56 24.27 25.08 27.34 26.67 24.96 25.17 25.59 25.28 24.62 25.00 24.50 24.00 22.26 21.08 21.52 21.62 21.52 20.79 21.89 23.94 23.94 24.51 24.88 25.06 24.72 24.52 24.66 24.72 25.22 25.89 25.64 25.92 26.05 26.86 26.86 26.37
20.28 21.05 19.69 19.29 19.40 20.95 21.36 22.04 23.46 25.66 25.72 25.71 24.96 24.59 25.12 24.54 23.95 24.57 25.15 23.03 21.83 23.40 22.18 22.85 22.60 21.15 20.98 24.07 25.28 24.28 22.77 22.92 22.71 22.10 22.01 21.32 21.24 21.37 22.49 23.54 24.54 25.20 25.39
18.70 17.32 17.24 17.05 17.34 18.31 18.37 19.37 21.80 24.06 23.92 23.58 24.28 23.74 23.37 23.06 23.58 22.96 22.43 26.38 24.11 24.40 25.33 25.82 24.69 22.25 23.88 24.80 25.35 25.01 24.62 23.92 23.21 19.43 18.16 17.95 18.29 18.42 19.31 20.07 21.41 22.78 23.38

GFSMW_sfc_wetblb_117.txt.gz
Wetbulb
47.32 47.51 47.26 46.41 45.50 45.29 44.98 45.05 44.63 44.73 45.48 44.95 44.04 45.27 43.68 45.91 46.56 48.51 48.82 49.40 51.46 51.93 51.79 53.49 54.74 57.88 63.83 64.40 63.72 63.88 63.58 64.52 65.05 62.14 60.53 60.31 61.86 62.38 63.59 63.80 63.19 62.55 62.12
45.21 45.53 44.69 43.30 42.87 42.61 43.05 43.32 43.33 43.27 43.51 43.67 43.36 43.20 42.56 44.56 44.69 45.84 45.69 47.72 47.40 48.45 49.66 50.32 51.79 54.23 55.49 58.81 64.42 64.13 62.42 62.14 63.51 61.43 60.15 57.79 58.93 60.51 62.62 62.66 62.33 62.26 62.31
43.74 43.31 42.54 42.02 41.27 40.90 41.64 41.48 41.69 41.44 41.95 42.13 41.96 41.48 42.30 42.10 42.65 42.02 43.30 44.80 45.98 47.05 47.96 48.75 50.38 51.97 52.92 53.77 57.87 63.69 63.69 62.03 60.77 61.95 58.92 53.48 55.28 56.75 59.12 61.53 62.06 61.49 61.89
42.43 41.60 40.40 40.73 41.03 39.62 39.93 39.37 39.37 39.50 40.94 41.23 40.03 38.93 38.18 38.31 39.58 40.36 42.44 44.11 45.93 46.90 48.03 48.64 48.91 49.52 51.39 53.08 55.14 59.34 63.30 63.10 58.49 56.83 57.77 56.13 56.49 54.29 51.16 57.59 59.97 60.79 60.91
41.25 40.50 40.18 39.93 39.91 40.18 38.71 37.73 37.62 37.64 38.22 38.26 39.01 39.09 39.10 40.20 41.26 41.66 41.34 42.79 45.43 46.55 48.07 49.35 49.21 49.34 50.01 51.20 53.18 54.82 59.44 62.93 62.03 55.99 54.72 55.59 54.72 54.95 52.63 50.99 54.73 60.06 61.68
39.98 40.10 40.71 40.05 38.27 38.30 38.01 37.82 37.14 36.55 37.59 37.42 37.79 37.90 38.54 38.47 38.90 39.42 39.94 41.25 42.42 44.31 46.62 47.93 48.66 49.48 50.52 51.75 52.49 54.21 57.64 61.54 60.63 59.05 57.74 55.36 54.15 54.53 53.53 52.07 53.41 54.60 58.69
37.41 37.31 37.27 37.28 36.93 36.19 36.23 36.87 36.64 35.43 35.89 35.68 36.24 37.77 37.84 38.24 37.87 38.20 38.53 39.03 40.58 42.52 44.06 45.13 45.54 47.25 49.41 51.38 52.27 52.99 54.76 59.37 60.19 57.54 57.27 58.04 57.27 56.60 56.58 55.17 54.58 53.90 55.75
35.63 35.68 35.64 35.71 36.09 35.92 35.41 35.39 35.55 34.91 35.35 35.16 35.96 36.66 37.16 37.45 37.81 38.19 38.39 39.12 39.70 40.55 42.40 43.31 44.08 45.27 47.28 48.95 50.78 53.04 53.43 56.66 60.22 58.79 56.96 57.26 58.00 58.82 57.91 56.65 54.95 52.36 53.19
33.86 33.38 33.82 34.67 34.92 35.28 35.21 34.36 34.43 34.14 35.01 35.32 35.97 36.31 36.63 36.72 36.56 37.00 37.89 37.84 38.49 39.20 40.54 40.95 42.33 43.41 45.06 47.55 50.29 53.35 53.82 55.23 59.44 59.79 58.16 57.72 58.17 58.57 58.61 58.82 57.57 55.20 51.76
34.04 34.04 33.65 33.51 34.62 35.43 35.27 34.13 34.06 33.66 34.33 34.98 35.39 35.49 35.84 36.17 36.10 36.12 35.34 35.49 36.25 37.39 38.10 38.94 40.34 41.85 43.59 46.37 47.87 50.51 54.68 54.72 58.84 59.33 58.94 58.77 58.49 58.17 58.36 58.86 58.87 57.88 55.19
32.24 32.38 32.54 33.46 34.10 34.91 34.45 33.04 33.10 32.85 33.16 34.65 34.68 34.81 35.07 35.21 34.44 34.29 34.20 34.01 34.88 35.42 35.75 36.77 38.41 39.34 39.88 42.18 42.72 44.38 54.48 54.00 55.79 58.79 58.18 57.96 58.52 58.87 59.23 58.90 58.66 57.69 56.97
31.78 32.02 31.96 32.19 32.62 32.77 32.02 31.15 31.67 31.65 33.14 34.16 34.39 34.33 34.39 34.50 33.80 32.76 32.91 33.37 33.12 34.03 34.13 35.21 36.00 36.64 37.51 38.87 39.59 40.40 43.94 54.72 55.51 57.69 57.42 56.97 57.50 57.47 58.29 58.61 57.55 57.49 57.84
30.99 30.52 30.37 30.55 30.68 31.16 30.79 30.64 31.17 31.13 32.86 33.58 33.24 33.33 33.68 33.27 33.02 32.62 32.54 33.06 32.59 32.71 33.15 33.59 33.76 34.31 35.97 36.33 37.17 38.24 40.75 45.57 56.19 57.10 57.63 57.45 57.42 57.45 58.50 58.72 58.13 57.78 57.22
30.01 29.45 29.05 29.46 30.03 30.50 30.07 30.47 31.22 31.43 32.01 32.69 32.04 31.41 31.67 32.32 32.55 32.35 31.69 31.19 30.99 31.05 31.28 32.45 33.16 33.44 34.33 34.21 35.45 36.44 41.55 46.59 51.94 56.79 58.07 58.09 57.42 56.70 57.30 57.85 57.64 57.21 56.65
28.38 28.25 28.04 28.82 29.43 30.03 29.92 30.45 30.76 31.20 31.41 30.84 31.05 30.51 31.15 30.79 31.53 31.13 30.86 29.85 29.73 30.20 30.32 30.49 31.58 32.61 32.70 32.83 33.35 35.22 36.95 38.80 39.91 40.17 45.20 51.69 50.33 51.67 54.03 57.34 56.41 55.51 54.73
27.31 27.66 27.92 28.74 29.13 29.75 29.64 30.36 30.49 30.20 30.56 29.56 29.55 29.51 29.50 29.07 29.24 29.66 28.46 28.98 27.99 27.97 28.34 28.38 29.49 30.51 32.28 33.40 33.29 33.69 33.48 33.92 34.45 35.08 35.75 38.15 39.01 42.79 43.51 45.21 45.75 51.67 53.91
26.31 26.95 27.67 28.62 29.51 30.31 31.30 30.28 30.61 29.78 28.56 28.06 28.10 27.08 26.23 25.81 25.87 26.88 27.00 26.21 26.52 26.76 25.82 26.06 27.10 28.54 31.36 33.45 33.13 32.17 31.49 31.33 31.75 31.88 33.77 33.83 34.61 35.13 39.36 37.43 37.07 36.95 37.99
26.33 26.74 27.90 27.83 28.89 30.27 31.85 31.57 31.88 30.02 28.38 27.36 27.21 27.04 25.45 24.21 23.77 23.62 23.29 23.99 23.78 23.61 23.95 24.51 25.68 26.76 29.64 33.12 32.79 31.37 30.02 29.67 29.78 30.54 31.12 31.84 32.11 32.72 36.08 35.96 33.57 32.19 32.55
25.17 26.16 28.40 27.86 25.46 27.43 29.39 31.97 30.78 30.83 28.17 26.95 26.49 26.73 25.51 23.28 22.40 20.56 20.71 21.91 22.26 22.21 22.91 24.19 24.99 25.63 27.13 32.35 32.58 30.56 29.05 28.40 28.25 29.41 30.19 30.57 30.92 32.75 34.01 32.71 33.12 32.26 30.08
28.48 26.64 23.79 21.59 24.44 26.89 28.03 28.45 27.79 27.72 28.56 26.74 26.13 26.05 26.25 23.34 21.51 20.43 19.84 20.47 20.78 21.41 23.24 23.86 25.10 26.58 25.29 29.92 31.61 30.40 28.55 27.00 27.20 28.05 28.59 30.72 30.71 31.46 31.43 28.85 27.97 28.55 27.36
25.33 25.88 25.11 24.34 25.83 27.49 27.82 25.08 24.63 24.37 27.13 28.60 27.07 26.03 25.31 24.32 23.07 22.80 22.35 21.83 21.23 21.57 21.33 22.76 24.64 24.85 25.32 25.75 29.00 29.19 26.59 26.03 25.80 26.13 26.44 28.00 30.50 31.01 30.60 29.73 27.65 26.80 27.44
24.77 25.09 23.40 23.61 24.69 24.85 25.45 24.92 24.20 24.02 25.73 26.30 26.11 25.19 24.93 25.18 24.34 22.04 21.58 22.13 21.91 21.67 21.86 21.48 22.02 24.19 24.70 26.28 26.49 27.43 26.85 26.21 23.95 23.71 25.37 26.78 28.70 29.35 29.74 28.74 29.35 28.48 26.90
22.97 22.85 21.90 21.95 22.46 23.39 23.83 23.09 24.94 26.64 26.12 25.53 23.92 23.62 24.07 24.40 24.09 22.22 20.02 21.02 21.63 21.61 21.44 20.41 20.03 20.55 23.35 24.06 25.77 25.49 25.74 24.44 21.88 23.67 24.65 25.80 26.00 26.43 25.87 28.03 28.30 26.69 26.21
18.61 20.38 20.72 20.31 20.72 22.13 22.73 23.32 24.57 26.00 26.08 24.78 24.64 25.00 24.26 24.42 24.63 23.59 21.46 19.98 21.02 21.06 21.62 19.38 18.42 18.80 19.94 21.93 23.09 22.62 22.12 22.10 21.48 21.39 21.30 21.48 22.91 22.44 22.89 23.82 24.88 25.26 25.29
18.57 20.11 19.96 19.49 19.21 20.36 20.60 20.74 22.81 24.38 24.61 24.57 23.77 23.27 23.24 22.72 22.25 23.37 20.80 20.34 20.68 21.47 20.01 20.19 18.24 17.70 16.84 19.66 23.21 22.31 20.91 20.48 19.89 18.79 18.63 17.94 18.19 18.43 19.16 20.27 21.51 22.51 23.24
17.25 16.57 17.11 17.02 16.71 17.03 17.51 18.69 21.68 23.39 22.75 22.47 21.68 21.19 21.33 20.59 21.00 20.45 18.54 22.57 22.96 23.23 23.13 23.21 20.90 18.28 20.99 21.49 21.81 21.73 21.67 21.06 20.28 15.29 13.63 13.59 14.48 15.05 16.08 16.79 17.73 19.34 19.94

GFSMW_sfc_wetblb_120.txt.gz
Wetbulb
43.84 43.00 42.34 42.06 42.20 42.47 42.38 42.65 42.04 42.58 43.17 43.41 43.39 44.23 42.68 44.89 45.19 45.15 46.13 47.26 47.42 48.45 48.33 49.81 50.88 53.24 54.37 55.39 59.59 64.07 61.79 61.36 64.07 61.87 60.72 62.29 63.62 63.55 63.82 63.64 63.23 62.49 62.04
41.33 41.17 40.53 39.77 39.10 38.89 39.24 39.18 39.86 40.77 41.22 41.83 41.98 41.84 41.91 43.81 44.06 43.09 44.19 44.93 45.62 46.89 47.34 47.29 48.35 50.11 51.46 52.26 53.37 58.79 63.00 62.57 63.64 61.00 58.62 54.88 57.15 60.70 62.80 63.55 63.09 62.31 62.82
38.84 39.68 39.98 39.54 39.19 38.29 38.39 38.09 38.23 38.50 40.24 40.49 41.35 41.27 41.09 41.32 41.26 41.13 41.97 43.15 45.31 46.68 47.03 47.36 48.24 48.63 49.63 50.11 52.25 54.42 56.20 61.54 62.05 63.19 59.27 55.26 55.40 57.19 59.89 60.81 63.10 63.32 62.58
39.66 39.43 38.39 37.78 37.48 38.88 39.73 39.41 39.10 38.64 39.07 39.03 39.62 38.98 38.52 38.61 40.67 41.20 41.51 42.27 44.53 44.51 46.20 48.84 49.67 50.00 50.38 50.27 50.71 53.08 53.90 57.25 59.92 59.78 62.36 58.59 57.26 55.82 53.77 57.87 61.67 62.45 60.93
38.36 38.04 38.32 37.95 37.51 37.74 37.96 38.83 39.35 38.43 37.59 37.10 38.25 38.02 37.29 38.94 40.14 40.44 40.34 40.81 41.67 44.02 45.40 47.27 47.59 48.00 49.25 50.47 51.11 51.72 52.06 53.74 56.03 59.40 56.97 56.87 55.94 54.74 54.56 52.67 54.67 59.88 60.67
37.06 37.34 37.82 38.15 37.64 37.45 36.96 37.88 36.99 36.93 37.08 36.75 37.30 36.83 36.87 37.54 38.07 38.58 38.78 39.57 41.20 42.40 44.02 44.32 44.90 45.60 47.05 48.22 50.01 52.37 52.71 53.04 53.95 57.01 59.01 57.29 56.28 54.34 53.60 51.71 53.04 55.31 58.39
35.62 35.75 35.22 35.09 35.96 36.33 36.09 36.31 35.32 34.66 36.29 36.34 36.57 36.49 36.30 36.55 36.89 37.09 37.52 37.94 38.59 39.56 40.48 41.83 42.48 43.11 44.56 45.92 47.55 48.77 50.31 52.20 53.07 53.93 57.75 59.74 58.80 57.13 56.80 55.91 52.72 51.66 54.34
35.11 34.29 34.38 34.42 34.77 35.29 35.06 34.07 34.21 34.22 35.25 35.78 35.81 36.42 36.56 36.35 36.04 36.38 36.47 36.56 36.80 37.41 39.18 39.81 40.93 42.39 43.29 44.62 46.29 47.68 49.78 52.04 53.14 53.73 55.01 59.51 59.63 59.03 57.52 56.00 54.82 51.53 52.26
34.50 33.60 34.37 34.13 34.38 34.49 34.18 33.00 33.42 33.81 34.54 35.40 35.74 35.64 35.69 35.82 34.93 35.08 35.25 35.22 35.68 36.54 37.17 38.07 38.59 40.46 41.74 42.59 44.33 45.98 47.57 49.81 53.08 54.03 54.95 58.66 59.28 59.26 58.86 58.17 57.18 55.20 52.04
33.85 33.44 33.22 33.59 34.03 34.49 33.87 33.24 33.42 33.20 34.05 35.02 35.44 35.18 35.25 35.44 35.14 34.64 33.77 34.02 34.50 35.27 35.59 36.06 37.11 38.18 39.16 39.98 40.87 41.84 43.49 45.52 48.48 54.63 55.09 57.41 58.62 58.69 58.68 58.85 58.71 57.77 55.73
31.71 31.35 31.93 32.75 33.59 33.50 32.87 32.39 32.83 32.72 33.40 34.06 34.66 34.67 34.47 34.89 34.69 34.38 33.86 33.89 34.30 34.31 34.40 35.15 35.75 36.02 36.41 37.79 37.90 38.65 40.48 41.35 44.02 53.15 54.91 57.28 58.61 58.25 58.31 58.40 58.57 57.74 56.86
30.52 30.21 30.61 31.01 31.59 31.04 31.71 31.32 32.25 32.28 32.82 33.56 33.19 33.11 33.61 33.82 32.96 32.19 32.01 32.12 32.13 33.33 33.25 34.23 34.66 34.66 35.04 35.46 35.50 36.26 37.57 39.57 41.89 45.62 53.44 55.41 57.77 57.69 57.84 57.89 57.32 57.54 58.26
28.69 27.96 29.07 29.68 30.39 30.70 30.95 31.17 31.62 31.65 32.39 32.98 32.16 31.68 31.72 31.62 31.38 31.61 30.77 30.60 31.12 31.58 32.20 33.06 33.38 33.92 34.28 34.03 34.43 36.10 37.34 38.45 41.24 43.64 47.75 55.51 56.90 56.82 56.79 57.07 57.03 57.41 57.30
29.01 27.77 28.80 29.43 30.07 30.53 30.46 30.50 31.16 31.50 31.54 31.76 30.75 30.08 30.33 30.20 30.55 30.62 30.22 29.99 29.91 29.35 29.69 31.02 32.30 33.77 33.64 33.55 33.22 34.66 34.82 35.25 36.47 38.64 39.68 41.43 39.84 42.33 52.30 56.84 57.43 57.45 57.06
27.34 26.98 27.64 28.73 29.15 29.36 29.59 30.22 29.54 29.44 29.45 28.68 28.03 27.32 28.65 28.53 28.68 28.51 27.89 28.29 27.84 27.92 28.28 28.95 30.23 31.99 32.35 33.01 32.12 32.27 32.44 32.26 32.78 33.78 35.11 37.45 37.76 37.69 37.95 45.89 56.77 57.46 57.12
27.18 27.14 28.09 28.37 28.73 29.48 29.56 29.56 28.72 28.33 28.51 27.26 26.69 26.57 26.46 26.03 25.49 25.75 25.68 25.07 25.01 25.78 26.75 27.37 28.07 29.22 31.24 33.31 32.89 31.74 30.69 30.54 30.23 30.17 31.33 33.54 34.72 34.89 36.93 37.89 40.19 43.16 56.36
26.92 27.16 27.52 28.19 29.34 30.06 30.38 29.73 29.07 29.41 28.12 27.46 27.10 26.10 25.70 24.57 23.97 23.69 23.24 22.87 22.83 23.72 25.28 26.02 26.54 27.05 29.45 32.07 32.00 31.49 30.16 29.29 28.60 28.89 29.46 30.49 31.75 32.51 34.48 36.51 35.02 34.45 34.17
26.24 27.29 27.62 27.95 28.72 28.91 30.78 30.43 29.99 28.85 27.60 26.64 26.28 25.94 24.98 23.76 22.91 22.18 21.09 20.99 21.08 21.23 23.36 24.49 24.83 25.21 27.64 30.89 30.46 29.64 28.48 28.25 28.20 27.97 29.11 28.77 29.72 30.94 31.97 34.38 33.87 32.36 32.42
27.06 27.30 27.56 26.68 25.34 26.56 28.85 29.18 29.03 29.11 26.73 25.93 25.18 25.59 24.54 22.13 21.38 19.63 18.86 20.14 19.74 20.43 21.41 24.54 23.81 23.67 24.18 28.97 29.33 26.64 26.19 25.75 26.16 27.36 27.94 28.96 28.55 31.60 31.81 29.66 30.70 30.91 30.19
24.91 24.05 23.68 24.21 25.24 26.56 28.03 26.95 25.88 26.66 25.68 25.17 24.99 25.32 25.00 22.26 20.40 20.01 19.69 20.52 14.81 19.62 21.19 21.09 23.34 25.26 23.36 27.72 27.97 26.47 24.47 23.01 24.21 25.16 25.78 28.60 29.13 30.68 30.74 27.22 26.67 25.68 25.72
24.44 24.76 24.19 22.58 24.06 25.98 24.60 21.25 22.95 23.72 25.54 26.84 25.80 24.94 24.65 23.57 22.07 20.02 19.79 19.93 18.32 19.63 19.37 18.92 19.73 21.71 23.83 23.43 26.82 26.92 22.87 21.76 22.36 22.35 22.83 25.18 28.14 28.93 29.60 29.04 26.91 26.52 27.49
23.41 23.29 22.03 22.43 23.78 24.18 25.31 22.82 20.39 21.41 25.15 25.04 25.39 24.25 23.77 24.50 23.12 19.70 20.37 20.86 21.32 19.48 17.43 17.57 17.49 19.01 20.82 24.52 24.62 25.46 24.64 23.34 20.62 20.58 22.04 23.52 25.91 26.53 27.41 26.75 27.58 27.61 26.56
21.82 22.78 21.56 21.78 21.98 22.44 22.65 22.11 24.49 26.44 26.19 25.06 23.13 23.46 24.19 24.36 21.86 19.95 18.63 19.31 19.78 19.18 16.92 16.01 15.86 16.50 18.71 20.54 23.38 23.35 23.25 21.79 18.31 20.30 21.43 22.64 23.08 23.19 22.55 24.71 25.25 24.08 23.99
18.98 20.15 20.25 20.30 20.08 21.61 22.67 22.98 24.11 24.84 25.11 23.66 23.22 23.16 22.83 22.28 21.53 20.98 20.27 18.99 18.34 18.09 17.11 15.08 14.57 15.25 16.20 17.63 19.21 19.46 19.02 18.99 17.21 17.00 17.03 17.06 19.47 18.07 18.65 19.61 20.55 21.15 21.77
16.18 19.72 19.52 19.15 18.74 19.86 20.32 20.71 22.70 23.71 22.98 22.11 22.17 21.66 21.50 21.18 20.02 18.89 19.29 18.97 19.48 19.88 17.30 15.79 14.97 14.69 14.00 16.40 19.52 18.75 17.09 16.17 15.48 13.47 13.32 12.30 12.75 13.15 14.06 15.17 16.22 17.60 17.97
16.43 16.41 17.13 16.82 16.72 17.89 17.47 18.60 21.39 23.02 21.80 20.52 20.40 20.33 19.94 19.20 18.81 17.77 16.51 21.52 21.80 22.05 21.82 21.75 19.61 15.70 20.11 20.08 19.55 18.96 18.47 17.79 16.36 10.45 8.29 7.93 8.85 9.80 10.59 10.93 11.71 13.30 13.58

GFSMW_sfc_wetblb_123.txt.gz
Wetbulb
42.99 43.55 43.44 43.59 43.30 43.40 42.89 42.37 41.62 42.46 43.25 45.17 45.78 48.22 48.55 50.10 49.15 49.60 50.23 50.54 51.49 52.38 53.31 53.50 54.35 55.64 56.38 57.74 58.89 59.80 62.40 64.67 65.85 63.97 63.27 62.96 64.79 64.87 65.25 66.67 67.07 67.02 66.88
40.98 40.90 40.51 40.86 41.72 42.09 42.21 41.90 40.80 40.96 41.62 43.49 45.12 45.41 45.91 48.37 48.16 47.67 48.42 48.85 49.86 51.07 51.40 52.11 52.40 52.66 53.44 55.14 56.49 57.60 58.98 63.77 64.24 61.65 61.87 57.87 60.89 63.15 63.87 65.89 65.69 66.12 67.20
38.46 38.64 38.67 38.54 38.63 39.01 39.69 40.04 39.58 39.68 40.07 41.97 44.05 44.62 45.65 45.60 45.92 45.99 46.59 47.01 48.12 48.77 50.00 50.24 50.28 50.62 51.10 50.69 51.45 54.76 57.08 58.10 62.62 64.49 60.90 56.03 55.02 60.48 62.37 63.16 64.68 66.05 66.28
38.00 38.43 38.42 38.50 38.72 38.69 40.15 40.52 39.39 38.67 39.63 40.42 40.69 41.67 39.15 39.01 41.89 43.02 44.65 45.47 46.67 47.26 47.14 47.99 48.54 49.32 50.17 50.63 51.31 52.64 52.84 55.22 56.98 60.95 63.91 65.24 61.60 58.45 57.53 61.61 63.93 65.55 64.07
38.42 37.79 39.02 39.18 39.46 39.17 39.85 38.21 40.36 38.78 38.90 39.37 40.84 39.33 38.02 38.95 40.34 41.85 42.19 42.84 44.34 44.71 44.59 45.26 45.67 46.11 47.11 48.44 49.37 51.13 52.32 53.64 53.26 56.41 59.60 61.86 62.80 61.96 57.59 56.99 59.58 62.73 63.74
37.85 37.85 38.13 38.41 38.01 38.19 37.42 39.25 38.07 37.89 38.01 38.37 38.88 37.78 37.21 37.43 37.52 38.39 38.46 39.10 40.88 41.70 42.06 42.64 43.38 43.68 44.66 45.34 46.61 48.04 49.32 51.79 53.52 53.96 55.94 56.77 59.59 59.09 58.33 56.42 58.34 59.22 62.47
36.90 36.48 35.83 36.22 36.84 36.91 36.90 36.98 36.06 35.52 37.00 38.27 37.57 37.34 37.25 37.19 36.68 35.83 36.36 37.06 37.52 38.33 39.40 40.11 40.58 41.49 42.72 43.71 45.34 46.36 47.58 49.47 50.67 52.52 53.76 55.21 56.93 61.15 58.99 59.19 59.15 59.61 61.73
35.95 35.12 35.44 35.35 35.51 35.55 35.94 36.32 36.03 36.23 36.67 37.29 36.63 37.19 37.43 36.83 36.18 36.08 35.90 36.04 36.13 36.92 38.44 38.51 39.26 39.71 40.97 42.16 43.12 44.58 46.41 48.32 49.83 51.28 53.02 54.33 56.65 58.67 60.92 58.20 57.47 57.56 59.44
35.00 35.14 34.96 34.84 35.01 35.10 34.81 34.71 34.76 34.94 35.38 36.01 36.32 36.04 36.16 36.36 35.67 35.75 35.82 35.91 36.38 36.58 36.95 37.27 37.77 38.47 39.15 39.74 41.11 41.67 43.55 44.59 45.34 48.11 49.37 53.41 55.08 58.85 58.69 61.43 59.11 56.64 54.54
33.55 33.69 34.33 34.31 35.03 34.76 34.80 34.56 34.66 34.28 34.67 35.28 35.17 35.41 35.50 35.41 35.11 34.74 33.61 34.20 34.64 35.07 35.38 36.09 36.69 37.34 37.69 37.94 38.30 39.11 40.59 41.66 43.54 44.72 46.31 50.49 54.96 57.39 58.07 60.34 60.80 58.49 56.56
33.31 32.88 33.81 34.36 34.86 34.53 33.73 33.75 33.88 33.99 33.87 34.61 34.81 33.91 33.49 34.11 34.23 33.10 33.08 33.13 34.01 33.94 33.94 34.83 35.64 35.91 36.14 36.76 36.62 37.61 39.66 39.74 41.74 44.29 45.69 47.98 52.83 55.85 57.65 58.72 58.62 58.12 57.46
32.65 32.12 32.83 33.26 33.01 32.39 33.02 32.84 33.00 32.98 33.26 33.90 33.53 33.14 33.37 33.51 32.46 32.22 32.29 32.25 31.82 32.75 32.44 33.65 34.44 34.99 35.35 35.88 35.31 36.39 37.03 37.23 37.98 40.03 41.10 43.28 43.48 49.70 57.65 58.18 57.88 57.72 57.74
31.20 31.31 31.74 31.37 31.50 31.80 32.06 32.08 32.24 32.34 32.87 32.78 32.13 31.81 31.85 31.59 31.53 31.50 31.64 31.65 31.28 31.15 31.28 32.10 32.73 33.90 33.91 34.23 34.54 34.64 34.31 34.89 35.56 35.61 37.21 38.11 38.33 37.62 39.47 42.00 55.73 58.43 57.71
30.59 30.47 30.31 30.77 30.93 31.17 31.09 30.78 30.83 31.61 31.55 31.15 30.17 29.13 29.93 30.06 30.57 31.24 30.62 30.64 30.61 30.28 30.10 30.66 31.47 32.82 32.98 33.48 33.62 33.91 33.44 33.89 33.64 34.09 34.71 34.52 34.57 34.48 35.37 39.00 42.49 47.96 56.60
28.88 29.43 29.30 29.79 29.99 29.89 30.18 30.80 30.73 30.86 31.03 29.74 28.75 28.27 29.17 29.00 29.32 29.20 29.61 29.71 29.70 29.64 29.63 29.36 29.88 31.33 31.64 32.17 32.61 32.47 32.57 32.07 32.05 33.23 32.70 33.28 33.91 34.42 34.53 37.37 38.06 38.80 42.53
28.41 28.78 28.85 28.85 29.62 29.87 29.68 30.27 30.40 30.50 30.48 28.90 28.00 28.02 27.88 27.41 27.13 27.64 27.98 28.14 28.07 28.32 28.22 27.77 27.92 29.26 30.24 31.41 31.08 31.43 31.09 31.29 30.63 30.68 30.96 32.11 32.36 32.46 32.93 35.12 35.65 34.64 33.74
28.62 28.18 28.39 29.31 29.69 30.51 30.83 29.85 30.01 30.31 29.19 28.13 27.37 27.09 26.60 26.00 25.86 26.40 26.55 26.02 26.09 26.40 26.47 26.56 26.95 27.56 29.53 29.83 29.77 29.66 30.47 29.76 29.58 29.09 29.78 29.70 30.83 31.23 31.20 31.49 33.26 33.82 32.60
28.14 28.63 28.83 29.00 29.79 31.08 31.63 31.91 30.33 29.11 28.25 27.49 26.57 26.30 25.84 25.20 25.59 24.94 24.48 24.80 25.99 25.10 24.91 25.41 25.75 26.56 28.53 28.58 28.10 27.96 29.74 29.89 28.95 28.35 29.51 29.76 30.41 30.65 29.95 29.04 28.82 29.57 29.65
29.10 28.79 28.84 28.85 29.13 29.27 30.64 30.45 29.61 27.81 27.00 26.12 25.68 25.48 24.84 23.46 23.69 22.87 24.01 24.75 24.44 24.31 24.52 24.23 24.27 25.19 25.87 27.47 27.31 26.30 27.54 27.47 27.66 28.03 28.05 28.46 29.24 29.75 30.42 28.68 26.99 26.98 27.49
28.05 27.10 26.60 27.23 27.35 27.50 28.87 27.84 27.26 27.00 25.38 25.79 25.74 26.17 25.39 23.52 22.23 23.45 24.21 25.19 24.34 23.48 24.04 22.88 23.25 23.60 24.82 25.79 26.14 26.00 25.74 23.50 25.18 25.81 26.59 26.42 26.51 27.81 28.05 27.04 26.27 25.52 25.83
26.56 27.36 26.74 24.87 25.37 26.90 26.61 25.35 25.96 25.11 27.02 27.39 26.88 26.03 25.88 24.10 23.60 24.00 24.56 24.57 23.21 21.83 21.54 21.43 22.37 22.10 23.12 23.97 24.88 24.47 23.68 22.49 22.52 22.89 23.48 25.23 24.99 25.46 26.24 26.06 24.96 24.75 27.09
26.11 26.31 25.48 25.41 27.02 28.10 27.24 25.20 24.55 26.85 27.34 27.14 26.41 25.71 24.57 24.46 24.18 22.79 23.60 23.36 22.43 20.77 20.24 20.53 20.81 22.51 22.90 22.66 22.62 22.86 21.67 20.78 20.82 20.39 21.55 22.62 22.37 22.87 23.25 23.13 23.69 23.67 23.88
25.22 25.83 25.39 25.01 25.66 26.38 27.11 25.76 26.41 27.67 27.07 26.36 25.04 24.99 24.32 23.92 23.88 22.71 22.48 22.34 22.09 20.52 19.33 19.53 19.03 20.08 22.24 22.61 21.26 21.13 20.43 18.88 17.85 19.58 18.88 19.17 19.62 19.65 19.90 20.68 21.12 20.00 20.60
24.35 24.85 24.50 23.71 23.55 25.23 25.34 25.83 26.65 27.25 26.36 24.72 24.29 24.56 23.77 22.55 22.94 23.39 22.71 22.14 21.30 20.62 19.09 18.02 18.44 18.65 19.23 20.60 20.94 20.88 20.28 17.23 16.46 16.24 16.84 16.21 17.14 15.87 16.24 17.06 18.13 17.80 17.69
23.33 23.81 23.19 22.83 22.22 23.60 23.85 25.17 26.06 26.05 24.58 23.96 23.75 23.32 22.95 22.00 21.38 21.58 21.81 21.31 21.87 21.23 19.98 19.33 18.74 18.14 17.57 18.89 19.34 18.98 18.26 17.37 15.12 15.17 15.08 14.13 14.19 13.61 13.70 14.09 14.37 15.68 15.83
22.43 21.92 21.59 21.49 21.44 22.01 22.07 23.43 25.41 25.16 24.09 22.78 22.31 21.88 21.56 21.28 20.75 20.09 19.43 20.93 21.02 21.20 21.01 21.17 20.62 20.05 19.88 19.16 18.49 17.58 17.37 16.35 15.31 13.41 12.05 11.48 11.46 11.24 11.30 10.82 11.57 13.02 12.60

GFSMW_sfc_wetblb_126.txt.gz
Wetbulb
46.82 47.18 46.89 47.76 48.75 48.91 48.21 46.78 45.12 44.11 44.27 47.53 47.09 48.69 49.53 54.73 54.59 54.37 54.42 54.56 55.15 56.08 57.02 57.90 58.74 59.52 59.56 61.07 62.39 63.08 64.08 66.02 67.58 64.47 64.15 65.38 67.71 65.40 64.82 64.26 62.97 65.77 68.61
45.21 45.40 46.39 46.98 46.70 46.86 46.97 45.87 44.32 43.89 43.53 43.89 44.51 48.14 49.22 52.43 53.26 52.78 53.27 53.17 53.12 53.62 53.48 52.51 52.85 52.94 54.20 56.55 58.51 60.01 60.47 62.08 65.80 63.43 62.21 58.95 60.74 64.20 62.64 62.71 62.66 63.95 66.40
43.01 44.24 44.24 45.53 46.86 46.58 47.07 46.80 45.93 43.90 43.75 44.19 44.62 46.09 48.71 49.49 48.86 50.02 50.48 50.56 51.12 50.33 48.72 49.13 49.72 50.47 51.19 51.92 52.26 53.28 54.97 57.72 61.16 64.51 63.77 59.26 57.76 61.47 62.56 61.50 63.27 64.98 66.43
42.94 42.51 44.51 43.35 45.13 44.88 45.02 46.33 44.65 46.20 45.30 46.02 44.65 45.67 46.79 46.61 46.74 48.02 48.02 48.11 48.95 47.12 46.63 46.76 47.64 48.44 48.87 49.78 50.23 52.13 52.80 53.31 53.84 59.75 62.92 65.50 64.24 59.75 58.30 63.94 64.86 66.01 66.44
41.88 41.71 41.33 41.18 41.36 41.52 41.26 42.42 44.70 44.15 43.93 44.09 42.69 43.12 43.35 44.61 46.64 46.40 45.66 45.75 45.73 46.13 45.38 45.08 45.28 45.96 46.44 47.19 47.61 47.75 48.63 50.62 52.45 53.61 56.71 59.17 62.96 63.40 61.74 58.73 62.12 64.87 65.97
40.76 40.29 40.36 40.75 41.11 43.07 43.62 42.99 42.50 42.30 42.98 40.81 41.88 42.22 41.26 40.73 41.31 41.75 41.43 42.46 42.41 42.93 43.44 43.21 43.91 44.59 44.58 44.85 45.63 46.70 47.19 48.43 50.17 51.82 53.81 54.15 55.28 59.42 60.39 60.06 60.73 61.14 64.09
39.29 38.36 39.23 40.89 41.90 41.46 42.13 42.59 42.87 42.06 42.01 40.77 39.57 39.74 38.90 40.05 39.61 38.94 38.19 38.67 38.33 39.05 40.60 41.15 41.77 42.03 42.54 43.58 44.28 44.83 46.41 47.82 48.32 49.76 51.24 53.19 54.61 55.61 57.50 58.10 60.01 60.08 61.63
38.31 39.05 38.96 39.54 38.91 39.74 39.22 39.86 40.49 40.35 41.02 40.22 39.76 40.20 39.02 38.78 38.49 37.95 37.32 37.36 37.78 37.93 39.27 39.58 40.15 40.86 41.63 42.13 42.58 43.19 45.13 47.38 47.48 47.43 47.66 50.61 52.86 54.62 56.37 57.36 58.22 57.95 59.45
38.81 38.07 39.07 37.99 38.01 39.30 37.46 37.21 37.95 38.39 38.89 39.03 38.29 38.28 37.42 37.68 36.71 37.62 37.65 36.54 37.02 37.27 37.92 38.18 38.45 39.05 39.64 40.28 40.64 41.01 42.43 43.34 45.07 46.28 46.60 47.06 49.29 51.49 54.59 55.27 59.51 58.35 56.08
38.08 38.42 40.20 38.33 37.86 37.74 37.08 37.24 36.86 36.47 37.01 37.47 37.37 37.04 36.49 36.47 36.86 37.21 36.09 36.03 36.21 36.24 36.00 36.39 37.25 37.05 38.08 38.31 38.94 39.22 40.68 40.63 42.03 43.31 44.60 45.82 47.44 47.96 51.51 55.09 57.42 60.60 59.13
39.41 39.25 39.95 39.69 38.09 37.75 36.91 36.15 36.06 36.00 36.05 36.44 36.74 36.61 36.18 36.37 36.16 35.72 35.02 35.55 36.15 35.58 35.04 35.40 35.93 35.77 36.29 36.95 37.31 37.14 37.29 37.24 38.06 39.00 39.92 42.14 41.45 42.48 44.10 50.79 56.76 59.33 57.60
38.76 38.55 38.66 38.04 36.67 35.51 35.64 35.74 35.47 35.52 35.75 35.92 35.90 35.50 35.27 35.64 35.63 35.17 34.84 35.13 34.94 35.77 34.81 35.13 35.12 35.65 35.54 35.74 35.24 35.01 35.28 34.79 34.40 35.03 36.55 35.92 36.96 37.15 38.83 40.10 43.23 47.70 58.16
37.61 38.12 37.59 36.49 35.00 34.39 34.61 34.71 35.01 35.05 35.70 35.68 35.33 35.40 35.37 35.11 34.60 34.81 34.77 34.54 35.11 34.91 33.94 34.26 34.03 34.33 34.80 34.74 35.16 34.81 34.51 34.41 34.36 34.16 34.23 34.05 34.33 34.31 35.80 37.53 40.83 43.19 45.98
37.11 37.61 36.09 34.43 33.73 33.57 33.75 34.38 35.26 36.19 36.20 35.14 34.66 34.40 34.42 34.24 33.99 34.37 34.39 34.47 34.37 33.99 33.62 33.61 33.83 34.31 33.88 33.02 33.68 34.99 34.61 34.13 34.12 34.24 33.93 33.57 33.10 33.58 33.65 36.68 37.23 38.27 39.86
35.76 35.82 34.94 33.15 32.84 32.51 33.50 34.22 34.86 35.70 35.70 34.31 33.05 32.87 33.22 33.28 33.35 33.01 33.21 33.64 34.15 33.88 34.05 33.92 34.41 34.54 32.99 31.47 31.79 34.46 34.49 33.73 32.45 33.49 33.19 33.71 33.31 33.63 33.16 33.62 34.57 33.60 34.01
34.52 34.40 33.83 32.38 31.94 32.04 33.18 33.52 33.94 34.19 34.22 32.44 31.77 32.04 32.01 31.95 31.29 32.10 32.52 32.51 32.24 31.96 32.03 31.91 32.58 32.52 31.49 28.99 29.93 31.94 32.72 31.80 30.81 30.49 31.68 32.20 32.22 31.92 32.71 32.23 32.25 31.82 30.89
33.91 33.06 32.00 31.98 31.98 32.07 33.28 33.31 33.72 34.19 32.84 31.53 30.83 30.53 30.19 29.68 29.46 30.09 30.14 30.18 30.10 30.47 29.04 29.53 30.44 29.96 30.11 28.33 28.57 29.88 31.06 30.44 29.74 29.49 29.38 29.92 31.05 31.18 32.27 32.60 31.54 30.91 30.63
33.49 32.40 32.05 31.95 32.20 32.80 32.80 33.54 33.86 32.89 31.72 30.36 29.02 29.23 28.84 28.13 28.39 28.39 27.60 28.20 29.08 27.95 27.55 26.88 27.81 28.69 28.59 26.84 27.05 28.68 31.22 31.05 29.30 28.81 29.04 29.00 29.24 29.40 30.26 31.01 30.61 31.70 30.26
32.84 32.66 32.56 31.79 31.79 31.93 32.82 32.09 31.27 30.93 30.39 28.42 27.88 27.55 27.32 26.20 26.60 26.40 26.96 27.60 27.86 27.61 26.91 26.63 25.57 25.76 25.97 25.90 25.55 27.52 30.84 30.38 28.64 28.91 28.53 27.22 27.38 27.05 28.13 27.96 28.31 29.47 30.30
31.66 30.66 31.14 31.27 30.31 31.37 32.30 31.09 29.72 29.25 27.40 27.79 28.14 28.40 27.19 25.86 25.27 26.85 26.67 27.17 27.68 27.00 27.51 26.42 25.67 24.54 24.65 24.52 24.65 25.74 26.72 26.76 27.15 27.17 27.17 24.16 24.56 24.79 25.41 26.13 25.89 24.26 26.85
30.49 30.46 30.11 28.34 28.59 30.44 30.41 28.39 28.59 27.41 28.76 29.11 28.16 27.27 27.88 26.29 26.74 27.14 27.53 26.88 26.33 26.30 25.67 26.10 26.02 25.07 24.55 24.52 23.90 23.13 23.67 24.65 24.49 24.34 24.03 24.42 22.42 22.88 23.57 23.71 24.14 22.84 26.65
28.74 29.25 28.69 28.73 31.04 31.73 30.28 27.30 26.48 28.44 29.16 28.95 27.59 26.32 26.65 27.17 27.22 26.53 27.18 26.85 26.40 25.29 25.15 25.15 25.60 26.03 25.30 23.47 23.15 22.47 21.15 21.08 22.57 21.19 21.96 22.51 20.88 21.48 21.39 22.47 21.99 22.64 24.28
28.33 29.67 29.85 30.25 31.43 31.90 31.86 29.15 29.44 29.65 28.93 27.79 25.89 26.12 26.24 26.58 27.07 26.56 26.45 26.83 26.68 25.30 24.25 24.36 23.76 23.90 24.36 24.36 22.47 21.80 21.04 19.69 20.93 21.40 19.69 19.90 20.08 20.16 20.34 19.98 20.36 20.67 22.90
29.31 31.10 30.79 29.97 29.23 30.39 30.33 30.63 30.28 30.74 29.59 28.23 27.66 27.58 25.84 25.81 26.91 27.28 26.34 25.14 24.45 24.31 23.79 22.70 22.26 22.52 22.04 21.60 21.93 22.08 22.06 19.89 20.16 20.17 20.72 19.18 19.60 18.37 19.05 20.44 21.06 21.35 21.30
29.25 30.59 30.20 29.29 28.65 29.64 29.47 29.95 29.92 29.97 28.02 27.60 26.98 26.64 26.21 25.58 24.77 23.98 23.92 24.22 23.24 22.20 22.17 22.08 22.20 20.29 18.95 19.35 19.78 19.49 19.36 19.15 18.99 19.88 19.99 19.29 19.23 18.79 18.55 18.84 19.01 19.39 19.52
28.32 27.91 27.86 27.65 27.81 28.47 28.36 28.93 29.46 29.14 28.02 26.52 26.34 25.82 25.95 25.52 25.19 24.88 22.82 20.44 20.81 20.73 20.45 20.70 20.90 22.22 19.39 18.80 18.41 18.19 18.44 18.59 18.79 19.33 17.49 16.71 16.79 16.14 16.14 16.13 16.56 17.94 16.52